<<back to data home page
Ready for Summer and Hot Weather?? Stay in touch!! - DONATE ANY AMOUNT BY CLICKING THIS LINK!!!


    Month/Day/Year       Maximum   Minimum    Rel    Dew       Rainfall  Seasonal  Soil     Soil      Baro       Wind    Wind        Peak    Peak Gust  Evap     Leaf     Net
    and                  Air Temp  Air Temp   Hum    Point     Inches    Rainfall  Temp     Moisture  Pressure   Speed   Direction   Gust    Direction  Pan      Wetness  Radiation
    Local Time           Deg F     Deg F      %      Deg F               Inches    Deg F    dS/m      mbar       MPH     comp  deg   MPH     comp  deg  Inches   mV       W_m2
----------------------------------------------------------------------------------------------------------------------------------------------------------------------------------
   08/19/2018 19:40      81.5      80.4       53     62.4      0.00      0.00      87.2     0.50      1011.3     2.2     SSW   197   4.5       S   187   9.06    265      -73.6
   08/19/2018 19:30      82.6      81.3       52     62.7      0.00      0.00      87.3     0.50      1011.2     3.2       S   184   5.8       S   186   9.06    265      -70.5
   08/19/2018 19:20      85.0      82.4       50     62.8      0.00      0.00      87.1     0.50      1011.1     3.2     SSW   192   5.9     SSW   209   9.07    264      -67.3
   08/19/2018 19:10      85.8      84.6       47     62.8      0.00      0.00      87.2     0.50      1011.0     1.2      SE   141   5.0       S   191   9.07    264      -56.0
   08/19/2018 19:00      86.4      85.5       46     62.5      0.00      0.00      87.1     0.50      1010.9     1.7     ENE    65   3.1      NE    46   9.08    264      -39.5
   08/19/2018 18:50      87.0      86.0       45     62.5      0.00      0.00      87.1     0.50      1010.8     1.8     NNE    27   3.8      NW   326   9.08    264      -21.5
   08/19/2018 18:40      87.4      86.6       45     62.7      0.00      0.00      87.0     0.50      1010.8     2.1      NE    41   4.0      NE    55   9.08    264        0.2
   08/19/2018 18:30      88.9      86.9       43     62.9      0.00      0.00      87.1     0.50      1010.8     2.6      NE    40   5.5     ENE    57   9.09    264       21.4
   08/19/2018 18:20      90.0      88.6       42     63.4      0.00      0.00      86.9     0.50      1010.7     2.5     NNE    31   5.0     NNE    29   9.09    264       43.5
   08/19/2018 18:10      90.1      89.4       42     63.5      0.00      0.00      86.9     0.50      1010.6     2.4      NE    34   4.7     ENE    58   9.10    264       67.8
   08/19/2018 18:00      91.0      89.8       41     63.6      0.00      0.00      86.9     0.50      1010.6     2.8     NNE    29   5.5      NW   324   9.10    264       91.1
   08/19/2018 17:50      92.3      90.6       41     63.9      0.00      0.00      86.7     0.50      1010.7     3.2     NNE    19   7.1     NNW   347   9.10    263      115.3
   08/19/2018 17:40      92.2      91.3       40     64.1      0.00      0.00      86.7     0.50      1010.6     2.9     NNE    18   7.6       W   266   9.11    263      140.6
   08/19/2018 17:30      92.8      90.3       41     63.8      0.00      0.00      86.8     0.50      1010.6     4.5      NE    53  10.4      NE    38   9.11    264      168.9
   08/19/2018 17:20      92.7      91.2       40     64.1      0.00      0.00      86.7     0.50      1010.6     4.9     NNW   336   8.6     SSW   206   9.11    263      195.4
   08/19/2018 17:10      92.3      91.4       40     64.2      0.00      0.00      86.6     0.50      1010.6     6.0     SSW   206  11.4     WSW   253   9.12    263      219.8
   08/19/2018 17:00      91.8      90.6       41     64.3      0.00      0.00      86.6     0.50      1010.7     4.6       S   172   8.6       S   181   9.12    263      243.8
   08/19/2018 16:50      92.1      91.1       40     64.0      0.00      0.00      86.5     0.50      1010.8     4.4     SSE   161   8.7       S   186   9.13    263      267.5
   08/19/2018 16:40      92.6      91.6       40     64.1      0.00      0.00      86.5     0.50      1011.0     4.4       S   182   7.4     SSW   198   9.13    263      286.5
   08/19/2018 16:30      92.4      91.5       40     64.3      0.00      0.00      86.4     0.50      1011.0     3.4     SSE   151   6.7     SSE   153   9.14    263      309.8
   08/19/2018 16:20      91.9      91.1       41     64.4      0.00      0.00      86.4     0.50      1011.1     3.5     SSE   149   6.2     SSE   164   9.14    263      331.1
   08/19/2018 16:10      92.3      90.8       41     64.2      0.00      0.00      86.3     0.50      1011.2     4.2       S   176   9.6       S   183   9.15    264      351.6
   08/19/2018 16:00      92.1      90.7       41     64.2      0.00      0.00      86.2     0.50      1011.3     4.0     SSE   156   7.7     SSE   162   9.15    263      369.7
   08/19/2018 15:50      92.6      91.6       40     64.2      0.00      0.00      86.2     0.50      1011.3     5.1     SSE   156   7.9      SE   133   9.16    263      390.0
   08/19/2018 15:40      92.2      91.3       40     64.2      0.00      0.00      86.1     0.50      1011.4     4.8       S   176   8.0     SSW   199   9.16    264      406.8
   08/19/2018 15:30      93.4      91.3       39     64.1      0.00      0.00      86.1     0.50      1011.5     4.8       S   174   9.1     SSW   209   9.17    263      423.7
   08/19/2018 15:20      93.7      92.4       39     64.1      0.00      0.00      85.9     0.50      1011.6     3.5     SSE   160   8.3     SSE   165   9.17    263      434.8
   08/19/2018 15:10      94.0      93.0       38     64.2      0.00      0.00      85.9     0.50      1011.7     3.9       S   172   8.3     SSE   163   9.18    263      447.6
   08/19/2018 15:00      95.9      93.0       38     64.6      0.00      0.00      85.9     0.50      1011.8     3.2      SE   128   7.0      SE   141   9.18    263      461.3
   08/19/2018 14:50      95.5      94.6       37     64.8      0.00      0.00      85.8     0.50      1011.8     2.8     ENE    75   6.5       E    82   9.18    264      472.5
   08/19/2018 14:40      94.5      93.6       38     64.8      0.00      0.00      85.8     0.50      1011.9     3.7     ENE    60   6.2      NE    54   9.19    263      487.0
   08/19/2018 14:30      94.9      94.0       38     64.7      0.00      0.00      85.8     0.50      1012.0     4.2     ENE    74   8.7       E    95   9.19    263      495.2
   08/19/2018 14:20      96.4      94.8       36     64.5      0.00      0.00      85.6     0.50      1012.1     3.5      NE    55   6.3     ENE    61   9.19    263      500.1
   08/19/2018 14:10      96.2      95.2       35     63.3      0.00      0.00      85.6     0.50      1012.1     3.1      NE    50   6.2      NE    50   9.20    263      507.6
   08/19/2018 14:00      96.3      95.1       34     62.8      0.00      0.00      85.5     0.50      1012.2     2.6      NE    47   5.7      NE    47   9.20    263      517.8
   08/19/2018 13:50      96.3      94.8       34     62.5      0.00      0.00      85.5     0.49      1012.4     3.0     ESE   107   5.6     SSE   149   9.20    263      526.7
   08/19/2018 13:40      96.4      95.3       33     62.3      0.00      0.00      85.5     0.49      1012.4     2.4       E    98   7.5       E    90   9.20    263      528.4
   08/19/2018 13:30      95.6      94.6       34     62.0      0.00      0.00      85.5     0.49      1012.6     1.7     NNE    19   3.8      NE    51   9.20    263      532.7
   08/19/2018 13:20      95.1      93.3       35     62.0      0.00      0.00      85.4     0.49      1012.7     1.6     WNW   298   3.0       N     8   9.21    263      536.4
   08/19/2018 13:10      94.2      91.3       36     62.1      0.00      0.00      85.4     0.49      1012.9     1.6       N    11   3.4     NNE    27   9.21    263      541.7
   08/19/2018 13:00      92.8      91.8       37     62.2      0.00      0.00      85.3     0.49      1013.0     2.6       E    82   5.3     ENE    66   9.21    263      543.5
   08/19/2018 12:50      92.8      91.2       38     62.3      0.00      0.00      85.3     0.49      1013.2     1.9       N    10   6.0      NW   316   9.21    263      543.9
   08/19/2018 12:40      91.2      90.1       39     62.3      0.00      0.00      85.3     0.49      1013.3     2.8     NNW   348   5.2     NNW   342   9.21    264      543.2
   08/19/2018 12:30      90.4      89.6       40     62.3      0.00      0.00      85.3     0.49      1013.5     2.5       N   349   5.0       N     7   9.21    263      539.8
   08/19/2018 12:20      89.9      88.0       41     62.2      0.00      0.00      85.3     0.49      1013.7     1.9     NNW   348   4.1     NNE    13   9.22    263      542.2
   08/19/2018 12:10      88.7      88.0       41     61.8      0.00      0.00      85.2     0.50      1013.8     2.0       N   350   4.1       N     4   9.22    263      535.9
   08/19/2018 12:00      88.8      87.9       42     62.4      0.00      0.00      85.2     0.50      1014.0     1.8     NNE    25   3.8       N   351   9.22    264      531.3
   08/19/2018 11:50      88.6      86.9       43     62.5      0.00      0.00      85.3     0.50      1014.1     1.5     NNE    28   3.7      NE    35   9.22    264      529.0
   08/19/2018 11:40      87.9      86.5       44     62.3      0.00      0.00      85.2     0.50      1014.3     1.6     NNE    27   4.2      NE    42   9.22    264      522.6
   08/19/2018 11:30      87.1      84.9       46     62.7      0.00      0.00      85.2     0.50      1014.5     1.3       E    98   3.3      SE   146   9.22    264      516.8
   08/19/2018 11:20      85.0      84.0       48     62.7      0.00      0.00      85.3     0.50      1014.6     2.5       N   350   4.5     WSW   252   9.22    264      507.9
   08/19/2018 11:10      84.7      83.4       49     62.9      0.00      0.00      85.2     0.50      1014.7     1.9     NNE    18   3.1     NNE    28   9.22    264      495.6
   08/19/2018 11:00      84.1      82.6       50     62.8      0.00      0.00      85.3     0.50      1014.8     2.6       N     0   5.6     NNE    18   9.22    264      485.9
   08/19/2018 10:50      83.1      82.3       51     62.6      0.00      0.00      85.3     0.50      1014.9     1.8       N     3   4.7     NNE    31   9.22    264      474.7
   08/19/2018 10:40      82.6      81.7       52     62.6      0.00      0.00      85.3     0.50      1015.0     1.9     NNE    23   5.7     ENE    59   9.22    264      460.0
   08/19/2018 10:30      81.8      80.8       53     62.6      0.00      0.00      85.3     0.50      1015.1     1.9     NNE    30   5.0       E    81   9.22    265      445.2
   08/19/2018 10:20      80.8      79.2       55     62.5      0.00      0.00      85.4     0.50      1015.1     1.4     ENE    58   3.7     ESE   113   9.22    265      429.5
   08/19/2018 10:10      79.5      78.8       57     62.3      0.00      0.00      85.4     0.50      1015.1     2.2     NNE    12   4.1     NNE    27   9.22    265      410.4
   08/19/2018 10:00      79.4      78.5       57     62.3      0.00      0.00      85.4     0.50      1015.2     1.6     NNE    16   4.7      NE    36   9.22    265      393.5
   08/19/2018 09:50      79.1      77.1       59     62.7      0.00      0.00      85.5     0.50      1015.3     1.6      NE    37   5.2      NE    47   9.22    265      376.1
   08/19/2018 09:40      77.2      76.4       62     62.6      0.00      0.00      85.5     0.50      1015.3     1.8       N   359   3.5      NE    35   9.22    266      355.8
   08/19/2018 09:30      76.8      76.3       63     62.7      0.00      0.00      85.5     0.50      1015.3     2.2      NE    35   4.0      NE    53   9.22    266      335.1
   08/19/2018 09:20      76.8      75.2       63     62.9      0.00      0.00      85.5     0.50      1015.4     1.1      NE    52   3.5     NNE    15   9.22    266      314.8
   08/19/2018 09:10      75.3      74.7       66     62.7      0.00      0.00      85.6     0.51      1015.5     1.8     NNE    32   3.2       E    92   9.22    266      292.5
   08/19/2018 09:00      74.7      73.5       68     62.8      0.00      0.00      85.7     0.51      1015.5     1.3      NE    41   3.6     NNE    34   9.22    266      269.8
   08/19/2018 08:50      73.8      72.5       70     62.6      0.00      0.00      85.7     0.51      1015.4     1.6      NE    36   3.4      NE    35   9.22    266      250.6
   08/19/2018 08:40      72.7      71.5       73     62.8      0.00      0.00      85.7     0.51      1015.4     0.9     NNE    27   2.4     ENE    59   9.22    266      224.8
   08/19/2018 08:30      71.8      71.0       74     62.7      0.00      0.00      85.7     0.51      1015.4     1.2       E    79   3.3       E    83   9.22    266      198.8
   08/19/2018 08:20      71.2      70.2       76     62.6      0.00      0.00      85.7     0.51      1015.5     0.7       E    82   2.2     NNE    22   9.22    267      156.4
   08/19/2018 08:10      70.3      69.6       77     62.5      0.00      0.00      85.8     0.51      1015.4     1.3     ESE   114   3.2       E   101   9.22    267       93.1
   08/19/2018 08:00      69.8      69.1       79     62.6      0.00      0.00      85.9     0.51      1015.4     1.3     ENE    65   3.6       E    96   9.23    268       23.0
   08/19/2018 07:50      69.2      68.4       80     62.5      0.00      0.00      85.9     0.51      1015.4     1.0      NE    43   3.1     ENE    63   9.22    269        2.7
   08/19/2018 07:40      68.6      68.0       81     62.4      0.00      0.00      86.0     0.51      1015.4     1.0     ESE   103   2.5     ESE   116   9.22    269        4.1
   08/19/2018 07:30      68.3      67.6       82     62.3      0.00      0.00      86.0     0.51      1015.5     1.5     ENE    71   3.0     ENE    56   9.23    268        0.7
   08/19/2018 07:20      67.8      67.1       83     62.0      0.00      0.00      86.0     0.51      1015.5     1.6     ENE    67   3.0      NE    48   9.22    267      -20.1
   08/19/2018 07:10      67.5      66.7       83     61.8      0.00      0.00      86.1     0.51      1015.4     1.4      NE    54   3.3      NE    56   9.22    266      -22.8
   08/19/2018 07:00      66.9      66.2       84     61.7      0.00      0.00      86.0     0.51      1015.3     0.3     ENE    78   1.5       E    79   9.22    265      -23.3
   08/19/2018 06:50      66.5      65.8       85     61.7      0.00      0.00      86.1     0.51      1015.4     0.4     ESE   102   2.0       E    86   9.23    260      -27.4
   08/19/2018 06:40      66.0      65.7       85     61.3      0.00      0.00      86.1     0.51      1015.3     0.1      SE   129   0.7      SE   129   9.23    261      -33.2
   08/19/2018 06:30      66.5      65.8       85     61.5      0.00      0.00      86.2     0.51      1015.1     0.0      SE   129   0.8      SE   129   9.23    264      -38.3
   08/19/2018 06:20      66.7      66.2       85     61.8      0.00      0.00      86.3     0.51      1015.1     0.0       N     0   0.0      SE   129   9.23    266      -41.8
   08/19/2018 06:10      66.8      66.2       85     61.8      0.00      0.00      86.3     0.51      1014.9     0.4      SE   127   1.2     ESE   121   9.23    266      -44.7
   08/19/2018 06:00      67.1      66.5       85     61.9      0.00      0.00      86.3     0.51      1014.8     0.0       N     0   0.0     ESE   113   9.23    266      -45.7
   08/19/2018 05:50      67.2      66.7       85     62.1      0.00      0.00      86.3     0.51      1014.8     0.4     ESE   107   1.7     ESE   101   9.23    264      -46.7
   08/19/2018 05:40      67.4      66.8       85     62.2      0.00      0.00      86.3     0.51      1014.7     0.3      SE   129   1.4     ENE    72   9.23    261      -47.2
   08/19/2018 05:30      67.3      66.8       85     62.3      0.00      0.00      86.4     0.51      1014.6     0.7      SE   132   2.8       E    97   9.23    261      -47.3
   08/19/2018 05:20      67.2      66.7       85     62.1      0.00      0.00      86.4     0.51      1014.5     0.1     ESE   119   1.2      SE   135   9.23    261      -47.6
   08/19/2018 05:10      67.3      66.7       84     62.1      0.00      0.00      86.4     0.51      1014.4     0.0       E   101   0.6      SE   135   9.23    261      -48.5
   08/19/2018 05:00      67.1      66.7       84     62.0      0.00      0.00      86.4     0.51      1014.4     0.0       N     0   0.0     ENE    77   9.23    261      -49.1
   08/19/2018 04:50      67.5      66.7       83     61.7      0.00      0.00      86.5     0.51      1014.4     0.0       N     0   0.0     ENE    77   9.23    260      -51.0
   08/19/2018 04:40      67.8      67.1       83     61.9      0.00      0.00      86.5     0.51      1014.4     0.0       N     0   0.0     ENE    77   9.23    261      -49.9
   08/19/2018 04:30      68.2      67.3       82     62.0      0.00      0.00      86.5     0.51      1014.4     0.0       N     0   0.0     ENE    77   9.23    266      -50.9
   08/19/2018 04:20      68.1      67.8       82     62.4      0.00      0.00      86.6     0.51      1014.5     0.1       E    86   1.1     ENE    77   9.23    265      -52.0
   08/19/2018 04:10      68.1      67.5       82     62.2      0.00      0.00      86.6     0.51      1014.5     0.8     ESE   120   1.6       E    88   9.23    263      -52.4
   08/19/2018 04:00      67.8      67.3       82     61.8      0.00      0.00      86.7     0.51      1014.4     0.0     ESE   124   0.5      SE   135   9.23    263      -52.7
   08/19/2018 03:50      68.0      67.3       82     61.8      0.00      0.00      86.8     0.51      1014.4     0.1       S   175   0.9       S   175   9.23    267      -53.5
   08/19/2018 03:40      68.1      67.7       81     61.8      0.00      0.00      86.7     0.51      1014.3     0.0       N     0   0.0       S   175   9.24    266      -53.3
   08/19/2018 03:30      68.4      67.9       81     62.0      0.00      0.00      86.8     0.51      1014.4     0.0       N     0   0.0       S   176   9.23    266      -53.9
   08/19/2018 03:20      68.7      68.1       80     61.9      0.00      0.00      86.8     0.51      1014.4     0.1       S   176   0.9       S   176   9.24    268      -53.4
   08/19/2018 03:10      69.1      68.3       79     62.0      0.00      0.00      86.8     0.51      1014.4     0.2       S   175   0.6       S   176   9.24    268      -53.7
   08/19/2018 03:00      69.3      68.8       79     62.3      0.00      0.00      86.9     0.51      1014.4     0.1       S   176   0.8       S   176   9.24    268      -53.5
   08/19/2018 02:50      69.5      69.0       79     62.3      0.00      0.00      86.9     0.51      1014.5     0.1       S   176   0.9       S   176   9.24    268      -54.2
   08/19/2018 02:40      69.6      69.0       78     62.0      0.00      0.00      86.9     0.51      1014.5     0.1       S   175   0.7       S   176   9.24    268      -55.5
   08/19/2018 02:30      70.0      69.3       77     62.0      0.00      0.00      86.9     0.51      1014.5     0.0     ESE   119   0.5     ESE   110   9.24    268      -56.2
   08/19/2018 02:20      70.1      69.7       77     62.2      0.00      0.00      87.0     0.51      1014.5     0.0     ESE   110   0.4     ESE   110   9.24    268      -56.6
   08/19/2018 02:10      70.6      69.8       76     62.2      0.00      0.00      87.0     0.51      1014.6     0.0     ESE   114   0.8     ESE   110   9.24    268      -56.9
   08/19/2018 02:00      70.7      70.2       76     62.5      0.00      0.00      87.0     0.51      1014.8     0.0     ESE   107   0.4     ESE   107   9.24    268      -56.5
   08/19/2018 01:50      71.1      70.4       75     62.3      0.00      0.00      87.0     0.51      1014.9     0.0     ESE   107   0.5     ESE   107   9.24    268      -55.9
   08/19/2018 01:40      71.3      70.9       75     62.6      0.00      0.00      87.1     0.51      1014.9     0.0     ESE   107   0.3     ESE   107   9.24    268      -56.4
   08/19/2018 01:30      71.4      71.0       75     62.7      0.00      0.00      87.1     0.51      1015.1     0.7     ESE   120   1.7       E   100   9.24    268      -56.6
   08/19/2018 01:20      71.8      71.1       74     62.6      0.00      0.00      87.1     0.51      1015.1     0.1      SE   130   1.0      SE   131   9.25    268      -56.9
   08/19/2018 01:10      71.9      71.3       73     62.5      0.00      0.00      87.1     0.51      1015.2     0.1     ESE   111   1.3     ENE    77   9.25    268      -57.3
   08/19/2018 01:00      71.9      71.4       73     62.5      0.00      0.00      87.2     0.51      1015.2     0.2       E    99   1.6       E   101   9.25    268      -57.7
   08/19/2018 00:50      71.5      71.2       73     62.1      0.00      0.00      87.2     0.51      1015.2     0.2      SE   136   1.0      SE   136   9.25    268      -57.7
   08/19/2018 00:40      72.0      71.2       71     61.5      0.00      0.00      87.2     0.51      1015.2     0.0       S   180   0.6       S   180   9.25    267      -57.4
   08/19/2018 00:30      72.2      71.6       70     61.5      0.00      0.00      87.2     0.51      1015.3     0.2       S   180   0.8       S   180   9.25    267      -57.4
   08/19/2018 00:20      72.3      71.7       69     61.4      0.00      0.00      87.2     0.51      1015.3     0.0       S   180   0.6       S   180   9.25    267      -57.5
   08/19/2018 00:10      72.7      72.0       69     61.4      0.00      0.00      87.3     0.51      1015.4     0.3       S   175   1.3       S   180   9.25    267      -57.8
   08/19/2018 00:00      72.9      72.3       68     61.3      0.00      0.00      87.3     0.51      1015.4     0.1     SSE   167   0.7     SSE   167   9.25    267      -58.6
   08/18/2018 23:50      73.6      72.6       66     61.2      0.00      0.00      87.3     0.51      1015.4     0.4     SSE   167   1.1     SSE   167   9.26    267      -59.4
   08/18/2018 23:40      73.5      73.0       66     61.4      0.00      0.00      87.3     0.51      1015.4     0.0       N     0   0.0     SSE   167   9.26    267      -59.7
   08/18/2018 23:30      73.3      72.8       67     61.2      0.00      0.00      87.4     0.51      1015.5     0.0     SSE   163   1.4     SSE   167   9.26    266      -59.7
   08/18/2018 23:20      74.1      73.1       66     61.3      0.00      0.00      87.3     0.51      1015.5     0.0       N     0   0.0     WSW   245   9.26    266      -59.7
   08/18/2018 23:10      74.3      73.6       65     61.3      0.00      0.00      87.3     0.51      1015.3     0.0       N     0   0.0     WSW   245   9.26    266      -59.3
   08/18/2018 23:00      74.7      73.9       64     61.4      0.00      0.00      87.3     0.52      1015.4     0.0       N     0   0.0      SE   133   9.26    266      -59.3
   08/18/2018 22:50      75.3      74.4       64     61.6      0.00      0.00      87.3     0.51      1015.5     0.0      SE   132   0.0      SE   132   9.26    266      -59.4
   08/18/2018 22:40      75.5      75.0       63     61.8      0.00      0.00      87.3     0.51      1015.4     0.3     ESE   108   1.3     NNW   345   9.26    266      -60.5
   08/18/2018 22:30      75.5      75.2       63     61.9      0.00      0.00      87.4     0.51      1015.4     0.1      SW   229   1.2      SW   223   9.27    266      -60.2
   08/18/2018 22:20      75.6      75.1       63     62.0      0.00      0.00      87.4     0.51      1015.5     0.2       S   180   1.5       S   172   9.27    266      -60.2
   08/18/2018 22:10      76.3      75.3       62     61.9      0.00      0.00      87.4     0.51      1015.4     0.0       S   177   0.2       S   177   9.27    266      -60.4
   08/18/2018 22:00      76.4      75.8       61     61.8      0.00      0.00      87.4     0.51      1015.4     0.0       N     0   0.0       S   177   9.27    266      -61.1
   08/18/2018 21:50      76.7      76.1       60     61.7      0.00      0.00      87.4     0.52      1015.4     0.0     SSE   168   0.8       S   178   9.27    266      -62.1
   08/18/2018 21:40      76.9      76.4       59     61.1      0.00      0.00      87.4     0.51      1015.4     0.2     NNE    22   1.7     NNW   346   9.27    266      -62.0
   08/18/2018 21:30      77.6      76.6       57     60.7      0.00      0.00      87.4     0.51      1015.4     0.3       E    85   1.4       E    85   9.28    266      -63.0
   08/18/2018 21:20      77.8      77.3       56     60.5      0.00      0.00      87.4     0.51      1015.4     0.6     ENE    64   1.7      NE    41   9.28    266      -63.6
   08/18/2018 21:10      78.2      77.5       57     61.5      0.00      0.00      87.4     0.51      1015.4     0.7     NNE    33   2.0      NE    42   9.28    265      -64.0
   08/18/2018 21:00      78.4      77.7       59     62.6      0.00      0.00      87.3     0.51      1015.3     2.1     SSW   206   4.7      SW   218   9.28    265      -64.0
   08/18/2018 20:50      78.9      78.2       58     62.6      0.00      0.00      87.4     0.51      1015.2     3.0      SW   229   4.9     WSW   251   9.28    265      -64.3
   08/18/2018 20:40      79.3      78.7       57     62.7      0.00      0.00      87.3     0.51      1015.2     2.9      SW   230   5.5      SW   231   9.29    265      -64.6
   08/18/2018 20:30      79.8      79.2       57     62.6      0.00      0.00      87.3     0.51      1015.2     2.6     SSW   211   5.3     WSW   246   9.29    265      -65.3
   08/18/2018 20:20      80.4      79.5       56     62.6      0.00      0.00      87.3     0.51      1015.1     3.1      SW   216   6.0      SW   234   9.29    265      -65.8
   08/18/2018 20:10      80.6      80.1       55     62.7      0.00      0.00      87.3     0.51      1015.0     2.3      SW   223   4.5     WSW   237   9.30    265      -66.9
   08/18/2018 20:00      80.6      80.2       55     62.8      0.00      0.00      87.2     0.51      1014.9     1.2       S   187   4.1      SW   226   9.30    265      -67.2
   08/18/2018 19:50      80.7      80.3       55     62.7      0.00      0.00      87.2     0.51      1014.9     1.7     SSW   192   3.4      SE   146   9.30    265      -67.1
   08/18/2018 19:40      81.2      80.3       54     62.6      0.00      0.00      87.2     0.51      1014.8     2.5     SSE   163   4.4     SSE   149   9.31    265      -65.3
   08/18/2018 19:30      81.7      80.8       53     62.5      0.00      0.00      87.2     0.51      1014.8     2.9       S   175   6.4     SSW   209   9.31    265      -61.4
   08/18/2018 19:20      82.4      81.4       52     62.6      0.00      0.00      87.2     0.51      1014.8     3.6       S   183   6.2     SSW   192   9.32    265      -55.8
   08/18/2018 19:10      83.1      82.2       51     62.7      0.00      0.00      87.1     0.51      1014.7     3.5       S   173   5.8     SSE   163   9.32    265      -44.4
   08/18/2018 19:00      84.1      82.8       50     62.9      0.00      0.00      87.1     0.51      1014.6     4.5       S   178   8.1       S   178   9.32    264      -28.9
   08/18/2018 18:50      84.5      83.7       49     63.0      0.00      0.00      87.1     0.51      1014.6     4.4       S   180   7.9     SSW   193   9.33    264      -11.6
   08/18/2018 18:40      84.9      84.2       48     62.8      0.00      0.00      87.0     0.51      1014.5     4.5       S   183   8.3       S   185   9.34    264        7.8
   08/18/2018 18:30      86.2      84.5       47     62.6      0.00      0.00      87.0     0.51      1014.5     5.5     SSE   164   8.0      SE   127   9.34    264       29.4
   08/18/2018 18:20      86.8      85.8       45     62.6      0.00      0.00      87.0     0.51      1014.4     5.3     SSE   153   8.0     SSE   152   9.35    264       51.4
   08/18/2018 18:10      87.6      86.3       44     62.4      0.00      0.00      86.9     0.51      1014.3     5.9     SSE   152   9.6       S   177   9.35    264       73.6
   08/18/2018 18:00      88.7      87.1       43     62.5      0.00      0.00      86.9     0.51      1014.3     4.5      SE   146   8.3      SE   134   9.36    264       95.8
   08/18/2018 17:50      89.0      88.0       42     62.7      0.00      0.00      86.8     0.51      1014.2     4.4     SSE   157   7.6     SSE   168   9.36    264      120.2
   08/18/2018 17:40      89.4      88.6       42     62.9      0.00      0.00      86.8     0.51      1014.3     4.1     SSE   148   7.9      SE   137   9.37    263      144.5
   08/18/2018 17:30      89.9      88.8       42     62.9      0.00      0.00      86.7     0.51      1014.3     4.3       S   177   7.1     SSW   210   9.38    264      171.6
   08/18/2018 17:20      90.1      89.6       41     63.3      0.00      0.00      86.7     0.51      1014.3     3.8     SSE   162   7.9       S   172   9.38    263      197.0
   08/18/2018 17:10      90.2      89.7       41     63.4      0.00      0.00      86.6     0.51      1014.3     3.6     SSE   165   8.0     SSE   167   9.38    264      219.5
   08/18/2018 17:00      90.7      89.7       41     63.3      0.00      0.00      86.6     0.51      1014.3     4.2       S   181   7.4     SSW   191   9.39    263      241.4
   08/18/2018 16:50      91.7      90.6       40     63.1      0.00      0.00      86.5     0.51      1014.4     4.0       S   171   7.6     SSW   207   9.39    263      262.4
   08/18/2018 16:40      91.9      90.8       39     63.1      0.00      0.00      86.5     0.51      1014.4     4.0       S   171   6.8       S   177   9.40    263      284.6
   08/18/2018 16:30      92.1      91.3       39     63.1      0.00      0.00      86.4     0.51      1014.5     4.4       S   174   7.5     SSE   156   9.40    263      305.3
   08/18/2018 16:20      92.6      91.1       38     62.5      0.00      0.00      86.4     0.51      1014.5     3.9       S   172   7.4     WSW   249   9.41    263      325.3
   08/18/2018 16:10      94.6      92.4       36     62.4      0.00      0.00      86.4     0.51      1014.5     4.0       E   100   8.9      SE   132   9.41    263      342.2
   08/18/2018 16:00      94.1      92.9       36     62.8      0.00      0.00      86.2     0.51      1014.6     3.7     ENE    66   7.6       E    79   9.42    263      361.8
   08/18/2018 15:50      94.6      93.6       36     63.1      0.00      0.00      86.2     0.51      1014.7     2.9     ENE    67   6.7      SE   126   9.42    263      380.0
   08/18/2018 15:40      94.6      93.5       36     62.9      0.00      0.00      86.2     0.51      1014.7     2.3       E    99   5.4     ENE    73   9.43    263      399.7
   08/18/2018 15:30      94.5      93.7       35     62.6      0.00      0.00      86.1     0.51      1014.9     2.1     ENE    77   6.1     ENE    76   9.43    263      413.4
   08/18/2018 15:20      94.5      92.9       36     62.5      0.00      0.00      86.0     0.51      1015.0     2.6     ESE   122   5.2     ENE    67   9.43    264      431.4
   08/18/2018 15:10      94.3      92.9       36     62.4      0.00      0.00      86.0     0.51      1015.2     2.4     ENE    62   5.0      NE    53   9.44    264      444.1
   08/18/2018 15:00      94.4      93.2       35     62.3      0.00      0.00      85.9     0.51      1015.4     2.1     ESE   103   4.6       E    97   9.44    263      459.9
   08/18/2018 14:50      94.1      92.4       36     62.3      0.00      0.00      85.9     0.51      1015.6     2.4     ENE    59   4.8      NE    36   9.44    263      470.3
   08/18/2018 14:40      93.3      90.6       38     62.4      0.00      0.00      85.8     0.51      1015.7     2.4      NE    40   7.4      NE    38   9.45    263      484.6
   08/18/2018 14:30      92.5      91.0       37     62.2      0.00      0.00      85.8     0.51      1016.0     2.5      SE   133   5.0     ESE   104   9.45    263      496.6
   08/18/2018 14:20      91.9      90.9       38     62.4      0.00      0.00      85.7     0.51      1016.1     2.2       E    80   5.3       E    99   9.45    263      504.7
   08/18/2018 14:10      92.0      90.9       38     62.5      0.00      0.00      85.7     0.51      1016.2     2.6      NE    37   5.2      NE    48   9.45    263      510.7
   08/18/2018 14:00      91.7      90.6       39     62.3      0.00      0.00      85.6     0.51      1016.4     1.7     ENE    76   4.3     NNW   348   9.45    263      519.1
   08/18/2018 13:50      91.0      90.2       39     62.2      0.00      0.00      85.6     0.51      1016.6     1.9     NNE    14   5.1       N   353   9.46    263      526.7
   08/18/2018 13:40      90.9      89.6       40     62.3      0.00      0.00      85.5     0.51      1016.7     2.8       N   360   4.8       N     7   9.46    263      529.2
   08/18/2018 13:30      90.0      88.5       41     62.5      0.00      0.00      85.5     0.51      1016.8     2.5      NE    46   4.7      SW   227   9.46    264      539.5
   08/18/2018 13:20      89.6      88.5       42     62.8      0.00      0.00      85.5     0.51      1017.0     2.4      NE    36   4.7     NNE    15   9.46    263      539.8
   08/18/2018 13:10      89.0      88.2       42     62.6      0.00      0.00      85.5     0.51      1017.2     2.8       N   356   5.5       N     0   9.46    264      540.3
   08/18/2018 13:00      88.6      87.5       43     62.9      0.00      0.00      85.4     0.51      1017.4     2.5     NNE    13   5.0     NNE    18   9.46    264      544.6
   08/18/2018 12:50      87.8      86.0       45     62.6      0.00      0.00      85.4     0.51      1017.6     2.1     NNE    19   5.1     NNE    22   9.47    264      547.8
   08/18/2018 12:40      86.9      85.7       45     62.3      0.00      0.00      85.4     0.51      1017.8     2.7     ENE    60   6.4       E    87   9.47    264      549.1
   08/18/2018 12:30      86.3      84.7       46     62.1      0.00      0.00      85.4     0.51      1017.9     2.9       E    87   5.7     ESE   122   9.47    264      549.7
   08/18/2018 12:20      86.0      85.0       46     62.3      0.00      0.00      85.4     0.51      1018.0     2.8     ENE    75   5.2       N     7   9.47    264      545.2
   08/18/2018 12:10      85.2      83.6       48     62.5      0.00      0.00      85.4     0.51      1018.2     3.4     NNE    32   6.8      NE    43   9.47    264      540.0
   08/18/2018 12:00      84.7      83.7       49     62.6      0.00      0.00      85.4     0.51      1018.3     2.8      NE    35   5.7       N    10   9.48    264      532.8
   08/18/2018 11:50      84.5      83.4       49     62.6      0.00      0.00      85.3     0.51      1018.4     3.1     NNE    19   6.6     NNE    25   9.48    265      529.4
   08/18/2018 11:40      84.1      83.3       49     62.6      0.00      0.00      85.3     0.51      1018.5     2.9     NNE    30   6.7     NNE    16   9.48    264      524.1
   08/18/2018 11:30      83.5      82.2       51     62.9      0.00      0.00      85.4     0.51      1018.6     2.7     NNE    25   5.8     ENE    64   9.48    265      515.7
   08/18/2018 11:20      82.5      81.4       53     63.5      0.00      0.00      85.4     0.51      1018.7     2.1     NNE    31   5.3      NE    39   9.48    265      506.2
   08/18/2018 11:10      81.7      80.4       55     63.6      0.00      0.00      85.4     0.51      1018.8     2.6       N   360   5.7     ENE    70   9.48    265      497.4
   08/18/2018 11:00      81.4      80.2       57     64.0      0.00      0.00      85.4     0.51      1018.9     2.3     NNE    16   5.5      NE    36   9.48    265      487.0
   08/18/2018 10:50      80.4      79.2       59     64.1      0.00      0.00      85.5     0.51      1018.8     2.3      NE    40   4.7       E   101   9.48    265      476.8
   08/18/2018 10:40      79.5      78.2       60     64.2      0.00      0.00      85.4     0.51      1018.9     2.8     NNE    11   5.5     NNE    23   9.48    265      461.1
   08/18/2018 10:30      78.5      77.6       63     64.3      0.00      0.00      85.5     0.51      1019.0     3.2      NE    43   5.0      NE    47   9.48    265      444.9
   08/18/2018 10:20      77.8      76.3       66     64.5      0.00      0.00      85.5     0.51      1019.1     2.7      NE    50   5.6     ENE    59   9.48    265      429.2
   08/18/2018 10:10      77.2      76.4       66     64.6      0.00      0.00      85.5     0.51      1019.0     2.8      NE    37   5.4     ENE    74   9.48    265      414.7
   08/18/2018 10:00      76.8      75.6       67     64.7      0.00      0.00      85.6     0.52      1019.1     2.8      NE    45   5.3      NE    48   9.48    266      398.6
   08/18/2018 09:50      75.9      75.0       69     64.6      0.00      0.00      85.6     0.52      1019.1     3.3      NE    46   6.2     NNE    27   9.48    266      377.7
   08/18/2018 09:40      75.7      74.2       71     64.7      0.00      0.00      85.6     0.52      1019.0     2.9     NNE    29   5.8     ENE    76   9.48    266      359.8
   08/18/2018 09:30      75.0      74.3       72     64.8      0.00      0.00      85.7     0.52      1018.9     3.4      NE    37   5.1      NE    48   9.48    266      335.9
   08/18/2018 09:20      75.2      74.5       71     64.9      0.00      0.00      85.7     0.52      1018.9     2.6      NE    36   4.7       N     0   9.48    266      308.4
   08/18/2018 09:10      74.9      74.2       72     64.9      0.00      0.00      85.7     0.52      1018.9     2.4      NE    49   5.3      NE    44   9.48    266      295.7
   08/18/2018 09:00      74.6      74.0       73     65.0      0.00      0.00      85.8     0.52      1018.8     2.7      NE    53   5.3      NE    38   9.48    266      271.9
   08/18/2018 08:50      74.5      73.4       73     65.0      0.00      0.00      85.8     0.52      1018.8     2.3      NE    43   4.2     NNE    26   9.48    267      223.8
   08/18/2018 08:40      73.6      72.7       74     64.6      0.00      0.00      85.8     0.52      1018.7     1.5     NNE    21   3.5     NNE    23   9.48    266      177.8
   08/18/2018 08:30      72.9      72.3       75     64.3      0.00      0.00      85.9     0.52      1018.7     0.9      SE   131   2.9     ESE   102   9.48    267      140.8
   08/18/2018 08:20      72.8      72.1       76     64.3      0.00      0.00      85.9     0.52      1018.7     1.5      NE    43   3.8       E    85   9.48    267       59.1
   08/18/2018 08:10      72.3      71.8       77     64.2      0.00      0.00      85.9     0.52      1018.6     1.0      SE   143   2.9      SE   138   9.48    267       67.7
   08/18/2018 08:00      72.0      71.0       78     64.1      0.00      0.00      86.0     0.52      1018.6     0.4       E    86   2.0       E    85   9.48    268        5.2
   08/18/2018 07:50      71.4      70.3       79     63.9      0.00      0.00      86.0     0.52      1018.6     0.9       E    97   2.2       E    94   9.48    269        6.1
   08/18/2018 07:40      70.5      69.6       81     63.8      0.00      0.00      86.1     0.52      1018.5     0.8       E    83   2.8     ENE    74   9.48    269        5.7
   08/18/2018 07:30      69.7      68.5       83     63.6      0.00      0.00      86.1     0.52      1018.4     0.8       E    79   2.1     ENE    71   9.48    268       15.2
   08/18/2018 07:20      68.8      67.8       85     63.5      0.00      0.00      86.1     0.52      1018.4     0.3     ESE   113   1.8       E    91   9.48    268        1.8
   08/18/2018 07:10      68.0      67.1       86     63.3      0.00      0.00      86.2     0.52      1018.3     0.0       N     0   0.0       S   182   9.48    263       -2.5
   08/18/2018 07:00      67.3      66.7       87     63.0      0.00      0.00      86.2     0.52      1018.3     0.3       S   182   1.6       S   182   9.48    261       -8.7
   08/18/2018 06:50      66.8      65.8       88     62.5      0.00      0.00      86.2     0.52      1018.2     0.5       S   182   1.4       S   182   9.48    260      -15.7
   08/18/2018 06:40      66.5      65.8       88     62.3      0.00      0.00      86.3     0.52      1018.1     0.0       N     0   0.0       S   182   9.48    262      -22.9
   08/18/2018 06:30      66.4      65.9       88     62.6      0.00      0.00      86.3     0.52      1017.9     0.0       S   182   0.5       S   182   9.48    265      -27.8
   08/18/2018 06:20      66.4      65.7       88     62.2      0.00      0.00      86.3     0.52      1017.8     0.3       S   182   0.7       S   182   9.48    263      -33.2
   08/18/2018 06:10      66.3      65.8       88     62.3      0.00      0.00      86.4     0.52      1017.8     0.2       S   182   0.8       S   182   9.48    264      -35.5
   08/18/2018 06:00      66.4      66.0       88     62.3      0.00      0.00      86.4     0.52      1017.7     0.2       S   182   0.8       S   182   9.48    265      -36.6
   08/18/2018 05:50      66.5      66.0       88     62.5      0.00      0.00      86.5     0.52      1017.6     0.3       S   182   0.9       S   182   9.48    266      -37.0
   08/18/2018 05:40      66.3      65.8       87     62.2      0.00      0.00      86.5     0.52      1017.5     0.0       S   182   0.6       S   182   9.48    265      -39.4
   08/18/2018 05:30      66.3      65.8       87     62.2      0.00      0.00      86.5     0.52      1017.4     0.0       N     0   0.0       S   182   9.48    264      -40.2
   08/18/2018 05:20      66.5      65.9       88     62.4      0.00      0.00      86.5     0.52      1017.3     0.1       S   183   0.7       S   183   9.49    263      -39.9
   08/18/2018 05:10      66.5      66.1       87     62.4      0.00      0.00      86.6     0.52      1017.3     0.0       S   183   0.8       S   183   9.49    264      -41.1
   08/18/2018 05:00      66.8      66.2       87     62.4      0.00      0.00      86.6     0.52      1017.3     0.2       S   183   0.7       S   183   9.49    264      -42.1
   08/18/2018 04:50      66.8      66.5       87     62.8      0.00      0.00      86.6     0.52      1017.2     0.0       N     0   0.0       S   183   9.49    263      -42.5
   08/18/2018 04:40      67.0      66.3       87     62.6      0.00      0.00      86.7     0.52      1017.3     0.0       S   183   0.1       S   183   9.49    264      -44.9
   08/18/2018 04:30      67.0      66.6       87     62.7      0.00      0.00      86.7     0.52      1017.3     0.4       S   183   1.3       S   183   9.49    264      -45.4
   08/18/2018 04:20      67.2      66.6       87     62.8      0.00      0.00      86.7     0.53      1017.3     0.0       N     0   0.0       S   184   9.49    262      -47.1
   08/18/2018 04:10      67.5      67.0       87     63.1      0.00      0.00      86.8     0.52      1017.3     0.6       S   184   1.4       S   185   9.49    261      -47.2
   08/18/2018 04:00      67.5      67.0       86     62.9      0.00      0.00      86.8     0.52      1017.4     0.3     SSW   196   1.0     SSW   197   9.49    263      -48.9
   08/18/2018 03:50      67.6      67.3       86     63.0      0.00      0.00      86.8     0.52      1017.4     1.2     SSW   208   2.1     SSW   200   9.49    260      -48.8
   08/18/2018 03:40      67.8      67.3       86     63.2      0.00      0.00      86.8     0.52      1017.4     0.8      SW   218   1.5      SW   218   9.49    261      -49.1
   08/18/2018 03:30      68.1      67.3       85     63.1      0.00      0.00      86.9     0.53      1017.5     0.0       N     0   0.0      SE   144   9.49    261      -50.0
   08/18/2018 03:20      68.4      67.6       85     63.2      0.00      0.00      86.9     0.53      1017.5     0.0       N     0   0.0      SE   144   9.50    261      -51.2
   08/18/2018 03:10      68.4      68.1       85     63.5      0.00      0.00      86.9     0.53      1017.5     0.0       N     0   0.0      SE   144   9.50    264      -52.4
   08/18/2018 03:00      68.6      68.2       84     63.5      0.00      0.00      87.0     0.53      1017.6     0.0      SE   144   0.5      SE   144   9.50    263      -54.4
   08/18/2018 02:50      68.8      68.4       84     63.6      0.00      0.00      87.0     0.53      1017.8     0.4       E    91   1.9     ENE    66   9.50    260      -54.7
   08/18/2018 02:40      69.0      68.5       84     63.6      0.00      0.00      87.0     0.53      1017.8     0.1       E    95   1.0       E    92   9.50    261      -55.4
   08/18/2018 02:30      69.4      68.6       83     63.6      0.00      0.00      87.0     0.53      1017.8     0.0     ESE   112   0.6     ESE   112   9.50    261      -56.3
   08/18/2018 02:20      69.5      69.0       83     63.8      0.00      0.00      87.0     0.53      1017.9     0.0     ESE   112   0.5     ESE   112   9.50    261      -56.6
   08/18/2018 02:10      70.0      69.2       82     63.8      0.00      0.00      87.1     0.53      1018.0     0.6       E   100   2.1       E    87   9.50    263      -56.1
   08/18/2018 02:00      70.0      69.4       82     63.8      0.00      0.00      87.1     0.53      1018.1     0.7     ENE    76   2.1      NE    47   9.50    264      -55.9
   08/18/2018 01:50      70.1      69.5       81     63.7      0.00      0.00      87.1     0.53      1018.1     0.4       E    79   1.4      NE    49   9.50    265      -56.5
   08/18/2018 01:40      70.4      69.7       81     63.8      0.00      0.00      87.1     0.53      1018.1     0.4     ENE    73   2.0     ENE    75   9.50    266      -57.0
   08/18/2018 01:30      70.6      69.9       81     63.9      0.00      0.00      87.2     0.53      1018.3     0.2     ESE   114   1.5       E    93   9.50    266      -57.4
   08/18/2018 01:20      70.8      70.1       80     64.0      0.00      0.00      87.2     0.53      1018.3     1.0     ESE   101   2.5     ENE    62   9.51    266      -57.4
   08/18/2018 01:10      71.1      70.5       79     64.0      0.00      0.00      87.2     0.53      1018.3     1.3     ENE    71   3.0     ENE    73   9.51    267      -58.1
   08/18/2018 01:00      71.4      70.8       79     64.0      0.00      0.00      87.2     0.53      1018.2     1.1     ENE    62   2.4     ENE    57   9.51    268      -57.9
   08/18/2018 00:50      71.5      71.0       78     64.1      0.00      0.00      87.2     0.53      1018.2     1.4      NE    56   3.2      NE    55   9.51    268      -57.8
   08/18/2018 00:40      71.5      71.1       78     64.2      0.00      0.00      87.3     0.53      1018.2     1.3     ENE    59   3.2      NE    36   9.51    268      -57.4
   08/18/2018 00:30      71.5      71.2       78     64.3      0.00      0.00      87.3     0.53      1018.1     0.9     ENE    64   3.2      NE    52   9.51    268      -57.4
   08/18/2018 00:20      72.0      71.2       78     64.3      0.00      0.00      87.3     0.53      1018.1     1.2     ENE    67   2.5     ESE   102   9.51    268      -57.6
   08/18/2018 00:10      72.2      71.7       77     64.3      0.00      0.00      87.2     0.53      1018.1     1.3      NE    51   2.7      NE    56   9.51    268      -58.0
   08/18/2018 00:00      72.7      71.9       76     64.4      0.00      0.00      87.3     0.53      1018.0     1.7      NE    43   3.2      NE    47   9.52    268      -58.2
   08/17/2018 23:50      72.6      72.2       76     64.6      0.00      0.00      87.3     0.53      1018.0     1.4      NE    53   2.8      NE    46   9.52    268      -58.4
   08/17/2018 23:40      73.0      72.2       77     64.8      0.00      0.00      87.3     0.53      1017.9     1.7      NE    50   2.9     ENE    59   9.52    268      -58.3
   08/17/2018 23:30      73.3      72.6       76     64.8      0.00      0.00      87.4     0.53      1017.9     1.7      NE    53   2.8     NNE    33   9.52    268      -58.8
   08/17/2018 23:20      73.7      73.0       75     64.9      0.00      0.00      87.4     0.53      1017.8     1.8     ENE    66   3.4       E    86   9.52    268      -59.3
   08/17/2018 23:10      74.1      73.4       74     64.9      0.00      0.00      87.4     0.53      1017.8     1.7      NE    54   3.7      NE    41   9.52    267      -59.6
   08/17/2018 23:00      74.6      73.9       73     64.9      0.00      0.00      87.3     0.53      1017.8     1.8      NE    55   3.4     ENE    69   9.52    267      -60.1
   08/17/2018 22:50      75.3      74.3       72     65.0      0.00      0.00      87.4     0.53      1017.9     1.7      NE    55   3.6      NE    47   9.53    267      -60.8
   08/17/2018 22:40      75.6      75.0       70     64.9      0.00      0.00      87.4     0.53      1017.9     1.1      NE    55   2.5      NE    45   9.53    267      -61.0
   08/17/2018 22:30      75.8      75.2       69     64.6      0.00      0.00      87.4     0.53      1017.7     0.9      NE    52   2.1     ENE    58   9.53    267      -61.8
   08/17/2018 22:20      76.6      75.5       68     64.8      0.00      0.00      87.4     0.53      1017.8     0.9     ESE   110   2.3     ENE    74   9.53    266      -62.3
   08/17/2018 22:10      77.2      76.3       67     64.8      0.00      0.00      87.3     0.53      1017.7     0.9       E    82   2.0      NE    56   9.53    266      -62.5
   08/17/2018 22:00      77.7      77.0       65     64.7      0.00      0.00      87.5     0.53      1017.7     0.7     ENE    64   2.1     ENE    57   9.54    266      -63.2
   08/17/2018 21:50      78.6      77.4       62     63.8      0.00      0.00      87.4     0.53      1017.6     1.2       E    94   2.8      SE   133   9.54    265      -64.0
   08/17/2018 21:40      79.1      78.3       58     62.4      0.00      0.00      87.4     0.53      1017.4     1.7     SSW   199   3.3       S   186   9.54    265      -64.7
   08/17/2018 21:30      79.7      78.8       57     62.4      0.00      0.00      87.4     0.53      1017.3     1.7      SW   221   3.1     SSW   212   9.54    265      -64.8
   08/17/2018 21:20      80.1      79.2       55     62.2      0.00      0.00      87.4     0.53      1017.1     0.9       S   188   2.8     SSW   201   9.55    265      -65.2
   08/17/2018 21:10      80.3      79.7       54     62.1      0.00      0.00      87.4     0.53      1017.0     0.5      SW   218   1.6     SSW   203   9.55    265      -65.5
   08/17/2018 21:00      80.5      80.1       55     62.5      0.00      0.00      87.4     0.53      1016.8     1.9     WSW   245   3.8      SW   231   9.55    265      -65.9
   08/17/2018 20:50      80.6      80.1       58     64.4      0.00      0.00      87.4     0.53      1016.7     0.2       N    11   1.3     NNE    26   9.55    265      -65.7
   08/17/2018 20:40      80.7      80.2       58     64.4      0.00      0.00      87.3     0.53      1016.5     0.2     ESE   111   0.8       E    83   9.56    265      -66.3
   08/17/2018 20:30      81.1      80.4       59     64.9      0.00      0.00      87.3     0.53      1016.5     0.0       E    83   0.9     ENE    66   9.56    265      -67.7
   08/17/2018 20:20      81.7      80.6       58     65.0      0.00      0.00      87.3     0.53      1016.4     0.7      SE   140   2.0     ENE    74   9.56    265      -68.1
   08/17/2018 20:10      82.1      81.2       57     65.1      0.00      0.00      87.3     0.53      1016.3     0.6     ENE    60   1.8      NE    42   9.56    265      -68.8
   08/17/2018 20:00      82.8      81.7       56     65.2      0.00      0.00      87.3     0.53      1016.2     0.9       E    84   2.0      NE    43   9.57    265      -69.5
   08/17/2018 19:50      83.1      82.5       55     65.3      0.00      0.00      87.2     0.53      1016.0     1.0      NE    43   2.0     ENE    60   9.57    265      -69.4
   08/17/2018 19:40      83.8      82.8       55     65.3      0.00      0.00      87.2     0.53      1016.0     1.2     ENE    60   2.8      NE    47   9.57    265      -67.9
   08/17/2018 19:30      85.1      83.7       53     65.3      0.00      0.00      87.2     0.53      1015.8     1.6     ENE    61   3.5      NE    40   9.58    264      -65.3
   08/17/2018 19:20      86.4      84.9       51     65.4      0.00      0.00      87.1     0.53      1015.7     1.8     ENE    58   3.8      NE    51   9.58    264      -61.2
   08/17/2018 19:10      88.5      86.3       47     64.7      0.00      0.00      87.1     0.53      1015.6     1.6       E    81   4.3     ESE   104   9.58    264      -50.0
   08/17/2018 19:00      89.4      88.3       40     61.1      0.00      0.00      87.1     0.53      1015.5     1.9     NNW   336   5.2     WNW   304   9.59    263      -35.1
   08/17/2018 18:50      90.0      88.8       39     61.1      0.00      0.00      87.0     0.53      1015.4     2.1      NW   309   6.2     WNW   294   9.59    263      -16.0
   08/17/2018 18:40      90.5      89.5       38     61.0      0.00      0.00      87.0     0.53      1015.4     2.8     WNW   303   5.5     WNW   291   9.60    263        6.0
   08/17/2018 18:30      90.7      90.2       37     60.8      0.00      0.00      87.0     0.53      1015.4     2.6       W   278   6.0      NW   315   9.60    263       28.4
   08/17/2018 18:20      90.7      90.2       37     60.5      0.00      0.00      87.0     0.53      1015.4     3.9       W   276   7.9     WNW   289   9.60    263       52.1
   08/17/2018 18:10      91.2      90.2       37     60.5      0.00      0.00      86.9     0.53      1015.4     3.8      SW   236   7.4      SW   221   9.61    263       74.8
   08/17/2018 18:00      91.2      90.5       37     60.8      0.00      0.00      86.9     0.53      1015.4     4.2     WSW   249   8.2     SSW   213   9.61    263      100.2
   08/17/2018 17:50      92.1      90.8       36     60.6      0.00      0.00      86.8     0.53      1015.4     5.0     WSW   240   8.0      SW   234   9.62    263      124.0
   08/17/2018 17:40      92.8      91.8       35     60.8      0.00      0.00      86.7     0.53      1015.4     4.3      SW   232   8.9      SW   215   9.62    263      148.2
   08/17/2018 17:30      93.0      92.3       35     60.9      0.00      0.00      86.7     0.53      1015.3     3.6     WSW   238   7.3      SW   229   9.63    263      171.1
   08/17/2018 17:20      93.3      92.4       33     59.5      0.00      0.00      86.7     0.52      1015.4     3.0     WNW   291   6.3       N   352   9.64    263      194.9
   08/17/2018 17:10      93.5      92.7       34     60.5      0.00      0.00      86.6     0.52      1015.4     4.1     WSW   257   7.4       W   263   9.64    263      219.3
   08/17/2018 17:00      93.5      92.5       33     59.8      0.00      0.00      86.5     0.52      1015.4     4.6     WNW   295   9.3       N   351   9.65    263      242.7
   08/17/2018 16:50      94.3      92.7       33     60.2      0.00      0.00      86.5     0.52      1015.4     4.2     WNW   298   8.9      NW   311   9.65    263      264.7
   08/17/2018 16:40      94.3      93.3       34     61.4      0.00      0.00      86.4     0.52      1015.5     3.9     WNW   300  11.7       W   269   9.66    263      287.4
   08/17/2018 16:30      94.3      92.8       35     61.5      0.00      0.00      86.4     0.52      1015.5     5.2      NW   312   9.1     NNW   336   9.66    263      308.8
   08/17/2018 16:20      94.7      93.6       35     61.9      0.00      0.00      86.3     0.52      1015.4     4.5      NW   313   9.6       W   266   9.67    263      327.0
   08/17/2018 16:10      95.2      94.2       35     62.7      0.00      0.00      86.3     0.52      1015.5     4.4      NW   317   7.5     WSW   256   9.68    263      345.9
   08/17/2018 16:00      97.9      95.1       34     63.0      0.00      0.00      86.2     0.52      1015.5     3.2     WNW   298   7.1       W   274   9.68    263      362.7
   08/17/2018 15:50      97.7      95.9       34     64.0      0.00      0.00      86.2     0.52      1015.5     3.4      NW   319   6.6      NW   316   9.68    263      382.0
   08/17/2018 15:40      96.6      95.5       35     64.1      0.00      0.00      86.1     0.52      1015.5     3.1     NNW   340   5.5      NW   312   9.69    263      398.4
   08/17/2018 15:30      96.5      95.5       35     63.7      0.00      0.00      86.0     0.52      1015.6     3.7       N     5   9.5       N     9   9.69    263      416.7
   08/17/2018 15:20      97.0      95.6       35     64.3      0.00      0.00      85.9     0.52      1015.5     4.5       W   267  11.8       W   273   9.69    263      435.3
   08/17/2018 15:10      97.9      95.1       35     64.6      0.00      0.00      85.9     0.52      1015.6     2.8     WNW   293   7.8     SSW   194   9.70    263      447.2
   08/17/2018 15:00      95.6      94.3       38     65.3      0.00      0.00      85.8     0.52      1015.7     2.7     SSE   154   7.0      SE   138   9.70    263      463.7
   08/17/2018 14:50      96.2      94.2       38     65.6      0.00      0.00      85.7     0.52      1015.8     3.3      SE   127   6.1     SSE   165   9.71    263      473.0
   08/17/2018 14:40      97.3      95.5       37     65.9      0.00      0.00      85.6     0.52      1015.9     2.4     ENE    59   6.4     ENE    60   9.71    263      475.2
   08/17/2018 14:30      97.3      95.4       37     65.5      0.00      0.00      85.7     0.52      1016.0     2.7     NNE    31   5.5      NE    56   9.71    263      485.7
   08/17/2018 14:20      95.4      94.4       37     64.9      0.00      0.00      85.6     0.52      1016.2     3.1      NE    34   5.5       E    98   9.72    263      499.9
   08/17/2018 14:10      95.4      94.0       37     64.2      0.00      0.00      85.5     0.52      1016.3     2.9       E    97   5.6       E    93   9.72    263      508.5
   08/17/2018 14:00      94.8      93.9       37     64.1      0.00      0.00      85.5     0.52      1016.4     2.5       E    83   5.6      SE   138   9.72    263      517.6
   08/17/2018 13:50      94.1      92.8       38     64.2      0.00      0.00      85.4     0.52      1016.5     3.3       E    96   6.4       E    79   9.72    263      525.1
   08/17/2018 13:40      93.5      91.8       38     63.9      0.00      0.00      85.4     0.52      1016.6     3.0     ESE   109   6.9       E    89   9.72    263      535.3
   08/17/2018 13:30      92.0      90.8       39     62.8      0.00      0.00      85.3     0.52      1016.7     2.6     ESE   113   5.2     NNE    32   9.73    263      539.3
   08/17/2018 13:20      92.2      90.6       39     63.1      0.00      0.00      85.3     0.52      1016.8     4.1     ESE   124   7.0      SE   145   9.73    263      544.5
   08/17/2018 13:10      92.2      90.1       40     63.2      0.00      0.00      85.3     0.52      1017.0     2.2     SSE   153   4.7      SE   124   9.73    263      541.0
   08/17/2018 13:00      91.6      90.1       40     63.2      0.00      0.00      85.2     0.52      1017.1     3.3      SE   141   8.3     SSE   148   9.73    263      544.6
   08/17/2018 12:50      92.5      91.7       38     63.2      0.00      0.00      85.2     0.52      1017.2     2.2     ENE    67   5.4       S   183   9.74    263      541.1
   08/17/2018 12:40      92.5      90.0       39     63.1      0.00      0.00      85.2     0.52      1017.3     1.6       N     3   5.0      NW   306   9.74    263      542.5
   08/17/2018 12:30      90.0      88.9       41     62.8      0.00      0.00      85.2     0.52      1017.4     1.8      NE    47   5.7     NNW   346   9.74    264      543.4
   08/17/2018 12:20      90.0      89.3       41     62.8      0.00      0.00      85.2     0.52      1017.6     2.1      NW   306   5.4     WNW   293   9.74    264      541.9
   08/17/2018 12:10      90.1      88.3       43     63.7      0.00      0.00      85.1     0.52      1017.7     2.0     NNE    19   4.6     NNE    34   9.74    264      535.6
   08/17/2018 12:00      88.4      87.7       46     64.4      0.00      0.00      85.1     0.52      1017.8     2.1     NNE    31   4.0     NNE    13   9.74    264      532.9
   08/17/2018 11:50      87.9      86.5       48     65.1      0.00      0.00      85.2     0.52      1017.9     1.8     ENE    69   4.4       E    86   9.74    264      529.2
   08/17/2018 11:40      87.6      86.2       49     65.3      0.00      0.00      85.1     0.52      1018.0     1.8     ENE    69   3.3     NNE    14   9.74    264      521.0
   08/17/2018 11:30      86.8      85.0       50     65.5      0.00      0.00      85.1     0.52      1018.1     1.6       N     4   4.9      NW   314   9.74    264      514.4
   08/17/2018 11:20      85.7      84.3       53     65.8      0.00      0.00      85.1     0.52      1018.1     2.7     NNW   338   5.8     WNW   286   9.74    265      507.5
   08/17/2018 11:10      84.6      83.7       54     65.8      0.00      0.00      85.1     0.52      1018.2     2.3      NE    46   4.7     NNE    23   9.75    265      493.7
   08/17/2018 11:00      84.4      82.3       55     65.7      0.00      0.00      85.1     0.53      1018.3     1.7     ENE    58   4.4       N     2   9.75    265      482.2
   08/17/2018 10:50      82.7      81.8       57     65.6      0.00      0.00      85.2     0.53      1018.3     2.3      NE    49   4.6      NE    40   9.75    265      474.1
   08/17/2018 10:40      82.0      80.8       58     65.5      0.00      0.00      85.1     0.53      1018.4     2.1      NE    54   4.1      NE    48   9.75    265      460.1
   08/17/2018 10:30      81.6      80.7       59     65.5      0.00      0.00      85.2     0.53      1018.4     2.7     NNW   346   5.5     NNW   346   9.75    265      443.0
   08/17/2018 10:20      81.5      80.2       60     65.6      0.00      0.00      85.2     0.53      1018.4     1.5       N     7   3.7     NNW   346   9.75    265      427.9
   08/17/2018 10:10      80.9      78.9       62     65.7      0.00      0.00      85.2     0.53      1018.6     1.6      NE    50   3.7       E    94   9.75    265      410.6
   08/17/2018 10:00      79.1      78.4       64     65.6      0.00      0.00      85.3     0.53      1018.7     2.3      NE    50   5.0     ENE    63   9.75    265      387.7
   08/17/2018 09:50      78.6      77.6       66     65.7      0.00      0.00      85.3     0.53      1018.7     2.2     NNE    19   5.5      NE    43   9.75    265      370.8
   08/17/2018 09:40      78.6      77.4       66     65.6      0.00      0.00      85.3     0.53      1018.8     2.2      NE    46   5.0     NNE    33   9.75    265      345.9
   08/17/2018 09:30      78.4      77.7       66     65.8      0.00      0.00      85.3     0.53      1018.8     2.4     NNE    28   3.9       N     7   9.75    266      323.2
   08/17/2018 09:20      77.9      77.2       67     65.8      0.00      0.00      85.4     0.53      1018.8     1.9     ENE    61   5.0       E    87   9.75    266      304.9
   08/17/2018 09:10      77.4      76.4       68     65.6      0.00      0.00      85.4     0.53      1018.8     1.7     NNE    32   4.2     NNE    20   9.75    266      286.1
   08/17/2018 09:00      76.6      75.5       70     65.5      0.00      0.00      85.4     0.53      1018.8     1.6      NE    41   3.7      NE    52   9.75    266      247.3
   08/17/2018 08:50      75.8      74.3       72     65.5      0.00      0.00      85.4     0.53      1018.9     1.8       E    85   5.1     ENE    72   9.75    266      241.5
   08/17/2018 08:40      74.7      74.2       73     65.3      0.00      0.00      85.5     0.53      1018.8     1.6       E    89   4.0       E    98   9.75    267      109.3
   08/17/2018 08:30      74.4      73.4       75     65.4      0.00      0.00      85.5     0.53      1018.7     1.1      NE    52   4.2       E    90   9.75    267       44.3
   08/17/2018 08:20      73.6      72.5       78     65.5      0.00      0.00      85.5     0.53      1018.6     0.7     ENE    59   3.2     ENE    72   9.75    267       30.1
   08/17/2018 08:10      72.8      72.3       78     65.3      0.00      0.00      85.6     0.53      1018.4     1.5     SSE   165   3.4      SE   141   9.75    268       62.2
   08/17/2018 08:00      72.4      71.5       80     65.3      0.00      0.00      85.6     0.53      1018.4     0.5     SSE   167   1.6     SSW   197   9.75    268       26.9
   08/17/2018 07:50      71.7      71.1       81     65.1      0.00      0.00      85.6     0.53      1018.2     1.0      SE   142   2.5     SSW   198   9.75    268       23.8
   08/17/2018 07:40      71.3      70.8       82     65.1      0.00      0.00      85.6     0.53      1018.2     1.5      SE   137   2.9      SE   129   9.75    268       11.9
   08/17/2018 07:30      71.2      70.6       82     65.1      0.00      0.00      85.7     0.53      1018.2     1.7     ESE   117   3.2      SE   141   9.75    268        2.3
   08/17/2018 07:20      70.9      70.4       83     65.0      0.00      0.00      85.7     0.53      1018.1     0.9     SSE   151   2.1       S   177   9.75    268      -10.1
   08/17/2018 07:10      70.8      70.3       83     65.0      0.00      0.00      85.7     0.53      1018.1     0.9     SSE   147   2.1      SE   141   9.76    268      -15.7
   08/17/2018 07:00      70.7      70.2       83     65.0      0.00      0.00      85.7     0.53      1018.0     0.2     SSE   153   1.2     SSW   208   9.76    268       -6.4
   08/17/2018 06:50      70.6      70.1       83     64.9      0.00      0.00      85.8     0.53      1017.9     0.5       S   171   1.6      SW   221   9.76    268      -17.1
   08/17/2018 06:40      70.6      70.1       83     65.0      0.00      0.00      85.8     0.53      1018.0     0.3      SE   131   1.3      SE   130   9.76    268      -20.8
   08/17/2018 06:30      70.6      70.0       83     64.9      0.00      0.00      85.8     0.54      1018.0     0.3     ESE   114   1.6     ESE   123   9.76    268      -13.8
   08/17/2018 06:20      70.5      70.1       83     65.0      0.00      0.00      85.9     0.53      1018.0     0.6       E    94   2.0      SE   131   9.76    268      -16.5
   08/17/2018 06:10      70.5      70.1       83     65.0      0.00      0.00      85.9     0.53      1017.9     0.6       E    98   2.1      SE   142   9.76    268      -22.1
   08/17/2018 06:00      70.6      70.1       83     65.0      0.00      0.00      85.9     0.53      1017.9     0.9     ESE   121   2.5     ESE   102   9.76    268      -17.9
   08/17/2018 05:50      70.5      70.1       84     65.1      0.00      0.00      85.9     0.54      1017.9     0.2      SE   133   1.2     ESE   121   9.76    268      -14.2
   08/17/2018 05:40      70.5      70.1       83     65.0      0.00      0.00      86.0     0.54      1017.8     0.3     ESE   108   1.6     SSE   147   9.76    268      -18.0
   08/17/2018 05:30      70.5      70.1       84     65.0      0.00      0.00      86.0     0.54      1017.8     0.6       E    88   1.7     ENE    74   9.76    268      -16.5
   08/17/2018 05:20      70.5      70.0       84     65.1      0.00      0.00      86.1     0.54      1017.7     0.4     ENE    73   1.6       E    85   9.76    268      -16.3
   08/17/2018 05:10      70.3      69.8       84     65.0      0.00      0.00      86.1     0.54      1017.7     0.9       E    95   3.0     ENE    74   9.76    268      -15.3
   08/17/2018 05:00      70.1      69.7       84     65.0      0.00      0.00      86.1     0.54      1017.7     1.0      SE   138   3.0      SE   141   9.76    268      -15.6
   08/17/2018 04:50      70.0      69.6       85     64.9      0.00      0.00      86.1     0.54      1017.7     0.5     ESE   107   1.6       E    91   9.76    267      -13.7
   08/17/2018 04:40      70.0      69.5       85     64.9      0.00      0.00      86.2     0.54      1017.6     0.5     ESE   122   1.7       S   183   9.76    267      -16.2
   08/17/2018 04:30      69.8      69.5       85     64.9      0.00      0.00      86.2     0.54      1017.7     1.0      SE   124   2.6      SE   125   9.76    266      -18.2
   08/17/2018 04:20      69.8      69.5       85     64.8      0.00      0.00      86.2     0.54      1017.7     1.0       E    95   2.0     ESE   102   9.76    267      -14.9
   08/17/2018 04:10      69.7      69.3       85     64.7      0.00      0.00      86.3     0.54      1017.7     1.1      NE    54   2.7     ENE    58   9.76    266      -27.6
   08/17/2018 04:00      69.7      69.3       84     64.5      0.00      0.00      86.3     0.54      1017.8     1.2      NE    52   2.9     NNE    27   9.76    264      -39.4
   08/17/2018 03:50      69.7      69.3       84     64.4      0.00      0.00      86.3     0.54      1017.8     1.0      NE    54   2.5     ENE    64   9.76    263      -45.8
   08/17/2018 03:40      69.8      69.3       84     64.3      0.00      0.00      86.3     0.54      1017.7     1.1      NE    55   2.6     NNE    29   9.76    263      -48.7
   08/17/2018 03:30      69.9      69.3       84     64.3      0.00      0.00      86.4     0.54      1017.8     0.7      NE    55   2.5     ENE    58   9.76    263      -49.0
   08/17/2018 03:20      69.8      69.3       84     64.4      0.00      0.00      86.4     0.54      1017.8     0.8     ENE    61   2.3       E    85   9.77    263      -48.7
   08/17/2018 03:10      70.0      69.5       84     64.5      0.00      0.00      86.3     0.54      1017.8     1.0     ENE    64   2.4     ENE    67   9.77    264      -49.0
   08/17/2018 03:00      70.0      69.5       83     64.4      0.00      0.00      86.4     0.54      1017.8     0.5     ENE    79   2.1     ESE   108   9.77    264      -48.9
   08/17/2018 02:50      70.1      69.5       83     64.3      0.00      0.00      86.4     0.54      1017.7     0.7     ENE    78   2.3      SE   136   9.77    264      -49.4
   08/17/2018 02:40      70.1      69.7       82     64.3      0.00      0.00      86.5     0.54      1017.8     0.2       E    87   1.5     ENE    67   9.77    265      -49.2
   08/17/2018 02:30      70.4      69.8       82     64.3      0.00      0.00      86.5     0.54      1017.8     0.3     ESE   110   1.2     ENE    60   9.77    265      -49.7
   08/17/2018 02:20      70.6      70.1       82     64.5      0.00      0.00      86.5     0.54      1017.8     0.4      NE    53   2.2      NE    48   9.77    265      -50.1
   08/17/2018 02:10      70.5      70.0       82     64.5      0.00      0.00      86.6     0.54      1017.8     0.7     ENE    59   1.7      NE    41   9.77    266      -50.0
   08/17/2018 02:00      70.5      70.1       82     64.5      0.00      0.00      86.6     0.54      1017.8     0.6       E    97   1.9     SSE   162   9.77    266      -50.0
   08/17/2018 01:50      70.6      70.1       82     64.5      0.00      0.00      86.6     0.54      1017.8     0.5       E   100   1.4       E    85   9.77    266      -49.8
   08/17/2018 01:40      70.8      70.3       81     64.4      0.00      0.00      86.6     0.54      1017.9     0.7     ESE   113   2.1       E    86   9.77    266      -50.0
   08/17/2018 01:30      71.1      70.4       81     64.3      0.00      0.00      86.6     0.54      1017.9     0.5       E   100   1.8      SE   146   9.77    267      -50.1
   08/17/2018 01:20      71.2      70.6       80     64.3      0.00      0.00      86.7     0.54      1017.8     0.2       E    99   0.9       E    95   9.77    267      -50.6
   08/17/2018 01:10      71.5      70.9       79     64.4      0.00      0.00      86.7     0.54      1017.9     0.3      SE   133   0.9      SE   141   9.78    267      -51.0
   08/17/2018 01:00      71.7      71.2       78     64.4      0.00      0.00      86.7     0.54      1018.1     0.7       E    80   1.8     ENE    74   9.78    267      -51.1
   08/17/2018 00:50      72.0      71.4       78     64.4      0.00      0.00      86.7     0.54      1018.2     0.7      NE    53   2.4      NE    45   9.78    267      -51.0
   08/17/2018 00:40      72.2      71.7       77     64.4      0.00      0.00      86.7     0.54      1018.3     1.6      NE    53   3.3     ESE   107   9.78    267      -51.6
   08/17/2018 00:30      72.2      71.8       77     64.4      0.00      0.00      86.8     0.54      1018.3     1.2      NE    51   3.1     ENE    58   9.78    268      -51.6
   08/17/2018 00:20      72.5      71.9       77     64.5      0.00      0.00      86.7     0.54      1018.2     0.2     ENE    58   1.2      NE    51   9.78    267      -51.3
   08/17/2018 00:10      72.8      72.1       76     64.4      0.00      0.00      86.8     0.54      1018.2     0.2       E    88   1.4      NE    43   9.78    267      -51.8
   08/17/2018 00:00      72.8      72.3       76     64.5      0.00      0.00      86.8     0.54      1018.3     0.9     NNE    32   2.0       N     3   9.78    267      -52.3
   08/16/2018 23:50      72.8      72.3       76     64.5      0.00      0.00      86.8     0.54      1018.3     1.2      NE    46   2.8     ENE    66   9.79    267      -52.9
   08/16/2018 23:40      72.7      72.3       76     64.5      0.00      0.00      86.7     0.54      1018.2     1.1      NE    48   2.7      NE    54   9.79    267      -53.4
   08/16/2018 23:30      73.0      72.4       75     64.4      0.00      0.00      86.9     0.54      1018.1     1.3      NE    54   2.3     ENE    73   9.79    267      -53.5
   08/16/2018 23:20      73.7      72.7       74     64.2      0.00      0.00      86.8     0.54      1018.1     1.6     ENE    61   3.9      NE    51   9.79    267      -53.4
   08/16/2018 23:10      74.4      73.3       70     63.7      0.00      0.00      86.8     0.54      1018.0     2.5      NE    48   4.8     NNE    19   9.79    267      -53.8
   08/16/2018 23:00      74.4      73.7       68     62.8      0.00      0.00      86.9     0.54      1018.0     1.2     ENE    75   2.6     NNE    11   9.79    267      -53.3
   08/16/2018 22:50      74.3      73.9       68     63.0      0.00      0.00      86.9     0.54      1017.9     0.5     SSW   192   2.2     SSW   205   9.80    266      -53.9
   08/16/2018 22:40      74.7      73.9       68     62.9      0.00      0.00      86.8     0.54      1017.8     2.2       S   170   4.1      SE   129   9.80    266      -54.6
   08/16/2018 22:30      75.2      74.3       68     63.3      0.00      0.00      86.9     0.54      1017.8     1.6      SE   145   4.2     SSW   192   9.80    266      -55.4
   08/16/2018 22:20      75.5      74.8       68     63.8      0.00      0.00      86.9     0.54      1017.7     0.8     ESE   123   1.9      SE   142   9.80    266      -55.3
   08/16/2018 22:10      75.6      75.2       68     64.0      0.00      0.00      86.9     0.54      1017.5     0.8      NE    52   2.3      NE    52   9.80    266      -55.5
   08/16/2018 22:00      75.8      75.1       68     64.0      0.00      0.00      86.9     0.54      1017.4     0.4     SSE   147   2.0     ESE   121   9.81    266      -56.0
   08/16/2018 21:50      76.4      75.6       67     64.0      0.00      0.00      86.9     0.54      1017.5     1.0     ENE    59   2.1       E    83   9.81    266      -56.3
   08/16/2018 21:40      76.7      76.0       67     64.3      0.00      0.00      86.8     0.54      1017.4     1.1      NE    35   2.4      NE    44   9.81    266      -56.9
   08/16/2018 21:30      77.4      76.3       66     64.6      0.00      0.00      86.8     0.54      1017.4     1.5      NE    43   4.2      NE    40   9.81    266      -57.1
   08/16/2018 21:20      77.7      77.2       65     64.8      0.00      0.00      86.8     0.54      1017.2     1.3      NE    36   3.2       N     3   9.81    266      -57.8
   08/16/2018 21:10      77.8      77.4       65     64.8      0.00      0.00      86.8     0.54      1017.1     0.4      NE    48   2.3     NNE    24   9.82    266      -57.6
   08/16/2018 21:00      77.9      77.4       65     64.8      0.00      0.00      86.8     0.54      1016.9     0.1     SSW   194   0.7     SSW   194   9.82    266      -57.7
   08/16/2018 20:50      78.1      77.5       64     64.8      0.00      0.00      86.7     0.54      1016.7     0.2     SSW   195   0.8     SSW   194   9.82    265      -58.9
   08/16/2018 20:40      78.6      77.7       64     64.9      0.00      0.00      86.8     0.54      1016.6     0.7     ESE   122   2.8     ENE    63   9.82    265      -59.5
   08/16/2018 20:30      78.6      78.1       64     65.0      0.00      0.00      86.7     0.54      1016.5     0.9     ENE    77   2.8     ESE   112   9.83    265      -60.0
   08/16/2018 20:20      78.9      78.4       63     65.0      0.00      0.00      86.7     0.54      1016.4     0.9       E    92   2.0       E    84   9.83    265      -61.0
   08/16/2018 20:10      79.6      78.7       62     65.0      0.00      0.00      86.7     0.54      1016.3     1.7     ESE   102   3.7      SE   124   9.83    265      -61.9
   08/16/2018 20:00      80.6      79.3       60     65.0      0.00      0.00      86.7     0.54      1016.3     1.9       E    85   4.1     ENE    63   9.84    265      -62.6
   08/16/2018 19:50      81.6      80.3       59     65.1      0.00      0.00      86.6     0.54      1016.1     1.6     ENE    61   3.9     ENE    57   9.84    265      -62.6
   08/16/2018 19:40      82.9      81.3       57     65.2      0.00      0.00      86.5     0.54      1016.0     2.2      NE    55   4.4      NE    36   9.84    265      -60.2
   08/16/2018 19:30      83.9      82.6       55     65.3      0.00      0.00      86.6     0.54      1015.9     1.4     ENE    68   3.4     ENE    62   9.85    265      -56.1
   08/16/2018 19:20      85.7      83.6       53     65.4      0.00      0.00      86.5     0.54      1015.8     1.3       E    79   2.9     ENE    62   9.86    264      -50.6
   08/16/2018 19:10      86.9      85.5       50     65.3      0.00      0.00      86.5     0.54      1015.7     1.4      NE    41   3.4     NNE    33   9.86    264      -40.2
   08/16/2018 19:00      88.0      86.6       46     63.8      0.00      0.00      86.5     0.54      1015.6     2.3       N     8   5.2     NNW   335   9.86    264      -26.5
   08/16/2018 18:50      88.5      87.7       41     61.5      0.00      0.00      86.4     0.54      1015.5     2.9     NNW   335   5.4      NW   315   9.87    263       -4.7
   08/16/2018 18:40      88.6      88.0       41     61.7      0.00      0.00      86.3     0.54      1015.5     2.4      NW   319   5.3     WNW   292   9.87    263       15.7
   08/16/2018 18:30      89.1      87.9       41     61.8      0.00      0.00      86.4     0.54      1015.5     3.7      NW   323   7.1      NW   322   9.88    263       37.5
   08/16/2018 18:20      89.8      88.9       40     62.1      0.00      0.00      86.3     0.54      1015.4     3.2      NW   308   7.1      SW   232   9.88    263       57.7
   08/16/2018 18:10      90.6      89.4       40     62.3      0.00      0.00      86.2     0.54      1015.4     3.5     WNW   300   6.8      NW   316   9.89    263       81.5
   08/16/2018 18:00      91.3      90.4       39     62.8      0.00      0.00      86.2     0.54      1015.3     3.0      NW   314   8.9     WNW   298   9.89    263      102.4
   08/16/2018 17:50      91.0      90.1       41     63.3      0.00      0.00      86.1     0.54      1015.2     3.9      NW   319   7.8      NW   310   9.89    263      126.3
   08/16/2018 17:40      92.3      90.9       40     63.9      0.00      0.00      86.1     0.54      1015.0     4.0      NW   307   8.4      NW   307   9.90    263      148.8
   08/16/2018 17:30      94.0      92.1       39     64.7      0.00      0.00      86.0     0.54      1014.9     3.7     WNW   298   8.2     WNW   294   9.90    263      170.8
   08/16/2018 17:20      94.2      92.7       39     65.0      0.00      0.00      86.0     0.54      1014.8     2.1     NNE    20   4.8     NNE    27   9.91    263      192.7
   08/16/2018 17:10      94.0      93.4       39     65.1      0.00      0.00      86.0     0.54      1014.7     2.2      NW   316   5.5     WNW   286   9.91    263      219.2
   08/16/2018 17:00      93.4      92.4       40     65.1      0.00      0.00      85.9     0.54      1014.7     2.8       N   358   6.4     NNE    22   9.92    264      244.3
   08/16/2018 16:50      93.3      92.1       40     65.1      0.00      0.00      85.8     0.54      1014.7     3.1     WNW   301   7.9       N     0   9.92    263      269.0
   08/16/2018 16:40      93.8      92.4       40     65.1      0.00      0.00      85.7     0.54      1014.6     4.4     WSW   251   8.7       W   269   9.92    263      291.7
   08/16/2018 16:30      93.7      92.1       41     65.3      0.00      0.00      85.7     0.54      1014.6     4.1       W   270   8.4     WNW   290   9.93    263      314.9
   08/16/2018 16:20      93.2      92.2       40     65.1      0.00      0.00      85.6     0.54      1014.6     4.7     SSW   211   7.2      SW   232   9.93    263      334.5
   08/16/2018 16:10      92.9      92.1       41     65.1      0.00      0.00      85.6     0.54      1014.6     4.7     SSE   153   7.9      SE   135   9.94    263      355.4
   08/16/2018 16:00      92.8      91.8       41     64.9      0.00      0.00      85.5     0.54      1014.7     4.2       S   181   7.4      SE   140   9.94    263      377.0
   08/16/2018 15:50      92.6      91.5       41     64.7      0.00      0.00      85.4     0.54      1014.8     5.2     SSW   202   8.9       S   169   9.94    263      396.2
   08/16/2018 15:40      92.7      91.9       40     64.7      0.00      0.00      85.4     0.54      1014.9     5.7       S   191  10.9       S   175   9.95    263      414.6
   08/16/2018 15:30      93.3      91.9       40     64.4      0.00      0.00      85.3     0.54      1014.9     5.5       S   183   9.4       S   178   9.95    263      429.9
   08/16/2018 15:20      92.9      91.6       40     64.3      0.00      0.00      85.2     0.54      1014.9     5.1     SSW   200   9.1     WSW   247   9.96    263      446.5
   08/16/2018 15:10      94.1      92.1       39     64.8      0.00      0.00      85.2     0.54      1015.0     4.7     SSW   193   9.8     SSW   209   9.97    263      458.8
   08/16/2018 15:00      94.0      91.8       40     65.0      0.00      0.00      85.1     0.54      1015.0     3.9       S   185   7.3     SSW   208   9.97    264      471.0
   08/16/2018 14:50      93.9      92.1       40     65.1      0.00      0.00      85.0     0.54      1015.1     4.0       S   178   7.8       S   181   9.97    263      483.1
   08/16/2018 14:40      94.3      92.2       40     65.2      0.00      0.00      84.9     0.54      1015.1     3.6       S   175   7.6     SSW   194   9.98    263      494.1
   08/16/2018 14:30      94.0      93.2       40     65.6      0.00      0.00      84.9     0.53      1015.1     2.7     ESE   113   6.0      SE   130   9.98    263      500.1
   08/16/2018 14:20      93.8      92.4       40     65.5      0.00      0.00      84.8     0.53      1015.2     3.6       E    88   7.7      NE    50   9.99    263      511.2
   08/16/2018 14:10      94.6      93.3       39     65.2      0.00      0.00      84.8     0.53      1015.3     3.5     ENE    70   6.9     ESE   117   9.99    263      513.8
   08/16/2018 14:00      94.1      92.7       39     65.0      0.00      0.00      84.7     0.53      1015.4     3.5     ENE    63   7.2     SSE   148   9.99    263      523.3
   08/16/2018 13:50      94.5      93.4       37     63.5      0.00      0.00      84.7     0.53      1015.6     2.9      NE    36   7.1      NE    52   9.99    263      521.7
   08/16/2018 13:40      94.1      92.6       37     62.9      0.00      0.00      84.6     0.53      1015.7     2.2      NE    44   6.2     ENE    57  10.00    263      530.3
   08/16/2018 13:30      93.6      92.2       37     63.0      0.00      0.00      84.6     0.53      1015.7     2.2       E   100   4.1     ENE    75  10.00    263      534.5
   08/16/2018 13:20      93.3      92.8       38     63.3      0.00      0.00      84.5     0.53      1015.8     2.6     ENE    67   4.1       E    83  10.00    263      542.6
   08/16/2018 13:10      93.1      92.0       38     63.1      0.00      0.00      84.5     0.53      1016.0     1.9       W   262   5.5     SSW   194  10.00    263      542.6
   08/16/2018 13:00      93.0      89.7       39     63.2      0.00      0.00      84.4     0.53      1016.0     1.7     NNE    12   3.9     NNE    24  10.00    263      542.5
   08/16/2018 12:50      90.7      88.7       41     62.7      0.00      0.00      84.4     0.53      1016.1     2.8      SW   215   5.8     WSW   245  10.00    264      551.5
   08/16/2018 12:40      91.2      90.3       40     63.3      0.00      0.00      84.4     0.53      1016.2     2.5      NW   310   5.4       W   265  10.00    263      545.6
   08/16/2018 12:30      90.2      88.6       43     63.8      0.00      0.00      84.4     0.53      1016.2     2.1     ENE    66   5.0     ESE   105  10.00    264      546.8
   08/16/2018 12:20      89.8      88.3       43     63.8      0.00      0.00      84.4     0.53      1016.3     1.9     ENE    69   3.7      NE    46  10.01    263      544.6
   08/16/2018 12:10      89.6      87.8       43     63.7      0.00      0.00      84.3     0.53      1016.4     2.1     ENE    66   4.2      NE    35  10.01    263      538.2
   08/16/2018 12:00      87.9      86.4       46     63.6      0.00      0.00      84.3     0.53      1016.5     1.6       S   186   4.3     SSE   168  10.01    264      537.4
   08/16/2018 11:50      88.2      86.7       45     63.6      0.00      0.00      84.3     0.54      1016.6     2.2      NE    48   4.9       E    94  10.01    263      530.3
   08/16/2018 11:40      87.9      86.0       46     63.4      0.00      0.00      84.3     0.54      1016.7     1.5       N     5   3.4     ENE    59  10.01    264      525.7
   08/16/2018 11:30      86.2      84.5       47     63.0      0.00      0.00      84.3     0.54      1016.8     1.7     NNW   345   3.9       N   353  10.01    264      516.5
   08/16/2018 11:20      85.2      83.9       49     63.0      0.00      0.00      84.3     0.54      1016.9     1.6     WNW   301   4.3      NW   318  10.01    264      508.4
   08/16/2018 11:10      84.1      83.1       50     63.3      0.00      0.00      84.3     0.54      1016.9     2.2     NNE    20   4.6     NNE    12  10.01    264      500.2
   08/16/2018 11:00      83.1      82.2       51     62.8      0.00      0.00      84.3     0.54      1016.9     1.9       W   259   4.5     SSW   212  10.01    264      490.6
   08/16/2018 10:50      82.6      81.7       52     63.0      0.00      0.00      84.3     0.54      1016.9     1.9     NNE    16   3.5      NE    48  10.01    264      476.1
   08/16/2018 10:40      82.2      81.4       53     62.9      0.00      0.00      84.4     0.54      1017.0     1.4     NNE    16   3.7      NE    35  10.01    264      461.3
   08/16/2018 10:30      81.6      80.5       55     63.2      0.00      0.00      84.4     0.54      1017.1     1.6      NW   317   4.2     NNE    13  10.01    264      445.3
   08/16/2018 10:20      80.6      79.5       57     63.2      0.00      0.00      84.4     0.54      1017.1     1.4      NW   326   3.7       N     0  10.01    264      429.9
   08/16/2018 10:10      80.2      78.4       58     63.1      0.00      0.00      84.4     0.54      1017.3     1.7      NE    34   3.4       N   351  10.02    265      412.5
   08/16/2018 10:00      78.5      77.7       59     62.6      0.00      0.00      84.4     0.54      1017.3     1.7     NNE    22   3.3     NNW   347  10.02    265      398.5
   08/16/2018 09:50      77.9      76.4       63     63.1      0.00      0.00      84.5     0.54      1017.3     1.8       N     3   4.5     NNE    22  10.02    265      380.2
   08/16/2018 09:40      77.1      76.3       63     63.0      0.00      0.00      84.5     0.54      1017.3     2.6      NE    56   4.9       E    80  10.02    266      361.7
   08/16/2018 09:30      76.9      75.4       64     63.1      0.00      0.00      84.6     0.54      1017.3     1.7     NNE    26   4.9     SSE   151  10.02    265      339.9
   08/16/2018 09:20      76.6      75.7       64     63.3      0.00      0.00      84.6     0.54      1017.3     1.8      NE    48   4.6     NNE    29  10.02    266      320.3
   08/16/2018 09:10      75.8      74.0       68     63.4      0.00      0.00      84.6     0.54      1017.3     1.8     ENE    58   4.6     ENE    75   9.33    266      296.3
   08/16/2018 09:00      74.6      73.5       69     63.4      0.00      0.00      84.7     0.55      1017.3     2.0      NE    52   3.9     ENE    56   9.33    266      275.9
   08/16/2018 08:50      73.7      72.3       72     63.5      0.00      0.00      84.8     0.55      1017.3     2.2     ENE    62   4.4       E    98   9.33    266      260.0
   08/16/2018 08:40      72.4      71.5       74     63.3      0.00      0.00      84.7     0.55      1017.4     1.9      NE    56   3.3       E   100   9.33    266       97.2
   08/16/2018 08:30      72.0      71.2       75     63.3      0.00      0.00      84.8     0.55      1017.4     2.0      NE    37   4.2       N     3   9.33    266        7.8
   08/16/2018 08:20      71.5      70.9       76     63.3      0.00      0.00      84.8     0.55      1017.3     1.5      NE    37   4.1     ENE    62   9.33    266        8.8
   08/16/2018 08:10      71.4      70.8       76     63.1      0.00      0.00      84.8     0.55      1017.3     1.1       N     2   2.4      SE   141   9.33    267       30.1
   08/16/2018 08:00      70.9      70.0       77     63.0      0.00      0.00      84.9     0.55      1017.2     1.2       E    79   2.8       E    95   9.33    267       21.8
   08/16/2018 07:50      70.3      69.3       79     62.8      0.00      0.00      85.0     0.55      1017.1     0.7     NNE    28   2.4     NNE    13   9.33    268       28.7
   08/16/2018 07:40      69.5      68.8       80     62.6      0.00      0.00      85.0     0.55      1017.1     0.9     ESE   109   2.8       E    97   9.33    268       10.7
   08/16/2018 07:30      69.1      68.2       81     62.5      0.00      0.00      85.0     0.55      1017.0     0.3      SE   134   1.2      SE   134   9.33    268       -4.9
   08/16/2018 07:20      68.4      67.8       82     62.5      0.00      0.00      85.0     0.55      1016.9     0.0       N     0   0.0      SE   134   9.33    268      -13.8
   08/16/2018 07:10      67.9      67.2       84     62.5      0.00      0.00      85.1     0.55      1016.7     0.0       N     0   0.0      SE   134   9.33    267      -18.9
   08/16/2018 07:00      67.4      66.7       85     62.3      0.00      0.00      85.1     0.55      1016.6     0.0       N     0   0.0      SE   134   9.33    267      -23.9
   08/16/2018 06:50      66.9      66.3       85     61.8      0.00      0.00      85.2     0.55      1016.6     0.6      SE   132   1.9      SE   134   9.33    266      -27.3
   08/16/2018 06:40      66.8      66.3       85     61.7      0.00      0.00      85.2     0.55      1016.4     0.0       N     0   0.0     ESE   107   9.33    267      -32.3
   08/16/2018 06:30      66.8      66.3       84     61.6      0.00      0.00      85.2     0.55      1016.2     0.0       N     0   0.0     ESE   107   9.33    262      -37.6
   08/16/2018 06:20      66.8      66.3       84     61.6      0.00      0.00      85.2     0.55      1016.0     0.0       N     0   0.0     ESE   107   9.33    266      -42.0
   08/16/2018 06:10      66.9      66.3       84     61.4      0.00      0.00      85.3     0.55      1015.9     0.0     ESE   107   0.8     ESE   107   9.33    265      -44.7
   08/16/2018 06:00      66.9      66.5       83     61.5      0.00      0.00      85.3     0.55      1015.7     0.1     ESE   119   1.2     ESE   122   9.33    266      -46.0
   08/16/2018 05:50      66.8      66.3       83     61.1      0.00      0.00      85.4     0.55      1015.6     0.3      SE   132   1.4     ESE   123   9.33    266      -46.6
   08/16/2018 05:40      66.7      66.2       82     60.6      0.00      0.00      85.4     0.55      1015.5     0.0       E    86   2.0     ENE    68   9.33    266      -46.7
   08/16/2018 05:30      66.5      65.8       80     60.0      0.00      0.00      85.4     0.55      1015.4     0.0       N     0   0.0     SSE   159   9.33    266      -47.0
   08/16/2018 05:20      66.7      66.0       80     59.7      0.00      0.00      85.5     0.55      1015.3     0.5     SSE   156   1.7      SE   145   9.33    267      -47.5
   08/16/2018 05:10      66.9      66.2       78     59.4      0.00      0.00      85.5     0.55      1015.2     0.2     SSE   164   1.7      SE   144   9.33    267      -47.4
   08/16/2018 05:00      66.9      66.4       78     59.5      0.00      0.00      85.5     0.55      1015.1     1.0     SSW   193   1.6     SSW   193   9.33    267      -47.1
   08/16/2018 04:50      66.7      66.2       78     59.3      0.00      0.00      85.6     0.55      1015.1     0.3     SSW   192   0.8     SSW   192   9.33    267      -47.8
   08/16/2018 04:40      66.8      66.3       77     59.0      0.00      0.00      85.6     0.55      1015.1     0.0       N     0   0.0       E    96   9.34    267      -47.8
   08/16/2018 04:30      66.8      66.3       78     59.3      0.00      0.00      85.6     0.55      1015.1     0.0       N     0   0.0       E    96   9.34    267      -48.1
   08/16/2018 04:20      66.8      66.2       77     58.9      0.00      0.00      85.6     0.55      1015.1     0.0       N     0   0.0       E    96   9.34    267      -48.5
   08/16/2018 04:10      67.5      66.5       76     59.0      0.00      0.00      85.7     0.55      1015.1     0.0       N     0   0.0       E    96   9.34    267      -49.0
   08/16/2018 04:00      67.5      67.1       76     59.4      0.00      0.00      85.7     0.55      1015.1     0.1       E    96   1.0       E    96   9.34    267      -49.1
   08/16/2018 03:50      67.5      67.1       76     59.5      0.00      0.00      85.8     0.55      1015.1     0.1      SE   141   1.4      SE   141   9.34    267      -49.5
   08/16/2018 03:40      67.4      67.0       76     59.5      0.00      0.00      85.8     0.55      1015.0     0.2      SE   141   0.8      SE   141   9.34    267      -49.8
   08/16/2018 03:30      67.5      66.8       76     59.1      0.00      0.00      85.8     0.55      1014.9     0.1      SE   141   0.7      SE   141   9.34    267      -50.1
   08/16/2018 03:20      67.5      67.1       75     59.0      0.00      0.00      85.8     0.55      1014.8     0.0       N     0   0.0      SE   141   9.34    267      -50.0
   08/16/2018 03:10      67.5      67.2       75     59.3      0.00      0.00      85.9     0.55      1014.8     0.3      SE   141   1.2      SE   141   9.34    267      -50.5
   08/16/2018 03:00      67.8      67.1       75     59.3      0.00      0.00      85.9     0.55      1014.8     0.3      SE   141   1.3      SE   141   9.34    267      -50.8
   08/16/2018 02:50      67.9      67.4       75     59.5      0.00      0.00      85.9     0.55      1014.6     0.3      SE   141   1.2      SE   141   9.34    267      -50.8
   08/16/2018 02:40      67.9      67.6       75     59.4      0.00      0.00      86.0     0.55      1014.7     0.2      SE   141   0.7      SE   141   9.34    267      -50.8
   08/16/2018 02:30      68.4      67.6       73     59.1      0.00      0.00      86.0     0.55      1014.7     0.0      SE   141   0.6      SE   141   9.34    267      -51.1
   08/16/2018 02:20      68.8      68.2       72     59.0      0.00      0.00      86.0     0.55      1014.7     0.8     SSW   192   1.6      SW   228   9.34    267      -50.9
   08/16/2018 02:10      68.6      67.8       72     58.9      0.00      0.00      86.0     0.55      1014.7     1.4      SW   220   2.4      SW   220   9.35    267      -50.6
   08/16/2018 02:00      68.4      68.0       73     59.2      0.00      0.00      86.1     0.55      1014.8     0.1      SW   223   1.0      SW   223   9.35    267      -51.2
   08/16/2018 01:50      68.9      68.1       73     59.3      0.00      0.00      86.1     0.55      1014.7     0.0       N     0   0.0     ESE   121   9.35    267      -51.6
   08/16/2018 01:40      69.3      68.6       73     59.8      0.00      0.00      86.1     0.55      1014.8     0.0       N     0   0.0     ESE   121   9.35    267      -52.0
   08/16/2018 01:30      69.6      68.9       72     59.9      0.00      0.00      86.2     0.55      1014.8     0.0       N     0   0.0     ESE   120   9.35    267      -52.3
   08/16/2018 01:20      69.8      69.3       72     60.2      0.00      0.00      86.2     0.55      1014.8     0.0     ESE   120   0.7     ESE   120   9.35    267      -53.1
   08/16/2018 01:10      70.0      69.5       72     60.3      0.00      0.00      86.2     0.55      1015.0     0.7       E    98   1.7       E    96   9.35    267      -53.4
   08/16/2018 01:00      69.8      69.1       72     60.1      0.00      0.00      86.2     0.55      1015.1     0.2     ENE    69   1.7     ESE   118   9.35    267      -53.0
   08/16/2018 00:50      69.3      68.8       72     59.9      0.00      0.00      86.3     0.55      1015.1     0.0     ENE    62   1.5     ENE    57   9.35    267      -53.0
   08/16/2018 00:40      69.4      69.0       72     59.9      0.00      0.00      86.3     0.55      1015.1     0.0       N     0   0.0       S   190   9.35    267      -52.6
   08/16/2018 00:30      69.5      69.0       72     59.8      0.00      0.00      86.3     0.55      1015.3     0.0       N     0   0.0       S   190   9.35    267      -54.3
   08/16/2018 00:20      69.7      69.1       72     59.9      0.00      0.00      86.3     0.55      1015.3     0.0       N     0   0.0       S   190   9.35    266      -54.6
   08/16/2018 00:10      70.0      69.3       72     60.0      0.00      0.00      86.3     0.55      1015.2     0.0       S   190   0.4       S   190   9.36    266      -55.4
   08/16/2018 00:00      70.0      69.5       72     60.1      0.00      0.00      86.4     0.55      1015.1     0.0       N     0   0.0       S   190   9.36    266      -55.6
   08/15/2018 23:50      70.0      69.5       71     60.1      0.00      0.00      86.4     0.55      1015.1     0.0       S   190   0.4       S   190   9.36    266      -56.2
   08/15/2018 23:40      70.0      69.5       71     59.9      0.00      0.00      86.4     0.55      1015.0     0.4       S   190   1.0       S   190   9.36    266      -56.6
   08/15/2018 23:30      69.8      69.6       72     60.1      0.00      0.00      86.4     0.56      1014.9     0.1       S   190   0.8       S   191   9.36    266      -57.1
   08/15/2018 23:20      70.1      69.6       71     59.9      0.00      0.00      86.4     0.56      1014.8     0.0       S   190   0.2       S   190   9.36    266      -58.0
   08/15/2018 23:10      70.6      69.8       70     59.8      0.00      0.00      86.4     0.55      1014.7     0.0       S   190   0.5       S   190   9.36    266      -58.4
   08/15/2018 23:00      70.6      70.0       70     60.2      0.00      0.00      86.4     0.56      1014.7     0.4       S   190   1.1       S   190   9.37    266      -59.3
   08/15/2018 22:50      70.8      70.2       70     60.2      0.00      0.00      86.5     0.56      1014.7     0.0       N     0   0.0      NE    56   9.37    266      -59.6
   08/15/2018 22:40      71.2      70.5       70     60.6      0.00      0.00      86.5     0.56      1014.7     0.0       N     0   0.0      NE    56   9.37    266      -60.1
   08/15/2018 22:30      71.5      70.8       70     60.8      0.00      0.00      86.5     0.56      1014.6     0.0       N     0   0.0      NE    55   9.37    266      -61.2
   08/15/2018 22:20      71.8      71.2       70     60.9      0.00      0.00      86.5     0.56      1014.6     0.7      NE    52   2.0     NNE    26   9.37    266      -61.6
   08/15/2018 22:10      72.0      71.4       69     60.8      0.00      0.00      86.5     0.56      1014.7     0.7      NE    53   2.7      NE    52   9.37    266      -62.0
   08/15/2018 22:00      72.0      71.7       68     60.9      0.00      0.00      86.5     0.56      1014.7     1.4      NE    49   2.8      NE    54   9.38    266      -61.8
   08/15/2018 21:50      72.2      71.6       69     61.2      0.00      0.00      86.4     0.56      1014.6     0.7     NNE    28   1.9      NE    48   9.38    266      -62.0
   08/15/2018 21:40      72.1      71.6       70     61.5      0.00      0.00      86.5     0.56      1014.5     0.9      NE    46   2.1     NNE    33   9.38    266      -62.3
   08/15/2018 21:30      72.7      71.7       71     62.2      0.00      0.00      86.5     0.56      1014.3     1.8      NE    46   3.5     ENE    63   9.38    266      -62.9
   08/15/2018 21:20      72.8      72.4       70     62.4      0.00      0.00      86.5     0.56      1014.1     1.4      NE    56   3.4     ENE    60   9.38    266      -63.7
   08/15/2018 21:10      73.3      72.5       70     62.4      0.00      0.00      86.5     0.56      1013.9     1.8      NE    42   3.7      NE    49   9.38    266      -64.3
   08/15/2018 21:00      74.0      72.9       69     62.4      0.00      0.00      86.5     0.56      1013.7     2.0      NE    50   3.9      NE    56   9.39    266      -65.3
   08/15/2018 20:50      74.0      73.5       68     62.4      0.00      0.00      86.5     0.56      1013.5     1.5      NE    44   3.3      NE    42   9.39    266      -65.8
   08/15/2018 20:40      74.5      73.7       67     62.4      0.00      0.00      86.4     0.56      1013.4     2.2      NE    51   4.2      NE    53   9.39    265      -66.4
   08/15/2018 20:30      74.8      74.1       67     62.6      0.00      0.00      86.4     0.56      1013.2     1.1     ENE    78   2.6     ENE    70   9.39    265      -67.0
   08/15/2018 20:20      75.5      74.6       65     62.5      0.00      0.00      86.4     0.56      1013.1     2.0      NE    56   3.5      NE    41   9.40    265      -67.8
   08/15/2018 20:10      76.2      75.2       64     62.5      0.00      0.00      86.3     0.56      1012.9     1.4     ENE    72   3.3      NE    51   9.40    265      -69.0
   08/15/2018 20:00      77.4      75.8       62     62.5      0.00      0.00      86.4     0.56      1012.7     2.1      NE    53   3.9      NE    36   9.40    265      -70.3
   08/15/2018 19:50      78.5      77.1       60     62.7      0.00      0.00      86.3     0.56      1012.6     2.0      NE    36   3.8       E    83   9.41    265      -70.8
   08/15/2018 19:40      79.5      78.3       58     62.6      0.00      0.00      86.3     0.56      1012.5     1.9      NE    42   3.0      NE    49   9.41    265      -69.2
   08/15/2018 19:30      80.6      79.2       55     62.5      0.00      0.00      86.3     0.56      1012.3     1.9     NNE    28   4.1      NE    54   9.41    264      -65.7
   08/15/2018 19:20      81.2      80.3       52     61.7      0.00      0.00      86.2     0.56      1012.2     0.7       S   187   3.3     SSW   207   9.42    264      -57.6
   08/15/2018 19:10      81.5      80.7       52     61.9      0.00      0.00      86.2     0.56      1012.0     1.8     SSW   213   4.5       S   189   9.42    264      -41.5
   08/15/2018 19:00      82.6      81.2       51     61.8      0.00      0.00      86.2     0.56      1011.9     3.8     SSW   203   7.0      SW   224   9.42    263      -25.1
   08/15/2018 18:50      84.4      82.3       48     61.6      0.00      0.00      86.1     0.56      1011.8     3.7     SSW   201   6.4     SSW   198   9.43    263       -7.9
   08/15/2018 18:40      85.6      84.1       46     62.1      0.00      0.00      86.1     0.56      1011.7     2.1     SSW   202   4.6     SSW   200   9.43    263       12.8
   08/15/2018 18:30      86.6      85.0       46     62.6      0.00      0.00      86.1     0.56      1011.6     1.9     SSW   193   4.3       W   277   9.44    263       36.1
   08/15/2018 18:20      87.7      86.3       45     63.0      0.00      0.00      86.0     0.55      1011.6     2.4     ENE    58   4.2      NE    48   9.44    263       58.1
   08/15/2018 18:10      89.3      87.2       43     62.8      0.00      0.00      86.0     0.55      1011.5     2.0     NNE    33   4.4      NE    42   9.45    263       81.1
   08/15/2018 18:00      89.9      89.0       35     58.3      0.00      0.00      85.9     0.55      1011.4     2.8     NNW   341   7.7     NNW   333   9.45    263      104.5
   08/15/2018 17:50      90.2      89.4       31     55.1      0.00      0.00      85.9     0.55      1011.3     3.3      NW   316   7.2     WNW   298   9.45    262      129.4
   08/15/2018 17:40      90.9      89.4       31     54.8      0.00      0.00      85.8     0.55      1011.3     4.2      NW   320   7.9      NW   313   9.46    262      155.5
   08/15/2018 17:30      91.0      90.2       30     54.6      0.00      0.00      85.8     0.55      1011.2     3.6     WNW   294   8.6     WSW   257   9.46    262      180.0
   08/15/2018 17:20      91.2      90.1       29     53.7      0.00      0.00      85.7     0.55      1011.2     3.4     WNW   290   6.9     NNW   332   9.47    262      204.2
   08/15/2018 17:10      91.5      90.1       28     52.8      0.00      0.00      85.6     0.55      1011.1     5.1      NW   325   8.9     WNW   299   9.47    262      227.5
   08/15/2018 17:00      92.3      91.3       26     51.7      0.00      0.00      85.6     0.55      1011.0     4.4      NW   319   9.3      NW   308   9.48    262      250.5
   08/15/2018 16:50      92.1      91.4       26     51.7      0.00      0.00      85.5     0.55      1011.1     4.0      NW   310   8.5     WNW   285   9.48    262      274.0
   08/15/2018 16:40      92.9      91.3       25     51.8      0.00      0.00      85.5     0.55      1011.1     5.2      NW   321   9.3     WNW   296   9.49    262      294.7
   08/15/2018 16:30      94.2      92.6       24     51.5      0.00      0.00      85.4     0.55      1011.0     5.3      NW   317   9.6      NE    47   9.49    262      315.4
   08/15/2018 16:20      94.1      93.7       25     52.3      0.00      0.00      85.3     0.55      1011.0     5.0      NW   312  10.1      NW   316   9.50    262      335.0
   08/15/2018 16:10      94.8      93.1       29     56.3      0.00      0.00      85.3     0.55      1011.0     5.0     WSW   256  10.2       W   276   9.51    263      355.5
   08/15/2018 16:00      94.9      93.9       34     61.9      0.00      0.00      85.2     0.55      1011.0     2.8       N   353   5.3     ENE    68   9.51    263      372.6
   08/15/2018 15:50      94.1      93.0       33     60.4      0.00      0.00      85.1     0.55      1011.0     3.2     ESE   112   8.5      SE   142   9.51    263      395.4
   08/15/2018 15:40      93.3      92.7       34     60.1      0.00      0.00      85.1     0.55      1011.2     3.5       S   178   7.0     SSE   148   9.52    263      414.0
   08/15/2018 15:30      93.9      92.4       34     60.9      0.00      0.00      85.0     0.55      1011.3     3.6     SSE   160   6.9       S   170   9.52    263      431.0
   08/15/2018 15:20      93.9      92.6       35     61.7      0.00      0.00      84.9     0.55      1011.4     3.4     ENE    72  11.6       E    93   9.53    263      444.7
   08/15/2018 15:10      93.3      91.3       34     60.3      0.00      0.00      84.9     0.55      1011.6     2.7     WSW   238   5.4       S   188   9.53    263      460.9
   08/15/2018 15:00      92.0      91.3       36     60.9      0.00      0.00      84.8     0.55      1011.7     4.6     SSW   206   7.6     SSW   202   9.53    263      477.1
   08/15/2018 14:50      91.9      91.1       37     61.3      0.00      0.00      84.7     0.55      1011.8     5.4       S   189   9.0     SSW   205   9.54    263      489.6
   08/15/2018 14:40      92.9      91.1       36     61.3      0.00      0.00      84.7     0.55      1011.9     4.8     SSW   199   9.2      SW   221   9.54    263      499.5
   08/15/2018 14:30      93.2      91.1       37     61.6      0.00      0.00      84.6     0.55      1012.0     4.0     SSW   191   8.4     SSW   194   9.55    263      509.4
   08/15/2018 14:20      93.5      91.8       35     60.6      0.00      0.00      84.5     0.55      1012.1     2.7       S   185   8.1      SW   227   9.55    262      515.4
   08/15/2018 14:10      92.6      91.8       34     59.9      0.00      0.00      84.5     0.55      1012.2     3.3       E    88   7.4     ENE    75   9.55    262      522.3
   08/15/2018 14:00      93.0      91.8       33     59.6      0.00      0.00      84.4     0.55      1012.2     3.6       E    88   6.1     ENE    76   9.55    263      528.4
   08/15/2018 13:50      93.4      92.3       34     60.0      0.00      0.00      84.4     0.55      1012.3     3.7     ENE    77   6.4       E    83   9.56    262      534.3
   08/15/2018 13:40      94.3      92.9       27     54.7      0.00      0.00      84.3     0.55      1012.4     2.7     ENE    69   6.9     ESE   104   9.56    262      535.7
   08/15/2018 13:30      93.1      91.9       27     53.3      0.00      0.00      84.3     0.55      1012.5     2.0     ESE   105   4.6      NE    43   9.56    262      539.7
   08/15/2018 13:20      92.9      91.8       27     53.5      0.00      0.00      84.2     0.55      1012.6     2.1      SW   223   5.8      SW   235   9.56    261      545.1
   08/15/2018 13:10      93.1      91.1       27     53.8      0.00      0.00      84.1     0.55      1012.7     2.5     NNW   349   5.7     WSW   251   9.57    262      547.0
   08/15/2018 13:00      92.2      90.8       28     53.8      0.00      0.00      84.1     0.55      1012.7     2.7     WNW   301   9.0       W   260   9.57    262      550.4
   08/15/2018 12:50      92.0      89.6       29     54.5      0.00      0.00      84.0     0.55      1012.8     1.5     NNW   338   7.8       W   259   9.57    262      553.0
   08/15/2018 12:40      91.0      89.4       27     51.3      0.00      0.00      84.1     0.55      1012.9     2.8      SW   231   6.9     WSW   257   9.57    262      550.4
   08/15/2018 12:30      91.0      89.8       24     48.1      0.00      0.00      84.1     0.55      1013.0     2.0      SE   144   4.8       S   185   9.57    262      546.9
   08/15/2018 12:20      90.7      87.7       26     49.8      0.00      0.00      84.1     0.55      1013.1     1.1       E    87   3.0      SE   135   9.57    262      544.0
   08/15/2018 12:10      88.2      87.1       30     52.4      0.00      0.00      84.0     0.55      1013.2     2.4     NNE    26   4.5     NNE    22   9.58    262      541.1
   08/15/2018 12:00      87.3      86.1       32     53.0      0.00      0.00      84.0     0.55      1013.4     1.7      NW   314   4.0     WNW   301   9.58    262      537.4
   08/15/2018 11:50      86.8      85.9       32     53.4      0.00      0.00      84.0     0.55      1013.5     1.7       N     2   3.8      NE    55   9.58    263      534.0
   08/15/2018 11:40      86.1      84.5       35     54.2      0.00      0.00      84.0     0.55      1013.7     2.0       N   358   4.4     NNE    22   9.58    263      526.2
   08/15/2018 11:30      85.8      84.5       35     54.4      0.00      0.00      84.0     0.56      1013.7     1.6       E    88   4.3     NNW   346   9.58    263      520.6
   08/15/2018 11:20      85.2      84.5       35     54.5      0.00      0.00      84.0     0.56      1013.8     1.8      NE    53   4.2     ESE   114   9.58    263      512.0
   08/15/2018 11:10      84.9      82.5       40     56.9      0.00      0.00      84.0     0.56      1013.9     1.8     NNE    28   3.5       N     0   9.58    263      505.5
   08/15/2018 11:00      82.5      81.4       43     57.3      0.00      0.00      84.0     0.56      1014.0     1.7     NNW   345   3.9     NNE    27   9.58    263      495.7
   08/15/2018 10:50      81.6      81.1       46     58.4      0.00      0.00      84.1     0.56      1014.0     1.7     NNE    29   4.1       N   354   9.58    263      480.2
   08/15/2018 10:40      81.3      79.9       49     59.6      0.00      0.00      84.1     0.56      1014.1     1.4       N   354   4.0       N     5   9.58    264      466.6
   08/15/2018 10:30      80.5      79.4       51     60.1      0.00      0.00      84.1     0.56      1014.2     2.1      NE    37   5.0     NNE    16   9.58    264      451.9
   08/15/2018 10:20      79.7      78.4       53     60.3      0.00      0.00      84.1     0.56      1014.2     1.6      NE    43   3.5     ESE   106   9.58    264      436.7
   08/15/2018 10:10      78.6      77.7       55     60.8      0.00      0.00      84.2     0.56      1014.2     1.7       N     8   4.1      NE    56   9.58    264      419.2
   08/15/2018 10:00      77.8      76.6       56     60.5      0.00      0.00      84.2     0.56      1014.3     1.7      NW   322   4.7     NNE    18   8.89    264      399.8
   08/15/2018 09:50      77.0      76.3       58     60.7      0.00      0.00      84.3     0.56      1014.3     1.7     ENE    64   4.2      SE   133   8.20    264      381.5
   08/15/2018 09:40      76.7      75.3       59     60.9      0.00      0.00      84.3     0.56      1014.3     1.5     NNE    17   4.1     NNE    25   8.20    264      361.8
   08/15/2018 09:30      75.5      74.8       61     60.8      0.00      0.00      84.3     0.56      1014.4     1.8     NNW   348   4.1     NNE    20   8.20    264      342.3
   08/15/2018 09:20      75.6      74.7       61     60.7      0.00      0.00      84.3     0.56      1014.4     1.9     NNE    21   3.8     ENE    68   8.21    265      322.9
   08/15/2018 09:10      75.5      74.1       61     60.5      0.00      0.00      84.4     0.56      1014.5     1.0     NNE    29   2.4     NNE    30   8.20    265      303.8
   08/15/2018 09:00      74.1      72.5       64     60.1      0.00      0.00      84.4     0.56      1014.4     1.0     NNE    13   3.6       N     2   8.20    265      283.5
   08/15/2018 08:50      72.7      70.9       68     60.6      0.00      0.00      84.5     0.56      1014.4     1.0     NNW   341   3.4     NNW   327   8.20    266      270.0
   08/15/2018 08:40      71.1      70.1       71     60.8      0.00      0.00      84.5     0.56      1014.4     1.9      SW   233   3.7     WSW   245   8.20    266      119.9
   08/15/2018 08:30      70.6      70.1       72     60.8      0.00      0.00      84.6     0.56      1014.3     1.8     WSW   247   3.2       W   277   8.20    266      -14.4
   08/15/2018 08:20      70.6      69.8       72     60.6      0.00      0.00      84.6     0.56      1014.4     0.7      SE   125   2.1     NNE    32   8.20    266      -16.6
   08/15/2018 08:10      70.1      69.5       72     60.2      0.00      0.00      84.6     0.56      1014.3     1.2       E    85   2.5     ESE   118   8.20    266       -1.5
   08/15/2018 08:00      69.8      68.5       72     59.9      0.00      0.00      84.7     0.56      1014.3     1.0      NE    38   2.7     NNE    33   8.20    266        8.9
   08/15/2018 07:50      68.6      68.1       73     59.4      0.00      0.00      84.7     0.57      1014.3     1.0       N     6   2.4     NNE    20   8.21    267       22.1
   08/15/2018 07:40      68.3      67.4       74     59.2      0.00      0.00      84.8     0.57      1014.2     0.6     ESE   112   1.8     ENE    77   8.21    267        9.4
   08/15/2018 07:30      67.5      66.6       74     58.7      0.00      0.00      84.8     0.57      1014.1     0.0     ENE    71   0.7     ENE    71   8.21    267      -14.3
   08/15/2018 07:20      66.8      65.6       77     58.7      0.00      0.00      84.9     0.57      1014.0     0.2       E    81   1.1     ENE    71   8.21    268      -20.7
   08/15/2018 07:10      65.8      64.5       79     58.6      0.00      0.00      84.9     0.57      1013.9     0.2       S   174   1.1       S   174   8.21    268      -24.3
   08/15/2018 07:00      64.6      63.8       82     58.5      0.00      0.00      84.9     0.57      1013.8     0.0       S   174   0.4       S   174   8.21    267      -28.4
   08/15/2018 06:50      64.0      63.4       83     58.2      0.00      0.00      84.9     0.57      1013.7     0.3     SSE   156   0.9      SE   139   8.21    267      -34.2
   08/15/2018 06:40      63.5      63.1       83     58.2      0.00      0.00      85.0     0.57      1013.6     0.0      SE   139   1.0      SE   139   8.21    266      -40.3
   08/15/2018 06:30      63.5      63.0       84     58.2      0.00      0.00      85.1     0.57      1013.4     0.4      SE   145   1.8      SE   139   8.21    266      -45.5
   08/15/2018 06:20      63.5      63.2       83     58.2      0.00      0.00      85.1     0.57      1013.3     0.0      SW   226   0.5      SW   226   8.21    263      -48.6
   08/15/2018 06:10      63.6      63.3       83     58.1      0.00      0.00      85.1     0.57      1013.2     0.0      SW   226   0.0      SW   226   8.21    266      -51.2
   08/15/2018 06:00      63.7      63.2       83     58.1      0.00      0.00      85.2     0.57      1013.1     0.8     SSW   210   1.7     SSW   204   8.21    266      -52.1
   08/15/2018 05:50      63.9      63.4       83     58.3      0.00      0.00      85.2     0.57      1013.0     0.7     SSE   151   1.4      SE   140   8.21    264      -52.1
   08/15/2018 05:40      63.9      63.3       83     58.4      0.00      0.00      85.2     0.57      1013.0     1.2     SSW   193   2.0     SSW   192   8.21    266      -51.8
   08/15/2018 05:30      63.7      63.3       84     58.4      0.00      0.00      85.3     0.57      1013.0     0.4       S   178   1.1       S   178   8.21    266      -51.6
   08/15/2018 05:20      63.9      63.3       83     58.3      0.00      0.00      85.3     0.57      1013.0     0.1       S   178   0.6       S   178   8.21    264      -52.6
   08/15/2018 05:10      64.0      63.4       83     58.3      0.00      0.00      85.3     0.57      1013.1     0.0       S   178   0.8       S   178   8.21    266      -52.5
   08/15/2018 05:00      64.0      63.5       83     58.4      0.00      0.00      85.4     0.57      1013.0     0.2       S   178   0.8       S   178   8.21    266      -52.6
   08/15/2018 04:50      64.5      63.7       82     58.5      0.00      0.00      85.4     0.57      1013.0     0.0       N     0   0.0       S   178   8.21    264      -53.3
   08/15/2018 04:40      64.6      64.1       82     58.7      0.00      0.00      85.4     0.57      1013.0     0.2       S   178   0.7       S   178   8.21    266      -53.0
   08/15/2018 04:30      64.8      64.1       82     58.6      0.00      0.00      85.5     0.57      1013.0     0.2       S   178   0.7       S   178   8.21    266      -54.2
   08/15/2018 04:20      64.7      64.3       82     58.9      0.00      0.00      85.5     0.57      1012.9     0.5       S   178   1.0       S   178   8.21    266      -53.8
   08/15/2018 04:10      64.6      64.2       82     58.9      0.00      0.00      85.5     0.57      1012.9     0.4       S   179   1.1       S   178   8.21    265      -55.3
   08/15/2018 04:00      64.6      64.2       82     58.7      0.00      0.00      85.6     0.57      1012.9     0.3       S   189   1.2       S   190   8.21    266      -56.1
   08/15/2018 03:50      65.2      64.2       82     58.9      0.00      0.00      85.6     0.57      1012.8     0.0       S   190   0.6       S   190   8.21    266      -56.4
   08/15/2018 03:40      65.1      64.8       82     59.2      0.00      0.00      85.6     0.57      1012.8     0.2       S   191   1.1       S   191   8.21    266      -56.2
   08/15/2018 03:30      65.4      64.8       81     59.0      0.00      0.00      85.7     0.57      1012.7     0.1       S   191   1.1       S   191   8.21    266      -56.8
   08/15/2018 03:20      65.6      65.1       81     59.2      0.00      0.00      85.7     0.57      1012.7     0.4       S   191   1.2       S   191   8.21    266      -56.6
   08/15/2018 03:10      65.7      65.0       80     59.1      0.00      0.00      85.7     0.57      1012.7     0.1       S   191   1.2       S   191   8.21    266      -57.2
   08/15/2018 03:00      65.7      65.2       80     59.1      0.00      0.00      85.8     0.57      1012.8     0.0       N     0   0.0       S   191   8.21    266      -57.6
   08/15/2018 02:50      66.0      65.4       79     59.1      0.00      0.00      85.8     0.57      1012.9     0.4       S   191   1.1       S   191   8.22    266      -57.8
   08/15/2018 02:40      66.3      65.8       79     59.5      0.00      0.00      85.8     0.57      1012.9     0.3       S   191   1.4       S   191   8.22    266      -58.0
   08/15/2018 02:30      66.5      65.9       79     59.5      0.00      0.00      85.9     0.57      1013.0     0.0     SSE   151   0.8      SE   135   8.22    266      -58.4
   08/15/2018 02:20      66.7      66.2       79     59.5      0.00      0.00      85.9     0.57      1013.0     0.0      SE   135   0.7      SE   135   8.22    266      -58.4
   08/15/2018 02:10      67.1      66.5       79     59.9      0.00      0.00      85.9     0.57      1013.1     0.0      SE   134   0.6      SE   135   8.22    266      -59.1
   08/15/2018 02:00      67.4      66.8       78     60.0      0.00      0.00      86.0     0.57      1013.1     0.5     ESE   122   1.3     ESE   119   8.22    266      -60.1
   08/15/2018 01:50      67.4      67.0       78     60.3      0.00      0.00      86.0     0.57      1012.9     0.4     ESE   108   1.2       E    86   8.22    266      -60.5
   08/15/2018 01:40      67.6      67.1       78     60.0      0.00      0.00      86.0     0.57      1012.9     0.8     ESE   122   1.6      SE   131   8.22    266      -60.8
   08/15/2018 01:30      67.9      67.3       76     59.9      0.00      0.00      86.0     0.57      1013.0     0.3      SE   136   1.2      SE   144   8.22    266      -61.1
   08/15/2018 01:20      68.1      67.6       76     59.9      0.00      0.00      86.0     0.57      1013.1     0.5       E    90   1.5      NE    53   8.22    266      -60.7
   08/15/2018 01:10      68.1      67.7       76     59.9      0.00      0.00      86.1     0.57      1013.1     0.2       E    89   1.2       E    82   8.22    266      -60.4
   08/15/2018 01:00      68.4      67.9       75     60.1      0.00      0.00      86.1     0.57      1013.2     0.3       E    89   2.2       E    88   8.22    266      -60.8
   08/15/2018 00:50      68.7      68.1       75     60.1      0.00      0.00      86.1     0.57      1013.1     0.4       E    95   2.0     ENE    72   8.22    266      -61.1
   08/15/2018 00:40      68.8      68.3       75     60.1      0.00      0.00      86.1     0.57      1013.2     0.3     ENE    74   1.4     NNE    32   8.23    266      -61.6
   08/15/2018 00:30      68.9      68.5       74     60.1      0.00      0.00      86.2     0.57      1013.2     0.4     ESE   102   2.1     ESE   113   8.23    266      -62.0
   08/15/2018 00:20      69.3      68.6       73     59.9      0.00      0.00      86.2     0.57      1013.2     0.9       E    99   2.3       E    86   8.23    266      -62.2
   08/15/2018 00:10      69.4      68.8       73     59.9      0.00      0.00      86.2     0.57      1013.2     0.9     ESE   110   2.4      NE    55   8.23    266      -62.4
   08/15/2018 00:00      69.5      69.1       72     60.0      0.00      0.00      86.3     0.57      1013.1     1.1       E    85   3.4     ENE    71   8.23    266      -62.5
   08/14/2018 23:50      69.7      69.2       72     59.8      0.00      0.00      86.3     0.57      1013.0     0.8       E   101   1.9     ENE    69   8.23    266      -62.9
   08/14/2018 23:40      70.1      69.4       71     59.7      0.00      0.00      86.3     0.57      1012.9     0.0     ESE   113   1.0     ESE   122   8.23    266      -63.5
   08/14/2018 23:30      70.5      69.7       70     59.8      0.00      0.00      86.3     0.57      1012.9     0.0     ESE   102   1.1       E   101   8.23    266      -63.8
   08/14/2018 23:20      70.8      70.1       70     60.0      0.00      0.00      86.3     0.57      1012.9     0.8     ESE   106   1.8       E    82   8.23    266      -64.1
   08/14/2018 23:10      71.1      70.5       69     59.9      0.00      0.00      86.3     0.57      1012.7     0.5       E    81   2.1       E    96   8.23    266      -64.4
   08/14/2018 23:00      71.6      70.8       66     59.2      0.00      0.00      86.4     0.57      1012.7     1.1       E    95   3.8       E    80   8.23    265      -64.2
   08/14/2018 22:50      72.0      71.1       65     59.0      0.00      0.00      86.4     0.57      1012.6     1.0       E    94   2.5       E    90   8.24    265      -64.4
   08/14/2018 22:40      72.3      71.6       64     59.2      0.00      0.00      86.3     0.57      1012.5     0.9       E    95   2.8     ESE   102   8.24    265      -65.0
   08/14/2018 22:30      72.8      72.1       64     59.4      0.00      0.00      86.4     0.57      1012.5     0.9       E    79   2.8     ENE    72   8.24    265      -66.3
   08/14/2018 22:20      73.1      72.5       63     59.5      0.00      0.00      86.4     0.57      1012.4     0.9     ENE    63   2.2     ENE    59   8.24    265      -67.2
   08/14/2018 22:10      73.5      72.8       62     59.3      0.00      0.00      86.4     0.57      1012.3     0.7       E    92   2.1     ENE    68   8.24    264      -68.4
   08/14/2018 22:00      74.0      73.2       60     58.8      0.00      0.00      86.4     0.57      1012.3     0.8     ESE   115   2.0       E    81   8.24    264      -69.9
   08/14/2018 21:50      74.7      73.7       58     58.6      0.00      0.00      86.5     0.57      1012.2     0.9       E    99   2.6       E    96   8.24    264      -70.7
   08/14/2018 21:40      75.3      74.4       56     58.2      0.00      0.00      86.4     0.57      1012.0     0.5     ENE    61   1.5      NE    53   8.25    264      -71.4
   08/14/2018 21:30      75.7      75.0       55     58.0      0.00      0.00      86.4     0.57      1011.9     1.0      NE    50   2.3      NE    44   8.25    264      -72.7
   08/14/2018 21:20      76.5      75.5       53     57.7      0.00      0.00      86.5     0.57      1011.7     0.7     ENE    79   2.4     ESE   123   8.25    263      -73.7
   08/14/2018 21:10      77.7      76.2       52     57.8      0.00      0.00      86.5     0.57      1011.5     1.5      NE    53   2.2     ENE    68   8.25    263      -74.5
   08/14/2018 21:00      78.2      77.4       44     54.0      0.00      0.00      86.5     0.57      1011.4     1.0     NNE    18   2.5     ENE    58   8.25    263      -75.6
   08/14/2018 20:50      78.1      77.8       36     48.7      0.00      0.00      86.5     0.57      1011.3     0.9     WSW   242   2.5       W   268   8.25    263      -75.8
   08/14/2018 20:40      78.7      77.8       32     46.1      0.00      0.00      86.5     0.58      1011.2     0.1       S   170   1.4     SSE   147   8.26    262      -76.4
   08/14/2018 20:30      80.2      78.4       30     44.6      0.00      0.00      86.4     0.58      1011.1     0.3      SE   134   1.2       S   174   8.26    262      -78.4
   08/14/2018 20:20      81.0      79.9       28     44.6      0.00      0.00      86.4     0.58      1010.9     0.6     WSW   258   2.9     WNW   299   8.26    262      -80.7
   08/14/2018 20:10      81.3      80.6       28     44.3      0.00      0.00      86.4     0.58      1010.8     1.3     WNW   288   3.3      NW   318   8.26    262      -82.3
   08/14/2018 20:00      81.6      81.0       26     43.1      0.00      0.00      86.4     0.58      1010.7     1.8      NW   307   4.5       W   264   8.27    262      -83.1
   08/14/2018 19:50      82.2      81.3       25     42.2      0.00      0.00      86.4     0.58      1010.6     3.1      NW   313   6.9      NW   304   8.27    262      -82.7
   08/14/2018 19:40      83.2      81.9       22     40.2      0.00      0.00      86.4     0.58      1010.5     3.3      NW   312   6.0      NW   315   8.28    261      -81.0
   08/14/2018 19:30      84.1      82.9       20     38.6      0.00      0.00      86.4     0.58      1010.5     2.6      NW   314   6.1     WNW   293   8.28    261      -78.5
   08/14/2018 19:20      85.4      83.9       20     38.5      0.00      0.00      86.4     0.58      1010.3     3.0      NW   315   7.2       W   280   8.29    261      -70.0
   08/14/2018 19:10      86.0      85.1       19     38.9      0.00      0.00      86.3     0.58      1010.3     2.6     WNW   302   6.0     WNW   291   8.29    261      -54.4
   08/14/2018 19:00      87.0      85.5       19     39.3      0.00      0.00      86.3     0.58      1010.2     3.3      NW   311   8.2      NW   316   8.30    261      -36.1
   08/14/2018 18:50      86.9      86.2       20     40.4      0.00      0.00      86.2     0.58      1010.2     2.6     WNW   297   6.4     NNE    20   8.30    261      -24.4
   08/14/2018 18:40      87.9      86.4       19     40.0      0.00      0.00      86.2     0.58      1010.2     4.3     WNW   304   6.6       W   273   8.31    261       -2.7
   08/14/2018 18:30      89.2      87.5       19     41.1      0.00      0.00      86.2     0.58      1010.3     3.9     WNW   302   8.5     NNW   338   8.31    261       18.7
   08/14/2018 18:20      89.5      88.6       19     41.6      0.00      0.00      86.2     0.58      1010.3     2.7     WNW   300   5.9     WNW   282   8.32    261       53.4
   08/14/2018 18:10      90.1      89.1       19     41.4      0.00      0.00      86.1     0.58      1010.3     3.4       W   279   6.6     WSW   241   8.33    261       81.8
   08/14/2018 18:00      90.9      89.9       16     37.4      0.00      0.00      86.1     0.58      1010.4     3.7       W   272   7.4      NW   324   8.33    261      105.2
   08/14/2018 17:50      90.7      89.5       17     39.4      0.00      0.00      86.1     0.58      1010.4     3.0     WSW   255   6.4       W   262   8.34    261      132.2
   08/14/2018 17:40      90.5      89.6       18     41.1      0.00      0.00      86.0     0.58      1010.3     3.8       W   262   7.5     WNW   286   8.35    261      157.0
   08/14/2018 17:30      90.0      89.4       19     42.3      0.00      0.00      86.0     0.58      1010.4     4.3       W   269   7.2     WSW   237   8.35    261      180.4
   08/14/2018 17:20      90.6      89.1       20     43.9      0.00      0.00      85.9     0.58      1010.5     4.4      SW   224   8.4     SSW   208   8.36    261      204.7
   08/14/2018 17:10      91.2      90.1       20     44.6      0.00      0.00      85.9     0.58      1010.5     3.9     WSW   257   6.4     WSW   244   8.37    261      227.8
   08/14/2018 17:00      90.5      89.7       20     43.6      0.00      0.00      85.8     0.58      1010.5     3.8     NNW   339   9.2       N     0   8.37    261      250.4
   08/14/2018 16:50      90.5      89.7       20     44.1      0.00      0.00      85.8     0.58      1010.5     4.9     NNW   336   8.8      NW   311   8.38    261      272.4
   08/14/2018 16:40      91.0      90.2       24     48.6      0.00      0.00      85.7     0.58      1010.5     4.2      NW   321   9.4     WNW   287   8.38    262      293.0
   08/14/2018 16:30      91.1      90.2       24     48.8      0.00      0.00      85.7     0.58      1010.5     4.6     NNW   344   9.6     NNW   338   8.39    262      314.8
   08/14/2018 16:20      91.1      90.0       24     49.3      0.00      0.00      85.6     0.58      1010.6     4.3      NW   309   9.3     NNW   326   8.39    262      336.8
   08/14/2018 16:10      92.5      91.0       24     49.8      0.00      0.00      85.5     0.58      1010.7     3.9      NW   307   8.7     NNW   338   8.40    262      355.4
   08/14/2018 16:00      92.4      90.8       26     52.0      0.00      0.00      85.5     0.58      1010.7     3.3      NW   314   6.8      NW   317   8.40    262      374.6
   08/14/2018 15:50      91.9      90.4       28     53.3      0.00      0.00      85.4     0.58      1010.8     4.4      NW   325   8.9     WNW   283   8.41    262      393.0
   08/14/2018 15:40      91.8      91.1       28     53.6      0.00      0.00      85.4     0.58      1010.8     3.7     NNW   328   7.1     NNW   343   8.41    263      411.3
   08/14/2018 15:30      91.8      91.0       29     54.1      0.00      0.00      85.3     0.58      1010.8     4.1      NW   314   7.3     NNW   328   8.42    262      427.7
   08/14/2018 15:20      92.0      90.9       31     56.9      0.00      0.00      85.2     0.58      1011.0     3.9      NW   325   8.3     NNW   343   8.42    263      443.8
   08/14/2018 15:10      91.6      90.7       33     58.0      0.00      0.00      85.2     0.58      1011.0     4.0     NNW   332   8.5     NNW   332   8.43    263      457.0
   08/14/2018 15:00      91.8      91.0       33     58.2      0.00      0.00      85.1     0.58      1011.1     3.3     ENE    69   6.4     ENE    76   8.43    263      470.5
   08/14/2018 14:50      91.6      90.1       32     57.4      0.00      0.00      85.1     0.58      1011.1     2.8      NE    50   4.9     ENE    73   8.43    263      482.1
   08/14/2018 14:40      91.3      90.6       32     57.0      0.00      0.00      85.0     0.58      1011.3     2.7       E    83   6.2     NNE    15   8.44    262      494.0
   08/14/2018 14:30      91.0      90.3       32     57.1      0.00      0.00      84.9     0.58      1011.4     3.1     ENE    59   6.4      NE    43   8.44    263      504.2
   08/14/2018 14:20      90.6      89.6       33     57.1      0.00      0.00      84.7     0.57      1011.6     3.2       E    93   5.7      SE   141   8.44    263      513.6
   08/14/2018 14:10      90.7      89.1       33     56.9      0.00      0.00      84.8     0.57      1011.7     3.1     ENE    76   6.3      SE   143   8.45    262      521.7
   08/14/2018 14:00      90.7      89.9       32     56.3      0.00      0.00      84.6     0.57      1011.8     2.1     ENE    70   5.5      SE   145   8.45    262      526.2
   08/14/2018 13:50      90.8      89.3       32     56.0      0.00      0.00      84.7     0.57      1011.9     2.1     NNW   345   4.6     NNW   343   8.45    262      531.9
   08/14/2018 13:40      90.1      89.0       32     56.2      0.00      0.00      84.6     0.57      1012.0     2.8      NE    52   6.7     ENE    62   8.45    262      538.2
   08/14/2018 13:30      89.1      88.5       33     55.9      0.00      0.00      84.6     0.57      1012.2     2.3     ENE    65   5.7       E    90   8.46    262      546.5
   08/14/2018 13:20      88.6      86.9       34     56.2      0.00      0.00      84.6     0.57      1012.2     3.5     ESE   122   7.4      SE   138   8.46    263      553.7
   08/14/2018 13:10      89.0      86.7       33     55.1      0.00      0.00      84.5     0.57      1012.4     3.0      SE   131   5.8      SE   138   8.46    262      555.1
   08/14/2018 13:00      87.2      85.6       33     53.9      0.00      0.00      84.5     0.58      1012.5     2.8       E    91   6.4       E    96   8.46    262      556.5
   08/14/2018 12:50      87.9      85.5       32     53.6      0.00      0.00      84.5     0.58      1012.7     3.8     ESE   121   9.8      SE   133   8.46    262      559.3
   08/14/2018 12:40      86.7      85.7       33     53.7      0.00      0.00      84.5     0.58      1012.7     2.4       E    99   5.4      NE    53   8.47    263      558.9
   08/14/2018 12:30      86.5      84.9       34     53.7      0.00      0.00      84.4     0.58      1012.8     3.5      SE   143   8.8      SE   143   8.47    263      556.0
   08/14/2018 12:20      87.4      86.0       33     53.8      0.00      0.00      84.4     0.58      1013.0     2.8     NNE    19   6.7      NE    40   8.47    262      548.8
   08/14/2018 12:10      86.1      85.2       34     53.7      0.00      0.00      84.4     0.58      1013.0     2.5     ENE    74   5.6     SSE   156   8.47    263      545.7
   08/14/2018 12:00      85.7      84.7       34     53.7      0.00      0.00      84.4     0.58      1013.1     3.0     NNE    14   6.4      NE    53   8.47    262      538.6
   08/14/2018 11:50      85.6      83.8       35     53.9      0.00      0.00      84.4     0.58      1013.2     2.1      NE    55   4.4       E    80   8.48    262      534.0
   08/14/2018 11:40      85.2      83.9       35     54.3      0.00      0.00      84.4     0.58      1013.3     2.2     NNE    24   5.1     ENE    67   8.48    263      528.5
   08/14/2018 11:30      85.1      83.7       36     54.8      0.00      0.00      84.4     0.58      1013.4     1.7       N   357   3.8      NW   325   8.48    263      522.9
   08/14/2018 11:20      83.7      82.5       38     54.8      0.00      0.00      84.4     0.58      1013.5     2.2       N    10   4.4       N   350   8.48    263      515.3
   08/14/2018 11:10      83.6      81.8       39     55.0      0.00      0.00      84.4     0.58      1013.6     1.7      NE    44   4.6     NNW   346   8.48    263      507.1
   08/14/2018 11:00      82.6      80.7       41     55.4      0.00      0.00      84.4     0.58      1013.7     2.0     NNE    20   5.9      NW   309   8.48    263      494.3
   08/14/2018 10:50      81.2      79.9       43     55.9      0.00      0.00      84.5     0.58      1013.8     2.2     NNE    11   5.0     NNW   337   8.48    263      480.2
   08/14/2018 10:40      80.2      79.4       44     56.3      0.00      0.00      84.5     0.58      1013.8     2.0      NE    41   4.7      NE    46   8.48    263      467.4
   08/14/2018 10:30      79.6      78.8       46     56.5      0.00      0.00      84.5     0.58      1013.7     1.9       E    83   4.2      SE   133   8.48    263      453.5
   08/14/2018 10:20      79.0      78.5       47     56.6      0.00      0.00      84.5     0.58      1013.8     2.1     NNW   332   4.5     NNE    14   8.48    263      437.7
   08/14/2018 10:10      78.6      77.3       48     56.7      0.00      0.00      84.6     0.58      1013.8     1.5       S   175   3.8       E    98   8.48    263      420.6
   08/14/2018 10:00      77.5      76.2       49     56.8      0.00      0.00      84.7     0.58      1013.8     1.6     NNE    31   4.5       N     5   8.48    263      402.1
   08/14/2018 09:50      76.4      75.8       52     57.1      0.00      0.00      84.7     0.58      1013.9     2.0     NNE    19   4.4      NE    35   8.48    263      384.4
   08/14/2018 09:40      77.1      75.8       51     57.1      0.00      0.00      84.7     0.58      1013.9     1.9       N    11   4.6     NNE    25   8.48    263      366.9
   08/14/2018 09:30      76.7      74.7       53     57.4      0.00      0.00      84.7     0.58      1014.0     1.6       E    80   4.8       E    89   8.48    264      346.2
   08/14/2018 09:20      75.0      73.3       57     57.5      0.00      0.00      84.8     0.59      1014.0     1.1     NNE    12   3.4      NE    48   8.48    264      325.9
   08/14/2018 09:10      73.9      72.2       58     57.6      0.00      0.00      84.8     0.59      1014.0     1.8       N     6   5.0       N     1   8.48    264      306.1
   08/14/2018 09:00      72.4      71.9       60     57.8      0.00      0.00      84.9     0.59      1014.0     2.1       N   355   4.4       N   354   8.48    264      287.3
   08/14/2018 08:50      72.0      70.3       64     58.1      0.00      0.00      84.9     0.59      1014.0     1.5     NNE    30   3.4     NNE    32   8.48    265      274.2
   08/14/2018 08:40      70.5      69.8       66     58.4      0.00      0.00      84.9     0.59      1014.0     1.5     NNE    13   3.9     NNE    13   8.48    266      129.7
   08/14/2018 08:30      70.1      69.4       68     58.6      0.00      0.00      85.0     0.59      1013.9     1.3      NE    46   2.6      NE    41   8.48    266      -20.3
   08/14/2018 08:20      69.7      69.3       69     58.9      0.00      0.00      85.1     0.59      1013.9     1.2       E    89   3.7     ESE   120   8.48    266      -28.9
   08/14/2018 08:10      69.5      69.0       71     59.5      0.00      0.00      85.1     0.59      1014.0     1.7     ESE   113   3.7     ENE    65   8.48    266      -17.2
   08/14/2018 08:00      69.4      68.1       74     60.1      0.00      0.00      85.1     0.59      1014.0     1.2     ENE    66   3.0     ENE    57   8.49    266        6.5
   08/14/2018 07:50      68.3      67.4       76     60.0      0.00      0.00      85.2     0.59      1013.9     1.6     ESE   122   3.5     ESE   105   8.49    267       15.1
   08/14/2018 07:40      67.5      66.7       78     60.0      0.00      0.00      85.2     0.59      1013.9     1.0     ENE    57   2.7       E    95   8.49    266       -0.9
   08/14/2018 07:30      67.0      65.9       79     59.9      0.00      0.00      85.3     0.59      1013.9     0.9       E    84   2.4      NE    43   8.49    267      -21.1
   08/14/2018 07:20      66.0      64.9       82     59.6      0.00      0.00      85.3     0.59      1013.9     0.2     ESE   107   1.8     ESE   105   8.49    267      -20.0
   08/14/2018 07:10      65.1      64.2       84     59.5      0.00      0.00      85.4     0.59      1013.8     0.0       N     0   0.0     SSE   168   8.49    267      -17.6
   08/14/2018 07:00      64.3      63.2       85     59.0      0.00      0.00      85.4     0.59      1013.8     0.1     SSE   168   0.5     SSE   168   8.49    267      -23.5
   08/14/2018 06:50      63.4      62.7       85     58.3      0.00      0.00      85.5     0.59      1013.7     0.0       N     0   0.0     SSE   168   8.49    266      -28.3
   08/14/2018 06:40      63.2      62.7       85     58.5      0.00      0.00      85.5     0.59      1013.7     0.1     SSE   168   0.8     SSE   168   8.49    266      -32.7
   08/14/2018 06:30      63.0      62.4       86     58.3      0.00      0.00      85.6     0.59      1013.6     0.2     SSE   168   1.0     SSE   168   8.49    266      -38.3
   08/14/2018 06:20      62.9      62.4       86     58.3      0.00      0.00      85.6     0.59      1013.6     0.1     SSE   168   0.8     SSE   168   8.49    266      -43.0
   08/14/2018 06:10      63.3      62.5       85     58.2      0.00      0.00      85.6     0.59      1013.4     0.4     SSE   168   0.9     SSE   168   8.49    263      -47.4
   08/14/2018 06:00      63.2      62.5       85     58.0      0.00      0.00      85.7     0.59      1013.3     0.4       S   171   1.0     SSE   168   8.49    265      -49.7
   08/14/2018 05:50      63.1      62.8       84     58.0      0.00      0.00      85.7     0.59      1013.3     0.0       S   175   0.2       S   175   8.49    266      -50.9
   08/14/2018 05:40      63.4      62.7       84     57.9      0.00      0.00      85.8     0.59      1013.3     0.2       S   175   0.9       S   175   8.49    266      -54.3
   08/14/2018 05:30      63.4      63.0       83     58.0      0.00      0.00      85.7     0.59      1013.2     0.0       S   175   0.5       S   175   8.49    266      -54.4
   08/14/2018 05:20      63.6      62.9       83     57.8      0.00      0.00      85.8     0.59      1013.3     0.3     SSE   159   1.1       S   175   8.49    266      -55.0
   08/14/2018 05:10      63.5      63.0       83     58.0      0.00      0.00      85.9     0.59      1013.2     0.5     SSE   158   1.4     SSE   152   8.49    266      -55.6
   08/14/2018 05:00      63.7      63.0       82     57.5      0.00      0.00      85.9     0.60      1013.2     0.2       S   170   0.9       S   170   8.49    266      -56.0
   08/14/2018 04:50      64.0      63.4       82     58.2      0.00      0.00      85.9     0.60      1013.2     0.3       S   171   1.1       S   172   8.49    266      -55.2
   08/14/2018 04:40      64.1      63.6       82     58.2      0.00      0.00      86.0     0.60      1013.2     0.3       S   185   0.9       S   172   8.49    266      -54.8
   08/14/2018 04:30      64.1      63.5       82     58.0      0.00      0.00      86.0     0.60      1013.3     0.0       S   191   0.2       S   191   8.49    266      -55.7
   08/14/2018 04:20      64.2      63.5       80     57.4      0.00      0.00      86.0     0.60      1013.3     0.0       S   191   0.6       S   191   8.49    266      -56.8
   08/14/2018 04:10      64.5      63.8       80     57.8      0.00      0.00      86.1     0.60      1013.3     0.7     SSW   197   1.5       S   191   8.49    266      -56.6
   08/14/2018 04:00      64.6      64.1       80     58.1      0.00      0.00      86.1     0.60      1013.4     0.0       N     0   0.0     ESE   121   8.49    266      -56.1
   08/14/2018 03:50      64.6      64.2       80     58.1      0.00      0.00      86.2     0.60      1013.4     0.0       N     0   0.0     ESE   121   8.49    266      -56.9
   08/14/2018 03:40      65.1      64.3       80     58.3      0.00      0.00      86.2     0.60      1013.4     0.0       N     0   0.0     ESE   121   8.50    266      -57.6
   08/14/2018 03:30      65.4      64.8       80     58.8      0.00      0.00      86.2     0.60      1013.4     0.0       N     0   0.0     ESE   121   8.49    266      -57.3
   08/14/2018 03:20      66.0      65.2       79     58.9      0.00      0.00      86.3     0.60      1013.4     0.0       N     0   0.0     ESE   121   8.49    266      -56.9
   08/14/2018 03:10      66.2      65.7       79     59.1      0.00      0.00      86.3     0.60      1013.4     0.0     ESE   119   1.2     ESE   104   8.50    266      -58.0
   08/14/2018 03:00      66.3      65.8       79     59.3      0.00      0.00      86.4     0.60      1013.4     0.5     ESE   120   2.0     ENE    75   8.50    266      -59.4
   08/14/2018 02:50      66.3      65.7       79     59.3      0.00      0.00      86.4     0.60      1013.5     0.8     ESE   124   1.5     ESE   118   8.50    266      -59.8
   08/14/2018 02:40      65.8      65.4       79     58.9      0.00      0.00      86.4     0.60      1013.6     0.4     ESE   124   1.8      SE   129   8.50    266      -60.1
   08/14/2018 02:30      65.8      65.3       78     58.6      0.00      0.00      86.4     0.60      1013.6     0.2      SE   128   0.8      SE   128   8.50    266      -60.3
   08/14/2018 02:20      66.4      65.4       78     58.7      0.00      0.00      86.4     0.60      1013.6     0.2      SE   128   1.1      SE   128   8.50    266      -61.3
   08/14/2018 02:10      66.9      66.1       77     59.1      0.00      0.00      86.5     0.60      1013.7     0.1      SE   127   1.2      SE   127   8.50    266      -61.3
   08/14/2018 02:00      67.1      66.6       77     59.3      0.00      0.00      86.5     0.60      1013.8     0.2      SE   126   0.8      SE   127   8.50    266      -62.4
   08/14/2018 01:50      67.4      66.9       76     59.4      0.00      0.00      86.5     0.60      1014.0     0.2     ESE   109   1.6       E    91   8.50    266      -62.9
   08/14/2018 01:40      67.6      67.1       76     59.4      0.00      0.00      86.6     0.60      1014.0     0.0       E    83   1.6     ENE    65   8.50    266      -63.4
   08/14/2018 01:30      67.7      67.2       76     59.5      0.00      0.00      86.6     0.60      1014.0     0.4       E    93   2.5       E    89   8.50    266      -63.6
   08/14/2018 01:20      67.9      67.3       75     59.3      0.00      0.00      86.7     0.60      1014.0     0.1     ESE   103   1.1     ENE    70   8.50    266      -64.4
   08/14/2018 01:10      68.2      67.6       74     59.3      0.00      0.00      86.7     0.60      1014.1     0.1     ENE    78   1.0      NE    49   8.50    266      -64.3
   08/14/2018 01:00      68.6      68.0       73     59.4      0.00      0.00      86.7     0.60      1014.0     0.2     ENE    69   1.4     ESE   103   8.51    266      -64.3
   08/14/2018 00:50      68.8      68.2       73     59.5      0.00      0.00      86.8     0.60      1014.0     0.2     ENE    71   1.1      NE    49   8.51    265      -64.6
   08/14/2018 00:40      68.8      68.4       73     59.6      0.00      0.00      86.8     0.60      1014.0     0.2     ENE    62   1.2     ENE    62   8.51    265      -65.0
   08/14/2018 00:30      69.0      68.5       73     59.5      0.00      0.00      86.8     0.60      1014.0     0.1       E    80   1.5      NE    56   8.51    265      -65.1
   08/14/2018 00:20      69.5      68.7       72     59.6      0.00      0.00      86.8     0.60      1014.0     0.0       N     0   0.0     ENE    63   8.51    265      -65.8
   08/14/2018 00:10      69.8      69.2       71     59.6      0.00      0.00      86.9     0.60      1014.0     0.5     ESE   103   1.8     ENE    66   8.51    264      -66.3
   08/14/2018 00:00      70.3      69.5       69     59.3      0.00      0.00      86.9     0.60      1014.0     0.9     ESE   107   2.7       E    98   8.51    264      -66.7
   08/13/2018 23:50      70.7      70.1       67     58.7      0.00      0.00      86.9     0.60      1014.0     0.9       E    80   2.3       E    88   8.51    264      -66.7
   08/13/2018 23:40      70.9      70.4       63     57.3      0.00      0.00      86.9     0.60      1013.9     0.6     ESE   107   2.3      SE   143   8.51    264      -67.1
   08/13/2018 23:30      71.5      70.5       59     56.1      0.00      0.00      87.0     0.60      1013.9     0.3       E    98   1.2       E    88   8.51    264      -66.6
   08/13/2018 23:20      71.5      71.1       59     56.2      0.00      0.00      87.0     0.61      1013.9     0.3       E   100   1.2       E    90   8.52    264      -66.6
   08/13/2018 23:10      71.9      71.2       57     55.4      0.00      0.00      87.0     0.61      1013.8     0.0       S   187   0.5       S   188   8.52    264      -67.4
   08/13/2018 23:00      72.7      71.5       55     54.9      0.00      0.00      87.0     0.61      1013.8     0.1     SSE   162   0.9      NE    55   8.52    264      -69.0
   08/13/2018 22:50      72.8      72.2       55     55.5      0.00      0.00      87.0     0.61      1013.7     0.9      NE    51   2.6      NE    42   8.52    264      -69.2
   08/13/2018 22:40      73.3      72.5       55     55.6      0.00      0.00      87.1     0.61      1013.7     0.0       S   188   0.3       S   174   8.52    264      -69.4
   08/13/2018 22:30      73.6      73.0       54     55.7      0.00      0.00      87.1     0.61      1013.7     1.3     SSW   196   2.8      SW   223   8.52    263      -70.3
   08/13/2018 22:20      74.0      73.3       53     55.4      0.00      0.00      87.1     0.61      1013.7     1.3     SSW   193   2.4     SSW   206   8.52    263      -71.0
   08/13/2018 22:10      74.6      73.7       51     54.9      0.00      0.00      87.1     0.61      1013.7     1.2     SSW   196   2.1     SSW   196   8.53    263      -71.3
   08/13/2018 22:00      75.1      74.3       49     54.3      0.00      0.00      87.1     0.61      1013.7     1.0     SSW   205   3.3      SW   230   8.53    263      -72.5
   08/13/2018 21:50      75.4      74.8       48     54.2      0.00      0.00      87.2     0.61      1013.6     1.8      SW   235   3.7     WSW   249   8.53    263      -73.4
   08/13/2018 21:40      75.7      75.2       46     53.4      0.00      0.00      87.2     0.61      1013.5     1.7      SW   220   3.3      SW   217   8.53    263      -74.1
   08/13/2018 21:30      76.2      75.3       45     52.6      0.00      0.00      87.2     0.61      1013.4     1.9     SSW   212   3.5       S   177   8.53    263      -74.7
   08/13/2018 21:20      76.9      75.9       43     52.3      0.00      0.00      87.2     0.61      1013.4     2.0     SSW   209   3.4     SSW   207   8.54    263      -74.7
   08/13/2018 21:10      77.2      76.5       42     51.7      0.00      0.00      87.2     0.61      1013.3     2.0     WSW   239   3.5       W   262   8.54    263      -74.6
   08/13/2018 21:00      77.0      76.1       38     49.4      0.00      0.00      87.2     0.61      1013.2     1.8      SW   218   3.4      SW   228   8.54    263      -74.3
   08/13/2018 20:50      76.9      76.2       40     50.5      0.00      0.00      87.2     0.61      1013.1     0.9     SSW   202   1.6     SSW   207   8.54    263      -74.5
   08/13/2018 20:40      78.1      76.7       39     50.6      0.00      0.00      87.1     0.61      1012.9     0.1       S   190   1.6     SSW   193   8.55    263      -75.5
   08/13/2018 20:30      79.1      77.8       38     50.6      0.00      0.00      87.2     0.61      1012.9     0.5     ESE   115   1.5      SE   131   8.55    263      -78.0
   08/13/2018 20:20      80.3      78.8       33     48.0      0.00      0.00      87.2     0.61      1012.9     0.4       E    88   2.0     ENE    75   8.55    262      -80.0
   08/13/2018 20:10      80.3      79.6       26     42.3      0.00      0.00      87.2     0.61      1012.8     0.8     WSW   251   3.0       W   269   8.56    262      -81.6
   08/13/2018 20:00      80.9      79.6       35     50.3      0.00      0.00      87.2     0.61      1012.7     1.2     SSW   192   2.8     NNW   326   8.56    262      -82.7
   08/13/2018 19:50      83.0      80.7       32     48.9      0.00      0.00      87.2     0.61      1012.7     1.0     SSE   162   3.2       S   185   8.56    262      -83.5
   08/13/2018 19:40      83.9      82.8       22     40.2      0.00      0.00      87.2     0.61      1012.6     0.9       W   267   2.6      SW   223   8.57    261      -81.7
   08/13/2018 19:30      84.9      83.6       21     40.3      0.00      0.00      87.2     0.61      1012.6     1.7       W   273   3.6     NNW   331   8.57    261      -79.2
   08/13/2018 19:20      85.3      84.5       20     39.8      0.00      0.00      87.2     0.61      1012.5     2.0      NW   306   4.8      NW   319   8.58    261      -69.9
   08/13/2018 19:10      86.3      85.0       19     39.1      0.00      0.00      87.1     0.61      1012.4     3.2      NW   310   5.5      NW   318   8.58    261      -53.9
   08/13/2018 19:00      87.2      86.1       19     39.0      0.00      0.00      87.1     0.61      1012.3     3.1     WNW   297   6.4       W   276   8.59    261      -35.2
   08/13/2018 18:50      87.5      86.8       19     39.7      0.00      0.00      87.1     0.61      1012.2     2.3      NW   319   4.7      NW   323   8.59    261      -16.3
   08/13/2018 18:40      87.7      87.0       19     40.0      0.00      0.00      87.1     0.61      1012.2     2.8     NNW   331   5.6     NNE    22   8.60    261        5.9
   08/13/2018 18:30      88.3      87.1       19     40.4      0.00      0.00      87.0     0.61      1012.1     3.8      NW   309   7.0     WNW   298   8.60    261       30.3
   08/13/2018 18:20      88.8      87.7       18     39.9      0.00      0.00      87.0     0.61      1012.1     3.4      NW   314   6.0     WNW   298   8.60    261       53.3
   08/13/2018 18:10      88.7      88.0       19     40.8      0.00      0.00      87.0     0.62      1012.1     3.1      NW   311   6.6     NNW   338   8.61    261       78.5
   08/13/2018 18:00      89.4      88.3       20     42.8      0.00      0.00      87.0     0.62      1012.1     3.6      NW   311   6.9      NW   306   8.61    261      103.4
   08/13/2018 17:50      89.3      88.5       21     43.5      0.00      0.00      86.9     0.62      1012.1     3.3      NW   307   6.6      NW   319   8.62    261      128.2
   08/13/2018 17:40      89.3      88.7       21     43.9      0.00      0.00      87.0     0.62      1012.1     4.3     WNW   303   8.9       W   262   8.62    261      154.6
   08/13/2018 17:30      89.4      88.8       22     45.9      0.00      0.00      86.8     0.62      1012.0     4.2      NW   316   8.3      SW   228   8.63    261      179.2
   08/13/2018 17:20      90.6      89.0       25     48.8      0.00      0.00      86.9     0.62      1012.0     5.0      NW   315   9.9      NW   305   8.63    262      204.0
   08/13/2018 17:10      91.1      90.4       26     51.4      0.00      0.00      86.8     0.62      1012.0     4.1      NW   323   7.7     NNW   347   8.64    261      226.1
   08/13/2018 17:00      91.1      90.2       29     54.2      0.00      0.00      86.8     0.62      1012.1     4.1      NW   310   8.8     WSW   258   8.64    262      250.8
   08/13/2018 16:50      90.8      89.8       30     54.3      0.00      0.00      86.7     0.62      1012.1     5.0       W   273   9.8       W   268   8.65    262      277.5
   08/13/2018 16:40      91.0      90.2       28     53.2      0.00      0.00      86.8     0.62      1012.2     5.0      SW   223   9.1     SSE   158   8.66    262      298.3
   08/13/2018 16:30      90.4      89.5       27     51.2      0.00      0.00      86.7     0.62      1012.2     4.6       S   187   8.1     SSW   193   8.66    262      320.7
   08/13/2018 16:20      90.3      89.4       25     49.7      0.00      0.00      86.6     0.62      1012.4     4.8       S   170   9.2     SSE   148   8.67    262      341.4
   08/13/2018 16:10      89.8      88.9       25     48.8      0.00      0.00      86.6     0.62      1012.5     5.4       S   173   9.6     ESE   124   8.67    262      361.5
   08/13/2018 16:00      90.3      88.8       25     48.8      0.00      0.00      86.5     0.62      1012.7     5.4       S   181   8.7     SSE   157   8.68    262      381.2
   08/13/2018 15:50      90.2      89.2       24     47.7      0.00      0.00      86.5     0.62      1012.7     5.0     SSE   163   8.5      SE   144   8.69    262      399.6
   08/13/2018 15:40      89.8      89.0       24     48.0      0.00      0.00      86.4     0.62      1012.9     5.2       S   170   8.5       S   191   8.69    262      417.7
   08/13/2018 15:30      89.9      89.1       24     48.3      0.00      0.00      86.4     0.62      1013.0     4.6       S   170   7.3       S   180   8.70    262      435.1
   08/13/2018 15:20      90.9      88.8       24     47.9      0.00      0.00      86.3     0.62      1013.1     5.4       S   179  10.3       S   181   8.71    261      451.1
   08/13/2018 15:10      90.9      89.4       24     48.3      0.00      0.00      86.3     0.62      1013.3     4.7     SSW   198   8.6       S   187   8.71    262      464.9
   08/13/2018 15:00      90.3      89.1       25     49.1      0.00      0.00      86.3     0.63      1013.4     5.1     SSE   169  10.3      SE   146   8.72    262      479.0
   08/13/2018 14:50      90.2      89.2       26     49.9      0.00      0.00      86.2     0.63      1013.5     4.4       S   181   9.2       E    79   8.72    262      490.0
   08/13/2018 14:40      91.5      89.8       25     50.1      0.00      0.00      86.1     0.63      1013.6     4.8       S   170   8.0       S   187   8.73    261      499.2
   08/13/2018 14:30      92.3      90.7       24     50.0      0.00      0.00      86.1     0.63      1013.7     3.0      SE   126   7.2       S   182   8.73    261      504.8
   08/13/2018 14:20      92.4      90.7       24     49.3      0.00      0.00      86.1     0.63      1013.8     2.6     ESE   123   7.5      SE   142   8.73    261      514.3
   08/13/2018 14:10      92.0      91.0       23     48.9      0.00      0.00      86.0     0.63      1013.9     2.7       E    91   6.1       E    91   8.74    261      522.0
   08/13/2018 14:00      92.1      90.7       23     48.4      0.00      0.00      86.0     0.63      1014.0     2.4     ENE    73   6.8       E    97   8.74    261      528.3
   08/13/2018 13:50      92.2      90.7       23     47.9      0.00      0.00      86.0     0.63      1014.2     3.1     ENE    73   7.5     ESE   114   8.74    261      534.9
   08/13/2018 13:40      91.4      90.1       23     48.2      0.00      0.00      85.9     0.63      1014.3     3.3     NNE    22   7.4     NNE    15   8.75    261      539.2
   08/13/2018 13:30      91.8      90.5       24     48.9      0.00      0.00      85.9     0.63      1014.4     3.2     NNE    14   6.4      NE    45   8.75    261      541.5
   08/13/2018 13:20      90.9      89.6       25     49.4      0.00      0.00      85.9     0.63      1014.5     2.3     NNE    28   4.6     ESE   119   8.75    262      549.2
   08/13/2018 13:10      89.9      88.4       27     50.4      0.00      0.00      85.9     0.63      1014.6     3.0       E    86   6.6       E    99   8.75    262      554.5
   08/13/2018 13:00      89.7      89.0       27     51.2      0.00      0.00      85.9     0.64      1014.6     2.6      NE    37   4.8     NNE    21   8.76    262      551.8
   08/13/2018 12:50      90.0      89.0       27     51.1      0.00      0.00      85.9     0.64      1014.7     2.4     NNE    34   5.6     ENE    72   8.76    262      557.1
   08/13/2018 12:40      89.8      88.1       27     50.9      0.00      0.00      85.9     0.64      1014.9     2.5     NNE    12   5.4       N   352   8.76    262      556.8
   08/13/2018 12:30      89.0      88.0       28     50.8      0.00      0.00      85.9     0.64      1015.0     2.6       N     8   5.2       N   351   8.76    262      551.7
   08/13/2018 12:20      88.6      87.4       28     50.7      0.00      0.00      85.9     0.64      1015.1     2.2     NNE    13   7.3     NNW   336   8.76    262      550.6
   08/13/2018 12:10      88.2      87.1       28     50.6      0.00      0.00      85.8     0.64      1015.2     3.1      NE    34   7.7      NE    51   8.76    262      547.7
   08/13/2018 12:00      87.4      86.4       29     51.1      0.00      0.00      85.8     0.65      1015.4     2.4     NNE    31   4.6     NNE    17   8.76    262      546.2
   08/13/2018 11:50      86.6      85.6       32     52.3      0.00      0.00      85.9     0.65      1015.6     2.9     NNE    27   5.4      NE    56   8.76    262      543.0
   08/13/2018 11:40      86.3      85.0       34     54.5      0.00      0.00      85.8     0.65      1015.7     2.5       N     5   5.7     NNE    15   8.77    263      539.8
   08/13/2018 11:30      85.4      84.5       35     54.2      0.00      0.00      85.8     0.65      1015.7     2.2     NNE    20   4.7      NE    42   8.77    262      533.9
   08/13/2018 11:20      84.6      82.4       37     54.3      0.00      0.00      85.8     0.66      1015.8     2.8     NNE    17   5.3      NE    53   8.77    263      527.4
   08/13/2018 11:10      82.9      81.8       39     55.0      0.00      0.00      85.8     0.66      1015.9     3.4     NNE    29   6.5      NE    53   8.77    263      521.0
   08/13/2018 11:00      82.8      81.7       40     55.5      0.00      0.00      85.8     0.66      1015.9     2.3      NE    51   5.7      NE    48   8.77    263      514.2
   08/13/2018 10:50      81.9      80.9       41     55.3      0.00      0.00      85.8     0.67      1016.0     2.6       N     2   5.5      NE    55   8.77    263      505.5
   08/13/2018 10:40      81.8      80.4       41     55.5      0.00      0.00      85.8     0.67      1016.0     2.5     NNE    18   5.2       N     5   8.77    280      498.0
   08/13/2018 10:30      81.0      80.2       42     55.5      0.00      0.00      85.9     0.68      1016.0     2.2     ENE    76   5.5     ENE    78   8.77    308      481.0
   08/13/2018 10:20      80.5      79.0       43     55.2      0.00      0.00      85.6     0.40      1016.1     2.3     NNE    20   4.3     NNW   331   8.77    314      438.8
   08/13/2018 10:10      79.4      78.4       44     55.4      0.00      0.00      85.6     0.36      1016.2     2.0     NNE    19   4.2      NE    36   8.50    263      418.1
   08/13/2018 10:00      78.6      77.5       45     54.9      0.00      0.00      85.7     0.36      1016.1     2.3       N     9   4.7     NNW   348   8.50    263      401.1
   08/13/2018 09:50      77.9      77.2       46     55.4      0.00      0.00      85.7     0.36      1016.1     2.8     NNE    18   4.9       N    10   8.50    263      381.9
   08/13/2018 09:40      77.8      76.0       48     55.6      0.00      0.00      85.7     0.36      1016.1     1.8       N     6   4.1       N     6   8.50    263      363.9
   08/13/2018 09:30      76.1      74.9       50     55.4      0.00      0.00      85.8     0.36      1016.3     2.3     ENE    58   4.8      NE    41   8.50    263      345.1
   08/13/2018 09:20      75.6      74.7       50     55.4      0.00      0.00      85.8     0.36      1016.4     2.2     NNE    29   5.3      NE    53   8.50    263      325.3
   08/13/2018 09:10      74.9      74.1       52     55.5      0.00      0.00      85.9     0.36      1016.5     2.3      NE    35   4.2     ENE    61   8.50    264      306.2
   08/13/2018 09:00      74.1      73.5       53     55.7      0.00      0.00      85.9     0.36      1016.5     2.4     NNE    29   4.9       N    11   8.50    264      287.7
   08/13/2018 08:50      73.8      72.3       56     56.0      0.00      0.00      86.0     0.36      1016.5     2.0      NE    34   4.7      NE    38   8.50    264      275.2
   08/13/2018 08:40      72.5      71.5       57     55.6      0.00      0.00      86.0     0.36      1016.5     2.0      NE    35   3.8     ENE    63   8.50    264      126.2
   08/13/2018 08:30      71.8      70.8       57     55.3      0.00      0.00      86.1     0.36      1016.5     1.3      NE    52   2.6      SE   141   8.50    264      -24.4
   08/13/2018 08:20      71.4      70.7       56     54.7      0.00      0.00      86.1     0.36      1016.4     1.8      NE    44   3.5      NE    37   8.50    264      -33.6
   08/13/2018 08:10      71.2      70.3       54     53.4      0.00      0.00      86.1     0.36      1016.5     0.9       E    97   2.3     ESE   109   8.50    264      -11.2
   08/13/2018 08:00      70.6      69.1       54     52.1      0.00      0.00      86.2     0.36      1016.7     0.9     ENE    61   2.4       E    87   8.51    265       14.7
   08/13/2018 07:50      69.3      68.5       54     51.6      0.00      0.00      86.3     0.36      1016.6     1.1     ENE    66   2.3     ENE    63   8.51    266       18.5
   08/13/2018 07:40      68.6      67.6       55     51.4      0.00      0.00      86.3     0.36      1016.6     0.3     ENE    64   1.6     NNE    14   8.51    266       -7.0
   08/13/2018 07:30      67.8      66.6       57     51.5      0.00      0.00      86.3     0.36      1016.5     0.6     NNW   345   2.2       N     0   8.51    266      -26.9
   08/13/2018 07:20      66.9      65.3       60     51.7      0.00      0.00      86.4     0.36      1016.5     0.0     NNE    29   0.6     NNE    23   8.51    266      -31.4
   08/13/2018 07:10      65.5      64.1       63     52.0      0.00      0.00      86.4     0.36      1016.4     0.0     SSE   161   0.7     SSE   161   8.51    266      -28.9
   08/13/2018 07:00      64.2      63.5       65     51.6      0.00      0.00      86.4     0.36      1016.4     0.0       N     0   0.0     SSE   161   8.51    266      -37.7
   08/13/2018 06:50      63.6      63.2       65     51.5      0.00      0.00      86.5     0.36      1016.3     0.0     SSE   161   0.3     SSE   161   8.51    266      -41.4
   08/13/2018 06:40      63.5      62.9       66     51.6      0.00      0.00      86.6     0.36      1016.3     0.0     SSE   161   0.6     SSE   161   8.51    266      -47.1
   08/13/2018 06:30      63.3      62.8       66     51.6      0.00      0.00      86.6     0.36      1016.3     0.4     SSE   167   0.9     SSE   168   8.51    266      -52.4
   08/13/2018 06:20      63.1      62.7       66     51.6      0.00      0.00      86.6     0.36      1016.1     1.2     SSE   152   2.7      SE   140   8.51    266      -56.6
   08/13/2018 06:10      63.1      62.8       66     51.2      0.00      0.00      86.7     0.36      1016.0     0.8     SSE   149   1.3      SE   138   8.51    266      -58.4
   08/13/2018 06:00      63.2      62.7       65     50.9      0.00      0.00      86.7     0.36      1015.8     0.4       S   171   0.9       S   171   8.51    266      -58.6
   08/13/2018 05:50      63.2      62.6       65     50.9      0.00      0.00      86.7     0.36      1015.8     0.4       S   171   0.8       S   171   8.51    266      -58.9
   08/13/2018 05:40      63.3      62.7       64     50.8      0.00      0.00      86.8     0.36      1015.8     0.4       S   171   0.9       S   171   8.51    266      -59.7
   08/13/2018 05:30      63.8      63.1       63     50.8      0.00      0.00      86.8     0.36      1015.8     0.2       S   171   0.6       S   171   8.51    266      -59.7
   08/13/2018 05:20      64.1      63.5       63     51.0      0.00      0.00      86.9     0.36      1015.9     0.7     SSE   158   2.3      SE   145   8.51    266      -60.6
   08/13/2018 05:10      63.9      63.5       63     50.9      0.00      0.00      86.9     0.36      1015.8     1.1      SE   144   1.9      SE   144   8.51    266      -59.6
   08/13/2018 05:00      64.0      63.5       64     51.2      0.00      0.00      87.0     0.36      1015.8     1.1      SE   143   1.9      SE   141   8.51    266      -59.8
   08/13/2018 04:50      64.4      63.6       62     50.8      0.00      0.00      87.0     0.36      1015.7     1.2     SSE   151   2.2      SE   144   8.52    266      -59.3
   08/13/2018 04:40      64.7      64.0       62     51.0      0.00      0.00      87.0     0.36      1015.7     0.7     SSE   153   1.1     SSE   153   8.52    266      -59.8
   08/13/2018 04:30      65.1      64.3       62     51.2      0.00      0.00      87.0     0.36      1015.7     0.3     SSE   153   1.6     SSE   153   8.52    266      -59.7
   08/13/2018 04:20      65.2      64.8       63     52.0      0.00      0.00      87.1     0.36      1015.7     0.5     SSE   158   1.4      SE   145   8.52    266      -60.5
   08/13/2018 04:10      65.2      64.6       63     51.9      0.00      0.00      87.1     0.36      1015.7     0.9     SSE   160   1.9      SE   139   8.52    266      -59.9
   08/13/2018 04:00      65.7      64.8       59     50.4      0.00      0.00      87.1     0.36      1015.7     0.3     SSE   167   0.9     SSE   167   8.52    266      -60.1
   08/13/2018 03:50      66.2      65.4       55     49.1      0.00      0.00      87.2     0.36      1015.6     0.3     SSE   158   1.0     SSE   166   8.52    266      -59.6
   08/13/2018 03:40      66.3      65.9       56     49.7      0.00      0.00      87.2     0.36      1015.6     0.0     SSE   150   0.2     SSE   150   8.52    266      -59.8
   08/13/2018 03:30      66.0      65.5       59     51.0      0.00      0.00      87.2     0.36      1015.5     0.1     SSE   158   0.6     SSE   158   8.52    266      -60.6
   08/13/2018 03:20      66.2      65.5       67     54.5      0.00      0.00      87.3     0.36      1015.5     0.2     SSE   163   1.2       S   178   8.52    266      -61.8
   08/13/2018 03:10      66.5      66.0       68     55.4      0.00      0.00      87.3     0.36      1015.5     0.3     SSE   162   1.6      SE   139   8.52    266      -62.1
   08/13/2018 03:00      66.5      66.1       68     55.2      0.00      0.00      87.4     0.36      1015.5     0.1       S   173   0.7       S   173   8.52    266      -62.2
   08/13/2018 02:50      66.6      66.2       67     55.0      0.00      0.00      87.4     0.36      1015.5     0.3       S   173   1.0       S   173   8.52    266      -61.6
   08/13/2018 02:40      67.1      66.2       66     54.9      0.00      0.00      87.4     0.36      1015.5     0.0       S   173   0.6       S   173   8.53    266      -62.0
   08/13/2018 02:30      67.4      66.8       65     54.9      0.00      0.00      87.5     0.36      1015.5     0.2       S   173   0.8       S   173   8.53    266      -61.7
   08/13/2018 02:20      67.9      67.1       64     54.6      0.00      0.00      87.5     0.36      1015.5     0.1       S   173   1.2       S   173   8.53    266      -62.5
   08/13/2018 02:10      68.3      67.6       63     55.0      0.00      0.00      87.5     0.36      1015.5     0.2       S   175   1.3       S   173   8.53    266      -62.0
   08/13/2018 02:00      68.3      67.5       63     54.9      0.00      0.00      87.5     0.36      1015.5     0.9     SSE   166   2.6     SSW   197   8.53    266      -61.0
   08/13/2018 01:50      68.0      67.5       63     54.6      0.00      0.00      87.5     0.36      1015.5     0.0       N     0   0.0       E    86   8.53    266      -61.4
   08/13/2018 01:40      68.6      67.6       62     54.5      0.00      0.00      87.6     0.36      1015.4     0.0       N     0   0.0       E    86   8.53    266      -60.7
   08/13/2018 01:30      68.7      68.1       61     54.5      0.00      0.00      87.6     0.36      1015.4     0.0       N     0   0.0       E    86   8.53    266      -59.8
   08/13/2018 01:20      68.9      68.4       61     54.5      0.00      0.00      87.6     0.36      1015.4     0.0       E    86   0.0       E    86   8.54    266      -59.9
   08/13/2018 01:10      69.0      68.3       59     53.7      0.00      0.00      87.7     0.36      1015.3     0.1       E    86   0.6       E    86   8.54    265      -59.9
   08/13/2018 01:00      69.1      68.5       58     53.2      0.00      0.00      87.7     0.36      1015.4     0.0       N     0   0.0       E    85   8.54    265      -60.7
   08/13/2018 00:50      69.8      68.8       56     52.7      0.00      0.00      87.7     0.36      1015.4     0.0       N     0   0.0       E    85   8.54    265      -61.9
   08/13/2018 00:40      70.5      69.6       55     52.9      0.00      0.00      87.7     0.36      1015.4     0.0       N     0   0.0       E    85   8.54    265      -61.5
   08/13/2018 00:30      70.6      70.0       54     52.9      0.00      0.00      87.7     0.36      1015.5     0.1       E    85   1.5       E    85   8.54    265      -62.4
   08/13/2018 00:20      71.0      70.3       54     52.9      0.00      0.00      87.7     0.36      1015.5     0.4     ESE   109   1.2     ESE   114   8.54    265      -62.9
   08/13/2018 00:10      71.2      70.6       53     53.0      0.00      0.00      87.8     0.36      1015.4     0.3      SE   132   1.4      SE   141   8.55    265      -63.0
   08/13/2018 00:00      71.5      70.8       53     53.1      0.00      0.00      87.7     0.36      1015.4     0.0       E    94   1.3       E    94   8.55    265      -62.4
   08/12/2018 23:50      71.8      71.1       53     53.4      0.00      0.00      87.8     0.36      1015.4     0.2       E   101   1.3       E    94   8.55    265      -62.4
   08/12/2018 23:40      72.0      71.4       54     54.0      0.00      0.00      87.8     0.36      1015.3     0.0     ESE   111   0.8     ESE   111   8.55    265      -63.5
   08/12/2018 23:30      72.3      71.7       54     54.6      0.00      0.00      87.8     0.36      1015.2     0.8       E    97   2.1     ENE    75   8.55    265      -64.5
   08/12/2018 23:20      72.7      72.0       55     55.2      0.00      0.00      87.9     0.36      1015.2     1.0     ESE   105   2.0     ESE   114   8.55    265      -64.9
   08/12/2018 23:10      72.9      72.2       54     55.1      0.00      0.00      87.9     0.36      1015.1     0.7       E   100   2.7     ENE    64   8.56    265      -65.1
   08/12/2018 23:00      73.1      72.6       53     54.6      0.00      0.00      87.9     0.36      1015.2     1.0       E   101   2.7      SE   138   8.56    264      -65.2
   08/12/2018 22:50      73.6      72.8       50     53.6      0.00      0.00      87.8     0.36      1015.2     0.5      SE   125   1.5     ESE   123   8.56    264      -65.1
   08/12/2018 22:40      73.9      73.4       49     53.2      0.00      0.00      87.9     0.36      1015.2     0.4       E    85   1.8      NE    49   8.56    264      -65.8
   08/12/2018 22:30      74.3      73.5       50     54.0      0.00      0.00      87.9     0.36      1015.2     0.1     ENE    79   1.4      NE    52   8.56    264      -66.4
   08/12/2018 22:20      74.5      74.0       50     54.4      0.00      0.00      87.8     0.36      1015.1     0.3     ESE   115   1.3       E    96   8.57    264      -66.8
   08/12/2018 22:10      75.3      74.3       49     54.4      0.00      0.00      87.9     0.36      1015.0     0.5      SE   126   1.2     ESE   103   8.57    264      -67.0
   08/12/2018 22:00      75.9      75.0       48     54.6      0.00      0.00      87.9     0.36      1015.0     0.2       E   100   0.9     ESE   112   8.57    264      -67.3
   08/12/2018 21:50      76.5      75.8       48     54.8      0.00      0.00      87.9     0.36      1014.9     0.2     ENE    74   1.0     ENE    68   8.57    264      -67.4
   08/12/2018 21:40      77.2      76.2       47     55.1      0.00      0.00      87.8     0.36      1014.8     0.6      NE    52   2.1     ENE    70   8.57    264      -67.3
   08/12/2018 21:30      77.7      76.8       47     55.5      0.00      0.00      87.9     0.36      1014.7     0.4     ENE    75   1.2     ENE    72   8.57    264      -67.0
   08/12/2018 21:20      78.4      77.3       47     55.8      0.00      0.00      87.9     0.36      1014.5     0.8       E    89   2.8     ENE    61   8.58    264      -67.2
   08/12/2018 21:10      79.1      78.3       45     55.8      0.00      0.00      87.9     0.36      1014.4     0.7     ENE    73   1.9      NE    54   8.58    264      -68.2
   08/12/2018 21:00      79.8      78.8       42     54.6      0.00      0.00      87.9     0.36      1014.2     0.3     ENE    77   1.3      NE    50   8.58    264      -68.9
   08/12/2018 20:50      80.4      79.7       40     53.2      0.00      0.00      87.9     0.36      1014.0     0.7     SSE   154   2.2      NE    46   8.58    263      -69.2
   08/12/2018 20:40      81.5      80.2       46     58.1      0.00      0.00      87.8     0.36      1013.9     0.8       S   177   2.1     SSW   204   8.58    264      -70.0
   08/12/2018 20:30      81.8      81.2       46     58.6      0.00      0.00      87.8     0.36      1013.7     1.5       W   263   3.4       W   262   8.59    264      -70.3
   08/12/2018 20:20      82.3      81.5       46     58.7      0.00      0.00      87.8     0.36      1013.7     1.4     WNW   300   3.2     NNW   327   8.59    264      -70.7
   08/12/2018 20:10      82.3      81.7       46     59.0      0.00      0.00      87.8     0.36      1013.6     1.6      NW   308   3.2     WNW   301   8.59    263      -71.0
   08/12/2018 20:00      82.6      82.0       46     59.2      0.00      0.00      87.8     0.36      1013.5     2.2      NW   314   5.0      NW   305   8.59    264      -71.3
   08/12/2018 19:50      83.6      82.4       45     59.2      0.00      0.00      87.8     0.36      1013.4     2.9      NW   313   5.1     WNW   285   8.60    263      -70.4
   08/12/2018 19:40      84.5      83.4       43     59.1      0.00      0.00      87.7     0.36      1013.3     2.7     WNW   299   4.9     NNW   345   8.60    263      -67.5
   08/12/2018 19:30      85.0      84.4       42     59.0      0.00      0.00      87.7     0.36      1013.3     1.9     WNW   298   4.4      NW   306   8.60    263      -62.8
   08/12/2018 19:20      85.8      84.9       40     58.4      0.00      0.00      87.7     0.36      1013.3     2.4     WNW   285   5.3       W   260   8.61    263      -53.0
   08/12/2018 19:10      85.8      85.2       37     56.3      0.00      0.00      87.7     0.36      1013.2     2.9      SW   231   5.1      SW   234   8.61    263      -39.9
   08/12/2018 19:00      85.8      85.0       34     53.5      0.00      0.00      87.6     0.36      1013.2     3.2     SSW   193   5.3      SW   215   8.61    263      -25.2
   08/12/2018 18:50      86.4      85.4       33     53.3      0.00      0.00      87.6     0.36      1013.2     3.7       S   173   6.2     SSE   166   8.62    263       -7.4
   08/12/2018 18:40      86.4      86.0       32     53.0      0.00      0.00      87.6     0.36      1013.2     3.3       S   170   6.4       S   175   8.63    263       12.5
   08/12/2018 18:30      86.8      86.2       32     52.9      0.00      0.00      87.6     0.36      1013.2     3.7       S   174   6.6       S   174   8.63    263       34.1
   08/12/2018 18:20      87.1      86.3       32     53.3      0.00      0.00      87.5     0.36      1013.1     4.0       S   186   6.6       S   176   8.64    263       56.4
   08/12/2018 18:10      87.1      86.6       33     54.1      0.00      0.00      87.4     0.36      1013.2     3.3       S   174   6.6     SSW   194   8.64    263       78.5
   08/12/2018 18:00      86.9      86.1       35     55.7      0.00      0.00      87.4     0.36      1013.2     3.3       S   174   6.2       S   170   8.65    263      103.3
   08/12/2018 17:50      86.8      86.1       35     55.4      0.00      0.00      87.4     0.36      1013.2     4.3     SSE   163   7.0      SE   144   8.65    263      130.4
   08/12/2018 17:40      86.9      86.4       34     55.3      0.00      0.00      87.3     0.36      1013.2     5.0      SE   143   7.8     ESE   112   8.66    263      155.0
   08/12/2018 17:30      87.6      86.0       34     55.3      0.00      0.00      87.3     0.36      1013.3     5.5     SSE   148   8.6      SE   133   8.66    263      179.3
   08/12/2018 17:20      88.5      87.3       34     55.7      0.00      0.00      87.2     0.36      1013.3     5.2     SSE   152   7.9     SSE   160   8.67    263      203.1
   08/12/2018 17:10      89.1      88.0       32     55.1      0.00      0.00      87.2     0.36      1013.2     4.7     SSE   151   8.6       S   173   8.67    263      225.1
   08/12/2018 17:00      89.3      88.0       32     55.4      0.00      0.00      87.1     0.36      1013.2     5.0     SSE   165   8.3      SE   134   8.68    263      247.9
   08/12/2018 16:50      88.9      87.9       33     55.6      0.00      0.00      87.1     0.36      1013.3     5.0     SSE   167   7.7     SSW   195   8.69    263      270.6
   08/12/2018 16:40      89.0      88.2       34     56.3      0.00      0.00      87.0     0.36      1013.2     4.9     SSW   199   8.2       S   181   8.69    263      291.7
   08/12/2018 16:30      89.3      88.4       34     56.8      0.00      0.00      87.0     0.36      1013.2     5.5       S   190   9.2     SSW   196   8.70    263      312.3
   08/12/2018 16:20      90.1      88.7       33     56.2      0.00      0.00      87.0     0.36      1013.2     4.7       S   176   8.9       S   183   8.70    263      329.7
   08/12/2018 16:10      90.9      89.7       29     53.4      0.00      0.00      86.9     0.36      1013.3     4.1      SE   139   8.2      SE   132   8.71    263      349.7
   08/12/2018 16:00      90.9      89.8       28     52.4      0.00      0.00      86.9     0.36      1013.5     4.2      SE   137   7.2       E    95   8.71    262      370.3
   08/12/2018 15:50      90.6      90.0       28     52.5      0.00      0.00      86.8     0.36      1013.6     4.3     SSE   161   7.5     SSW   192   8.72    262      387.0
   08/12/2018 15:40      90.8      90.1       27     51.5      0.00      0.00      86.7     0.36      1013.7     4.5     SSE   156   7.2     SSE   161   8.72    262      406.4
   08/12/2018 15:30      90.5      89.4       27     51.3      0.00      0.00      86.7     0.36      1013.8     5.5     SSE   168   8.6       S   191   8.73    262      424.4
   08/12/2018 15:20      90.7      89.8       27     51.6      0.00      0.00      86.6     0.36      1013.8     5.5       S   184   8.8     SSW   207   8.73    262      439.4
   08/12/2018 15:10      91.9      90.3       25     50.4      0.00      0.00      86.6     0.36      1013.9     4.4       S   170   8.4       S   182   8.74    262      452.4
   08/12/2018 15:00      91.3      89.8       25     50.2      0.00      0.00      86.5     0.36      1014.1     4.1     SSE   154   8.7     ESE   121   8.74    262      468.1
   08/12/2018 14:50      90.6      89.6       25     50.0      0.00      0.00      86.5     0.36      1014.1     4.9      SE   142   9.3      SE   139   8.75    262      481.9
   08/12/2018 14:40      90.1      89.3       26     50.7      0.00      0.00      86.4     0.36      1014.3     4.7       S   187   9.0       S   175   8.75    262      493.7
   08/12/2018 14:30      90.2      89.4       27     50.9      0.00      0.00      86.4     0.36      1014.4     4.3     SSE   154   8.8     SSW   199   8.76    262      503.1
   08/12/2018 14:20      90.8      89.8       26     51.1      0.00      0.00      86.3     0.36      1014.5     4.9     SSE   162  10.3      SE   130   8.77    262      510.5
   08/12/2018 14:10      91.3      90.2       27     52.0      0.00      0.00      86.3     0.36      1014.7     3.7     SSE   165   9.8       S   170   8.77    262      516.5
   08/12/2018 14:00      90.8      89.0       30     54.0      0.00      0.00      86.2     0.36      1014.8     3.0     ESE   111   6.9      SE   130   8.77    262      523.4
   08/12/2018 13:50      89.9      89.2       30     54.3      0.00      0.00      86.2     0.36      1014.9     2.4     ESE   109   5.5       E    90   8.78    262      527.9
   08/12/2018 13:40      89.9      88.9       30     54.1      0.00      0.00      86.1     0.36      1015.0     2.9       E    88   6.4     ESE   122   8.78    262      533.6
   08/12/2018 13:30      89.2      88.0       30     53.4      0.00      0.00      86.1     0.36      1015.1     3.9       S   183   7.2      SE   125   8.78    263      542.9
   08/12/2018 13:20      89.8      88.9       28     51.5      0.00      0.00      86.1     0.36      1015.2     3.4     ESE   113   8.4     SSW   207   8.79    262      541.1
   08/12/2018 13:10      89.8      88.8       27     50.9      0.00      0.00      86.1     0.36      1015.3     3.5     ESE   119   7.8     ESE   120   8.79    262      542.5
   08/12/2018 13:00      89.1      87.5       28     50.8      0.00      0.00      86.0     0.36      1015.4     2.8       E    95   6.9     SSE   147   8.79    262      547.9
   08/12/2018 12:50      88.7      87.9       28     51.1      0.00      0.00      86.0     0.36      1015.5     3.7      SE   141   8.6      SE   130   8.79    262      549.9
   08/12/2018 12:40      88.8      87.1       30     52.5      0.00      0.00      86.0     0.36      1015.6     3.5     SSE   155   6.7       S   172   8.80    263      553.9
   08/12/2018 12:30      88.8      86.9       34     55.4      0.00      0.00      86.0     0.36      1015.7     3.5      SE   145   9.2     ESE   119   8.80    263      546.3
   08/12/2018 12:20      89.2      87.9       36     57.9      0.00      0.00      86.0     0.36      1015.7     2.7     ENE    75   7.4     ESE   110   8.80    263      536.7
   08/12/2018 12:10      88.3      86.6       37     58.2      0.00      0.00      86.0     0.36      1015.8     3.5     ENE    69   6.2     ESE   111   8.81    263      534.1
   08/12/2018 12:00      87.8      86.9       38     58.8      0.00      0.00      86.0     0.36      1015.9     3.5     ENE    66   6.7      NE    45   8.81    263      529.4
   08/12/2018 11:50      87.8      86.1       37     57.6      0.00      0.00      85.9     0.36      1015.9     3.3      NE    48   6.1       N   355   8.81    263      525.4
   08/12/2018 11:40      86.4      85.7       38     57.6      0.00      0.00      86.0     0.36      1016.0     4.2     ENE    61   7.9     ESE   103   8.81    263      521.7
   08/12/2018 11:30      86.4      85.6       38     57.3      0.00      0.00      86.0     0.36      1016.0     4.1     ENE    56   6.2      NE    52   8.81    263      513.6
   08/12/2018 11:20      86.4      85.4       37     56.7      0.00      0.00      86.0     0.36      1016.1     3.7     ENE    57   6.3     ENE    62   8.81    263      506.1
   08/12/2018 11:10      86.4      85.8       36     56.2      0.00      0.00      86.0     0.36      1016.2     3.4     ENE    69   6.8     ESE   107   8.81    263      494.7
   08/12/2018 11:00      86.3      84.5       37     56.0      0.00      0.00      86.0     0.36      1016.2     3.3     ENE    58   6.2      NE    55   8.81    263      482.8
   08/12/2018 10:50      85.2      84.3       40     57.5      0.00      0.00      86.0     0.36      1016.2     3.2     ENE    71   6.4     ENE    68   8.81    263      471.1
   08/12/2018 10:40      84.5      83.1       42     57.9      0.00      0.00      86.0     0.36      1016.2     3.2       E    98   6.2      SE   129   8.81    264      457.3
   08/12/2018 10:30      84.1      82.2       44     58.7      0.00      0.00      86.1     0.36      1016.2     3.0     ENE    64   7.1       E    88   8.82    264      439.9
   08/12/2018 10:20      82.6      81.3       51     62.4      0.00      0.00      86.1     0.36      1016.2     2.9      NE    53   6.5     ENE    76   8.82    264      421.3
   08/12/2018 10:10      81.4      80.4       53     62.1      0.00      0.00      86.2     0.36      1016.2     2.9     ENE    59   6.6      NE    54   8.82    265      405.3
   08/12/2018 10:00      80.6      79.4       59     64.2      0.00      0.00      86.2     0.36      1016.2     2.7       E    82   5.7     ESE   109   8.82    265      388.3
   08/12/2018 09:50      79.5      78.4       62     65.1      0.00      0.00      86.2     0.36      1016.3     2.6     NNE    32   5.5      NE    35   8.82    265      367.7
   08/12/2018 09:40      78.6      77.8       64     65.1      0.00      0.00      86.2     0.36      1016.3     2.6     NNE    25   4.9     NNE    24   8.82    265      351.0
   08/12/2018 09:30      78.3      77.5       65     65.2      0.00      0.00      86.2     0.36      1016.3     2.3      NE    42   4.7     ENE    60   8.82    265      326.5
   08/12/2018 09:20      78.4      77.0       66     65.2      0.00      0.00      86.3     0.36      1016.4     2.4     ENE    77   4.7       N     2   8.82    266      309.0
   08/12/2018 09:10      77.2      76.3       68     65.1      0.00      0.00      86.3     0.36      1016.4     2.4     ENE    66   4.9     NNE    29   8.82    266      288.0
   08/12/2018 09:00      76.6      76.0       68     65.2      0.00      0.00      86.4     0.36      1016.4     2.4      NE    38   4.3     NNE    34   8.82    266      266.5
   08/12/2018 08:50      76.1      74.3       72     65.3      0.00      0.00      86.4     0.36      1016.5     1.9     ENE    69   4.9      NE    49   8.82    266      251.7
   08/12/2018 08:40      74.4      73.7       74     65.3      0.00      0.00      86.5     0.36      1016.5     2.5      NE    53   4.3      NE    54   8.82    266      127.3
   08/12/2018 08:30      74.0      73.3       76     65.6      0.00      0.00      86.5     0.36      1016.6     1.7      NE    56   3.4      NE    42   8.82    267        9.9
   08/12/2018 08:20      73.6      72.8       77     65.5      0.00      0.00      86.6     0.36      1016.7     1.6     ENE    65   4.5       E    85   8.82    267        4.4
   08/12/2018 08:10      73.0      72.4       78     65.3      0.00      0.00      86.6     0.36      1016.7     1.3      NE    54   3.2      NE    34   8.82    268       16.9
   08/12/2018 08:00      72.7      72.0       78     65.2      0.00      0.00      86.6     0.36      1016.6     2.0     ENE    70   3.2      NE    43   8.82    268       36.9
   08/12/2018 07:50      72.2      71.4       79     65.0      0.00      0.00      86.6     0.36      1016.5     1.8      NE    51   3.4      NE    55   8.82    268       22.4
   08/12/2018 07:40      71.7      71.2       79     64.7      0.00      0.00      86.6     0.36      1016.4     2.3      NE    44   4.2      NE    45   8.82    268        2.1
   08/12/2018 07:30      71.5      70.7       79     64.2      0.00      0.00      86.7     0.36      1016.2     2.0      NE    44   3.5     ENE    59   8.82    268      -10.1
   08/12/2018 07:20      70.9      69.7       81     64.2      0.00      0.00      86.7     0.36      1016.3     1.2     ENE    68   2.5      NE    36   8.82    268      -14.3
   08/12/2018 07:10      69.8      68.6       83     63.7      0.00      0.00      86.8     0.36      1016.3     0.4       E    88   1.6     NNE    30   8.82    268      -18.4
   08/12/2018 07:00      68.9      68.0       84     63.3      0.00      0.00      86.8     0.37      1016.2     0.0       S   186   0.6       S   186   8.82    265      -25.5
   08/12/2018 06:50      68.2      67.5       84     62.7      0.00      0.00      86.8     0.37      1016.1     0.3     SSE   156   1.0     SSE   154   8.82    264      -30.9
   08/12/2018 06:40      68.2      67.6       84     63.0      0.00      0.00      86.9     0.36      1016.1     0.3      SE   145   1.9      SE   141   8.82    263      -35.0
   08/12/2018 06:30      68.1      67.7       84     62.9      0.00      0.00      86.9     0.37      1016.0     0.0       N     0   0.0     SSE   158   8.82    261      -40.5
   08/12/2018 06:20      68.2      67.7       84     62.9      0.00      0.00      87.0     0.36      1015.8     0.1     SSE   158   0.9     SSE   158   8.82    262      -46.1
   08/12/2018 06:10      68.7      67.9       84     63.1      0.00      0.00      87.0     0.37      1015.7     0.4     SSW   194   1.6     SSW   199   8.82    262      -48.8
   08/12/2018 06:00      69.2      68.4       84     63.5      0.00      0.00      87.0     0.37      1015.6     0.6       S   187   2.1     SSW   191   8.82    261      -49.7
   08/12/2018 05:50      69.3      68.8       83     63.8      0.00      0.00      87.0     0.37      1015.5     0.3       S   171   1.3       S   190   8.82    261      -49.7
   08/12/2018 05:40      69.2      68.8       83     63.6      0.00      0.00      87.1     0.37      1015.4     0.0       E    97   0.9       E    95   8.82    263      -50.3
   08/12/2018 05:30      69.1      68.5       83     63.5      0.00      0.00      87.1     0.37      1015.2     0.3      SE   141   1.2      SE   139   8.82    262      -49.9
   08/12/2018 05:20      69.1      68.6       83     63.2      0.00      0.00      87.1     0.37      1015.2     0.1      SE   139   0.9      SE   139   8.83    264      -49.8
   08/12/2018 05:10      69.5      68.8       82     63.3      0.00      0.00      87.2     0.37      1015.2     0.4     ENE    72   1.5     ENE    71   8.83    265      -50.1
   08/12/2018 05:00      69.5      69.2       82     63.6      0.00      0.00      87.2     0.37      1014.7     1.5       S   184   2.5     SSW   212   8.83    263      -50.1
   08/12/2018 04:50      69.9      69.3       82     63.8      0.00      0.00      87.3     0.37      1014.8     0.2       S   185   1.2       S   182   8.83    266      -49.3
   08/12/2018 04:40      69.8      69.2       82     63.8      0.00      0.00      87.3     0.37      1015.0     0.0     ENE    64   0.5     ENE    64   8.83    266      -49.2
   08/12/2018 04:30      70.1      69.2       81     63.4      0.00      0.00      87.3     0.37      1015.1     0.2     ENE    65   1.4     ENE    63   8.83    266      -49.8
   08/12/2018 04:20      70.6      69.8       80     63.6      0.00      0.00      87.4     0.37      1014.7     1.0       S   186   2.4      SW   214   8.83    265      -49.9
   08/12/2018 04:10      71.0      70.3       80     64.0      0.00      0.00      87.4     0.37      1014.8     0.2     SSW   206   2.1      SW   216   8.83    267      -50.1
   08/12/2018 04:00      71.2      70.6       79     63.9      0.00      0.00      87.4     0.37      1015.0     0.1     ENE    57   1.9     ENE    57   8.83    264      -50.7
   08/12/2018 03:50      71.5      71.0       78     64.2      0.00      0.00      87.4     0.37      1015.1     0.3     ENE    57   1.5      NE    48   8.83    266      -51.5
   08/12/2018 03:40      71.6      71.1       78     64.3      0.00      0.00      87.5     0.37      1015.1     1.0      NE    55   2.3      NE    50   8.83    267      -52.0
   08/12/2018 03:30      71.9      71.4       78     64.4      0.00      0.00      87.5     0.37      1015.1     0.9      NE    46   1.9     ENE    69   8.83    267      -52.0
   08/12/2018 03:20      72.0      71.4       78     64.4      0.00      0.00      87.5     0.37      1015.1     0.7     ENE    57   2.2     ENE    59   8.83    267      -52.3
   08/12/2018 03:10      72.2      71.7       78     64.5      0.00      0.00      87.5     0.37      1015.1     1.3      NE    54   2.5       E    85   8.83    268      -52.4
   08/12/2018 03:00      72.3      71.8       77     64.6      0.00      0.00      87.6     0.37      1015.1     1.7      NE    52   3.6     ENE    61   8.83    268      -52.7
   08/12/2018 02:50      72.5      72.1       77     64.7      0.00      0.00      87.6     0.37      1015.1     1.0      NE    51   2.3     ENE    58   8.83    268      -52.4
   08/12/2018 02:40      72.5      72.2       77     64.7      0.00      0.00      87.6     0.37      1015.1     1.4      NE    52   2.5     ENE    70   8.83    268      -52.0
   08/12/2018 02:30      72.5      71.8       77     64.5      0.00      0.00      87.7     0.37      1015.1     1.5      NE    50   3.0      NE    45   8.83    268      -50.9
   08/12/2018 02:20      72.0      71.3       76     63.5      0.00      0.00      87.7     0.37      1015.1     0.6     ENE    62   2.1      NE    51   8.83    268      -50.1
   08/12/2018 02:10      71.5      70.6       74     62.2      0.00      0.00      87.7     0.37      1015.2     0.1      NE    42   1.8      NE    40   8.83    267      -49.2
   08/12/2018 02:00      70.9      70.4       71     60.9      0.00      0.00      87.7     0.37      1015.2     0.0     SSW   203   0.2     SSW   203   8.83    267      -50.1
   08/12/2018 01:50      71.1      70.5       70     60.5      0.00      0.00      87.8     0.37      1015.2     0.0       N     0   0.0     SSW   202   8.83    267      -50.5
   08/12/2018 01:40      71.2      70.8       70     60.9      0.00      0.00      87.8     0.37      1015.3     0.0     SSW   202   0.7     SSW   202   8.83    267      -50.9
   08/12/2018 01:30      71.6      70.9       69     60.4      0.00      0.00      87.9     0.37      1015.3     0.0     SSW   202   0.0     SSW   202   8.83    266      -51.4
   08/12/2018 01:20      71.5      71.2       68     60.5      0.00      0.00      87.9     0.37      1015.3     0.0       N     0   0.0     SSW   202   8.83    266      -51.4
   08/12/2018 01:10      71.9      71.2       67     59.8      0.00      0.00      87.9     0.37      1015.4     0.0       N     0   0.0     SSW   203   8.83    266      -52.2
   08/12/2018 01:00      71.8      71.4       67     60.0      0.00      0.00      87.9     0.37      1015.3     0.5     SSW   203   1.1     SSW   202   8.83    266      -52.8
   08/12/2018 00:50      71.9      71.4       66     59.9      0.00      0.00      88.0     0.37      1015.4     0.0       N     0   0.0     SSW   202   8.84    266      -53.8
   08/12/2018 00:40      72.0      71.4       66     59.6      0.00      0.00      88.0     0.37      1015.3     0.1     SSW   203   0.9     SSW   202   8.84    266      -54.3
   08/12/2018 00:30      72.3      71.8       66     60.0      0.00      0.00      88.0     0.37      1015.1     0.0     SSW   203   0.7     SSW   203   8.84    266      -54.6
   08/12/2018 00:20      72.4      71.9       65     59.9      0.00      0.00      88.0     0.37      1015.1     0.4     SSW   198   1.2     SSW   196   8.84    266      -55.1
   08/12/2018 00:10      72.8      71.9       65     59.8      0.00      0.00      88.0     0.37      1015.1     0.0     SSE   164   0.6     SSE   164   8.84    266      -55.8
   08/12/2018 00:00      73.1      72.5       66     60.8      0.00      0.00      88.0     0.37      1015.2     0.5     SSE   157   1.1     SSE   164   8.84    266      -56.2
   08/11/2018 23:50      73.6      72.7       65     60.7      0.00      0.00      88.0     0.37      1015.1     0.2      SE   139   1.1      SE   139   8.84    266      -56.8
   08/11/2018 23:40      73.6      73.3       64     60.5      0.00      0.00      88.0     0.37      1015.2     1.3      SW   225   2.1     SSW   209   8.84    266      -56.3
   08/11/2018 23:30      73.6      73.0       65     61.0      0.00      0.00      88.0     0.37      1015.3     0.8       S   182   1.7     SSW   203   8.84    266      -56.5
   08/11/2018 23:20      73.6      73.2       65     61.0      0.00      0.00      88.1     0.37      1015.3     0.4     SSE   165   1.1     SSE   165   8.84    266      -57.3
   08/11/2018 23:10      74.1      73.1       65     61.1      0.00      0.00      88.1     0.37      1015.3     0.6     SSE   162   2.7      SE   143   8.84    266      -58.0
   08/11/2018 23:00      74.8      73.7       64     61.3      0.00      0.00      88.1     0.37      1015.3     0.2     SSE   165   1.0       S   173   8.84    266      -59.8
   08/11/2018 22:50      75.4      74.5       63     61.5      0.00      0.00      88.1     0.37      1015.3     0.3     SSW   203   1.2     SSW   203   8.85    266      -59.7
   08/11/2018 22:40      75.6      75.0       63     61.8      0.00      0.00      88.1     0.37      1015.3     1.0     SSW   199   1.9     SSW   209   8.85    266      -59.6
   08/11/2018 22:30      75.6      75.2       63     62.0      0.00      0.00      88.2     0.37      1015.3     0.8       S   170   1.9     SSW   194   8.85    266      -60.2
   08/11/2018 22:20      75.8      75.2       63     62.0      0.00      0.00      88.1     0.37      1015.2     1.0       S   190   2.8     SSW   199   8.85    266      -61.1
   08/11/2018 22:10      76.0      75.5       63     62.2      0.00      0.00      88.2     0.37      1015.1     2.3     SSW   192   3.7     SSW   191   8.85    266      -61.2
   08/11/2018 22:00      76.1      75.6       63     62.2      0.00      0.00      88.1     0.37      1015.0     1.2     SSW   195   3.0     SSW   205   8.85    266      -61.7
   08/11/2018 21:50      76.5      75.8       62     62.2      0.00      0.00      88.2     0.37      1015.0     1.5     SSW   203   3.4     SSW   194   8.85    266      -62.0
   08/11/2018 21:40      76.6      76.1       62     62.2      0.00      0.00      88.2     0.37      1014.9     1.8     SSW   207   4.2      SW   223   8.85    266      -62.4
   08/11/2018 21:30      76.7      76.3       61     62.2      0.00      0.00      88.2     0.37      1014.8     2.7      SW   226   4.4     WSW   256   8.85    266      -62.5
   08/11/2018 21:20      76.7      76.3       61     62.1      0.00      0.00      88.2     0.37      1014.7     3.3     WSW   237   5.4       W   262   8.86    266      -62.7
   08/11/2018 21:10      76.9      76.3       61     62.1      0.00      0.00      88.1     0.37      1014.6     3.1      SW   222   4.8     WSW   254   8.86    266      -63.6
   08/11/2018 21:00      76.9      76.4       61     62.1      0.00      0.00      88.2     0.37      1014.5     3.2      SW   219   6.3     SSW   196   8.86    266      -64.2
   08/11/2018 20:50      77.2      76.6       61     62.2      0.00      0.00      88.1     0.37      1014.3     4.0      SW   224   7.3     WSW   238   8.86    266      -64.8
   08/11/2018 20:40      77.6      76.9       59     62.0      0.00      0.00      88.1     0.37      1014.2     4.0      SW   222   6.2      SW   222   8.86    265      -65.8
   08/11/2018 20:30      77.8      77.2       59     61.8      0.00      0.00      88.1     0.37      1014.1     3.1      SW   226   5.5     SSW   209   8.87    265      -66.4
   08/11/2018 20:20      78.1      77.4       58     61.7      0.00      0.00      88.1     0.37      1014.0     4.9      SW   233   8.0       W   262   8.87    265      -66.8
   08/11/2018 20:10      78.5      77.7       58     61.8      0.00      0.00      88.1     0.37      1013.9     5.1      SW   235   7.7      SW   232   8.87    265      -67.4
   08/11/2018 20:00      78.8      78.0       57     61.8      0.00      0.00      88.0     0.37      1013.8     5.6     WSW   241   8.2      SW   229   8.87    265      -67.3
   08/11/2018 19:50      79.3      78.4       56     61.8      0.00      0.00      88.0     0.37      1013.8     5.1     WSW   245   9.9       W   277   8.88    264      -66.2
   08/11/2018 19:40      79.8      79.0       55     61.8      0.00      0.00      88.0     0.37      1013.7     6.2       W   260  11.7       W   268   8.88    264      -62.4
   08/11/2018 19:30      80.1      79.5       54     61.9      0.00      0.00      87.9     0.37      1013.6     5.2       W   264   9.2       W   274   8.89    264      -56.8
   08/11/2018 19:20      80.9      80.1       53     61.8      0.00      0.00      87.9     0.37      1013.4     6.3     WSW   255  11.9      SW   231   8.89    264      -47.5
   08/11/2018 19:10      81.3      80.6       52     61.9      0.00      0.00      87.9     0.37      1013.4     5.5       W   266   9.5     WSW   237   8.89    264      -34.7
   08/11/2018 19:00      82.3      81.1       52     62.0      0.00      0.00      87.9     0.37      1013.2     5.7       W   272  10.4     WSW   253   8.90    264      -20.1
   08/11/2018 18:50      82.9      81.8       50     62.2      0.00      0.00      87.7     0.37      1013.1     5.2       W   268  11.0       W   264   8.90    264       -3.4
   08/11/2018 18:40      83.1      82.4       50     62.3      0.00      0.00      87.8     0.37      1013.0     5.7     WSW   258   9.7     WSW   245   8.91    264       16.3
   08/11/2018 18:30      83.6      82.9       50     62.3      0.00      0.00      87.7     0.37      1013.1     5.4       W   281  11.5       W   271   8.91    263       36.2
   08/11/2018 18:20      84.0      83.0       49     62.2      0.00      0.00      87.7     0.37      1013.1     5.6       W   278  11.9       W   274   8.91    263       56.4
   08/11/2018 18:10      84.4      83.5       48     62.1      0.00      0.00      87.6     0.37      1013.1     6.6       W   269  11.9     WSW   244   8.92    263       77.1
   08/11/2018 18:00      85.0      84.2       47     62.1      0.00      0.00      87.6     0.37      1013.1     6.7       W   268  10.6     WNW   282   8.92    263       99.3
   08/11/2018 17:50      85.5      84.7       46     62.1      0.00      0.00      87.5     0.37      1013.2     6.5       W   268  13.8      SW   235   8.93    263      121.8
   08/11/2018 17:40      86.7      85.1       45     61.9      0.00      0.00      87.5     0.37      1013.2     6.2       W   279  11.7     WNW   289   8.94    263      143.2
   08/11/2018 17:30      86.7      85.8       44     61.8      0.00      0.00      87.4     0.37      1013.2     6.5       W   269  13.0     WSW   247   8.94    263      164.7
   08/11/2018 17:20      87.7      86.4       42     61.5      0.00      0.00      87.4     0.37      1013.2     5.9       W   271  12.1       W   273   8.95    263      184.5
   08/11/2018 17:10      87.8      87.2       42     61.4      0.00      0.00      87.4     0.37      1013.3     4.8     WNW   285   9.6     WNW   292   8.95    263      206.4
   08/11/2018 17:00      88.3      87.4       41     61.4      0.00      0.00      87.3     0.37      1013.4     5.7       W   281  10.7       W   281   8.95    263      230.9
   08/11/2018 16:50      88.8      87.4       41     61.5      0.00      0.00      87.2     0.37      1013.5     7.0       W   273  12.4      SW   233   8.96    263      257.9
   08/11/2018 16:40      88.7      88.0       41     61.6      0.00      0.00      87.2     0.37      1013.6     6.4     WSW   257  11.8       W   264   8.97    263      281.7
   08/11/2018 16:30      88.8      88.1       40     60.9      0.00      0.00      87.1     0.37      1013.6     6.7     WSW   248  11.2     WSW   253   8.97    263      304.8
   08/11/2018 16:20      89.0      88.2       40     60.8      0.00      0.00      87.0     0.36      1013.6     7.7      SW   222  11.6     WSW   255   8.98    263      326.7
   08/11/2018 16:10      89.0      88.2       40     60.9      0.00      0.00      87.0     0.36      1013.6     7.3      SW   218  12.3      SW   236   8.98    263      346.0
   08/11/2018 16:00      89.4      88.7       39     60.9      0.00      0.00      86.9     0.36      1013.7     7.1      SW   223  11.5     SSW   195   8.99    263      365.4
   08/11/2018 15:50      89.8      89.0       39     61.2      0.00      0.00      86.8     0.36      1013.8     7.3      SW   221  12.4      SW   217   9.00    263      383.7
   08/11/2018 15:40      90.1      89.3       38     61.0      0.00      0.00      86.8     0.36      1013.8     7.4      SW   225  12.2      SW   227   9.00    263      402.5
   08/11/2018 15:30      90.1      89.4       38     61.1      0.00      0.00      86.7     0.36      1013.8     7.5      SW   226  12.9     WSW   246   9.01    263      420.3
   08/11/2018 15:20      90.3      89.7       38     61.1      0.00      0.00      86.7     0.36      1014.0     6.6      SW   233  10.7     SSW   207   9.01    263      435.2
   08/11/2018 15:10      90.7      89.3       38     61.0      0.00      0.00      86.6     0.36      1014.1     7.1     WSW   251  11.2       W   274   9.02    263      449.8
   08/11/2018 15:00      91.0      90.2       37     60.8      0.00      0.00      86.5     0.36      1014.2     5.9     WSW   243  10.3       W   270   9.02    263      461.9
   08/11/2018 14:50      90.9      89.9       37     60.7      0.00      0.00      86.5     0.36      1014.4     6.0     WSW   239  11.1      SW   233   9.03    263      475.1
   08/11/2018 14:40      91.1      89.9       37     60.6      0.00      0.00      86.4     0.36      1014.5     6.0     WSW   238  10.5     WSW   255   9.04    263      485.4
   08/11/2018 14:30      90.7      90.0       37     60.4      0.00      0.00      86.4     0.36      1014.6     5.6      SW   231   9.1      NW   318   9.04    263      494.1
   08/11/2018 14:20      91.3      90.3       36     60.6      0.00      0.00      86.3     0.36      1014.6     6.1     WSW   244  11.2       W   263   9.05    263      501.2
   08/11/2018 14:10      91.3      90.2       36     60.4      0.00      0.00      86.3     0.36      1014.6     4.7     WSW   243   8.8     WSW   237   9.05    263      507.8
   08/11/2018 14:00      92.3      90.2       35     60.3      0.00      0.00      86.2     0.36      1014.7     4.5       W   266  11.5     WSW   258   9.06    262      513.8
   08/11/2018 13:50      90.7      89.4       37     60.4      0.00      0.00      86.2     0.36      1014.9     5.7      SW   231  11.9       W   271   9.06    263      521.7
   08/11/2018 13:40      90.2      89.2       38     60.5      0.00      0.00      86.2     0.36      1014.9     5.8     WSW   246  11.2      SW   227   9.06    262      524.3
   08/11/2018 13:30      91.2      89.6       37     60.8      0.00      0.00      86.1     0.36      1015.1     5.4     WSW   244   9.8     WSW   248   9.07    263      527.6
   08/11/2018 13:20      91.2      89.8       37     60.7      0.00      0.00      86.1     0.36      1015.2     3.9     WNW   292   8.8      NW   304   9.07    263      529.5
   08/11/2018 13:10      90.4      89.6       37     60.6      0.00      0.00      86.0     0.36      1015.4     4.8     WSW   242   9.1      SW   229   9.07    262      537.6
   08/11/2018 13:00      90.5      89.4       37     60.6      0.00      0.00      86.0     0.36      1015.5     3.8     WNW   293   8.4     WSW   256   9.08    263      541.8
   08/11/2018 12:50      89.5      88.5       38     60.4      0.00      0.00      86.0     0.36      1015.6     4.7      SW   235   8.8     WSW   254   9.08    263      545.9
   08/11/2018 12:40      89.8      88.7       38     60.6      0.00      0.00      86.0     0.36      1015.7     4.7      SW   235   9.6     WSW   238   9.08    262      544.9
   08/11/2018 12:30      89.8      89.1       38     60.6      0.00      0.00      85.9     0.36      1015.7     5.1     WSW   258  11.0     WSW   256   9.08    263      536.3
   08/11/2018 12:20      90.1      89.0       38     60.5      0.00      0.00      85.9     0.36      1015.7     4.8       W   261  10.6       W   260   9.08    263      527.3
   08/11/2018 12:10      89.9      88.2       39     60.8      0.00      0.00      85.9     0.36      1015.7     5.0       W   280   9.2      NW   320   9.09    263      524.8
   08/11/2018 12:00      89.4      88.2       40     61.2      0.00      0.00      85.9     0.36      1015.8     5.2     WSW   249  13.1     WNW   283   9.09    263      517.4
   08/11/2018 11:50      89.7      88.0       41     61.9      0.00      0.00      85.9     0.36      1016.1     1.7     NNW   341   5.0     WNW   282   9.09    262      507.6
   08/11/2018 11:40      88.9      87.9       41     61.9      0.00      0.00      86.0     0.36      1016.4     3.6     WNW   295   7.6       W   277   9.09    263      498.6
   08/11/2018 11:30      88.7      87.5       42     62.0      0.00      0.00      85.9     0.36      1016.5     2.9     NNW   346   5.9      NE    43   9.09    263      489.8
   08/11/2018 11:20      88.2      86.8       42     61.9      0.00      0.00      85.9     0.36      1016.7     1.7     ESE   123   4.4      NE    37   9.09    263      485.5
   08/11/2018 11:10      87.8      86.6       43     61.8      0.00      0.00      85.9     0.36      1016.9     1.5     ESE   114   4.3       S   177   9.09    263      472.9
   08/11/2018 11:00      86.6      85.3       45     61.8      0.00      0.00      86.0     0.36      1016.9     2.1      NE    56   4.3      NE    52   9.09    263      460.6
   08/11/2018 10:50      85.8      84.3       45     61.7      0.00      0.00      86.0     0.36      1016.9     1.8     NNE    12   4.8     NNE    24   9.09    263      448.4
   08/11/2018 10:40      85.2      83.9       46     61.5      0.00      0.00      86.0     0.36      1016.7     2.2       E    88   3.8       S   171   9.09    263      434.1
   08/11/2018 10:30      84.5      83.3       47     61.3      0.00      0.00      86.1     0.36      1016.8     1.8       N    10   4.0     NNE    14   9.09    263      417.5
   08/11/2018 10:20      84.3      82.9       47     61.3      0.00      0.00      86.0     0.36      1016.8     1.6     NNE    12   4.1     NNE    17   9.09    263      402.1
   08/11/2018 10:10      83.1      81.8       48     61.0      0.00      0.00      86.1     0.36      1016.8     1.7       E    92   4.8      SE   138   9.09    263      384.4
   08/11/2018 10:00      82.3      81.9       48     60.6      0.00      0.00      86.1     0.36      1016.9     2.4     NNE    23   4.6     ENE    57   9.09    263      362.9
   08/11/2018 09:50      82.2      80.9       48     60.2      0.00      0.00      86.2     0.36      1016.9     1.7      NE    40   4.4      NE    45   9.09    263      344.6
   08/11/2018 09:40      81.3      80.8       48     59.7      0.00      0.00      86.2     0.36      1017.0     2.4     ENE    69   4.8      SE   132   9.09    263      325.9
   08/11/2018 09:30      81.2      79.6       48     59.1      0.00      0.00      86.2     0.36      1017.0     1.6      SE   133   3.9     SSE   160   9.09    263      310.4
   08/11/2018 09:20      80.1      79.4       49     58.8      0.00      0.00      86.3     0.37      1016.9     1.7      SE   141   4.6      SE   134   9.09    263      288.4
   08/11/2018 09:10      80.0      78.6       48     57.8      0.00      0.00      86.3     0.37      1017.0     1.3     ESE   101   5.0       S   186   9.09    263      265.8
   08/11/2018 09:00      78.8      77.2       49     57.2      0.00      0.00      86.3     0.37      1016.9     1.3     NNE    21   3.1       N     9   9.09    263      247.6
   08/11/2018 08:50      77.5      76.3       50     56.9      0.00      0.00      86.3     0.37      1017.0     1.6     NNW   332   3.8     WNW   296   9.09    263      234.4
   08/11/2018 08:40      76.6      76.0       51     57.1      0.00      0.00      86.3     0.37      1017.0     1.3     NNW   344   3.3     NNW   342   9.10    264      125.1
   08/11/2018 08:30      76.2      75.2       53     57.4      0.00      0.00      86.4     0.37      1017.1     0.3     NNW   338   1.4     NNE    26   9.10    264       26.8
   08/11/2018 08:20      75.7      75.2       53     57.1      0.00      0.00      86.5     0.37      1017.2     1.4       N     9   2.7       N     4   9.10    264       17.4
   08/11/2018 08:10      75.5      74.7       54     57.2      0.00      0.00      86.5     0.37      1017.2     0.1     ESE   102   1.4     ESE   114   9.10    265       25.9
   08/11/2018 08:00      74.9      74.0       56     57.8      0.00      0.00      86.6     0.37      1017.2     0.7       E    80   1.8     ESE   123   9.10    265       36.4
   08/11/2018 07:50      74.3      73.3       59     58.4      0.00      0.00      86.6     0.37      1017.2     0.5     SSE   159   1.9     SSE   158   9.10    266       23.0
   08/11/2018 07:40      73.7      72.6       61     59.0      0.00      0.00      86.6     0.37      1017.3     1.1       E   100   2.5      SE   134   9.10    266        2.8
   08/11/2018 07:30      72.8      71.8       62     58.6      0.00      0.00      86.6     0.37      1017.3     1.2      SE   132   1.9      SE   141   9.10    266       -5.1
   08/11/2018 07:20      72.0      71.1       63     58.4      0.00      0.00      86.7     0.37      1017.2     0.4      SE   136   1.3      SE   136   9.10    266       -9.5
   08/11/2018 07:10      71.2      70.1       66     58.5      0.00      0.00      86.7     0.37      1017.1     0.2      SE   136   0.6      SE   136   9.10    266      -15.6
   08/11/2018 07:00      70.2      69.3       67     58.0      0.00      0.00      86.7     0.37      1017.1     0.4     SSE   153   1.6      SE   139   9.10    266      -21.6
   08/11/2018 06:50      69.7      69.1       68     58.0      0.00      0.00      86.8     0.37      1017.0     0.0     SSE   165   0.7     SSE   165   9.10    266      -28.2
   08/11/2018 06:40      69.2      68.7       69     58.2      0.00      0.00      86.8     0.37      1016.9     0.0     SSE   165   0.3     SSE   165   9.10    266      -34.7
   08/11/2018 06:30      69.1      68.7       68     58.0      0.00      0.00      86.8     0.37      1016.9     0.3     SSE   157   1.6     SSE   147   9.10    266      -40.1
   08/11/2018 06:20      69.3      68.8       67     57.8      0.00      0.00      86.8     0.37      1016.9     0.2     SSE   160   0.9     SSE   160   9.10    266      -43.8
   08/11/2018 06:10      69.4      69.0       68     58.4      0.00      0.00      86.9     0.37      1016.8     0.0     SSE   160   0.5     SSE   160   9.10    266      -45.4
   08/11/2018 06:00      69.5      69.0       69     58.4      0.00      0.00      86.9     0.37      1016.8     0.8     SSE   160   1.1     SSE   160   9.10    266      -46.1
   08/11/2018 05:50      69.5      69.0       67     57.9      0.00      0.00      87.0     0.37      1016.7     0.5     SSE   155   1.0     SSE   159   9.10    266      -46.7
   08/11/2018 05:40      69.7      69.2       66     57.4      0.00      0.00      87.0     0.37      1016.7     0.3     SSE   160   1.1      SE   146   9.10    266      -46.8
   08/11/2018 05:30      70.1      69.5       65     57.4      0.00      0.00      87.0     0.37      1016.5     0.3     SSW   198   1.0     SSW   198   9.10    266      -47.1
   08/11/2018 05:20      70.3      69.7       65     57.5      0.00      0.00      87.0     0.37      1016.5     0.0       N     0   0.0     SSW   198   9.10    266      -47.2
   08/11/2018 05:10      70.3      69.9       65     57.6      0.00      0.00      87.1     0.37      1016.5     0.0       N     0   0.0     SSW   198   9.10    266      -46.8
   08/11/2018 05:00      70.6      69.8       64     57.5      0.00      0.00      87.2     0.37      1016.3     0.1     SSW   198   0.7     SSW   198   9.10    266      -46.8
   08/11/2018 04:50      70.7      70.1       63     57.2      0.00      0.00      87.1     0.37      1016.2     0.1     SSW   198   0.8     SSW   198   9.10    266      -47.1
   08/11/2018 04:40      71.0      70.2       63     57.4      0.00      0.00      87.2     0.37      1016.3     0.7       S   188   1.4     SSW   197   9.10    266      -47.3
   08/11/2018 04:30      71.4      70.8       63     57.5      0.00      0.00      87.2     0.37      1016.3     0.0       N     0   0.0       S   182   9.10    265      -48.2
   08/11/2018 04:20      71.4      70.9       61     57.1      0.00      0.00      87.2     0.37      1016.3     0.5       S   173   1.2       S   182   9.10    265      -47.7
   08/11/2018 04:10      71.3      70.9       62     57.2      0.00      0.00      87.3     0.37      1016.4     0.2     SSE   159   0.7     SSE   160   9.10    265      -47.5
   08/11/2018 04:00      71.4      70.8       62     57.2      0.00      0.00      87.3     0.37      1016.4     0.0     SSE   159   0.5     SSE   159   9.10    265      -47.9
   08/11/2018 03:50      71.7      71.0       61     56.9      0.00      0.00      87.3     0.37      1016.4     0.0     SSE   159   0.7     SSE   159   9.11    265      -48.5
   08/11/2018 03:40      71.8      71.3       61     57.2      0.00      0.00      87.3     0.37      1016.4     0.1     SSE   157   0.8     SSE   156   9.11    265      -48.8
   08/11/2018 03:30      72.1      71.5       60     57.0      0.00      0.00      87.4     0.37      1016.3     0.1     SSE   151   0.9     SSE   148   9.11    265      -49.6
   08/11/2018 03:20      72.3      71.8       59     56.8      0.00      0.00      87.4     0.37      1016.3     0.2       E   101   1.2     SSE   147   9.11    265      -49.6
   08/11/2018 03:10      72.6      71.9       57     56.3      0.00      0.00      87.4     0.37      1016.3     0.0     ESE   114   0.9     SSW   212   9.11    265      -49.7
   08/11/2018 03:00      72.8      72.2       58     56.8      0.00      0.00      87.4     0.37      1016.3     0.4     ENE    76   1.1     ENE    61   9.11    264      -49.9
   08/11/2018 02:50      73.8      72.5       56     56.5      0.00      0.00      87.5     0.37      1016.3     0.2     ESE   116   1.0     ESE   116   9.11    264      -50.2
   08/11/2018 02:40      74.2      73.5       55     56.6      0.00      0.00      87.5     0.37      1016.4     0.0       W   272   0.7      SW   229   9.11    264      -51.3
   08/11/2018 02:30      74.5      73.8       55     56.8      0.00      0.00      87.5     0.37      1016.4     0.0      SW   219   1.2     SSW   214   9.11    264      -51.4
   08/11/2018 02:20      74.5      74.1       54     56.6      0.00      0.00      87.6     0.37      1016.5     0.8     SSW   210   2.4      SW   216   9.11    264      -52.6
   08/11/2018 02:10      74.7      74.2       53     56.2      0.00      0.00      87.5     0.37      1016.5     1.1     SSW   197   2.4      SW   229   9.11    264      -52.8
   08/11/2018 02:00      74.7      74.1       53     56.1      0.00      0.00      87.6     0.37      1016.5     2.7     SSW   209   4.3     SSW   197   9.11    264      -52.9
   08/11/2018 01:50      74.3      73.8       53     55.7      0.00      0.00      87.6     0.37      1016.4     2.1     SSW   199   3.3     SSW   210   9.12    264      -52.2
   08/11/2018 01:40      74.4      73.8       53     55.6      0.00      0.00      87.7     0.37      1016.5     0.8       S   184   1.6       S   188   9.12    264      -52.3
   08/11/2018 01:30      74.5      74.1       52     55.4      0.00      0.00      87.7     0.37      1016.5     1.2     SSW   192   1.8     SSW   202   9.12    264      -52.8
   08/11/2018 01:20      74.6      74.2       51     55.2      0.00      0.00      87.7     0.37      1016.5     1.5     SSW   199   2.0     SSW   196   9.12    264      -52.8
   08/11/2018 01:10      74.6      74.2       51     54.9      0.00      0.00      87.7     0.37      1016.7     1.2     SSW   202   2.7     SSW   209   9.12    263      -53.3
   08/11/2018 01:00      74.7      74.0       50     54.4      0.00      0.00      87.7     0.37      1016.7     0.6       S   189   1.6       S   178   9.12    263      -54.3
   08/11/2018 00:50      74.7      74.2       49     54.1      0.00      0.00      87.8     0.37      1016.7     1.3       S   170   2.4       S   172   9.12    263      -55.5
   08/11/2018 00:40      75.0      73.9       49     53.9      0.00      0.00      87.8     0.37      1016.7     1.2       S   176   2.8       S   182   9.12    263      -55.8
   08/11/2018 00:30      75.6      74.8       48     54.1      0.00      0.00      87.8     0.37      1016.7     1.0       S   180   1.6       S   176   9.12    263      -56.8
   08/11/2018 00:20      75.9      75.3       47     54.0      0.00      0.00      87.8     0.37      1016.8     1.0       S   184   2.1      SW   219   9.12    263      -58.1
   08/11/2018 00:10      76.1      75.5       47     54.1      0.00      0.00      87.8     0.37      1016.8     1.2     SSW   193   2.9      SW   223   9.12    263      -58.5
   08/11/2018 00:00      76.2      75.6       47     54.0      0.00      0.00      87.9     0.37      1016.7     1.1      SW   218   2.9     WSW   243   9.13    263      -58.5
   08/10/2018 23:50      76.6      75.9       46     54.0      0.00      0.00      87.8     0.37      1016.8     1.1     SSW   204   2.2      SW   223   9.13    263      -59.2
   08/10/2018 23:40      76.8      76.3       45     53.8      0.00      0.00      87.9     0.37      1016.8     1.8     SSW   210   4.0     SSW   203   9.13    263      -59.9
   08/10/2018 23:30      77.2      76.5       45     53.5      0.00      0.00      87.9     0.37      1016.8     2.0     SSW   208   3.5     SSW   206   9.13    263      -60.3
   08/10/2018 23:20      77.4      76.7       44     53.3      0.00      0.00      87.9     0.37      1016.8     2.6     SSW   201   3.7     SSW   203   9.13    263      -60.5
   08/10/2018 23:10      77.4      77.0       43     53.2      0.00      0.00      87.9     0.37      1016.7     2.4     SSW   207   3.9     SSW   213   9.13    263      -61.1
   08/10/2018 23:00      77.7      77.1       42     52.8      0.00      0.00      87.9     0.37      1016.7     1.6     SSW   198   3.0     SSW   214   9.13    263      -61.1
   08/10/2018 22:50      78.2      77.3       43     53.3      0.00      0.00      87.9     0.37      1016.7     1.5     SSW   194   2.8     SSW   197   9.13    263      -61.8
   08/10/2018 22:40      78.4      77.8       43     53.8      0.00      0.00      87.9     0.37      1016.8     3.0      SW   232   4.5     WSW   238   9.14    263      -62.1
   08/10/2018 22:30      78.6      78.0       42     53.4      0.00      0.00      88.0     0.37      1016.7     2.6      SW   226   5.5     WSW   244   9.14    263      -62.4
   08/10/2018 22:20      78.9      78.3       40     52.4      0.00      0.00      87.9     0.37      1016.8     2.4      SW   222   5.6      SW   234   9.14    263      -62.8
   08/10/2018 22:10      79.2      78.4       39     51.7      0.00      0.00      88.0     0.37      1016.8     3.3     SSW   209   5.8      SW   223   9.14    263      -63.5
   08/10/2018 22:00      79.7      78.7       37     50.9      0.00      0.00      88.0     0.37      1016.6     2.1     SSW   212   3.6      SW   220   9.15    263      -64.3
   08/10/2018 21:50      79.8      79.2       35     49.8      0.00      0.00      88.0     0.37      1016.6     2.2     SSW   212   3.6      SW   219   9.15    263      -65.0
   08/10/2018 21:40      80.1      79.6       35     49.4      0.00      0.00      88.0     0.37      1016.6     3.1      SW   216   4.2      SW   219   9.15    262      -65.7
   08/10/2018 21:30      80.6      79.9       35     49.8      0.00      0.00      87.9     0.37      1016.4     3.0     SSW   210   5.2      SW   218   9.15    263      -65.9
   08/10/2018 21:20      80.9      80.2       36     50.8      0.00      0.00      87.9     0.37      1016.3     2.6      SW   217   5.0      SW   225   9.15    263      -66.1
   08/10/2018 21:10      81.2      80.6       36     51.6      0.00      0.00      87.9     0.37      1016.2     3.5     WSW   238   5.8     WSW   253   9.16    263      -66.5
   08/10/2018 21:00      81.7      80.8       36     52.0      0.00      0.00      87.9     0.37      1016.2     3.8      SW   224   7.7     SSW   212   9.16    262      -67.1
   08/10/2018 20:50      82.3      81.4       36     51.9      0.00      0.00      87.9     0.37      1016.0     2.7      SW   222   5.1      SW   229   9.16    263      -68.3
   08/10/2018 20:40      82.3      81.9       35     52.1      0.00      0.00      87.9     0.37      1015.9     3.1     WSW   248   6.6      SW   217   9.16    262      -69.2
   08/10/2018 20:30      82.7      82.0       36     52.6      0.00      0.00      87.9     0.37      1015.8     3.3      SW   231   5.3      SW   235   9.17    262      -70.2
   08/10/2018 20:20      83.2      82.3       36     53.2      0.00      0.00      87.9     0.37      1015.7     4.2      SW   236   6.6      SW   229   9.17    262      -71.2
   08/10/2018 20:10      83.7      83.0       36     53.9      0.00      0.00      87.8     0.37      1015.6     3.9     WSW   255   7.6       W   275   9.17    262      -72.3
   08/10/2018 20:00      84.2      83.4       36     54.2      0.00      0.00      87.8     0.37      1015.6     3.1       W   265   5.5      NW   319   9.18    262      -72.2
   08/10/2018 19:50      84.5      83.7       36     54.4      0.00      0.00      87.8     0.37      1015.5     3.0       W   270   5.8     WNW   293   9.18    262      -70.8
   08/10/2018 19:40      85.3      84.2       34     53.2      0.00      0.00      87.8     0.37      1015.4     4.0       W   262   7.7     WSW   246   9.18    262      -67.5
   08/10/2018 19:30      85.8      84.9       32     51.8      0.00      0.00      87.7     0.37      1015.2     4.3     WSW   245   6.9     WSW   252   9.19    262      -62.4
   08/10/2018 19:20      86.1      85.4       30     50.6      0.00      0.00      87.7     0.37      1015.1     4.7     WSW   241   9.5     WSW   248   9.19    262      -53.5
   08/10/2018 19:10      86.6      85.7       32     52.9      0.00      0.00      87.7     0.37      1015.0     5.4      SW   230   9.1       W   261   9.20    262      -41.1
   08/10/2018 19:00      86.8      86.0       33     53.9      0.00      0.00      87.7     0.37      1015.0     4.7      SW   229   8.5     SSW   207   9.20    262      -26.9
   08/10/2018 18:50      88.5      86.6       31     53.4      0.00      0.00      87.6     0.37      1014.9     5.9      SW   231   9.4     SSW   193   9.21    262      -11.8
   08/10/2018 18:40      88.9      88.2       29     52.4      0.00      0.00      87.5     0.37      1014.9     4.5     WSW   249   7.9     SSW   205   9.22    261        4.7
   08/10/2018 18:30      89.0      88.6       29     52.0      0.00      0.00      87.6     0.37      1014.9     3.8      SW   225   7.8      SW   226   9.22    261       23.7
   08/10/2018 18:20      90.4      88.7       26     50.4      0.00      0.00      87.5     0.37      1014.9     5.6     WSW   244   9.4      SW   229   9.22    261       44.0
   08/10/2018 18:10      90.5      89.7       25     49.7      0.00      0.00      87.5     0.37      1014.8     4.6     WSW   252   8.7       W   265   9.23    261       65.8
   08/10/2018 18:00      91.1      90.2       25     50.4      0.00      0.00      87.4     0.37      1014.8     5.7     WSW   249   9.3     WSW   252   9.24    261       87.5
   08/10/2018 17:50      91.7      90.8       25     50.7      0.00      0.00      87.4     0.37      1014.8     5.0     WSW   237   9.2       S   176   9.24    261      109.8
   08/10/2018 17:40      92.1      91.3       25     51.3      0.00      0.00      87.3     0.37      1014.8     4.3     WSW   258   8.5      SW   235   9.25    261      134.8
   08/10/2018 17:30      91.8      91.2       24     50.1      0.00      0.00      87.3     0.37      1014.7     5.6     WSW   248   9.0     WSW   257   9.25    261      157.0
   08/10/2018 17:20      92.1      91.6       22     48.1      0.00      0.00      87.3     0.37      1014.7     5.6      SW   236  11.3     SSW   212   9.26    261      179.8
   08/10/2018 17:10      92.8      91.7       23     48.7      0.00      0.00      87.2     0.37      1014.7     5.7      SW   221  10.2     SSW   192   9.27    261      206.0
   08/10/2018 17:00      92.7      91.5       24     49.8      0.00      0.00      87.1     0.37      1014.8     5.2      SW   233  10.0      SW   225   9.27    261      228.8
   08/10/2018 16:50      92.5      91.7       24     49.9      0.00      0.00      87.1     0.37      1014.8     5.5     WSW   246  10.7     WSW   242   9.28    261      248.0
   08/10/2018 16:40      92.1      91.1       24     50.0      0.00      0.00      87.0     0.37      1014.9     5.7      SW   235   9.4     WSW   247   9.28    261      260.4
   08/10/2018 16:30      92.9      91.3       24     50.3      0.00      0.00      87.0     0.37      1014.9     6.2      SW   216  11.0     WSW   247   9.29    261      227.9
   08/10/2018 16:20      93.3      92.1       24     50.2      0.00      0.00      86.9     0.37      1014.9     4.5     SSE   163   9.7     SSW   211   9.30    261      353.2
   08/10/2018 16:10      92.8      91.6       24     50.0      0.00      0.00      86.8     0.37      1015.0     4.8       S   175   9.6      SE   135   9.30    261      360.2
   08/10/2018 16:00      92.8      91.8       23     49.6      0.00      0.00      86.8     0.37      1015.0     5.1     SSE   167   8.9     SSW   202   9.31    261      375.1
   08/10/2018 15:50      93.1      91.7       23     49.1      0.00      0.00      86.7     0.37      1014.9     6.0     SSE   160  10.1     ESE   120   9.31    261      289.3
   08/10/2018 15:40      93.7      91.9       23     49.2      0.00      0.00      86.6     0.37      1015.0     5.1     SSE   167   8.7       S   181   9.32    261      406.0
   08/10/2018 15:30      92.1      90.9       23     48.9      0.00      0.00      86.5     0.37      1015.1     6.0      SE   137  10.5     ESE   101   9.32    261      386.6
   08/10/2018 15:20      91.5      90.8       23     48.4      0.00      0.00      86.5     0.37      1015.2     6.7     SSE   147  10.6      SE   143   9.33    261      422.3
   08/10/2018 15:10      92.1      91.1       23     48.4      0.00      0.00      86.5     0.37      1015.3     6.6     SSE   149  12.6      SE   131   9.34    261      452.5
   08/10/2018 15:00      92.6      91.3       22     48.1      0.00      0.00      86.4     0.37      1015.4     5.8      SE   141  11.1     ESE   119   9.34    261      469.4
   08/10/2018 14:50      92.6      91.0       23     48.2      0.00      0.00      86.4     0.37      1015.4     6.8     SSE   168  10.9       S   186   9.35    261      457.6
   08/10/2018 14:40      93.1      92.3       21     47.3      0.00      0.00      86.3     0.37      1015.4     6.3     SSE   168  11.9     SSW   197   9.36    261      498.5
   08/10/2018 14:30      92.7      91.9       22     47.4      0.00      0.00      86.2     0.37      1015.4     6.8     SSE   158  10.8     SSE   156   9.36    261      505.9
   08/10/2018 14:20      93.0      91.3       22     47.3      0.00      0.00      86.2     0.37      1015.3     7.7       S   174  12.7     SSW   198   9.37    261      506.3
   08/10/2018 14:10      95.1      92.2       22     49.0      0.00      0.00      86.1     0.37      1015.2     7.6       S   170  11.4       S   173   9.38    261      531.0
   08/10/2018 14:00      95.2      94.4       21     49.4      0.00      0.00      86.1     0.36      1015.2     5.9       S   170   9.8      SE   125   9.38    261      537.7
   08/10/2018 13:50      96.5      94.5       21     49.9      0.00      0.00      86.1     0.37      1015.2     4.0     SSE   151   8.0     ESE   111   9.39    261      288.6
   08/10/2018 13:40      96.5      94.4       22     50.7      0.00      0.00      86.0     0.36      1015.3     2.8     SSE   161   6.6     SSE   149   9.39    261      526.2
   08/10/2018 13:30      95.3      93.7       23     50.8      0.00      0.00      86.0     0.36      1015.4     4.4      SE   137   8.7      SE   124   9.39    261      547.8
   08/10/2018 13:20      95.3      94.0       23     51.1      0.00      0.00      86.0     0.36      1015.4     4.0      SE   131   8.3       S   187   9.39    261      552.5
   08/10/2018 13:10      96.5      94.2       22     50.3      0.00      0.00      85.9     0.36      1015.4     3.7     ESE   121  10.0     ENE    71   9.40    261      519.7
   08/10/2018 13:00      96.3      95.3       21     50.1      0.00      0.00      85.9     0.36      1015.5     2.4      NE    55   6.2      NW   325   9.40    261      508.3
   08/10/2018 12:50      96.1      93.9       22     50.4      0.00      0.00      85.9     0.36      1015.6     1.8     ENE    71   7.0       E    99   9.40    261      511.8
   08/10/2018 12:40      95.2      93.7       22     50.0      0.00      0.00      85.8     0.36      1015.7     3.0     ENE    73   6.0     ENE    58   9.40    261      517.8
   08/10/2018 12:30      94.7      93.8       22     49.6      0.00      0.00      85.8     0.36      1015.9     1.8       N     5   3.5     NNE    12   9.41    261      511.4
   08/10/2018 12:20      94.0      93.2       22     49.7      0.00      0.00      85.8     0.37      1016.0     2.9      NE    54   5.4     ESE   104   9.41    261      509.2
   08/10/2018 12:10      93.4      91.7       24     49.8      0.00      0.00      85.9     0.37      1015.9     1.7      SE   146   4.4     ESE   109   9.41    261      479.2
   08/10/2018 12:00      93.4      92.0       23     49.8      0.00      0.00      85.8     0.36      1016.0     2.8     ENE    73   5.6      NE    46   9.41    261      348.1
   08/10/2018 11:50      93.3      92.6       23     49.3      0.00      0.00      85.8     0.36      1016.1     2.4       N   358   4.6      NE    42   9.41    261      449.2
   08/10/2018 11:40      93.5      92.3       23     49.9      0.00      0.00      85.9     0.37      1016.2     2.1      NW   310   4.5      NW   307   9.41    261      479.1
   08/10/2018 11:30      92.3      91.3       25     50.5      0.00      0.00      85.8     0.37      1016.3     1.8     NNE    21   4.0     NNE    31   9.42    261      473.9
   08/10/2018 11:20      92.4      91.5       25     51.2      0.00      0.00      85.9     0.37      1016.3     1.8      NE    54   3.9      NE    34   9.42    261      464.1
   08/10/2018 11:10      92.2      91.0       25     51.1      0.00      0.00      85.9     0.37      1016.4     1.8     NNE    26   3.9       N   349   9.42    261      453.2
   08/10/2018 11:00      91.8      90.4       26     51.2      0.00      0.00      85.9     0.37      1016.5     1.5      NE    34   3.5       E    82   9.42    261      438.6
   08/10/2018 10:50      90.8      89.7       27     51.4      0.00      0.00      86.0     0.37      1016.5     2.5       N     9   5.8     WNW   301   9.42    261      425.2
   08/10/2018 10:40      90.1      88.9       27     51.2      0.00      0.00      85.9     0.37      1016.5     2.1     NNW   341   4.1     NNE    14   9.42    261      411.1
   08/10/2018 10:30      89.4      88.5       28     51.2      0.00      0.00      86.0     0.37      1016.6     1.3     NNW   340   3.1     NNW   346   9.42    261      393.5
   08/10/2018 10:20      88.5      87.7       29     51.3      0.00      0.00      85.9     0.37      1016.7     1.6     ENE    57   4.3      NE    55   9.42    261      383.1
   08/10/2018 10:10      88.0      86.5       29     51.2      0.00      0.00      86.1     0.37      1016.7     1.9      NE    51   4.0      NE    54   9.42    261      368.6
   08/10/2018 10:00      87.2      86.7       30     51.4      0.00      0.00      86.1     0.37      1016.7     1.6     NNE    19   3.5     ENE    66   9.42    261      357.4
   08/10/2018 09:50      86.8      85.5       31     51.8      0.00      0.00      86.1     0.37      1016.7     1.3      NE    42   4.2     ESE   110   9.42    261      349.7
   08/10/2018 09:40      85.7      83.7       33     52.6      0.00      0.00      86.2     0.37      1016.7     1.6      NE    45   3.1     ESE   109   9.42    262      357.2
   08/10/2018 09:30      83.8      83.1       36     53.5      0.00      0.00      86.3     0.37      1016.9     1.0      NE    51   2.8     ENE    59   9.42    262      212.2
   08/10/2018 09:20      83.5      82.3       37     54.0      0.00      0.00      86.3     0.37      1017.0     1.5       N     9   4.0       N   351   9.42    262      335.7
   08/10/2018 09:10      82.6      80.2       38     53.4      0.00      0.00      86.3     0.37      1017.0     0.9     ENE    62   2.7     ENE    61   9.42    262      279.7
   08/10/2018 09:00      80.5      78.8       39     52.6      0.00      0.00      86.4     0.37      1017.0     1.1      NE    37   2.6       E    82   9.42    263      213.4
   08/10/2018 08:50      79.0      78.3       40     52.4      0.00      0.00      86.4     0.37      1017.0     1.2      NE    40   2.6      NE    39   9.42    263       75.6
   08/10/2018 08:40      78.5      77.7       40     51.5      0.00      0.00      86.4     0.37      1016.9     1.0     NNE    32   1.8      NE    47   9.42    263       84.6
   08/10/2018 08:30      78.0      76.6       39     50.5      0.00      0.00      86.4     0.37      1016.7     0.7      NE    36   1.9     NNE    33   9.42    263       28.1
   08/10/2018 08:20      76.8      75.5       39     49.5      0.00      0.00      86.5     0.37      1016.6     0.3     NNE    23   1.2       N   353   9.42    263       12.9
   08/10/2018 08:10      75.7      74.5       39     48.6      0.00      0.00      86.5     0.37      1016.6     0.4     NNE    24   1.8     NNE    26   9.42    263       21.0
   08/10/2018 08:00      74.9      74.1       40     48.3      0.00      0.00      86.6     0.37      1016.5     1.4       N   352   2.6     NNW   327   9.42    263       38.9
   08/10/2018 07:50      74.3      73.7       42     49.4      0.00      0.00      86.6     0.37      1016.4     1.2     NNW   334   2.5      NW   313   9.42    263       26.1
   08/10/2018 07:40      73.8      72.7       43     49.4      0.00      0.00      86.7     0.37      1016.2     0.8       N     4   2.0     NNW   344   9.42    264        1.6
   08/10/2018 07:30      73.0      71.3       44     48.8      0.00      0.00      86.7     0.37      1016.2     1.2     NNW   340   2.4     NNW   344   9.42    264       -3.9
   08/10/2018 07:20      71.5      70.3       49     50.6      0.00      0.00      86.8     0.37      1016.2     0.1      NW   311   1.4      NW   306   9.42    264       -9.9
   08/10/2018 07:10      70.5      69.1       50     50.5      0.00      0.00      86.8     0.37      1016.1     0.2      NE    40   1.1      SE   133   9.42    264      -17.3
   08/10/2018 07:00      69.4      68.2       50     49.5      0.00      0.00      86.9     0.37      1016.0     0.5     SSE   151   1.5      SE   142   9.42    264      -24.9
   08/10/2018 06:50      68.4      67.7       48     47.9      0.00      0.00      86.9     0.37      1016.0     0.2      SE   137   1.5      SE   137   9.42    264      -32.6
   08/10/2018 06:40      67.9      67.2       47     46.7      0.00      0.00      86.9     0.37      1016.1     0.4       S   170   1.1     SSW   205   9.42    264      -39.5
   08/10/2018 06:30      68.2      67.4       47     46.8      0.00      0.00      87.0     0.37      1015.9     0.0     SSE   164   0.8     SSE   165   9.42    264      -44.9
   08/10/2018 06:20      68.3      67.9       45     46.1      0.00      0.00      87.0     0.37      1015.9     0.2      SE   128   1.5      SE   137   9.42    264      -48.0
   08/10/2018 06:10      68.2      67.6       44     45.2      0.00      0.00      87.0     0.37      1015.9     0.4      SE   146   1.8      SE   141   9.42    264      -49.3
   08/10/2018 06:00      67.9      67.4       44     45.2      0.00      0.00      87.1     0.37      1015.9     0.4     SSE   162   1.3     SSE   147   9.42    264      -50.9
   08/10/2018 05:50      67.8      67.2       46     46.3      0.00      0.00      87.1     0.37      1015.9     0.3      SE   131   1.7      SE   141   9.43    264      -52.6
   08/10/2018 05:40      67.8      67.3       47     46.6      0.00      0.00      87.1     0.37      1015.9     0.7     SSE   158   1.7      SE   144   9.43    264      -52.9
   08/10/2018 05:30      68.1      67.3       48     47.1      0.00      0.00      87.2     0.37      1016.0     0.8     SSE   151   1.9      SE   134   9.43    264      -54.0
   08/10/2018 05:20      68.0      67.6       47     47.2      0.00      0.00      87.2     0.37      1016.0     0.2       S   171   0.9      SE   141   9.43    264      -53.1
   08/10/2018 05:10      68.4      67.6       47     47.0      0.00      0.00      87.2     0.37      1016.2     0.6     SSW   198   1.8      SW   229   9.43    264      -54.4
   08/10/2018 05:00      68.5      68.1       46     46.9      0.00      0.00      87.3     0.37      1016.3     0.5       S   174   1.9     SSW   194   9.43    264      -56.4
   08/10/2018 04:50      68.5      67.8       46     46.6      0.00      0.00      87.3     0.37      1016.3     0.0      SE   142   0.1      SE   142   9.43    264      -56.7
   08/10/2018 04:40      68.4      67.8       46     46.5      0.00      0.00      87.4     0.37      1016.4     0.6     SSE   161   1.5       S   175   9.43    264      -57.9
   08/10/2018 04:30      68.8      67.9       46     46.9      0.00      0.00      87.4     0.37      1016.5     0.3     SSE   158   0.9      SE   145   9.44    264      -58.3
   08/10/2018 04:20      69.0      68.5       46     46.9      0.00      0.00      87.4     0.37      1016.4     0.6     SSE   151   1.2      SE   146   9.43    264      -58.8
   08/10/2018 04:10      69.1      68.5       48     48.0      0.00      0.00      87.5     0.38      1016.3     0.3     SSE   159   1.1     SSE   158   9.44    264      -59.5
   08/10/2018 04:00      69.2      68.7       47     47.8      0.00      0.00      87.5     0.38      1016.2     0.5     SSE   146   2.1      SE   136   9.44    264      -60.4
   08/10/2018 03:50      69.0      68.7       47     47.5      0.00      0.00      87.5     0.38      1016.3     0.6     SSW   195   1.5      SW   218   9.44    264      -60.1
   08/10/2018 03:40      69.5      68.7       47     48.0      0.00      0.00      87.6     0.38      1016.2     0.0      SE   137   0.8      SE   144   9.44    264      -61.5
   08/10/2018 03:30      69.5      69.2       47     48.3      0.00      0.00      87.6     0.38      1016.1     0.8     SSE   153   2.0     SSE   163   9.44    264      -60.8
   08/10/2018 03:20      70.0      69.2       47     48.4      0.00      0.00      87.6     0.38      1016.1     0.7     SSE   161   1.9     SSE   148   9.44    264      -61.3
   08/10/2018 03:10      70.5      69.7       46     48.6      0.00      0.00      87.6     0.38      1016.2     0.9     SSE   149   1.8      SE   141   9.44    264      -62.0
   08/10/2018 03:00      70.8      70.1       46     48.6      0.00      0.00      87.7     0.38      1016.2     0.8     SSE   157   1.8      SE   136   9.44    264      -61.6
   08/10/2018 02:50      71.9      70.6       43     47.4      0.00      0.00      87.7     0.38      1016.2     0.7     SSE   161   1.2     SSE   162   9.45    264      -61.7
   08/10/2018 02:40      72.3      71.6       42     47.5      0.00      0.00      87.7     0.38      1016.1     0.0     SSE   165   0.7     SSE   165   9.45    264      -61.9
   08/10/2018 02:30      72.5      71.9       41     47.3      0.00      0.00      87.7     0.38      1016.2     0.4     SSW   210   1.5       S   178   9.45    264      -61.2
   08/10/2018 02:20      73.0      71.9       41     47.4      0.00      0.00      87.7     0.38      1016.3     0.9     SSW   198   1.8      SW   219   9.45    263      -62.0
   08/10/2018 02:10      73.6      72.7       41     47.7      0.00      0.00      87.8     0.38      1016.4     0.2       S   175   1.1       S   182   9.45    263      -62.5
   08/10/2018 02:00      74.0      73.1       40     47.5      0.00      0.00      87.8     0.38      1016.4     0.4     SSW   211   1.1     SSW   197   9.45    263      -62.1
   08/10/2018 01:50      74.1      73.6       40     47.7      0.00      0.00      87.8     0.38      1016.3     0.0     ENE    70   0.5     ENE    70   9.45    264      -63.6
   08/10/2018 01:40      74.4      73.8       39     47.5      0.00      0.00      87.8     0.38      1016.3     0.0      SE   132   0.5     SSE   155   9.46    263      -63.1
   08/10/2018 01:30      74.6      73.9       41     48.9      0.00      0.00      87.8     0.38      1016.3     0.0     WNW   282   0.8       N   349   9.46    263      -62.2
   08/10/2018 01:20      75.0      74.1       43     50.8      0.00      0.00      87.9     0.38      1016.2     0.0       N     0   0.0      SW   217   9.46    263      -61.4
   08/10/2018 01:10      75.9      74.5       45     52.0      0.00      0.00      87.9     0.38      1016.1     0.0      SW   217   0.5      SW   217   9.46    263      -60.7
   08/10/2018 01:00      76.4      75.5       44     52.2      0.00      0.00      87.9     0.38      1015.9     0.0      SW   217   0.8      SW   217   9.46    263      -60.6
   08/10/2018 00:50      77.2      76.2       42     51.8      0.00      0.00      87.9     0.38      1016.0     0.1      SW   217   0.8      SW   217   9.46    263      -58.8
   08/10/2018 00:40      77.7      76.9       41     52.0      0.00      0.00      87.9     0.38      1015.9     0.2     SSW   201   1.0      SW   217   9.46    263      -59.7
   08/10/2018 00:30      77.5      76.4       41     51.8      0.00      0.00      87.9     0.38      1015.8     1.1     ESE   112   2.3     ENE    78   9.47    263      -60.5
   08/10/2018 00:20      77.0      76.4       43     52.5      0.00      0.00      88.0     0.38      1015.6     0.3      SE   139   1.3     SSE   146   9.47    263      -60.2
   08/10/2018 00:10      77.4      76.7       43     52.9      0.00      0.00      87.9     0.38      1015.5     0.6     SSE   157   1.5      SE   145   9.47    263      -60.3
   08/10/2018 00:00      77.7      77.2       45     54.2      0.00      0.00      88.0     0.38      1015.4     0.0       N     0   0.0      SE   145   9.47    263      -59.4
   08/09/2018 23:50      78.5      77.4       44     54.3      0.00      0.00      88.0     0.38      1015.4     0.0     SSE   164   0.7     SSE   152   9.47    263      -59.6
   08/09/2018 23:40      78.8      78.2       45     55.0      0.00      0.00      88.0     0.38      1015.4     0.2       S   178   1.1       S   173   9.47    263      -56.0
   08/09/2018 23:30      78.6      78.2       45     55.2      0.00      0.00      88.0     0.38      1015.5     0.0       S   185   1.1       S   185   9.48    263      -47.7
   08/09/2018 23:20      78.9      78.4       44     54.6      0.00      0.00      88.0     0.38      1015.6     0.0       N     0   0.0     SSW   196   9.48    263      -45.4
   08/09/2018 23:10      78.9      78.5       42     53.9      0.00      0.00      88.1     0.38      1015.7     0.0       N     0   0.0     SSW   196   9.48    263      -43.1
   08/09/2018 23:00      79.1      78.6       41     53.0      0.00      0.00      88.1     0.38      1015.6     0.1     SSW   196   1.0     SSW   196   9.48    263      -42.0
   08/09/2018 22:50      79.5      78.8       40     52.9      0.00      0.00      88.0     0.38      1015.6     0.7     SSW   192   1.4     SSW   210   9.48    263      -49.5
   08/09/2018 22:40      79.7      79.3       40     52.9      0.00      0.00      88.0     0.38      1015.5     0.9     SSW   192   1.4     SSW   210   9.48    263      -53.5
   08/09/2018 22:30      80.2      79.4       41     54.1      0.00      0.00      88.0     0.38      1015.4     1.2     SSW   199   2.4     SSW   199   9.48    263      -52.3
   08/09/2018 22:20      80.2      79.7       43     55.6      0.00      0.00      88.0     0.38      1015.4     0.0      SE   143   0.4      SE   143   9.49    263      -59.3
   08/09/2018 22:10      80.4      79.8       45     56.8      0.00      0.00      88.1     0.38      1015.3     0.5     ESE   111   1.6     ESE   115   9.49    263      -63.2
   08/09/2018 22:00      80.7      80.2       46     57.6      0.00      0.00      88.0     0.38      1015.3     0.6     ESE   102   1.6     ENE    73   9.49    263      -64.7
   08/09/2018 21:50      81.4      80.4       46     58.2      0.00      0.00      88.0     0.38      1015.2     0.7     ESE   111   2.0     ESE   103   9.49    263      -65.7
   08/09/2018 21:40      81.7      81.1       45     58.2      0.00      0.00      88.0     0.38      1015.0     0.7       E    82   2.5     ENE    76   9.49    263      -66.5
   08/09/2018 21:30      82.7      81.4       43     57.3      0.00      0.00      87.9     0.38      1014.8     1.3     ESE   112   2.7     ESE   116   9.49    263      -67.1
   08/09/2018 21:20      83.4      82.3       41     56.6      0.00      0.00      87.9     0.38      1014.6     0.3       E    85   1.2       E    97   9.50    263      -67.4
   08/09/2018 21:10      83.9      83.0       40     57.0      0.00      0.00      87.9     0.38      1014.6     0.4     ENE    59   1.7      NE    35   9.50    263      -68.0
   08/09/2018 21:00      84.2      83.4       40     56.6      0.00      0.00      87.9     0.38      1014.5     1.0     ENE    61   2.6      NE    50   9.50    262      -67.8
   08/09/2018 20:50      84.9      84.0       38     56.0      0.00      0.00      87.9     0.38      1014.5     0.1       E    91   1.1      NE    40   9.50    262      -67.7
   08/09/2018 20:40      85.9      84.7       37     56.0      0.00      0.00      87.8     0.38      1014.3     0.6       E    87   2.4      NE    52   9.51    262      -69.1
   08/09/2018 20:30      86.7      85.6       35     55.0      0.00      0.00      87.9     0.38      1014.2     0.8      NE    51   2.4      NE    46   9.51    262      -70.2
   08/09/2018 20:20      87.4      86.4       25     46.4      0.00      0.00      87.8     0.38      1014.1     0.3      NE    51   1.7      NE    41   9.51    261      -70.3
   08/09/2018 20:10      88.8      87.2       18     39.3      0.00      0.00      87.8     0.38      1014.0     0.5     ESE   109   1.3       S   175   9.51    261      -70.6
   08/09/2018 20:00      90.2      88.5       17     38.5      0.00      0.00      87.7     0.38      1013.8     1.3     SSW   200   2.3     SSW   209   9.52    261      -70.6
   08/09/2018 19:50      90.6      90.0       16     38.4      0.00      0.00      87.7     0.38      1013.6     0.6       W   269   2.2       W   281   9.52    261      -69.9
   08/09/2018 19:40      91.1      90.3       15     37.4      0.00      0.00      87.6     0.38      1013.5     1.3     WNW   287   3.3       W   274   9.52    261      -60.4
   08/09/2018 19:30      91.3      90.7       15     37.0      0.00      0.00      87.7     0.38      1013.4     2.1      NW   323   4.4      NW   307   9.53    261      -48.9
   08/09/2018 19:20      91.8      90.9       16     38.1      0.00      0.00      87.5     0.38      1013.2     2.8      NW   309   6.0     WNW   299   9.53    261      -42.9
   08/09/2018 19:10      92.4      91.5       24     49.3      0.00      0.00      87.5     0.37      1013.1     2.2       W   275   5.3     NNW   329   9.53    261      -34.5
   08/09/2018 19:00      92.6      92.1       24     50.5      0.00      0.00      87.5     0.37      1013.0     2.0       W   266   4.9       W   269   9.54    261      -20.1
   08/09/2018 18:50      93.2      92.2       22     48.8      0.00      0.00      87.5     0.37      1013.0     2.9     WNW   286   5.0       W   265   9.54    261       -5.1
   08/09/2018 18:40      93.4      92.9       21     47.8      0.00      0.00      87.4     0.37      1012.8     2.4     WNW   286   4.6       W   271   9.55    261       -5.2
   08/09/2018 18:30      93.8      93.0       21     48.1      0.00      0.00      87.4     0.37      1012.7     3.1     WNW   285   5.6       W   267   9.55    261       -3.8
   08/09/2018 18:20      94.0      93.4       22     49.2      0.00      0.00      87.3     0.37      1012.7     3.0       W   273   5.7       W   259   9.56    261        3.1
   08/09/2018 18:10      94.2      93.4       22     48.9      0.00      0.00      87.2     0.37      1012.7     3.9     WSW   254   5.7       W   266   9.56    261      -10.6
   08/09/2018 18:00      94.6      93.8       21     47.9      0.00      0.00      87.2     0.37      1012.5     4.0     WSW   248   7.1     WSW   244   9.57    261       -8.1
   08/09/2018 17:50      95.9      94.1       19     46.3      0.00      0.00      87.1     0.37      1012.6     4.9      SW   227   7.3       W   267   9.57    261        4.1
   08/09/2018 17:40      97.9      95.5       21     49.8      0.00      0.00      87.1     0.37      1012.6     5.5     WSW   257  10.5     WNW   282   9.58    261       23.4
   08/09/2018 17:30      99.4      97.6       22     52.9      0.00      0.00      87.0     0.37      1012.4     2.9       W   276   5.5       W   275   9.58    261       24.2
   08/09/2018 17:20      99.3      98.5       21     52.6      0.00      0.00      86.9     0.37      1012.2     2.5      NW   318   5.7      NW   317   9.59    261      125.6
   08/09/2018 17:10      99.5      99.0       19     50.1      0.00      0.00      86.9     0.37      1012.1     3.2     WNW   284   6.7       W   274   9.59    261       77.8
   08/09/2018 17:00      99.3      98.5       19     49.3      0.00      0.00      86.8     0.37      1012.0     3.6     WSW   252   7.2     SSW   194   9.60    261       57.6
   08/09/2018 16:50     100.2      99.0       19     49.8      0.00      0.00      86.8     0.37      1012.0     4.8     WSW   252   8.1     WSW   258   9.60    261       52.9
   08/09/2018 16:40     101.8      99.9       18     49.7      0.00      0.00      86.7     0.37      1012.0     5.4       W   267   9.6      SW   232   9.61    261      102.4
   08/09/2018 16:30     103.0     101.4       15     44.6      0.00      0.00      86.6     0.37      1012.0     4.9     WSW   248   9.9     WSW   244   9.62    260      283.4
   08/09/2018 16:20     103.1     102.4        9     32.7      0.00      0.00      86.6     0.37      1012.0     4.4      SW   215   8.2      SW   218   9.62    260      286.7
   08/09/2018 16:10     103.1     102.5        9     33.7      0.00      0.00      86.5     0.37      1011.9     5.3      SW   230   8.6     WSW   245   9.63    260      307.2
   08/09/2018 16:00     102.8     102.1       11     37.2      0.00      0.00      86.4     0.37      1011.9     5.2     SSW   208   8.4       S   179   9.64    260      301.0
   08/09/2018 15:50     102.6     101.5       12     40.0      0.00      0.00      86.4     0.37      1011.8     4.6     SSW   209   7.9       S   190   9.64    261      326.9
   08/09/2018 15:40     101.8     101.2       11     38.3      0.00      0.00      86.3     0.37      1011.9     6.9     SSW   202  11.4     SSW   192   9.65    260      339.5
   08/09/2018 15:30     101.7     100.9       12     38.9      0.00      0.00      86.2     0.37      1011.9     6.9     SSW   192  11.1       S   191   9.66    260      406.7
   08/09/2018 15:20     102.0     100.9       12     40.1      0.00      0.00      86.1     0.37      1011.9     6.5     SSE   166   9.9      SE   135   9.67    260      265.6
   08/09/2018 15:10     105.1     101.5       14     43.9      0.00      0.00      86.0     0.37      1012.0     6.2       S   174  11.4       S   176   9.67    260      273.1
   08/09/2018 15:00     106.1     104.7       10     37.1      0.00      0.00      86.0     0.37      1012.0     3.8       S   178   8.0       S   189   9.68    260      460.3
   08/09/2018 14:50     106.6     105.6       11     40.1      0.00      0.00      85.9     0.37      1012.0     2.6     ESE   122   8.1      SE   132   9.69    260      450.7
   08/09/2018 14:40     106.1     105.1       11     39.8      0.00      0.00      85.8     0.37      1012.0     2.2      NE    51   5.3       N     4   9.69    261      426.4
   08/09/2018 14:30     105.7     103.9       11     39.2      0.00      0.00      85.8     0.37      1012.0     2.6      SE   144   6.4      SE   128   9.69    260      435.4
   08/09/2018 14:20     105.4     104.3       12     42.0      0.00      0.00      85.7     0.37      1012.1     2.6     ENE    64   6.0     ENE    58   9.70    260      458.6
   08/09/2018 14:10     105.2     104.7       11     40.8      0.00      0.00      85.7     0.37      1012.2     3.8     ENE    64   6.7     ENE    67   9.70    260      465.1
   08/09/2018 14:00     105.1     104.5       11     39.7      0.00      0.00      85.6     0.37      1012.3     2.8     ENE    68   6.6     SSE   154   9.70    260      469.4
   08/09/2018 13:50     104.9     104.1       14     46.3      0.00      0.00      85.5     0.37      1012.3     2.2     NNE    25   4.4       N   350   9.71    260      479.5
   08/09/2018 13:40     104.3     103.2       15     47.0      0.00      0.00      85.5     0.37      1012.3     2.4       N   354   4.8     NNW   333   9.71    261      460.4
   08/09/2018 13:30     103.4     100.8       16     46.6      0.00      0.00      85.4     0.37      1012.3     2.4      NW   317   6.3       N    11   9.71    261      484.8
   08/09/2018 13:20     102.1     101.0       16     46.5      0.00      0.00      85.4     0.37      1012.5     3.6     SSW   203   5.7     SSW   193   9.71    260      494.9
   08/09/2018 13:10     102.0     100.9       15     45.3      0.00      0.00      85.3     0.37      1012.6     3.4      SW   214   6.0     WSW   243   9.71    260      495.8
   08/09/2018 13:00     102.8     101.0       14     44.3      0.00      0.00      85.3     0.37      1012.7     3.0       W   273   5.5     WSW   238   9.71    260      486.0
   08/09/2018 12:50     102.5     100.0       14     43.9      0.00      0.00      85.3     0.37      1012.8     2.0       N   352   4.4       N   351   9.72    260      517.2
   08/09/2018 12:40     102.1     100.1       15     44.8      0.00      0.00      85.3     0.37      1012.9     2.8     NNE    16   5.0     NNE    21   9.72    261      520.1
   08/09/2018 12:30     101.7      99.5       15     44.6      0.00      0.00      85.3     0.37      1013.1     1.5      NW   318   3.6     WNW   295   9.72    260      519.2
   08/09/2018 12:20     100.8      99.8       16     45.2      0.00      0.00      85.3     0.37      1013.1     1.8       N     2   4.3     NNE    17   9.72    260      504.1
   08/09/2018 12:10     100.0      98.7       17     46.3      0.00      0.00      85.3     0.37      1013.1     1.3       E    87   3.2     ESE   106   9.73    261      513.0
   08/09/2018 12:00      99.3      97.3       17     46.5      0.00      0.00      85.2     0.37      1013.2     1.3     NNE    16   4.8     WNW   283   9.73    260      510.4
   08/09/2018 11:50      98.0      96.8       18     46.4      0.00      0.00      85.1     0.37      1013.3     2.1     NNE    28   3.7     NNE    18   9.73    261      502.2
   08/09/2018 11:40      96.9      95.0       19     47.5      0.00      0.00      85.3     0.37      1013.5     1.4      NW   320   3.1     NNW   334   9.73    261      502.1
   08/09/2018 11:30      95.4      93.4       21     48.3      0.00      0.00      85.3     0.37      1013.6     2.0     NNW   332   4.3       N   352   9.73    261      502.6
   08/09/2018 11:20      93.9      92.8       23     49.9      0.00      0.00      85.3     0.37      1013.7     2.7     WSW   244   6.3     WSW   250   9.73    261      495.0
   08/09/2018 11:10      93.5      92.1       24     50.8      0.00      0.00      85.3     0.37      1013.7     2.7       W   260   6.7      SW   231   9.73    261      480.9
   08/09/2018 11:00      92.1      90.9       25     50.8      0.00      0.00      85.3     0.37      1013.8     2.4       W   262   6.4     WSW   248   9.73    261      464.4
   08/09/2018 10:50      91.0      90.2       26     51.6      0.00      0.00      85.3     0.37      1013.9     2.3       W   279   4.9     SSW   213   9.73    261      447.5
   08/09/2018 10:40      90.5      89.0       28     52.3      0.00      0.00      85.4     0.37      1013.9     2.3     WNW   303   3.8      SW   235   9.73    261      431.4
   08/09/2018 10:30      89.3      88.3       29     52.2      0.00      0.00      85.4     0.37      1014.1     1.8     NNW   333   4.1      NW   324   9.73    261      412.5
   08/09/2018 10:20      88.5      87.6       29     52.2      0.00      0.00      85.4     0.37      1014.2     1.9      NW   326   4.8      NW   309   9.73    261      397.9
   08/09/2018 10:10      87.9      86.4       30     52.1      0.00      0.00      85.5     0.37      1014.4     1.3     WNW   303   2.9       N     2   9.73    261      375.6
   08/09/2018 10:00      86.9      85.2       31     52.0      0.00      0.00      85.5     0.37      1014.4     1.1     NNE    28   3.5       N     1   9.73    261      363.7
   08/09/2018 09:50      85.5      84.6       32     51.9      0.00      0.00      85.5     0.37      1014.4     1.5     NNE    15   2.7     NNE    24   9.73    261      349.2
   08/09/2018 09:40      84.9      82.9       33     51.6      0.00      0.00      85.6     0.37      1014.4     1.4     NNW   338   3.5       N     2   9.73    261      331.1
   08/09/2018 09:30      84.2      83.0       33     51.4      0.00      0.00      85.6     0.37      1014.4     1.9       N     0   4.6       N   354   9.73    261      312.0
   08/09/2018 09:20      84.2      82.3       34     52.1      0.00      0.00      85.7     0.37      1014.4     0.8     WNW   297   3.4     NNW   344   9.73    262      290.7
   08/09/2018 09:10      82.4      80.6       37     52.9      0.00      0.00      85.7     0.37      1014.4     0.4     NNW   335   1.9     WNW   298   9.73    262      270.0
   08/09/2018 09:00      80.5      79.3       40     53.0      0.00      0.00      85.7     0.38      1014.3     1.1      NW   317   3.1      NW   317   9.73    262      249.8
   08/09/2018 08:50      79.3      77.9       41     52.9      0.00      0.00      85.7     0.38      1014.3     0.9       N   356   2.9     NNE    30   9.73    263      240.2
   08/09/2018 08:40      78.0      77.3       41     52.3      0.00      0.00      85.8     0.38      1014.3     1.0     NNE    22   2.3      NE    52   9.73    264      102.7
   08/09/2018 08:30      77.6      76.9       41     51.8      0.00      0.00      85.9     0.38      1014.3     0.8      NE    48   2.0     NNW   344   9.73    264       27.2
   08/09/2018 08:20      77.1      75.6       40     50.0      0.00      0.00      85.9     0.38      1014.1     0.4       S   178   1.7       S   179   9.73    264        6.3
   08/09/2018 08:10      75.8      74.3       44     51.3      0.00      0.00      85.9     0.38      1014.0     1.5      SW   226   3.0      SW   230   9.73    264       18.4
   08/09/2018 08:00      74.4      72.4       49     52.8      0.00      0.00      86.0     0.38      1014.0     0.5     SSW   205   1.5     SSW   201   9.73    264       34.2
   08/09/2018 07:50      72.5      71.3       52     53.2      0.00      0.00      86.0     0.38      1014.0     0.5     WNW   297   1.9     NNW   327   9.73    264       19.4
   08/09/2018 07:40      71.5      70.6       53     53.2      0.00      0.00      86.0     0.38      1014.1     0.4      SE   141   1.5     SSE   147   9.73    264       -7.8
   08/09/2018 07:30      70.8      69.6       54     52.7      0.00      0.00      86.1     0.38      1014.0     0.0     SSE   147   0.9     SSE   147   9.73    265      -13.6
   08/09/2018 07:20      69.8      68.5       55     52.4      0.00      0.00      86.1     0.38      1014.0     0.0     SSE   147   0.7     SSE   147   9.73    265      -16.2
   08/09/2018 07:10      68.8      67.7       57     52.4      0.00      0.00      86.2     0.38      1014.0     0.0       N     0   0.0     SSE   147   9.73    265      -21.1
   08/09/2018 07:00      68.1      67.5       57     52.1      0.00      0.00      86.3     0.38      1014.0     0.4      SE   139   1.3      SE   141   9.73    265      -26.8
   08/09/2018 06:50      68.0      66.8       57     51.8      0.00      0.00      86.2     0.38      1014.0     0.0       S   172   0.5       S   172   9.73    265      -32.8
   08/09/2018 06:40      67.0      66.3       59     51.9      0.00      0.00      86.2     0.38      1013.9     0.3       S   173   1.0     SSW   194   9.73    266      -39.0
   08/09/2018 06:30      66.7      66.2       58     51.3      0.00      0.00      86.3     0.38      1013.9     0.2     SSE   157   1.2     SSE   149   9.73    265      -45.9
   08/09/2018 06:20      67.2      66.4       57     50.9      0.00      0.00      86.4     0.38      1013.8     0.0     SSE   160   0.9     SSE   161   9.73    265      -51.6
   08/09/2018 06:10      68.0      66.9       55     50.5      0.00      0.00      86.4     0.38      1013.7     0.7     SSE   159   1.8     SSE   149   9.74    265      -56.0
   08/09/2018 06:00      68.3      67.5       54     50.4      0.00      0.00      86.5     0.38      1013.7     1.8     SSE   167   3.6     SSE   168   9.74    265      -57.7
   08/09/2018 05:50      67.8      66.1       57     51.0      0.00      0.00      86.5     0.38      1013.7     2.3     SSE   151   4.3       S   175   9.74    265      -56.9
   08/09/2018 05:40      66.7      66.0       59     51.5      0.00      0.00      86.5     0.38      1013.5     1.8     SSE   168   2.6     SSE   156   9.74    265      -54.7
   08/09/2018 05:30      66.0      65.4       59     51.0      0.00      0.00      86.6     0.38      1013.6     0.7     SSE   167   2.3     SSW   198   9.74    266      -55.5
   08/09/2018 05:20      66.5      65.7       57     50.5      0.00      0.00      86.6     0.38      1013.7     0.5     SSE   155   1.3      SE   141   9.74    265      -56.6
   08/09/2018 05:10      66.3      65.6       57     50.3      0.00      0.00      86.7     0.38      1013.8     1.0     SSE   169   1.8       S   183   9.74    265      -57.0
   08/09/2018 05:00      66.6      65.9       56     50.0      0.00      0.00      86.7     0.38      1013.9     1.0     SSE   151   1.8      SE   140   9.74    265      -57.8
   08/09/2018 04:50      67.1      66.2       55     49.7      0.00      0.00      86.7     0.38      1013.9     0.8     SSE   154   1.7      SE   139   9.74    265      -58.8
   08/09/2018 04:40      66.9      66.3       53     49.0      0.00      0.00      86.8     0.38      1014.0     0.8       S   189   1.4       S   190   9.74    264      -58.8
   08/09/2018 04:30      66.7      66.2       56     50.2      0.00      0.00      86.8     0.38      1014.2     0.6     SSE   157   1.4       S   177   9.74    265      -59.0
   08/09/2018 04:20      67.6      66.4       55     50.1      0.00      0.00      86.9     0.38      1014.2     0.8     SSE   161   1.8      SE   145   9.75    265      -60.0
   08/09/2018 04:10      67.5      67.1       53     49.8      0.00      0.00      86.9     0.38      1014.2     0.6       S   180   2.0       S   187   9.75    265      -60.3
   08/09/2018 04:00      67.5      67.0       57     51.4      0.00      0.00      86.9     0.38      1014.2     0.3     SSE   157   1.1      SE   146   9.75    265      -61.2
   08/09/2018 03:50      67.5      67.1       58     52.0      0.00      0.00      87.0     0.38      1014.2     0.7       S   180   1.2       S   173   9.75    265      -60.9
   08/09/2018 03:40      68.2      67.1       58     52.1      0.00      0.00      87.0     0.38      1014.0     0.2      SE   137   0.9      SE   142   9.75    264      -61.3
   08/09/2018 03:30      68.3      67.8       56     51.8      0.00      0.00      87.0     0.38      1013.9     0.1       S   181   0.8       S   181   9.75    265      -60.5
   08/09/2018 03:20      68.3      67.9       57     52.5      0.00      0.00      87.1     0.38      1013.8     0.0       S   181   0.5       S   181   9.75    264      -61.0
   08/09/2018 03:10      68.3      67.8       59     53.4      0.00      0.00      87.1     0.38      1013.7     0.1       S   170   0.6     SSE   156   9.75    265      -61.2
   08/09/2018 03:00      68.4      67.9       60     53.6      0.00      0.00      87.2     0.38      1013.7     0.4     SSE   157   1.2      SE   139   9.75    265      -61.8
   08/09/2018 02:50      68.5      68.1       59     53.5      0.00      0.00      87.2     0.38      1013.5     0.6     SSE   154   1.5      SE   141   9.75    265      -62.0
   08/09/2018 02:40      68.7      68.1       57     52.7      0.00      0.00      87.2     0.38      1013.5     0.5     SSE   157   1.3       S   187   9.76    264      -61.8
   08/09/2018 02:30      69.2      68.4       57     53.0      0.00      0.00      87.2     0.38      1013.4     0.2     SSE   159   0.8     SSE   159   9.76    264      -62.2
   08/09/2018 02:20      69.5      68.9       57     53.1      0.00      0.00      87.3     0.38      1013.3     0.0     SSE   159   0.7     SSE   159   9.76    264      -61.7
   08/09/2018 02:10      69.6      69.1       57     53.3      0.00      0.00      87.3     0.38      1013.3     0.1     SSE   161   0.9     SSE   162   9.76    264      -61.0
   08/09/2018 02:00      70.0      69.3       56     53.3      0.00      0.00      87.3     0.38      1013.3     0.5     ESE   104   1.1     SSE   148   9.76    264      -61.8
   08/09/2018 01:50      70.1      69.3       56     53.3      0.00      0.00      87.4     0.38      1013.3     0.7     SSE   158   1.4      SE   145   9.76    264      -61.4
   08/09/2018 01:40      70.5      69.7       55     53.0      0.00      0.00      87.4     0.38      1013.4     0.6     SSE   157   1.1       S   172   9.76    264      -61.9
   08/09/2018 01:30      70.7      70.2       54     52.9      0.00      0.00      87.4     0.38      1013.5     0.5       S   170   0.9     SSE   154   9.76    264      -62.6
   08/09/2018 01:20      70.6      69.8       52     52.1      0.00      0.00      87.5     0.38      1013.6     0.7       S   179   1.7     SSW   205   9.76    264      -62.9
   08/09/2018 01:10      70.6      69.8       52     51.7      0.00      0.00      87.5     0.38      1013.6     0.0       S   171   0.4       S   171   9.76    264      -64.0
   08/09/2018 01:00      70.7      70.2       51     51.6      0.00      0.00      87.5     0.38      1013.6     0.4     SSE   150   1.2      SE   145   9.77    264      -65.1
   08/09/2018 00:50      70.9      70.5       52     52.0      0.00      0.00      87.6     0.38      1013.6     0.9     SSE   156   1.5     SSW   202   9.77    264      -65.6
   08/09/2018 00:40      71.0      70.6       50     51.2      0.00      0.00      87.6     0.38      1013.7     0.7     SSE   167   1.5      SW   219   9.77    264      -66.4
   08/09/2018 00:30      70.7      70.2       52     52.0      0.00      0.00      87.6     0.38      1013.8     0.7     SSW   203   1.5      SE   137   9.77    264      -67.5
   08/09/2018 00:20      71.7      70.4       52     52.6      0.00      0.00      87.6     0.38      1013.8     0.5     SSE   165   1.2       S   176   9.77    264      -69.6
   08/09/2018 00:10      72.1      71.4       50     52.3      0.00      0.00      87.6     0.38      1013.8     0.4       S   173   1.4     SSW   211   9.77    264      -69.7
   08/09/2018 00:00      72.2      71.7       51     53.0      0.00      0.00      87.7     0.38      1013.8     0.4       S   184   1.4     SSW   211   9.77    264      -70.1
   08/08/2018 23:50      72.8      71.7       51     52.9      0.00      0.00      87.7     0.38      1013.8     0.0     SSE   150   0.6     SSE   150   9.78    264      -70.6
   08/08/2018 23:40      72.9      72.4       50     53.0      0.00      0.00      87.7     0.38      1013.7     0.0     SSE   150   0.7     SSE   150   9.78    264      -71.2
   08/08/2018 23:30      73.4      72.5       48     52.2      0.00      0.00      87.8     0.38      1013.7     0.0     SSE   150   0.3     SSE   150   9.78    263      -71.3
   08/08/2018 23:20      73.6      73.1       47     52.2      0.00      0.00      87.7     0.38      1013.7     0.4       S   186   1.3     SSW   206   9.78    263      -71.0
   08/08/2018 23:10      74.1      73.1       46     51.2      0.00      0.00      87.7     0.38      1013.7     0.0      SE   143   0.6      SE   143   9.78    263      -72.5
   08/08/2018 23:00      73.9      73.3       44     50.5      0.00      0.00      87.8     0.38      1013.7     0.1      SE   143   0.8      SE   143   9.79    263      -73.4
   08/08/2018 22:50      74.6      73.7       43     50.5      0.00      0.00      87.8     0.38      1013.7     0.1     SSE   154   1.0      SE   145   9.79    263      -75.2
   08/08/2018 22:40      75.3      74.4       42     50.3      0.00      0.00      87.8     0.38      1013.7     0.5      SE   145   1.1     SSE   165   9.79    262      -75.6
   08/08/2018 22:30      76.1      75.1       39     48.9      0.00      0.00      87.8     0.38      1013.7     0.5      SE   146   1.2      SE   140   9.79    262      -76.3
   08/08/2018 22:20      76.0      74.8       34     45.1      0.00      0.00      87.8     0.38      1013.7     1.2       S   177   2.1     SSW   193   9.80    262      -76.7
   08/08/2018 22:10      76.7      75.3       30     42.5      0.00      0.00      87.8     0.38      1013.6     1.0      SE   140   1.9      SE   134   9.80    262      -78.6
   08/08/2018 22:00      77.0      75.6       34     45.7      0.00      0.00      87.8     0.38      1013.5     1.0     SSE   165   1.9     SSE   168   9.80    261      -79.2
   08/08/2018 21:50      76.7      75.5       27     39.8      0.00      0.00      87.8     0.38      1013.5     0.4     SSE   166   1.6     SSE   155   9.80    261      -80.1
   08/08/2018 21:40      77.3      76.5       25     38.7      0.00      0.00      87.8     0.38      1013.4     0.7     SSE   164   1.4     SSE   160   9.80    261      -80.7
   08/08/2018 21:30      77.2      76.8       25     38.4      0.00      0.00      87.9     0.38      1013.4     0.3     SSW   191   1.2       S   183   9.81    261      -82.0
   08/08/2018 21:20      78.2      76.9       24     38.3      0.00      0.00      87.8     0.38      1013.4     0.4     SSE   156   1.8      SE   142   9.81    261      -85.5
   08/08/2018 21:10      78.6      77.8       24     38.6      0.00      0.00      87.9     0.38      1013.3     0.5     SSE   169   1.4     SSE   164   9.81    261      -86.1
   08/08/2018 21:00      79.5      78.3       25     39.8      0.00      0.00      87.8     0.38      1013.2     0.5     SSE   165   1.3       S   178   9.81    261      -87.8
   08/08/2018 20:50      79.5      78.8       25     40.2      0.00      0.00      87.9     0.38      1013.1     0.9     SSE   168   1.8       S   177   9.82    261      -87.6
   08/08/2018 20:40      80.4      79.2       23     38.8      0.00      0.00      87.8     0.38      1012.9     0.4     SSE   158   2.0      SE   139   9.82    261      -87.7
   08/08/2018 20:30      81.5      80.2       22     37.8      0.00      0.00      87.8     0.38      1012.9     1.3     SSE   147   2.0      SE   142   9.82    261      -88.6
   08/08/2018 20:20      82.6      81.3       19     35.1      0.00      0.00      87.8     0.38      1012.7     0.6     SSE   154   1.3      SE   141   9.83    261      -90.0
   08/08/2018 20:10      83.7      82.3       16     31.9      0.00      0.00      87.7     0.38      1012.7     0.9     SSE   167   1.8       S   191   9.83    260      -90.4
   08/08/2018 20:00      85.4      83.4       14     30.8      0.00      0.00      87.8     0.38      1012.7     0.7       S   180   1.6      SW   221   9.84    261      -92.8
   08/08/2018 19:50      86.9      85.1       14     31.2      0.00      0.00      87.7     0.38      1012.6     1.4       S   177   2.2       S   182   9.84    260      -94.0
   08/08/2018 19:40      88.0      86.7       12     28.9      0.00      0.00      87.7     0.38      1012.5     1.9       S   188   2.4     SSW   199   9.85    260      -93.7
   08/08/2018 19:30      89.2      87.7       12     29.4      0.00      0.00      87.6     0.38      1012.5     1.4       S   169   2.3     SSE   159   9.85    260      -95.5
   08/08/2018 19:20      90.4      89.0       11     29.1      0.00      0.00      87.7     0.38      1012.4     1.3       S   169   2.7     SSW   195   9.85    260      -87.5
   08/08/2018 19:10      91.1      90.0       12     30.7      0.00      0.00      87.6     0.38      1012.3     1.7       S   191   3.8       S   182   9.86    260      -72.3
   08/08/2018 19:00      91.3      90.7       12     30.8      0.00      0.00      87.6     0.38      1012.2     1.5     SSW   191   2.9       S   188   9.86    260      -60.5
   08/08/2018 18:50      91.6      90.9       10     28.1      0.00      0.00      87.5     0.38      1012.2     2.2       S   170   3.7     SSE   148   9.87    260      -44.0
   08/08/2018 18:40      92.0      91.2       11     29.2      0.00      0.00      87.5     0.38      1012.2     2.7       S   183   5.5       S   187   9.87    260      -18.5
   08/08/2018 18:30      92.3      91.6       12     31.6      0.00      0.00      87.4     0.38      1012.2     3.5       S   184   6.4     SSE   153   9.88    260        3.0
   08/08/2018 18:20      92.7      91.7       14     36.0      0.00      0.00      87.4     0.38      1012.1     4.1     SSW   203   6.7     WSW   238   9.88    261       23.5
   08/08/2018 18:10      93.3      92.2       14     36.9      0.00      0.00      87.3     0.38      1012.1     3.3       S   172   8.0     SSW   197   9.89    261       36.1
   08/08/2018 18:00      93.9      92.9       13     35.2      0.00      0.00      87.3     0.38      1012.1     3.9      SE   146   7.6     SSE   147   9.89    261       56.3
   08/08/2018 17:50      94.0      93.6       13     34.9      0.00      0.00      87.2     0.38      1012.1     3.7     SSE   150   8.2     SSW   197   9.90    261       87.1
   08/08/2018 17:40      94.3      93.4       14     36.8      0.00      0.00      87.2     0.38      1012.1     3.6     SSE   168   7.4       S   182   9.91    261       85.4
   08/08/2018 17:30      94.2      93.6       15     40.0      0.00      0.00      87.1     0.38      1012.1     3.1     ESE   118   6.0      SE   141   9.91    261      103.7
   08/08/2018 17:20      93.9      93.2       17     42.4      0.00      0.00      87.1     0.38      1012.2     3.9     ESE   118   8.3     SSE   148   9.92    261      156.1
   08/08/2018 17:10      93.6      93.2       19     45.3      0.00      0.00      87.0     0.38      1012.2     4.8      SE   142   9.2     ESE   118   9.92    261      195.6
   08/08/2018 17:00      93.5      92.7       21     47.5      0.00      0.00      86.9     0.38      1012.1     5.7      SE   131  12.9     ESE   120   9.93    261      221.3
   08/08/2018 16:50      94.1      92.8       21     47.2      0.00      0.00      86.9     0.38      1012.1     5.7      SE   129   9.3     SSE   154   9.94    261      217.9
   08/08/2018 16:40      94.3      93.8       20     47.3      0.00      0.00      86.8     0.38      1012.2     5.0     ESE   122   9.9     ENE    58   9.94    261      227.6
   08/08/2018 16:30      95.4      94.0       19     46.7      0.00      0.00      86.8     0.38      1012.2     4.7     ESE   108  10.5     ESE   103   9.95    261      250.8
   08/08/2018 16:20      95.7      95.2       17     44.3      0.00      0.00      86.7     0.38      1012.2     4.1     ESE   105   9.2       S   172   9.96    261      300.1
   08/08/2018 16:10      96.2      95.2       19     46.3      0.00      0.00      86.7     0.38      1012.2     4.4     ESE   109   9.7     ENE    59   9.96    261      334.1
   08/08/2018 16:00      96.3      95.5       17     43.7      0.00      0.00      86.6     0.38      1012.3     4.7     ESE   103   8.2     ESE   114   9.97    261      371.6
   08/08/2018 15:50      97.2      95.7       16     42.1      0.00      0.00      86.6     0.38      1012.4     5.4     ESE   120   9.1      SE   128   9.98    261      407.3
   08/08/2018 15:40      97.6      95.9       15     41.2      0.00      0.00      86.5     0.38      1012.4     5.1     ESE   121   9.6     SSE   150   9.98    261      409.5
   08/08/2018 15:30      99.3      96.2       16     43.2      0.00      0.00      86.4     0.38      1012.5     4.8     SSE   158  11.4     WSW   248   9.99    261      361.6
   08/08/2018 15:20      99.6      98.5       12     38.2      0.00      0.00      86.3     0.38      1012.5     3.3     ESE   107   5.0     ENE    66  10.00    261      342.1
   08/08/2018 15:10      99.5      98.4       10     32.2      0.00      0.00      86.2     0.38      1012.5     3.0     ESE   102   7.6     SSE   156  10.00    260      365.8
   08/08/2018 15:00      99.4      97.7       11     34.1      0.00      0.00      86.2     0.38      1012.6     2.2     ENE    59   6.2       S   183  10.01    260      380.1
   08/08/2018 14:50      99.8      98.1       12     36.4      0.00      0.00      86.2     0.38      1012.7     3.0       E    91   6.6       E    79  10.01    260      482.6
   08/08/2018 14:40      99.3      97.4       11     35.6      0.00      0.00      86.1     0.38      1012.8     3.4     SSE   158   5.8       S   189  10.02    261      457.1
   08/08/2018 14:30      97.6      96.0       14     38.9      0.00      0.00      86.0     0.38      1012.9     2.9      SE   139   6.4     ESE   107  10.02    261      456.5
   08/08/2018 14:20      97.6      96.0       13     37.2      0.00      0.00      86.0     0.37      1013.1     3.3      SE   137   6.4      SE   138  10.03    260      480.6
   08/08/2018 14:10      97.5      95.4       13     38.1      0.00      0.00      85.9     0.37      1013.2     2.2      SE   142   6.9     SSE   152  10.03    260      526.6
   08/08/2018 14:00      96.9      95.9       14     39.8      0.00      0.00      85.8     0.37      1013.3     2.5     ESE   112   4.8      NE    56  10.04    261      530.6
   08/08/2018 13:50      96.7      95.2       15     40.9      0.00      0.00      85.8     0.37      1013.5     3.4      SE   132   6.6     ESE   101  10.04    260      534.5
   08/08/2018 13:40      96.5      95.3       17     43.6      0.00      0.00      85.7     0.37      1013.5     3.3     SSE   151   7.7     SSE   163  10.05    261      537.4
   08/08/2018 13:30      96.9      95.2       18     44.9      0.00      0.00      85.7     0.37      1013.6     3.7      SE   126   8.8      SE   140  10.05    261      542.6
   08/08/2018 13:20      95.9      95.0       17     44.1      0.00      0.00      85.6     0.37      1013.7     3.0       E    92   5.8     ENE    67  10.06    261      552.6
   08/08/2018 13:10      95.7      94.7       16     41.9      0.00      0.00      85.7     0.37      1013.8     2.9      SE   140   6.6      SE   135  10.06    260      552.3
   08/08/2018 13:00      96.2      94.7       15     40.8      0.00      0.00      85.6     0.37      1014.0     2.8     SSE   149   8.7      SE   131  10.07    261      554.0
   08/08/2018 12:50      95.2      93.4       16     40.4      0.00      0.00      85.6     0.37      1014.0     3.5     SSE   168   7.4       S   180  10.07    261      556.2
   08/08/2018 12:40      95.2      93.9       15     39.2      0.00      0.00      85.6     0.37      1014.1     4.3     SSE   152   8.9     SSE   154  10.07    261      563.7
   08/08/2018 12:30      95.1      93.6       15     38.9      0.00      0.00      85.5     0.37      1014.2     4.1      SE   134   9.9     SSE   154  10.08    261      559.7
   08/08/2018 12:20      95.2      92.9       14     37.9      0.00      0.00      85.5     0.37      1014.3     3.0     SSE   157   7.3      SE   142  10.08    261      554.6
   08/08/2018 12:10      95.0      92.8       13     35.7      0.00      0.00      85.5     0.37      1014.4     3.9     ESE   121   8.2      SE   142  10.09    260      554.2
   08/08/2018 12:00      95.0      93.1       14     36.8      0.00      0.00      85.5     0.37      1014.4     3.8     SSE   156   7.3      SE   133  10.09    261      548.4
   08/08/2018 11:50      94.9      93.2       13     36.5      0.00      0.00      85.5     0.38      1014.4     2.7     ENE    73   7.3     ESE   103  10.10    260      543.0
   08/08/2018 11:40      93.1      91.8       15     37.3      0.00      0.00      85.5     0.38      1014.6     3.5       E    88   6.7     ENE    73  10.10    261      539.5
   08/08/2018 11:30      92.4      91.5       16     38.5      0.00      0.00      85.5     0.38      1014.6     3.3       E    98   6.4       E    85  10.10    261      530.5
   08/08/2018 11:20      91.8      90.8       17     39.7      0.00      0.00      85.6     0.38      1014.7     3.3     ESE   102   5.7       E    95  10.11    261      522.8
   08/08/2018 11:10      91.6      90.3       17     39.5      0.00      0.00      85.6     0.38      1014.8     3.6     ENE    71   7.2     SSE   148  10.11    261      511.8
   08/08/2018 11:00      90.9      89.9       17     39.8      0.00      0.00      85.6     0.38      1014.9     3.8       E    79   7.5       S   173  10.11    261      502.4
   08/08/2018 10:50      90.5      89.5       18     41.3      0.00      0.00      85.6     0.38      1014.9     4.0       E    87  11.1     SSE   149  10.12    261      489.9
   08/08/2018 10:40      90.4      89.4       20     43.6      0.00      0.00      85.6     0.38      1014.9     3.5       E    86   8.9     ESE   107  10.12    261      474.4
   08/08/2018 10:30      90.4      89.0       19     42.7      0.00      0.00      85.7     0.38      1014.9     3.1     ESE   102   7.7       E    94   9.76    261      458.8
   08/08/2018 10:20      89.1      87.9       19     41.3      0.00      0.00      85.8     0.38      1014.9     3.7     ENE    70   7.0     ENE    76   9.08    261      443.8
   08/08/2018 10:10      88.1      86.9       23     45.1      0.00      0.00      85.8     0.38      1015.0     2.7       E    84   5.2     ESE   107   9.08    261      426.9
   08/08/2018 10:00      87.6      85.7       27     48.1      0.00      0.00      85.8     0.38      1015.0     2.5      NE    50   6.2      NE    37   9.08    261      409.4
   08/08/2018 09:50      86.1      84.6       29     49.7      0.00      0.00      85.8     0.38      1015.0     2.0     NNE    26   5.1       N     2   9.08    262      392.1
   08/08/2018 09:40      85.2      83.4       32     51.1      0.00      0.00      85.9     0.38      1015.2     1.9      NE    45   3.8     NNE    16   9.08    262      374.2
   08/08/2018 09:30      83.7      81.9       34     51.5      0.00      0.00      85.9     0.38      1015.3     2.4     NNE    27   4.8      NE    50   9.08    262      358.4
   08/08/2018 09:20      82.3      81.3       36     52.2      0.00      0.00      86.0     0.38      1015.3     2.8     NNE    31   4.8      NE    54   9.08    263      339.7
   08/08/2018 09:10      81.6      80.4       38     53.3      0.00      0.00      86.0     0.38      1015.4     2.5      NE    45   6.1      NE    50   9.08    263      321.7
   08/08/2018 09:00      80.6      78.6       41     54.0      0.00      0.00      86.1     0.38      1015.4     2.3      NE    49   4.3      NE    34   9.08    263      306.7
   08/08/2018 08:50      78.8      77.3       44     54.2      0.00      0.00      86.1     0.38      1015.4     2.7      NE    50   4.3      NE    40   9.08    264      302.7
   08/08/2018 08:40      77.6      76.6       45     54.3      0.00      0.00      86.1     0.38      1015.2     2.1      NE    46   4.1     ENE    58   9.08    266      131.6
   08/08/2018 08:30      76.8      75.5       48     55.1      0.00      0.00      86.2     0.38      1015.1     1.8      NE    41   4.2      NE    49   9.08    266      -21.4
   08/08/2018 08:20      75.7      74.4       52     56.0      0.00      0.00      86.3     0.38      1015.1     1.8      NE    37   4.1      NW   325   9.08    266      -39.9
   08/08/2018 08:10      74.4      73.5       57     57.6      0.00      0.00      86.3     0.38      1015.0     2.0     NNE    27   5.0       N     6   9.08    266      -26.0
   08/08/2018 08:00      73.5      72.5       60     58.3      0.00      0.00      86.3     0.38      1014.9     1.5      NE    34   3.0     ENE    62   9.08    266       24.2
   08/08/2018 07:50      72.6      71.7       62     58.6      0.00      0.00      86.3     0.38      1014.9     1.6     NNE    16   3.4     NNE    29   9.08    266       -3.2
   08/08/2018 07:40      72.0      70.6       65     58.8      0.00      0.00      86.5     0.38      1014.9     0.7     NNE    29   2.4     NNE    15   9.08    266      -39.3
   08/08/2018 07:30      70.8      69.6       68     59.2      0.00      0.00      86.5     0.38      1014.8     0.0       N     0   0.0     SSW   192   9.09    267      -39.6
   08/08/2018 07:20      69.8      68.2       71     59.5      0.00      0.00      86.5     0.38      1014.7     0.3       S   187   1.6     SSW   191   9.09    267      -39.7
   08/08/2018 07:10      68.4      66.4       75     59.4      0.00      0.00      86.6     0.38      1014.6     1.4     SSE   156   2.6     ESE   121   9.09    268      -46.1
   08/08/2018 07:00      66.6      65.7       77     58.9      0.00      0.00      86.6     0.38      1014.5     0.3      SE   142   2.1      SE   133   9.09    268      -45.8
   08/08/2018 06:50      65.9      65.2       80     59.0      0.00      0.00      86.7     0.38      1014.4     0.3     SSE   163   1.1      SE   143   9.09    266      -46.0
   08/08/2018 06:40      65.5      64.8       81     59.1      0.00      0.00      86.7     0.38      1014.3     0.6     SSE   159   1.2     SSE   150   9.09    264      -44.1
   08/08/2018 06:30      65.1      64.5       82     59.1      0.00      0.00      86.7     0.38      1014.1     0.4     SSE   148   1.5      SE   139   9.09    262      -49.4
   08/08/2018 06:20      64.8      64.4       82     59.1      0.00      0.00      86.8     0.38      1014.0     0.4     SSE   158   1.3      SE   146   9.09    263      -54.6
   08/08/2018 06:10      64.8      64.2       81     58.6      0.00      0.00      86.8     0.38      1013.8     0.6     SSE   157   1.8     SSE   156   9.09    263      -60.4
   08/08/2018 06:00      65.1      64.5       81     58.9      0.00      0.00      86.9     0.38      1013.6     0.8     SSE   151   1.7      SE   142   9.09    262      -61.5
   08/08/2018 05:50      65.2      64.7       80     58.5      0.00      0.00      86.9     0.38      1013.6     0.5     SSE   159   1.3      SE   142   9.09    262      -64.6
   08/08/2018 05:40      65.1      64.7       80     58.4      0.00      0.00      87.0     0.38      1013.6     0.7       S   187   1.3      SE   146   9.09    262      -64.3
   08/08/2018 05:30      65.6      64.8       79     58.4      0.00      0.00      87.0     0.38      1013.5     0.5     SSE   160   1.4     SSE   146   9.09    266      -64.9
   08/08/2018 05:20      65.6      65.3       78     58.5      0.00      0.00      87.0     0.39      1013.4     0.0     SSW   195   1.2     SSE   156   9.09    263      -63.0
   08/08/2018 05:10      65.6      65.0       77     58.0      0.00      0.00      87.1     0.39      1013.4     0.1     SSW   211   0.9     SSW   207   9.09    266      -64.6
   08/08/2018 05:00      65.6      65.1       77     57.8      0.00      0.00      87.1     0.39      1013.3     0.2     SSE   164   0.7     SSE   164   9.09    266      -66.0
   08/08/2018 04:50      65.9      65.3       76     57.9      0.00      0.00      87.2     0.39      1013.1     0.1     SSE   164   0.5     SSE   164   9.09    266      -66.0
   08/08/2018 04:40      65.8      65.3       75     57.5      0.00      0.00      87.2     0.39      1012.9     0.0     SSE   164   0.7     SSE   164   9.10    266      -65.7
   08/08/2018 04:30      66.2      65.6       74     57.3      0.00      0.00      87.2     0.39      1012.7     0.4     SSE   164   1.0     SSE   164   9.10    266      -66.5
   08/08/2018 04:20      66.3      65.8       72     56.9      0.00      0.00      87.3     0.39      1012.7     0.0     SSE   162   0.7     SSE   164   9.10    266      -68.7
   08/08/2018 04:10      66.7      65.9       70     56.3      0.00      0.00      87.3     0.39      1012.6     0.3     SSE   151   1.2     SSE   152   9.10    266      -69.4
   08/08/2018 04:00      66.9      66.2       69     56.1      0.00      0.00      87.4     0.39      1012.4     0.6     SSE   148   1.4     SSE   149   9.10    266      -70.8
   08/08/2018 03:50      67.0      66.5       68     55.9      0.00      0.00      87.4     0.39      1012.2     0.4     SSE   154   1.2      SE   144   9.10    266      -70.6
   08/08/2018 03:40      67.6      66.8       66     55.4      0.00      0.00      87.4     0.39      1012.3     0.8     SSE   159   1.6      SE   142   9.10    266      -71.0
   08/08/2018 03:30      67.6      67.1       65     55.2      0.00      0.00      87.5     0.39      1012.3     0.8     SSE   157   2.6      SE   146   9.10    266      -70.4
   08/08/2018 03:20      67.6      67.2       63     54.6      0.00      0.00      87.4     0.39      1012.2     0.4     SSE   160   1.0       S   169   9.10    266      -69.2
   08/08/2018 03:10      68.2      67.3       61     54.0      0.00      0.00      87.5     0.39      1012.2     0.2     SSE   159   0.8     SSE   159   9.10    266      -69.3
   08/08/2018 03:00      68.2      67.7       60     53.6      0.00      0.00      87.5     0.39      1012.2     0.0     SSE   159   0.5     SSE   159   9.10    265      -69.5
   08/08/2018 02:50      68.6      67.7       59     53.1      0.00      0.00      87.6     0.39      1012.3     0.3     SSE   161   0.9     SSE   168   9.11    265      -70.2
   08/08/2018 02:40      69.6      68.4       57     53.1      0.00      0.00      87.6     0.39      1012.1     0.4       S   178   1.7       S   191   9.11    265      -70.4
   08/08/2018 02:30      69.6      69.1       57     53.5      0.00      0.00      87.6     0.39      1012.1     0.7       S   190   1.4     SSW   192   9.11    264      -69.1
   08/08/2018 02:20      69.6      69.0       56     53.1      0.00      0.00      87.7     0.39      1012.2     0.0     SSE   158   0.7     SSE   158   9.11    264      -69.1
   08/08/2018 02:10      70.0      69.3       56     53.1      0.00      0.00      87.7     0.39      1012.2     0.4     SSE   160   1.1     SSE   165   9.11    264      -69.6
   08/08/2018 02:00      70.6      69.6       56     53.4      0.00      0.00      87.7     0.39      1012.1     0.2     SSE   158   0.9     SSE   158   9.11    264      -69.9
   08/08/2018 01:50      71.0      70.3       56     54.0      0.00      0.00      87.7     0.39      1012.1     0.0     SSE   166   0.5     SSE   158   9.11    264      -69.8
   08/08/2018 01:40      71.5      70.6       54     53.7      0.00      0.00      87.8     0.39      1012.1     0.0       S   187   1.4       S   191   9.12    264      -71.4
   08/08/2018 01:30      71.5      70.9       53     53.3      0.00      0.00      87.8     0.39      1012.1     0.7       S   171   2.3       S   186   9.12    264      -73.0
   08/08/2018 01:20      71.5      71.0       53     53.5      0.00      0.00      87.8     0.39      1012.1     0.3       S   182   0.9     SSW   195   9.12    264      -72.7
   08/08/2018 01:10      71.5      70.9       54     54.0      0.00      0.00      87.9     0.39      1012.0     0.2       S   171   1.0       S   175   9.12    264      -72.1
   08/08/2018 01:00      71.8      71.2       55     54.5      0.00      0.00      87.8     0.39      1011.9     0.0     SSE   166   0.7       S   170   9.12    264      -73.2
   08/08/2018 00:50      72.5      71.4       55     54.7      0.00      0.00      87.9     0.39      1011.8     0.6     SSE   152   1.5      SE   146   9.12    264      -73.5
   08/08/2018 00:40      72.7      72.3       53     54.2      0.00      0.00      87.9     0.39      1011.7     0.9       S   177   1.7     SSW   213   9.12    264      -73.6
   08/08/2018 00:30      73.5      72.4       51     53.9      0.00      0.00      87.9     0.39      1011.8     0.5       S   175   1.4       S   170   9.13    264      -74.5
   08/08/2018 00:20      73.8      73.3       50     53.6      0.00      0.00      87.9     0.39      1011.7     0.9     SSW   193   1.6     SSW   212   9.13    264      -74.7
   08/08/2018 00:10      74.7      73.4       49     53.8      0.00      0.00      88.0     0.39      1011.5     0.4       S   175   1.5       S   179   9.13    263      -76.7
   08/08/2018 00:00      75.1      74.2       48     53.9      0.00      0.00      87.9     0.39      1011.4     0.6       S   183   1.5     SSW   203   9.13    263      -77.0
   08/07/2018 23:50      75.7      74.9       49     54.7      0.00      0.00      88.0     0.39      1011.2     0.2      SE   143   1.0      SE   139   9.13    263      -78.8
   08/07/2018 23:40      76.4      75.5       49     55.4      0.00      0.00      88.0     0.39      1011.2     1.0      SE   130   2.2      SE   141   9.13    263      -79.3
   08/07/2018 23:30      77.2      75.9       49     55.6      0.00      0.00      88.0     0.39      1011.0     0.8      SE   140   2.2      SE   134   9.13    263      -79.8
   08/07/2018 23:20      77.4      76.8       48     56.0      0.00      0.00      88.0     0.39      1010.7     0.5      SE   129   1.8     ESE   123   9.14    263      -80.3
   08/07/2018 23:10      78.1      77.1       48     56.5      0.00      0.00      88.0     0.39      1010.7     0.5     ESE   113   1.8      SE   131   9.14    263      -80.3
   08/07/2018 23:00      78.9      77.8       47     56.7      0.00      0.00      88.0     0.39      1010.5     0.6       E    90   1.7       E    86   9.14    263      -81.5
   08/07/2018 22:50      79.4      78.6       48     57.5      0.00      0.00      88.0     0.39      1010.5     1.5      NE    55   3.6      NE    43   9.14    263      -82.5
   08/07/2018 22:40      79.9      79.3       47     57.5      0.00      0.00      88.0     0.39      1010.4     1.5     ENE    60   3.9     NNE    14   9.14    263      -82.5
   08/07/2018 22:30      80.2      79.5       46     56.9      0.00      0.00      88.0     0.39      1010.3     1.2      NE    55   2.6      NE    51   9.15    263      -82.5
   08/07/2018 22:20      81.0      80.0       44     56.4      0.00      0.00      88.0     0.39      1010.1     0.8     ENE    64   2.6      NE    48   9.15    263      -83.2
   08/07/2018 22:10      81.2      80.6       44     56.8      0.00      0.00      88.0     0.39      1010.0     0.9      NE    46   2.5      NE    41   9.15    263      -83.9
   08/07/2018 22:00      81.7      80.9       43     56.8      0.00      0.00      88.0     0.39      1009.8     0.4     ENE    76   2.0      NE    49   9.15    263      -84.1
   08/07/2018 21:50      81.9      81.4       41     55.7      0.00      0.00      88.0     0.39      1009.7     0.8       E    86   2.3      NE    41   9.15    262      -84.2
   08/07/2018 21:40      82.6      81.6       37     53.3      0.00      0.00      88.0     0.39      1009.4     0.1       E    90   2.3     ENE    73   9.15    262      -82.7
   08/07/2018 21:30      83.2      82.4       33     50.9      0.00      0.00      87.9     0.39      1009.2     0.0     SSW   201   0.6     SSW   201   9.16    261      -82.5
   08/07/2018 21:20      83.2      82.5       28     46.4      0.00      0.00      87.9     0.39      1009.0     0.5     SSW   205   1.5     SSW   196   9.16    261      -84.5
   08/07/2018 21:10      84.5      82.9       24     42.5      0.00      0.00      87.9     0.39      1008.9     0.2     SSE   160   0.9     SSE   166   9.16    261      -87.9
   08/07/2018 21:00      85.8      84.3       22     41.7      0.00      0.00      87.9     0.39      1008.8     1.1       E    92   2.0     ENE    62   9.17    261      -87.9
   08/07/2018 20:50      86.7      84.9       21     41.3      0.00      0.00      87.9     0.39      1008.6     0.6     WNW   293   1.8      SW   221   9.17    261      -89.0
   08/07/2018 20:40      88.3      86.5       19     40.4      0.00      0.00      87.9     0.39      1008.6     0.9      SE   136   1.7     ENE    60   9.17    261      -89.9
   08/07/2018 20:30      90.0      88.0       17     39.1      0.00      0.00      87.9     0.39      1008.6     0.7       S   182   1.8     SSW   211   9.18    261      -92.0
   08/07/2018 20:20      91.3      89.8       16     38.1      0.00      0.00      87.8     0.39      1008.4     1.0      SW   219   2.7     WNW   288   9.18    261      -94.0
   08/07/2018 20:10      92.4      91.1       15     37.1      0.00      0.00      87.8     0.39      1008.3     1.6     SSW   207   2.8       S   178   9.18    261      -97.9
   08/07/2018 20:00      93.2      92.2       14     36.2      0.00      0.00      87.7     0.39      1008.1     3.0      SW   229   5.3     WSW   241   9.19    261      -98.9
   08/07/2018 19:50      94.2      92.9       14     36.7      0.00      0.00      87.7     0.39      1008.1     3.5      SW   234   7.3     WSW   243   9.19    261      -97.6
   08/07/2018 19:40      95.3      93.7       13     35.9      0.00      0.00      87.7     0.39      1008.0     2.5      SW   219   4.1     SSW   199   9.20    260      -95.0
   08/07/2018 19:30      96.7      95.1       12     35.0      0.00      0.00      87.6     0.39      1007.9     2.8     WSW   240   4.9     WSW   248   9.20    261      -92.3
   08/07/2018 19:20      98.4      96.6       12     36.5      0.00      0.00      87.6     0.39      1007.7     3.0     WSW   249   6.1      SW   232   9.21    260      -76.9
   08/07/2018 19:10      98.4      98.0       12     37.2      0.00      0.00      87.6     0.38      1007.6     2.3       W   271   5.2      SW   225   9.22    260      -61.1
   08/07/2018 19:00      99.0      98.1       12     36.8      0.00      0.00      87.5     0.38      1007.5     3.6     WNW   300   8.4      NW   315   9.22    260      -42.7
   08/07/2018 18:50     100.0      98.6       13     39.5      0.00      0.00      87.5     0.38      1007.5     3.5     WNW   300   6.1     WNW   303   9.23    261      -22.3
   08/07/2018 18:40      99.9      99.3       15     43.2      0.00      0.00      87.4     0.38      1007.4     4.9     WSW   248   7.5     SSW   212   9.23    261        2.0
   08/07/2018 18:30     100.2      99.4       15     43.2      0.00      0.00      87.4     0.38      1007.4     4.8      SW   220   6.9     WSW   243   9.24    261       26.4
   08/07/2018 18:20     100.6      99.7       15     44.9      0.00      0.00      87.3     0.38      1007.4     5.0      SW   230   7.8      SW   217   9.25    261       51.9
   08/07/2018 18:10     101.5     100.3       16     46.3      0.00      0.00      87.3     0.38      1007.4     5.4      SW   234   7.8     WSW   248   9.25    261       75.5
   08/07/2018 18:00     101.6     101.1       16     47.5      0.00      0.00      87.3     0.38      1007.3     5.0     WSW   239   7.6     WSW   238   9.26    261       99.6
   08/07/2018 17:50     102.7     100.9       17     48.1      0.00      0.00      87.2     0.38      1007.3     4.8      SW   229   8.2      SW   225   9.27    261      126.0
   08/07/2018 17:40     103.6     102.7       15     46.2      0.00      0.00      87.1     0.38      1007.3     3.3       W   259   7.0     WNW   294   9.27    260      148.2
   08/07/2018 17:30     103.2     102.3       15     45.6      0.00      0.00      87.1     0.38      1007.3     3.0      NW   314   6.2     WNW   303   9.28    261      172.5
   08/07/2018 17:20     102.7     101.8       15     46.3      0.00      0.00      87.0     0.38      1007.5     3.7      NW   307   7.5      NW   315   9.29    261      198.9
   08/07/2018 17:10     102.3     101.9       16     47.7      0.00      0.00      86.9     0.38      1007.5     4.4      NW   314   7.0      NW   308   9.29    261      222.8
   08/07/2018 17:00     103.4     102.0       17     49.4      0.00      0.00      86.9     0.38      1007.6     4.4      NW   312   8.5     WNW   292   9.30    261      247.5
   08/07/2018 16:50     103.3     102.6       17     49.9      0.00      0.00      86.8     0.38      1007.7     3.5      NW   312   6.4       N     6   9.31    261      269.6
   08/07/2018 16:40     103.2     102.5       17     48.8      0.00      0.00      86.8     0.38      1007.7     4.3      NW   308   7.3       W   274   9.31    261      289.1
   08/07/2018 16:30     103.8     102.8       18     51.0      0.00      0.00      86.7     0.38      1007.7     4.5      NW   311   7.9     WNW   300   9.32    261      310.1
   08/07/2018 16:20     104.2     103.0       18     52.4      0.00      0.00      86.6     0.38      1007.7     4.0     WNW   299   7.4     NNW   337   9.32    261      330.7
   08/07/2018 16:10     105.3     103.7       17     50.5      0.00      0.00      86.6     0.38      1007.7     4.2      NW   311   7.6       W   272   9.33    261      349.9
   08/07/2018 16:00     106.9     104.6       15     48.2      0.00      0.00      86.5     0.38      1007.7     3.8     WNW   289  11.0       W   273   9.33    261      368.4
   08/07/2018 15:50     106.8     104.4       12     41.8      0.00      0.00      86.4     0.38      1007.7     2.0     NNW   330   6.2      SW   225   9.34    261      385.9
   08/07/2018 15:40     104.8     103.7       14     44.6      0.00      0.00      86.3     0.38      1007.8     2.8     WNW   289   7.0      SW   220   9.34    261      404.7
   08/07/2018 15:30     105.0     104.5       14     46.7      0.00      0.00      86.2     0.38      1008.0     2.1      NW   320   6.8     SSW   210   9.35    261      423.9
   08/07/2018 15:20     104.8     103.9       15     47.0      0.00      0.00      86.2     0.38      1008.2     1.9       N   356   5.7       N     0   9.35    261      437.2
   08/07/2018 15:10     103.8     102.1       15     47.0      0.00      0.00      86.1     0.38      1008.4     1.4     SSW   213   4.6      SW   227   9.36    261      449.9
   08/07/2018 15:00     103.6     102.8       15     46.4      0.00      0.00      86.1     0.38      1008.5     3.4     WSW   254   7.1     WSW   249   9.36    261      468.4
   08/07/2018 14:50     103.9     102.7       15     47.5      0.00      0.00      86.0     0.38      1008.7     2.0     SSW   202   5.5     SSW   200   9.36    261      485.6
   08/07/2018 14:40     103.7     102.1       15     46.6      0.00      0.00      85.9     0.38      1008.8     2.1       W   267   4.9       W   274   9.37    261      498.0
   08/07/2018 14:30     103.6     101.7       16     47.3      0.00      0.00      85.8     0.38      1009.0     1.8      NE    45   4.2      NE    51   9.37    261      504.3
   08/07/2018 14:20     102.4     100.9       16     47.3      0.00      0.00      85.7     0.38      1009.1     3.0     ENE    63   5.7     NNE    28   9.38    261      520.7
   08/07/2018 14:10     101.9      99.5       17     47.9      0.00      0.00      85.7     0.38      1009.1     2.9     ENE    73   6.3      NE    47   9.38    261      531.3
   08/07/2018 14:00     100.0      99.2       18     48.4      0.00      0.00      85.6     0.38      1009.1     4.2       E    82   8.3     ENE    59   9.38    261      545.7
   08/07/2018 13:50      99.7      99.2       18     48.0      0.00      0.00      85.6     0.38      1009.3     4.1       E    94   6.9     ESE   124   9.39    260      551.8
   08/07/2018 13:40      99.6      99.0       18     48.2      0.00      0.00      85.5     0.38      1009.3     4.5       E    86   7.9     ENE    61   9.39    261      556.9
   08/07/2018 13:30     100.0      98.7       20     50.9      0.00      0.00      85.4     0.38      1009.3     4.2     ESE   106   9.0      SE   134   9.39    261      561.4
   08/07/2018 13:20      99.9      98.4       22     53.3      0.00      0.00      85.4     0.38      1009.3     5.1     ESE   107   9.8     SSE   149   9.39    261      565.8
   08/07/2018 13:10     102.3      99.1       20     52.1      0.00      0.00      85.4     0.38      1009.3     6.2     ESE   117  16.5      SE   138   9.40    261      564.8
   08/07/2018 13:00     103.2     101.9       18     50.3      0.00      0.00      85.4     0.38      1009.1     3.8     ENE    65   7.2     ENE    57   9.40    261      550.8
   08/07/2018 12:50     103.4     102.3       17     49.2      0.00      0.00      85.3     0.38      1009.0     3.8      NE    48   8.1     ENE    57   9.41    261      554.0
   08/07/2018 12:40     103.3     102.0       17     49.7      0.00      0.00      85.3     0.38      1009.1     3.0      NE    48   5.4     ESE   123   9.41    261      554.4
   08/07/2018 12:30     102.4     101.8       17     49.3      0.00      0.00      85.3     0.38      1009.3     2.8     ENE    71   6.5     ESE   106   9.41    261      557.6
   08/07/2018 12:20     102.7     101.2       17     49.4      0.00      0.00      85.1     0.38      1009.4     3.0      NE    40   5.1     ESE   112   9.41    261      551.1
   08/07/2018 12:10     102.3     101.2       18     49.7      0.00      0.00      85.2     0.38      1009.4     3.0     NNE    31   5.5      NE    45   9.41    261      546.6
   08/07/2018 12:00     102.1     100.3       18     50.5      0.00      0.00      85.2     0.38      1009.4     1.9     NNE    12   4.3      NE    52   9.41    261      540.5
   08/07/2018 11:50     101.0     100.2       19     50.4      0.00      0.00      85.2     0.38      1009.5     2.3      NE    42   5.3      NE    49   9.42    260      533.3
   08/07/2018 11:40     100.3      98.7       17     47.1      0.00      0.00      85.3     0.38      1009.8     1.9     ESE   114   5.7       E    81   9.42    261      526.6
   08/07/2018 11:30      99.1      98.1       16     45.3      0.00      0.00      85.2     0.38      1009.9     1.7     ESE   107   4.8      SE   131   9.42    261      517.7
   08/07/2018 11:20      99.0      97.6       16     44.4      0.00      0.00      85.2     0.38      1010.0     2.0       N     8   4.0      NE    34   9.42    261      505.6
   08/07/2018 11:10      98.8      96.0       17     45.8      0.00      0.00      85.3     0.38      1010.1     0.9     NNE    19   3.9      NE    38   9.42    260      498.5
   08/07/2018 11:00      96.3      94.9       19     47.0      0.00      0.00      85.3     0.38      1010.1     1.9       N    11   3.6      NE    38   9.42    261      489.1
   08/07/2018 10:50      95.1      94.3       20     47.5      0.00      0.00      85.3     0.38      1010.1     1.6       N   352   3.8       N   353   9.42    261      477.1
   08/07/2018 10:40      94.5      93.2       20     47.1      0.00      0.00      85.3     0.38      1010.2     1.3     WNW   299   3.4       W   264   9.42    261      465.5
   08/07/2018 10:30      93.5      92.1       21     46.9      0.00      0.00      85.4     0.38      1010.3     1.6     NNE    13   5.7       N   352   9.42    261      447.2
   08/07/2018 10:20      92.2      90.6       23     48.6      0.00      0.00      85.4     0.38      1010.4     1.8     NNE    18   4.1     NNE    19   9.42    261      432.7
   08/07/2018 10:10      90.7      89.6       25     49.7      0.00      0.00      85.5     0.38      1010.4     1.4     NNW   343   4.1     NNW   331   9.42    261      415.6
   08/07/2018 10:00      89.8      89.0       26     50.1      0.00      0.00      85.5     0.38      1010.5     1.8       N     7   3.9       N     7   9.42    261      397.5
   08/07/2018 09:50      89.5      87.9       26     49.8      0.00      0.00      85.6     0.38      1010.6     1.1      NE    44   3.0     NNW   340   9.42    261      378.4
   08/07/2018 09:40      88.0      86.8       27     48.9      0.00      0.00      85.6     0.38      1010.6     1.8     ENE    63   3.8      NE    51   9.42    261      357.4
   08/07/2018 09:30      87.1      85.5       29     50.2      0.00      0.00      85.6     0.38      1010.8     1.7      NE    53   3.4      NE    52   9.42    261      335.4
   08/07/2018 09:20      85.6      84.0       31     51.3      0.00      0.00      85.7     0.39      1010.8     1.5     NNE    29   3.2     NNE    19   9.42    261      315.7
   08/07/2018 09:10      84.2      82.9       33     50.8      0.00      0.00      85.7     0.39      1010.8     1.6      NE    36   3.5     NNE    34   9.42    262      298.4
   08/07/2018 09:00      83.1      80.5       34     50.6      0.00      0.00      85.8     0.39      1010.6     1.3      NE    38   2.9     NNE    30   9.42    262      282.9
   08/07/2018 08:50      80.8      78.9       37     51.0      0.00      0.00      85.9     0.39      1010.5     1.5     NNE    30   3.6      NE    47   9.42    262      277.1
   08/07/2018 08:40      79.0      77.7       39     51.5      0.00      0.00      85.9     0.39      1010.5     0.9     NNE    16   2.7     NNW   345   9.42    264      159.2
   08/07/2018 08:30      78.1      76.7       41     51.6      0.00      0.00      85.9     0.39      1010.5     1.1      NE    47   2.3      NE    54   9.42    264        4.5
   08/07/2018 08:20      77.1      76.2       42     52.0      0.00      0.00      86.0     0.39      1010.3     1.5      NE    51   3.1     ENE    59   9.42    264      -19.1
   08/07/2018 08:10      76.3      75.2       44     52.2      0.00      0.00      86.0     0.39      1010.1     0.8     ENE    58   1.9      NE    47   9.42    264      -22.4
   08/07/2018 08:00      75.4      73.4       45     51.9      0.00      0.00      86.1     0.39      1009.8     0.5      SE   128   1.8      SE   141   9.42    264       14.1
   08/07/2018 07:50      73.6      72.5       46     51.1      0.00      0.00      86.2     0.39      1009.7     0.7       E    87   1.6     ESE   105   9.42    264       -4.6
   08/07/2018 07:40      72.8      71.2       46     50.4      0.00      0.00      86.2     0.39      1009.5     0.7       N   351   1.6       N   355   9.42    264      -30.0
   08/07/2018 07:30      71.5      69.7       49     50.3      0.00      0.00      86.3     0.39      1009.6     0.3       N     4   1.3       N     8   9.42    264      -30.7
   08/07/2018 07:20      69.9      68.2       52     50.6      0.00      0.00      86.3     0.39      1009.5     0.8      SE   124   1.8      SE   131   9.42    264      -34.5
   08/07/2018 07:10      68.4      67.6       53     50.1      0.00      0.00      86.4     0.39      1009.4     0.4      SE   137   1.7     SSE   149   9.43    264      -36.9
   08/07/2018 07:00      67.8      66.3       54     50.0      0.00      0.00      86.4     0.39      1009.4     0.3      SW   226   1.0      NW   324   9.43    264      -41.1
   08/07/2018 06:50      66.4      65.6       55     49.2      0.00      0.00      86.4     0.39      1009.3     0.2      NE    41   1.0      NE    38   9.43    264      -47.3
   08/07/2018 06:40      66.0      65.3       56     49.3      0.00      0.00      86.5     0.39      1009.2     0.4      SE   135   1.4      SE   136   9.43    264      -50.9
   08/07/2018 06:30      66.2      65.5       56     49.7      0.00      0.00      86.5     0.39      1009.3     0.2      SE   143   1.0     SSE   160   9.43    264      -56.8
   08/07/2018 06:20      66.1      65.5       55     49.0      0.00      0.00      86.6     0.39      1009.2     0.5     SSE   160   1.6      SE   128   9.43    264      -59.7
   08/07/2018 06:10      65.9      65.5       53     48.0      0.00      0.00      86.6     0.39      1009.3     0.5     SSE   167   1.6      SE   142   9.43    264      -62.6
   08/07/2018 06:00      66.4      65.5       56     49.6      0.00      0.00      86.7     0.39      1009.2     0.3     SSE   164   1.1     SSE   148   9.43    264      -64.3
   08/07/2018 05:50      66.4      65.9       57     50.3      0.00      0.00      86.7     0.39      1009.3     0.8     SSE   155   1.9       S   189   9.43    264      -65.2
   08/07/2018 05:40      66.5      65.8       54     48.9      0.00      0.00      86.8     0.39      1009.5     0.8     SSE   149   2.4      SE   141   9.43    264      -64.7
   08/07/2018 05:30      66.5      65.8       55     49.6      0.00      0.00      86.8     0.39      1009.4     0.3     SSE   152   1.3     SSE   152   9.43    264      -64.6
   08/07/2018 05:20      66.9      66.1       55     49.7      0.00      0.00      86.8     0.39      1009.4     0.8     SSE   164   1.8      SE   143   9.43    264      -65.4
   08/07/2018 05:10      66.8      66.3       53     48.8      0.00      0.00      86.9     0.39      1009.5     0.5       S   179   1.1     SSE   161   9.43    264      -65.3
   08/07/2018 05:00      67.0      66.2       54     49.4      0.00      0.00      86.9     0.39      1009.4     0.6     SSE   168   1.4       S   170   9.43    264      -66.2
   08/07/2018 04:50      67.2      66.7       52     48.6      0.00      0.00      87.0     0.39      1009.4     0.6     SSE   148   1.7       S   181   9.43    264      -67.2
   08/07/2018 04:40      67.0      66.3       53     48.8      0.00      0.00      87.0     0.39      1009.4     0.5      SW   218   1.8      SW   230   9.43    264      -66.5
   08/07/2018 04:30      67.6      66.9       51     48.3      0.00      0.00      87.0     0.39      1009.4     0.2       S   180   1.2      SE   130   9.44    264      -67.9
   08/07/2018 04:20      67.5      67.1       50     47.9      0.00      0.00      87.1     0.39      1009.4     0.2     SSW   206   1.4     SSW   205   9.44    264      -67.9
   08/07/2018 04:10      68.2      67.3       48     47.2      0.00      0.00      87.1     0.39      1009.2     0.2       S   181   1.1     SSW   199   9.44    264      -68.7
   08/07/2018 04:00      69.0      68.1       46     47.1      0.00      0.00      87.1     0.39      1009.1     0.2     ESE   111   1.3      SE   136   9.44    264      -69.2
   08/07/2018 03:50      69.1      68.7       45     46.9      0.00      0.00      87.2     0.39      1009.1     0.7     SSE   156   1.6      SE   136   9.44    264      -69.2
   08/07/2018 03:40      69.0      68.5       47     47.5      0.00      0.00      87.2     0.39      1009.1     1.2      SE   138   2.4      SE   138   9.44    264      -70.4
   08/07/2018 03:30      68.7      68.2       47     47.3      0.00      0.00      87.2     0.39      1009.1     0.9     SSE   156   1.4      SE   139   9.44    264      -69.7
   08/07/2018 03:20      69.0      68.3       47     47.8      0.00      0.00      87.3     0.39      1009.1     0.6     SSE   163   1.8      SE   141   9.45    264      -70.0
   08/07/2018 03:10      69.5      68.6       46     47.6      0.00      0.00      87.3     0.39      1009.2     0.4     SSE   166   1.2     SSE   165   9.45    264      -70.0
   08/07/2018 03:00      70.0      69.1       45     47.0      0.00      0.00      87.3     0.39      1009.3     0.4       S   181   1.4     SSE   146   9.45    263      -69.7
   08/07/2018 02:50      70.6      69.8       44     47.3      0.00      0.00      87.3     0.39      1009.4     0.0     SSW   202   0.3     SSW   202   9.45    263      -69.8
   08/07/2018 02:40      71.1      70.4       42     46.7      0.00      0.00      87.4     0.39      1009.4     0.2     SSW   199   1.2       S   190   9.45    263      -70.7
   08/07/2018 02:30      71.6      70.9       45     48.5      0.00      0.00      87.5     0.39      1009.4     0.4     SSE   162   1.3     SSE   148   9.45    263      -72.0
   08/07/2018 02:20      72.0      71.1       44     48.5      0.00      0.00      87.5     0.39      1009.4     0.8     SSE   151   1.9       S   170   9.45    263      -73.1
   08/07/2018 02:10      72.7      71.7       44     48.9      0.00      0.00      87.5     0.39      1009.4     1.0     SSE   158   1.9       S   183   9.45    263      -72.2
   08/07/2018 02:00      72.4      71.8       41     47.0      0.00      0.00      87.6     0.39      1009.5     0.9       S   179   2.8     SSW   196   9.46    263      -71.8
   08/07/2018 01:50      72.9      72.0       37     44.4      0.00      0.00      87.6     0.39      1009.5     1.0     SSE   168   2.1     SSW   196   9.46    263      -72.0
   08/07/2018 01:40      73.0      72.2       36     44.1      0.00      0.00      87.6     0.39      1009.5     0.7     SSW   197   1.5      SW   215   9.46    263      -72.0
   08/07/2018 01:30      73.4      72.8       35     44.0      0.00      0.00      87.7     0.39      1009.6     1.0       S   185   2.7     SSW   199   9.46    262      -72.0
   08/07/2018 01:20      73.6      72.7       35     44.1      0.00      0.00      87.7     0.39      1009.6     0.7     SSE   168   1.6      SW   231   9.46    262      -73.1
   08/07/2018 01:10      74.1      73.2       35     44.3      0.00      0.00      87.7     0.39      1009.6     0.0     NNE    13   1.2     NNE    13   9.47    262      -72.8
   08/07/2018 01:00      74.1      73.4       35     44.3      0.00      0.00      87.7     0.39      1009.6     0.5     SSE   163   1.5       S   181   9.47    262      -72.6
   08/07/2018 00:50      74.5      73.7       35     44.5      0.00      0.00      87.7     0.39      1009.6     0.6     SSE   167   1.4       S   173   9.47    262      -73.4
   08/07/2018 00:40      75.0      74.1       33     43.6      0.00      0.00      87.7     0.39      1009.6     1.1      SE   146   2.0      SE   143   9.47    262      -73.2
   08/07/2018 00:30      75.0      74.5       33     43.4      0.00      0.00      87.7     0.39      1009.6     0.6       S   183   1.5       S   180   9.47    262      -72.2
   08/07/2018 00:20      75.3      74.7       34     44.3      0.00      0.00      87.7     0.39      1009.4     0.8       S   182   1.4     SSW   201   9.48    262      -74.5
   08/07/2018 00:10      76.4      75.0       33     44.7      0.00      0.00      87.8     0.39      1009.4     0.8      SE   140   1.9     SSE   165   9.48    262      -75.9
   08/07/2018 00:00      76.7      75.9       32     44.2      0.00      0.00      87.8     0.39      1009.3     0.4     SSE   165   1.5     SSW   198   9.48    262      -76.2
   08/06/2018 23:50      77.3      76.4       31     43.9      0.00      0.00      87.8     0.39      1009.2     0.5      SE   130   1.6      SE   140   9.48    262      -78.1
   08/06/2018 23:40      78.4      76.9       31     44.2      0.00      0.00      87.8     0.39      1009.3     0.8     SSE   160   1.6      SE   144   9.48    262      -78.4
   08/06/2018 23:30      79.0      78.1       30     44.6      0.00      0.00      87.9     0.39      1009.3     0.8      SE   133   1.7     NNW   332   9.49    262      -78.9
   08/06/2018 23:20      78.9      77.9       31     45.2      0.00      0.00      87.9     0.39      1009.2     1.1       S   186   2.5     SSE   168   9.49    262      -78.5
   08/06/2018 23:10      79.6      78.8       30     45.2      0.00      0.00      87.9     0.39      1009.2     0.6     SSE   159   2.0     SSE   149   9.49    262      -78.7
   08/06/2018 23:00      80.6      79.3       29     44.4      0.00      0.00      87.9     0.39      1009.2     0.9       S   170   1.7       S   185   9.50    261      -77.2
   08/06/2018 22:50      80.6      80.1       29     44.8      0.00      0.00      87.9     0.39      1009.2     0.3     SSE   163   1.1     SSE   168   9.50    261      -76.3
   08/06/2018 22:40      81.4      80.3       28     44.8      0.00      0.00      87.9     0.39      1009.3     0.9     SSE   152   2.4       S   188   9.50    261      -75.2
   08/06/2018 22:30      81.3      80.3       28     45.0      0.00      0.00      87.9     0.39      1009.3     0.4      NE    41   1.4     NNW   328   9.50    261      -75.0
   08/06/2018 22:20      81.8      80.1       29     45.5      0.00      0.00      87.9     0.39      1009.2     1.1     SSE   154   2.2       S   182   9.50    261      -73.8
   08/06/2018 22:10      82.2      81.5       26     43.6      0.00      0.00      87.9     0.39      1009.3     1.0     SSE   169   2.0       S   190   9.51    261      -74.2
   08/06/2018 22:00      83.0      81.8       26     44.3      0.00      0.00      87.8     0.39      1009.2     0.5       S   173   1.1       S   185   9.51    261      -74.5
   08/06/2018 21:50      83.7      82.9       25     44.1      0.00      0.00      87.9     0.39      1009.2     0.2     SSE   158   1.0     SSE   157   9.51    261      -75.3
   08/06/2018 21:40      84.2      83.3       25     44.2      0.00      0.00      87.9     0.39      1009.1     0.3      SE   144   1.3      SE   136   9.51    261      -76.2
   08/06/2018 21:30      84.7      83.9       24     43.4      0.00      0.00      87.9     0.39      1009.1     0.7       S   186   1.4     SSW   199   9.52    261      -76.7
   08/06/2018 21:20      84.8      84.4       23     43.3      0.00      0.00      87.8     0.39      1009.0     0.7       S   188   2.1     SSW   209   9.52    261      -77.2
   08/06/2018 21:10      85.3      84.5       24     44.0      0.00      0.00      87.8     0.39      1009.0     0.7       S   182   1.5     SSW   201   9.53    261      -77.9
   08/06/2018 21:00      86.0      85.0       24     44.2      0.00      0.00      87.8     0.39      1008.9     0.0     SSE   168   0.7       S   172   9.53    261      -79.5
   08/06/2018 20:50      87.3      85.6       22     43.4      0.00      0.00      87.8     0.39      1008.9     0.2      SE   143   0.9     SSE   153   9.53    261      -81.5
   08/06/2018 20:40      88.8      86.9       20     42.0      0.00      0.00      87.8     0.39      1008.9     0.2     SSE   156   0.9      SE   142   9.54    261      -82.5
   08/06/2018 20:30      90.4      88.5       17     38.9      0.00      0.00      87.7     0.39      1008.9     0.3     SSE   163   1.3     SSW   192   9.54    261      -82.6
   08/06/2018 20:20      91.2      89.8       16     38.3      0.00      0.00      87.7     0.39      1008.8     0.8       S   184   2.1     SSW   205   9.54    261      -84.2
   08/06/2018 20:10      92.4      91.1       15     37.7      0.00      0.00      87.7     0.39      1008.8     0.3       S   179   1.6       S   187   9.55    261      -87.3
   08/06/2018 20:00      94.2      92.3       14     36.5      0.00      0.00      87.7     0.39      1008.7     1.0       S   189   1.9     SSW   209   9.55    261      -87.8
   08/06/2018 19:50      95.9      93.9       12     35.5      0.00      0.00      87.6     0.39      1008.6     1.4      SW   231   2.7     WNW   300   9.56    260      -89.8
   08/06/2018 19:40      96.7      95.6       12     35.3      0.00      0.00      87.6     0.39      1008.4     1.9     WNW   296   4.3       W   266   9.56    260      -88.4
   08/06/2018 19:30      98.1      96.4       12     35.2      0.00      0.00      87.6     0.39      1008.4     2.6     WNW   289   5.5     NNW   339   9.57    260      -84.9
   08/06/2018 19:20      98.4      97.9       11     35.1      0.00      0.00      87.5     0.39      1008.3     2.6       W   274   6.0       W   260   9.57    260      -68.0
   08/06/2018 19:10      99.4      98.2       11     34.7      0.00      0.00      87.5     0.39      1008.3     3.1      NW   308   6.8      NW   317   9.58    260      -52.5
   08/06/2018 19:00      99.8      98.9       11     35.8      0.00      0.00      87.5     0.39      1008.3     2.6     WNW   301   5.9       W   269   9.58    260      -34.4
   08/06/2018 18:50     100.4      99.3       11     36.1      0.00      0.00      87.4     0.39      1008.3     3.2      NW   312   7.2      NW   307   9.59    260      -14.8
   08/06/2018 18:40     100.9     100.1       11     36.0      0.00      0.00      87.4     0.39      1008.3     3.7     WNW   300   6.2      NW   305   9.59    260        7.0
   08/06/2018 18:30     101.7     100.7       11     36.0      0.00      0.00      87.3     0.39      1008.4     3.6      NW   306   6.2      NW   307   9.60    260       28.7
   08/06/2018 18:20     103.2     101.3       10     35.7      0.00      0.00      87.3     0.39      1008.3     4.2      NW   306   7.9       W   277   9.61    260       51.0
   08/06/2018 18:10     103.6     102.8       10     35.8      0.00      0.00      87.3     0.39      1008.4     2.6      NW   311   6.3       W   263   9.61    260       73.6
   08/06/2018 18:00     103.5     102.9       10     36.3      0.00      0.00      87.2     0.39      1008.4     2.7     WNW   303   5.9       N     2   9.62    260       97.9
   08/06/2018 17:50     103.7     103.1       10     36.8      0.00      0.00      87.2     0.39      1008.4     3.3     WNW   296   7.0     NNW   345   9.62    260      123.1
   08/06/2018 17:40     103.6     102.9       10     36.1      0.00      0.00      87.1     0.39      1008.3     2.9     WNW   301   5.6     WSW   247   9.63    260      147.7
   08/06/2018 17:30     103.8     103.2       10     36.7      0.00      0.00      87.1     0.39      1008.4     3.2      NW   315   7.1     NNW   334   9.63    260      173.0
   08/06/2018 17:20     103.7     103.0       11     37.6      0.00      0.00      87.0     0.39      1008.4     3.5     WNW   297   6.2     WSW   240   9.64    260      199.4
   08/06/2018 17:10     103.9     103.3       11     38.6      0.00      0.00      87.0     0.39      1008.5     3.9     WNW   301   7.2     WSW   256   9.65    260      225.3
   08/06/2018 17:00     104.1     103.6       11     39.4      0.00      0.00      86.9     0.39      1008.5     3.8     WNW   294   8.5       W   281   9.65    260      248.8
   08/06/2018 16:50     104.0     103.3       11     39.4      0.00      0.00      86.8     0.39      1008.5     4.6     WNW   289   9.5      NW   306   9.66    261      272.6
   08/06/2018 16:40     104.0     102.9       11     39.3      0.00      0.00      86.7     0.39      1008.6     4.5     WNW   294   7.8     NNW   327   9.66    261      296.6
   08/06/2018 16:30     104.6     102.9       11     39.7      0.00      0.00      86.7     0.39      1008.6     5.8       W   278   9.6       W   265   9.67    261      320.1
   08/06/2018 16:20     105.1     103.9       12     41.0      0.00      0.00      86.6     0.39      1008.6     5.0     WNW   286   8.4     WNW   282   9.68    261      337.6
   08/06/2018 16:10     105.8     104.4       12     41.9      0.00      0.00      86.5     0.39      1008.7     4.7       W   280   9.0     WSW   258   9.69    261      358.2
   08/06/2018 16:00     105.7     104.6       12     41.5      0.00      0.00      86.5     0.39      1008.7     3.8      NW   323   8.9       N     0   9.69    261      375.0
   08/06/2018 15:50     105.8     104.8       12     41.6      0.00      0.00      86.4     0.39      1008.7     3.4      NW   313   6.5      NW   315   9.70    261      393.8
   08/06/2018 15:40     105.9     104.2       15     47.3      0.00      0.00      86.4     0.39      1008.7     3.3     ENE    65   7.4       E    92   9.70    261      413.4
   08/06/2018 15:30     106.7     105.4       15     48.2      0.00      0.00      86.3     0.39      1008.7     2.8     ENE    68   6.1       E    93   9.71    261      422.3
   08/06/2018 15:20     105.9     104.7       15     47.9      0.00      0.00      86.2     0.39      1008.9     2.4     ENE    66   5.6       N    10   9.71    261      432.5
   08/06/2018 15:10     106.0     104.2       15     47.7      0.00      0.00      86.2     0.39      1009.0     2.0     ENE    61   4.8      NE    48   9.72    261      449.2
   08/06/2018 15:00     105.9     104.4       15     47.9      0.00      0.00      86.1     0.39      1009.1     2.1     NNE    12   4.4     NNE    31   9.72    261      462.7
   08/06/2018 14:50     105.3     104.0       15     48.2      0.00      0.00      86.0     0.39      1009.3     2.4      NE    49   5.8      NE    51   9.72    261      480.3
   08/06/2018 14:40     104.3     103.4       16     48.9      0.00      0.00      85.9     0.39      1009.3     2.8     ENE    66   6.1     ESE   108   9.72    261      490.3
   08/06/2018 14:30     103.9     102.0       17     49.3      0.00      0.00      85.8     0.39      1009.4     3.1     ESE   110   6.5       E    93   9.73    261      502.5
   08/06/2018 14:20     104.5     103.3       16     49.4      0.00      0.00      85.8     0.39      1009.5     2.9     ENE    59   6.1       E    79   9.73    261      512.4
   08/06/2018 14:10     104.8     104.0       17     50.5      0.00      0.00      85.7     0.39      1009.6     2.1     ENE    70   4.9     ENE    61   9.73    261      521.9
   08/06/2018 14:00     104.0     103.0       18     51.9      0.00      0.00      85.7     0.39      1009.7     2.9      NE    53   6.4       S   177   9.74    261      533.5
   08/06/2018 13:50     103.4     102.4       20     53.6      0.00      0.00      85.6     0.39      1009.8     3.6      NE    47   7.7       N     3   9.74    261      537.3
   08/06/2018 13:40     104.0     102.8       20     55.1      0.00      0.00      85.5     0.39      1009.9     3.6     NNE    32   6.8       N   354   9.74    261      539.9
   08/06/2018 13:30     103.9     103.1       15     47.1      0.00      0.00      85.5     0.39      1010.1     1.9       N   353   5.3     NNW   346   9.74    261      545.5
   08/06/2018 13:20     104.5     103.1       13     44.2      0.00      0.00      85.5     0.39      1010.3     2.5     NNE    24   5.2       N     6   9.75    261      547.5
   08/06/2018 13:10     103.3     102.6       13     43.2      0.00      0.00      85.5     0.39      1010.4     1.9     NNW   339   5.1      NE    45   9.75    261      553.2
   08/06/2018 13:00     103.4     101.8       13     41.8      0.00      0.00      85.4     0.39      1010.5     2.3     NNE    27   5.0     NNE    23   9.75    260      556.3
   08/06/2018 12:50     102.7     101.5       12     39.0      0.00      0.00      85.4     0.39      1010.6     2.5       N   353   4.7     NNW   340   9.75    260      556.8
   08/06/2018 12:40     102.4     101.5       12     40.6      0.00      0.00      85.3     0.39      1010.7     2.4      NE    44   4.8     NNE    23   9.75    261      559.3
   08/06/2018 12:30     102.2     100.5       13     40.4      0.00      0.00      85.3     0.39      1010.8     1.7       N     0   4.8     NNE    24   9.76    261      560.3
   08/06/2018 12:20     101.5      99.7       13     40.3      0.00      0.00      85.3     0.39      1010.9     2.3      NE    34   3.8     NNE    22   9.76    261      558.4
   08/06/2018 12:10     100.0      98.1       14     42.3      0.00      0.00      85.3     0.39      1011.0     1.7     NNE    16   3.7     ENE    73   9.76    261      556.3
   08/06/2018 12:00      98.7      97.3       14     40.9      0.00      0.00      85.3     0.39      1011.1     2.1       N     5   4.8      NE    46   9.76    261      552.1
   08/06/2018 11:50      97.8      95.4       16     43.0      0.00      0.00      85.4     0.39      1011.3     1.7       E    95   5.4      SE   137   9.76    261      549.1
   08/06/2018 11:40      95.8      95.0       19     47.2      0.00      0.00      85.4     0.39      1011.4     1.9      NE    36   3.7     NNE    18   9.76    261      542.1
   08/06/2018 11:30      95.2      93.9       19     46.1      0.00      0.00      85.4     0.39      1011.5     1.5     ESE   119   3.6     ENE    67   9.76    261      536.7
   08/06/2018 11:20      93.9      92.4       22     48.9      0.00      0.00      85.4     0.39      1011.5     1.8     NNE    16   4.6      NE    44   9.76    261      527.5
   08/06/2018 11:10      93.3      92.4       22     48.9      0.00      0.00      85.4     0.39      1011.6     1.6     NNE    29   3.6       N     0   9.76    261      519.8
   08/06/2018 11:00      93.3      91.9       23     49.8      0.00      0.00      85.4     0.39      1011.7     1.4      NE    44   4.0     WNW   293   9.76    261      509.0
   08/06/2018 10:50      92.0      89.4       24     49.1      0.00      0.00      85.5     0.39      1011.8     1.0     ENE    62   3.1       N    11   9.76    261      498.0
   08/06/2018 10:40      89.8      88.3       26     50.1      0.00      0.00      85.5     0.39      1011.9     1.6      NE    38   3.3     NNE    12   9.76    261      484.9
   08/06/2018 10:30      88.6      88.0       27     50.4      0.00      0.00      85.6     0.39      1012.0     1.9       E    81   3.8      NE    52   9.76    262      470.9
   08/06/2018 10:20      88.2      86.7       29     51.5      0.00      0.00      85.7     0.39      1012.1     1.7      NE    45   3.8      NE    45   9.76    262      455.4
   08/06/2018 10:10      87.5      85.7       30     52.0      0.00      0.00      85.7     0.39      1012.2     1.5     ENE    64   3.7       E    84   9.76    262      439.6
   08/06/2018 10:00      85.8      84.9       33     53.2      0.00      0.00      85.9     0.39      1012.2     1.8     NNE    28   3.2       N     2   9.76    262      424.5
   08/06/2018 09:50      85.1      83.5       35     53.8      0.00      0.00      85.8     0.39      1012.5     1.4       N     9   2.5       N     3   9.76    262      408.4
   08/06/2018 09:40      83.9      82.1       36     53.6      0.00      0.00      86.0     0.39      1012.5     1.2      NE    49   2.9      NE    48   9.76    263      392.0
   08/06/2018 09:30      82.4      80.6       40     55.0      0.00      0.00      86.1     0.39      1012.5     1.3     NNE    26   2.8     ENE    64   9.76    263      374.3
   08/06/2018 09:20      81.1      80.3       42     55.3      0.00      0.00      86.2     0.39      1012.6     1.7       N     4   3.4     NNE    13   9.76    263      355.1
   08/06/2018 09:10      81.0      78.8       44     55.9      0.00      0.00      86.3     0.39      1012.6     0.8     NNE    31   2.4     NNE    30   9.76    263      336.9
   08/06/2018 09:00      79.0      76.3       47     55.9      0.00      0.00      86.5     0.39      1012.5     1.0      NE    45   2.5       E    92   9.76    264      319.7
   08/06/2018 08:50      76.4      74.3       51     56.0      0.00      0.00      86.6     0.39      1012.5     0.8     NNW   337   2.0      NE    44   9.76    264      306.4
   08/06/2018 08:40      74.6      73.6       54     56.3      0.00      0.00      86.6     0.37      1012.5     0.8     NNW   327   2.7       N     0   9.73    266      211.6
   08/06/2018 08:30      73.8      72.7       56     56.4      0.00      0.00      86.6     0.37      1012.5     1.0      NW   324   2.5      NW   314   8.43    266        5.2
   08/06/2018 08:20      73.1      72.3       57     56.4      0.00      0.00      86.7     0.37      1012.4     1.0     NNW   347   2.8     NNE    18   8.43    266      -37.2
   08/06/2018 08:10      72.4      71.7       58     56.3      0.00      0.00      86.7     0.37      1012.5     0.3       E    99   1.0     SSE   162   8.43    266      -40.2
   08/06/2018 08:00      71.8      70.4       59     56.0      0.00      0.00      86.8     0.37      1012.5     0.6     NNE    33   2.1       N     4   8.44    266        3.2
   08/06/2018 07:50      70.6      68.9       60     55.3      0.00      0.00      86.8     0.37      1012.4     1.0     NNE    30   2.6     NNE    17   8.44    266      -19.6
   08/06/2018 07:40      69.1      67.8       63     55.0      0.00      0.00      86.9     0.37      1012.3     0.4       N    11   2.1       N   351   8.44    266      -38.4
   08/06/2018 07:30      68.0      66.3       65     54.9      0.00      0.00      86.9     0.38      1012.1     0.0      SE   141   0.7      SE   141   8.44    267      -39.3
   08/06/2018 07:20      66.6      65.4       68     55.0      0.00      0.00      86.9     0.37      1012.1     0.0       N     0   0.0      SE   141   8.44    267      -40.1
   08/06/2018 07:10      65.6      64.7       69     54.6      0.00      0.00      87.0     0.38      1012.1     0.0      SE   141   0.6      SE   141   8.44    267      -38.9
   08/06/2018 07:00      65.0      63.7       71     54.9      0.00      0.00      87.1     0.38      1011.9     0.3       W   280   1.7     WNW   282   8.44    267      -44.8
   08/06/2018 06:50      63.9      62.5       75     54.8      0.00      0.00      87.1     0.38      1011.9     0.0     WNW   293   0.4     WNW   293   8.44    267      -48.9
   08/06/2018 06:40      62.6      61.9       75     54.2      0.00      0.00      87.2     0.38      1011.9     0.0      SE   141   0.2      SE   141   8.44    267      -50.2
   08/06/2018 06:30      62.3      61.7       75     54.0      0.00      0.00      87.2     0.38      1011.7     0.2     SSE   160   1.8      SE   141   8.44    267      -55.5
   08/06/2018 06:20      62.3      61.9       75     54.2      0.00      0.00      87.2     0.38      1011.5     0.8     SSE   152   1.7      SE   144   8.44    267      -60.9
   08/06/2018 06:10      62.1      61.6       75     54.0      0.00      0.00      87.3     0.38      1011.4     0.5     SSE   157   1.6       S   185   8.44    267      -63.9
   08/06/2018 06:00      62.6      61.8       75     54.1      0.00      0.00      87.3     0.38      1011.3     0.3      SE   143   1.0      SE   144   8.44    267      -66.3
   08/06/2018 05:50      62.9      62.0       74     54.0      0.00      0.00      87.4     0.38      1011.2     0.3      SE   143   1.3      SE   143   8.44    267      -67.0
   08/06/2018 05:40      63.1      62.5       74     54.3      0.00      0.00      87.4     0.38      1011.1     0.2     SSE   158   1.3      SE   143   8.44    267      -66.8
   08/06/2018 05:30      63.3      62.7       72     53.7      0.00      0.00      87.5     0.38      1011.0     0.5     SSE   155   1.3     SSE   154   8.44    267      -67.1
   08/06/2018 05:20      63.4      62.7       71     53.6      0.00      0.00      87.5     0.38      1011.0     0.4     SSE   156   2.1     SSW   207   8.44    267      -67.3
   08/06/2018 05:10      63.3      62.7       73     54.3      0.00      0.00      87.5     0.38      1010.9     1.0     SSW   204   2.1     SSW   207   8.44    267      -67.4
   08/06/2018 05:00      63.6      62.9       74     54.6      0.00      0.00      87.6     0.38      1010.9     0.6      SE   145   1.3      SE   132   8.44    267      -68.6
   08/06/2018 04:50      63.9      63.1       73     54.5      0.00      0.00      87.6     0.38      1010.8     0.8       S   178   1.6     SSW   191   8.44    267      -68.3
   08/06/2018 04:40      64.2      63.5       72     54.5      0.00      0.00      87.7     0.38      1010.8     0.6       S   176   1.6     SSW   204   8.44    267      -68.8
   08/06/2018 04:30      64.3      63.8       71     54.4      0.00      0.00      87.7     0.38      1010.8     0.7     SSE   159   2.3     SSW   192   8.44    267      -68.7
   08/06/2018 04:20      64.6      63.9       70     54.3      0.00      0.00      87.8     0.38      1010.8     0.4     SSW   199   0.9     SSW   199   8.45    267      -68.0
   08/06/2018 04:10      65.0      64.2       71     55.2      0.00      0.00      87.8     0.38      1010.9     0.2      SE   128   1.4      SE   129   8.45    266      -68.8
   08/06/2018 04:00      65.0      64.6       71     55.2      0.00      0.00      87.8     0.38      1010.9     0.4       S   184   1.3     SSW   204   8.45    267      -68.9
   08/06/2018 03:50      65.2      64.7       71     55.1      0.00      0.00      87.8     0.38      1010.9     0.5       S   169   1.8       S   176   8.45    267      -69.5
   08/06/2018 03:40      65.3      64.8       70     55.0      0.00      0.00      87.9     0.38      1010.9     0.5       S   175   1.1       S   175   8.45    266      -69.5
   08/06/2018 03:30      65.4      64.9       68     54.4      0.00      0.00      87.9     0.38      1010.9     1.2       S   188   2.3     SSW   207   8.45    266      -69.3
   08/06/2018 03:20      65.8      64.8       69     54.9      0.00      0.00      87.9     0.38      1011.0     0.1     SSE   160   1.8     SSW   210   8.45    267      -69.3
   08/06/2018 03:10      66.3      65.4       69     55.1      0.00      0.00      88.0     0.38      1011.0     0.2     SSE   148   1.2     SSE   148   8.45    266      -69.4
   08/06/2018 03:00      66.2      65.8       68     55.3      0.00      0.00      88.0     0.38      1011.0     0.3     SSE   148   1.1     SSE   148   8.45    266      -69.0
   08/06/2018 02:50      66.7      65.8       67     54.9      0.00      0.00      88.0     0.38      1011.0     0.0     SSE   148   0.7     SSE   148   8.45    266      -69.6
   08/06/2018 02:40      67.0      66.3       66     55.2      0.00      0.00      88.1     0.38      1011.0     0.8     SSE   156   1.7      SE   143   8.45    266      -71.3
   08/06/2018 02:30      67.4      66.6       66     55.2      0.00      0.00      88.1     0.38      1011.0     0.8       S   170   1.7      SE   137   8.45    266      -70.8
   08/06/2018 02:20      67.4      66.7       66     55.4      0.00      0.00      88.2     0.38      1011.0     0.3     SSE   161   0.9     SSE   162   8.46    266      -70.8
   08/06/2018 02:10      67.6      66.8       66     55.5      0.00      0.00      88.2     0.38      1011.0     0.8     SSE   158   1.6     SSE   148   8.46    266      -71.0
   08/06/2018 02:00      67.6      67.2       66     55.6      0.00      0.00      88.2     0.38      1011.0     0.7     SSE   165   1.4     SSE   161   8.46    266      -71.5
   08/06/2018 01:50      67.9      67.3       64     55.1      0.00      0.00      88.2     0.38      1011.0     1.2       S   170   2.1       S   189   8.46    266      -72.2
   08/06/2018 01:40      67.8      67.3       65     55.4      0.00      0.00      88.2     0.38      1011.0     0.4       S   174   1.5       S   186   8.46    266      -72.7
   08/06/2018 01:30      68.5      67.6       63     55.1      0.00      0.00      88.3     0.38      1011.0     0.4     SSE   151   1.1     SSE   150   8.46    266      -73.2
   08/06/2018 01:20      69.0      68.3       63     55.4      0.00      0.00      88.3     0.38      1011.0     0.1     SSE   150   0.6     SSE   150   8.46    266      -73.1
   08/06/2018 01:10      69.2      68.7       63     56.0      0.00      0.00      88.3     0.38      1011.0     0.5     SSE   165   1.3       S   180   8.46    266      -73.5
   08/06/2018 01:00      69.5      68.6       64     56.0      0.00      0.00      88.4     0.38      1011.0     0.5       S   172   1.3       S   181   8.46    266      -74.6
   08/06/2018 00:50      69.7      69.0       63     56.4      0.00      0.00      88.4     0.38      1011.1     0.5     SSE   158   1.6      SE   143   8.47    266      -75.0
   08/06/2018 00:40      70.0      69.2       63     56.5      0.00      0.00      88.4     0.38      1011.1     1.0      SE   144   1.5      SE   141   8.47    266      -74.6
   08/06/2018 00:30      70.1      69.6       62     56.4      0.00      0.00      88.4     0.38      1011.0     0.5     SSE   158   1.3     SSE   148   8.47    266      -74.5
   08/06/2018 00:20      71.1      69.7       61     56.0      0.00      0.00      88.5     0.38      1011.1     0.5     SSE   159   1.3     SSE   146   8.47    265      -75.2
   08/06/2018 00:10      70.8      69.9       60     56.0      0.00      0.00      88.5     0.38      1011.2     1.3     SSE   149   2.5      SE   145   8.47    265      -75.6
   08/06/2018 00:00      70.9      70.4       60     55.9      0.00      0.00      88.5     0.38      1011.1     0.7     SSE   152   1.5      SE   142   8.47    265      -75.1
   08/05/2018 23:50      71.4      70.6       58     55.3      0.00      0.00      88.5     0.38      1011.1     0.4     SSE   154   1.4      SE   141   8.47    265      -75.9
   08/05/2018 23:40      72.5      71.2       56     55.4      0.00      0.00      88.5     0.38      1011.2     0.4     SSE   167   1.3       S   179   8.47    264      -76.4
   08/05/2018 23:30      72.5      72.0       55     55.3      0.00      0.00      88.5     0.38      1011.2     0.9       S   184   1.7     SSW   201   8.48    264      -75.2
   08/05/2018 23:20      72.7      72.2       55     55.1      0.00      0.00      88.5     0.38      1011.2     0.5       S   182   1.1       S   182   8.48    264      -76.8
   08/05/2018 23:10      73.4      72.5       53     55.1      0.00      0.00      88.5     0.38      1011.1     0.3       S   182   1.2       S   182   8.48    264      -77.9
   08/05/2018 23:00      74.0      73.1       52     54.6      0.00      0.00      88.5     0.38      1011.1     0.4       S   185   1.6       S   182   8.48    264      -78.6
   08/05/2018 22:50      74.6      73.7       50     54.4      0.00      0.00      88.6     0.38      1011.1     0.7     SSW   201   1.7     SSW   201   8.48    264      -78.7
   08/05/2018 22:40      75.0      74.2       49     54.3      0.00      0.00      88.5     0.38      1011.0     0.4       S   171   1.4       S   186   8.48    263      -79.6
   08/05/2018 22:30      75.6      74.7       48     54.2      0.00      0.00      88.5     0.38      1011.0     0.2      SE   145   1.1      SE   145   8.49    264      -80.5
   08/05/2018 22:20      76.6      75.3       46     53.6      0.00      0.00      88.6     0.38      1011.1     0.0      SE   140   1.3      SE   145   8.49    263      -81.6
   08/05/2018 22:10      77.5      76.4       45     53.6      0.00      0.00      88.5     0.38      1011.0     0.0       N     0   0.0       E    98   8.49    263      -83.3
   08/05/2018 22:00      78.2      77.2       44     53.8      0.00      0.00      88.6     0.38      1011.0     0.3       E    82   1.7       E    79   8.49    263      -84.3
   08/05/2018 21:50      78.6      77.8       43     53.9      0.00      0.00      88.5     0.38      1010.9     0.5     ENE    63   1.5       E    88   8.49    263      -84.9
   08/05/2018 21:40      78.7      78.2       42     53.5      0.00      0.00      88.5     0.38      1010.8     1.7     ESE   109   4.4      SE   137   8.49    263      -84.6
   08/05/2018 21:30      79.5      78.5       41     53.1      0.00      0.00      88.5     0.38      1010.7     2.0       E    96   4.9      SE   130   8.50    263      -83.8
   08/05/2018 21:20      79.7      79.2       40     53.3      0.00      0.00      88.5     0.38      1010.7     1.4       E    99   3.9     ENE    72   8.50    263      -83.7
   08/05/2018 21:10      80.1      79.5       40     53.5      0.00      0.00      88.5     0.38      1010.6     1.6     ESE   117   3.0     ENE    77   8.50    263      -84.4
   08/05/2018 21:00      80.7      79.8       40     53.7      0.00      0.00      88.5     0.38      1010.7     1.4     ESE   116   2.2     ESE   104   8.50    263      -85.1
   08/05/2018 20:50      81.3      80.4       39     53.8      0.00      0.00      88.4     0.38      1010.6     1.1     ESE   117   2.8       E    79   8.51    263      -86.0
   08/05/2018 20:40      81.8      81.1       39     54.0      0.00      0.00      88.4     0.38      1010.5     1.5     ESE   112   2.7      SE   129   8.51    263      -86.6
   08/05/2018 20:30      82.8      81.6       39     54.5      0.00      0.00      88.4     0.38      1010.5     0.8     ESE   110   1.7     ESE   120   8.51    263      -87.0
   08/05/2018 20:20      83.8      82.4       38     54.9      0.00      0.00      88.5     0.38      1010.5     0.6     ESE   110   2.1     ESE   123   8.52    263      -88.6
   08/05/2018 20:10      84.9      83.6       37     54.9      0.00      0.00      88.4     0.38      1010.5     0.9     ENE    77   2.8      NE    53   8.52    263      -90.1
   08/05/2018 20:00      86.1      84.6       36     55.3      0.00      0.00      88.3     0.38      1010.4     1.5      NE    54   3.7     ENE    62   8.52    263      -89.6
   08/05/2018 19:50      87.4      85.9       35     55.6      0.00      0.00      88.3     0.38      1010.3     1.3      NE    37   3.3     NNW   343   8.53    262      -87.6
   08/05/2018 19:40      89.0      87.0       34     55.7      0.00      0.00      88.3     0.38      1010.3     1.3     NNE    33   2.8      NE    44   8.53    262      -85.3
   08/05/2018 19:30      92.1      88.7       29     53.7      0.00      0.00      88.2     0.38      1010.2     1.6      NE    40   3.3     ENE    69   8.53    262      -83.4
   08/05/2018 19:20      92.3      91.8       24     50.3      0.00      0.00      88.2     0.38      1010.1     1.1     WNW   289   2.7       W   264   8.54    261      -65.6
   08/05/2018 19:10      92.7      92.0       24     49.8      0.00      0.00      88.2     0.38      1009.9     3.3     WSW   252   6.1     WSW   246   8.54    261      -49.3
   08/05/2018 19:00      93.1      92.1       23     49.1      0.00      0.00      88.1     0.38      1009.9     4.5     WSW   241   6.5      SW   235   8.54    261      -30.3
   08/05/2018 18:50      93.3      92.5       22     48.2      0.00      0.00      88.1     0.38      1009.8     4.5     WSW   249   7.3     WSW   248   8.55    261       -8.7
   08/05/2018 18:40      93.8      92.8       20     45.8      0.00      0.00      88.0     0.38      1009.9     5.6     WSW   238   9.6      SW   223   8.56    261       13.9
   08/05/2018 18:30      94.4      93.3       18     44.1      0.00      0.00      88.0     0.38      1009.9     6.0      SW   234  10.1       W   259   8.57    261       37.0
   08/05/2018 18:20      95.2      94.0       16     42.1      0.00      0.00      88.0     0.38      1009.9     6.4      SW   233  10.3     WSW   242   8.58    261       61.5
   08/05/2018 18:10      95.5      94.8       15     39.7      0.00      0.00      88.0     0.38      1009.8     5.1      SW   225   8.2      SW   227   8.58    261       84.2
   08/05/2018 18:00      96.1      94.9       14     38.2      0.00      0.00      87.9     0.38      1009.8     5.9     WSW   237  11.5     SSW   202   8.59    261      109.7
   08/05/2018 17:50      96.3      95.2       16     42.4      0.00      0.00      87.8     0.38      1009.8     6.3     WSW   237   9.8     WSW   240   8.60    261      137.8
   08/05/2018 17:40      96.5      95.5       16     41.8      0.00      0.00      87.8     0.38      1009.8     7.3      SW   221   9.9       S   188   8.61    261      163.9
   08/05/2018 17:30      97.2      96.2       14     39.5      0.00      0.00      87.7     0.38      1009.8     6.0      SW   225  10.2     WSW   251   8.62    261      187.8
   08/05/2018 17:20      97.6      96.5       13     38.3      0.00      0.00      87.7     0.38      1009.8     6.2      SW   228  11.5       W   269   8.62    261      213.8
   08/05/2018 17:10      98.0      97.2       12     37.5      0.00      0.00      87.6     0.38      1009.8     5.9      SW   229   9.5     WSW   251   8.63    261      238.1
   08/05/2018 17:00      98.6      97.7       12     37.0      0.00      0.00      87.5     0.38      1009.8     5.9      SW   223  10.0     WSW   238   8.64    261      260.2
   08/05/2018 16:50      99.3      98.2       13     38.8      0.00      0.00      87.5     0.38      1009.9     4.5     WSW   237   8.3     SSW   208   8.64    261      280.5
   08/05/2018 16:40     100.0      98.7       12     37.4      0.00      0.00      87.4     0.38      1009.9     3.8     WSW   241   7.9     WSW   245   8.65    261      301.4
   08/05/2018 16:30      98.8      97.3       20     48.8      0.00      0.00      87.3     0.38      1009.9     3.5     WNW   303   8.4     WNW   300   8.66    261      329.2
   08/05/2018 16:20      99.3      98.3       22     53.7      0.00      0.00      87.3     0.38      1009.9     2.7     NNW   329   7.1     NNW   334   8.66    262      348.2
   08/05/2018 16:10      99.4      98.2       23     54.3      0.00      0.00      87.3     0.38      1009.9     2.8     NNE    28   6.2     NNW   338   8.67    262      367.2
   08/05/2018 16:00      99.0      98.2       23     54.4      0.00      0.00      87.1     0.37      1009.9     4.6     NNE    22   8.9     NNW   345   8.67    262      387.1
   08/05/2018 15:50      98.5      96.8       23     53.2      0.00      0.00      87.1     0.37      1010.1     2.7     SSE   159   6.2     SSE   165   8.68    262      412.4
   08/05/2018 15:40      98.1      96.2       23     53.8      0.00      0.00      87.0     0.37      1010.1     3.5     SSE   164   6.7       S   178   8.68    262      429.3
   08/05/2018 15:30      97.8      96.3       24     54.2      0.00      0.00      87.0     0.37      1010.2     3.8     SSE   147   7.0     SSE   165   8.69    262      444.2
   08/05/2018 15:20      97.1      96.0       25     54.4      0.00      0.00      86.9     0.37      1010.3     4.3       S   169   8.3     SSW   206   8.69    262      462.0
   08/05/2018 15:10      97.6      96.3       24     54.8      0.00      0.00      86.8     0.37      1010.3     4.6       S   176   7.8      SW   223   8.70    262      474.6
   08/05/2018 15:00      97.4      96.4       25     54.7      0.00      0.00      86.7     0.37      1010.4     4.5       S   186   8.6     SSE   162   8.70    262      487.1
   08/05/2018 14:50      98.2      96.7       24     55.1      0.00      0.00      86.7     0.37      1010.5     4.3       S   174   8.9     SSW   193   8.71    262      497.5
   08/05/2018 14:40      97.7      96.5       24     54.6      0.00      0.00      86.6     0.37      1010.5     3.0     SSE   166   7.6       S   177   8.71    262      508.5
   08/05/2018 14:30      98.9      96.3       24     54.7      0.00      0.00      86.6     0.37      1010.7     3.2     SSE   160   8.3     SSW   194   8.72    262      518.1
   08/05/2018 14:20      97.7      96.5       24     54.5      0.00      0.00      86.5     0.37      1010.7     3.1     ESE   120   7.4     ESE   120   8.72    261      531.5
   08/05/2018 14:10      97.8      96.7       24     54.8      0.00      0.00      86.4     0.37      1010.8     3.8       E    91   7.1       E    80   8.72    261      542.9
   08/05/2018 14:00      97.3      95.1       25     55.0      0.00      0.00      86.4     0.37      1010.9     3.5       E    81   6.9     ENE    69   8.73    261      551.7
   08/05/2018 13:50      95.1      94.4       27     55.4      0.00      0.00      86.3     0.37      1011.0     4.1     ENE    73   8.7      NE    53   8.73    262      560.3
   08/05/2018 13:40      95.5      93.8       28     56.0      0.00      0.00      86.3     0.37      1011.0     5.7      SE   144  10.2      SE   141   8.73    262      568.6
   08/05/2018 13:30      95.7      94.9       28     56.9      0.00      0.00      86.3     0.37      1011.1     5.3     SSE   154  11.6      SE   143   8.74    262      571.3
   08/05/2018 13:20      95.5      94.5       29     58.2      0.00      0.00      86.2     0.37      1011.1     4.4     ESE   122   7.3       E    85   8.74    262      574.7
   08/05/2018 13:10      96.5      95.0       30     59.0      0.00      0.00      86.1     0.37      1011.1     4.3     ESE   102   9.3       E    85   8.75    262      574.3
   08/05/2018 13:00      97.1      96.1       29     59.5      0.00      0.00      86.1     0.37      1011.1     3.7     ENE    76   6.6     ENE    57   8.75    262      571.6
   08/05/2018 12:50      97.2      95.5       28     58.4      0.00      0.00      86.1     0.37      1011.1     2.8     ENE    57   5.9     ENE    67   8.75    262      569.2
   08/05/2018 12:40      96.8      95.6       26     55.4      0.00      0.00      86.1     0.37      1011.1     3.3       E    95   5.8     SSE   148   8.76    262      570.9
   08/05/2018 12:30      97.7      96.1       24     53.5      0.00      0.00      86.1     0.37      1011.2     3.1      NE    43   5.6      NE    38   8.76    262      564.9
   08/05/2018 12:20      97.2      95.8       22     51.7      0.00      0.00      86.1     0.37      1011.2     2.7     NNE    20   5.2     NNE    17   8.76    261      560.2
   08/05/2018 12:10      97.5      95.3       23     51.9      0.00      0.00      86.1     0.37      1011.3     2.3       E    85   7.2      NE    40   8.76    261      559.2
   08/05/2018 12:00      95.4      94.3       23     51.8      0.00      0.00      86.1     0.37      1011.5     1.8     NNW   347   4.0     NNE    21   8.76    261      553.3
   08/05/2018 11:50      94.8      93.6       25     52.7      0.00      0.00      86.0     0.37      1011.6     2.2     ENE    75   5.0     ENE    66   8.76    261      548.2
   08/05/2018 11:40      94.5      92.9       26     53.3      0.00      0.00      86.0     0.37      1011.7     2.7       N     9   5.3     NNE    17   8.76    262      540.0
   08/05/2018 11:30      94.0      91.8       27     54.1      0.00      0.00      86.1     0.37      1011.8     1.5     NNW   342   4.4     NNW   333   8.76    262      533.5
   08/05/2018 11:20      92.4      91.1       29     54.6      0.00      0.00      86.1     0.37      1011.9     1.9      NE    46   3.8       N   350   8.76    262      525.5
   08/05/2018 11:10      91.6      90.7       30     55.3      0.00      0.00      86.1     0.37      1011.9     1.9     NNE    16   4.5      NE    54   8.76    262      515.2
   08/05/2018 11:00      91.5      89.6       31     55.6      0.00      0.00      86.1     0.37      1011.9     0.9     NNE    24   3.3     ESE   118   8.76    262      505.3
   08/05/2018 10:50      89.6      88.0       33     56.0      0.00      0.00      86.2     0.38      1012.0     1.6     NNW   333   3.5     NNE    31   8.76    262      491.6
   08/05/2018 10:40      88.4      87.1       35     56.7      0.00      0.00      86.2     0.38      1012.0     1.6       N     6   3.5     NNE    15   8.76    263      478.7
   08/05/2018 10:30      87.4      85.0       37     56.8      0.00      0.00      86.2     0.38      1012.2     1.8       N   353   3.9     WNW   303   8.76    263      464.7
   08/05/2018 10:20      85.5      84.8       38     56.8      0.00      0.00      86.3     0.38      1012.2     1.9      NE    48   3.6      SE   128   8.76    263      448.6
   08/05/2018 10:10      85.0      82.6       41     57.5      0.00      0.00      86.3     0.38      1012.2     1.1     NNE    24   2.8      NE    35   8.76    263      432.4
   08/05/2018 10:00      82.9      81.8       43     57.7      0.00      0.00      86.3     0.38      1012.2     1.9       N     1   3.6      NW   317   8.76    263      414.7
   08/05/2018 09:50      82.1      81.1       45     58.4      0.00      0.00      86.4     0.38      1012.4     1.6       N    11   3.5      NE    37   8.76    263      395.4
   08/05/2018 09:40      81.1      80.2       47     58.7      0.00      0.00      86.4     0.38      1012.5     1.6     NNE    25   3.1       N     0   8.76    263      376.8
   08/05/2018 09:30      80.4      78.8       50     59.5      0.00      0.00      86.5     0.38      1012.5     1.6     NNE    19   3.5     ENE    74   8.76    263      359.8
   08/05/2018 09:20      79.1      77.7       53     59.9      0.00      0.00      86.6     0.38      1012.6     1.7      NW   315   3.1      NW   320   8.76    263      338.8
   08/05/2018 09:10      77.9      77.1       55     59.8      0.00      0.00      86.6     0.38      1012.6     1.5       N     7   4.0      NE    38   8.76    264      321.9
   08/05/2018 09:00      77.2      74.7       59     60.4      0.00      0.00      86.6     0.38      1012.7     1.1      NE    50   2.8     SSE   157   8.76    264      306.0
   08/05/2018 08:50      74.9      73.7       63     60.6      0.00      0.00      86.7     0.38      1012.6     1.5     NNE    32   3.1      NE    45   8.76    265      300.9
   08/05/2018 08:40      74.1      73.3       63     60.3      0.00      0.00      86.7     0.38      1012.7     1.7     ENE    65   3.8     ESE   105   8.76    266      252.4
   08/05/2018 08:30      73.5      72.5       63     59.6      0.00      0.00      86.8     0.38      1012.7     1.5      NE    52   3.1     ENE    74   8.76    266       31.6
   08/05/2018 08:20      72.7      72.0       64     59.4      0.00      0.00      86.8     0.38      1012.6     2.1     NNE    32   3.9      NE    35   8.76    266      -25.3
   08/05/2018 08:10      72.3      71.6       64     59.3      0.00      0.00      86.9     0.38      1012.6     0.9     NNE    32   2.3      NE    49   8.76    266      -28.2
   08/05/2018 08:00      71.7      70.4       64     58.4      0.00      0.00      86.9     0.38      1012.5     1.0      NE    34   2.2      NE    56   8.76    266       -0.7
   08/05/2018 07:50      70.6      69.4       63     56.9      0.00      0.00      87.0     0.38      1012.5     0.4     ENE    79   1.4      NE    44   8.76    266      -17.7
   08/05/2018 07:40      69.6      68.3       63     55.7      0.00      0.00      87.0     0.38      1012.4     0.2     ESE   120   1.2       E    97   8.76    266      -30.1
   08/05/2018 07:30      68.5      67.2       65     55.7      0.00      0.00      87.0     0.38      1012.2     0.0       S   171   0.6       S   171   8.76    266      -33.1
   08/05/2018 07:20      67.3      65.8       69     56.0      0.00      0.00      87.1     0.38      1012.0     0.0       S   171   0.4       S   171   8.76    266      -33.7
   08/05/2018 07:10      66.0      64.9       70     55.5      0.00      0.00      87.1     0.38      1012.0     0.0       N     0   0.0       S   171   8.76    267      -33.3
   08/05/2018 07:00      65.1      64.2       72     55.3      0.00      0.00      87.2     0.38      1011.9     0.0       N     0   0.0       S   171   8.76    267      -39.5
   08/05/2018 06:50      64.3      63.6       72     54.8      0.00      0.00      87.2     0.38      1011.9     0.0       N     0   0.0       S   171   8.76    267      -43.7
   08/05/2018 06:40      63.8      63.2       73     54.6      0.00      0.00      87.2     0.38      1011.9     0.1       S   171   0.9       S   171   8.76    267      -46.3
   08/05/2018 06:30      63.6      62.9       73     54.2      0.00      0.00      87.3     0.38      1011.8     0.0       S   171   0.9       S   171   8.77    267      -51.8
   08/05/2018 06:20      63.7      63.3       73     54.8      0.00      0.00      87.3     0.38      1011.7     0.4       S   171   1.1       S   171   8.77    267      -56.7
   08/05/2018 06:10      63.7      63.2       74     55.0      0.00      0.00      87.3     0.38      1011.7     0.2       S   171   0.9       S   171   8.77    267      -59.6
   08/05/2018 06:00      63.7      63.2       74     54.9      0.00      0.00      87.4     0.38      1011.6     0.4     SSE   167   1.4     SSE   160   8.77    267      -62.0
   08/05/2018 05:50      63.9      63.4       74     55.0      0.00      0.00      87.5     0.38      1011.6     0.4     SSE   165   1.7      SE   137   8.77    267      -62.4
   08/05/2018 05:40      64.2      63.5       73     55.0      0.00      0.00      87.5     0.38      1011.6     0.3     SSE   159   1.2     SSE   155   8.77    267      -62.6
   08/05/2018 05:30      64.2      63.8       73     55.1      0.00      0.00      87.5     0.38      1011.6     0.3     SSE   156   0.9     SSE   155   8.77    267      -62.8
   08/05/2018 05:20      64.4      63.8       73     55.1      0.00      0.00      87.5     0.38      1011.5     0.5       S   171   1.3       S   176   8.77    267      -63.4
   08/05/2018 05:10      64.7      64.1       72     55.2      0.00      0.00      87.6     0.38      1011.5     0.5     SSE   164   1.0     SSE   166   8.77    267      -63.5
   08/05/2018 05:00      64.7      64.3       72     55.2      0.00      0.00      87.6     0.38      1011.5     0.3     SSE   157   1.1     SSE   150   8.77    267      -63.0
   08/05/2018 04:50      65.2      64.3       70     54.8      0.00      0.00      87.7     0.38      1011.5     0.5     SSE   155   1.4      SE   146   8.77    267      -63.8
   08/05/2018 04:40      65.3      64.8       70     54.9      0.00      0.00      87.7     0.38      1011.5     0.5     SSE   156   1.5     SSE   148   8.77    266      -63.3
   08/05/2018 04:30      65.6      65.0       70     55.3      0.00      0.00      87.8     0.38      1011.4     0.5     SSE   164   1.1     SSE   164   8.77    266      -63.5
   08/05/2018 04:20      65.7      65.2       70     55.4      0.00      0.00      87.7     0.38      1011.4     0.6     SSE   164   1.1     SSE   164   8.77    266      -64.2
   08/05/2018 04:10      65.7      65.2       68     54.7      0.00      0.00      87.9     0.38      1011.4     0.6       S   185   1.6       S   187   8.77    266      -64.7
   08/05/2018 04:00      65.9      65.3       69     54.9      0.00      0.00      87.9     0.38      1011.3     0.3       S   186   2.1       S   172   8.77    266      -65.2
   08/05/2018 03:50      66.2      65.6       68     54.9      0.00      0.00      87.9     0.38      1011.3     0.8     SSE   167   1.6     SSE   149   8.77    266      -65.2
   08/05/2018 03:40      66.2      65.8       68     55.2      0.00      0.00      87.9     0.38      1011.3     0.4       S   170   0.9       S   170   8.78    266      -65.7
   08/05/2018 03:30      66.4      65.8       67     54.9      0.00      0.00      88.0     0.38      1011.2     0.2       S   170   0.8       S   170   8.78    266      -65.8
   08/05/2018 03:20      66.8      66.0       67     54.9      0.00      0.00      88.0     0.38      1011.1     0.4     SSE   165   1.1       S   171   8.77    266      -66.4
   08/05/2018 03:10      67.1      66.4       66     55.0      0.00      0.00      88.1     0.38      1011.0     0.6     SSE   152   1.7      SE   142   8.77    266      -66.7
   08/05/2018 03:00      67.3      66.8       67     55.7      0.00      0.00      88.1     0.38      1011.0     0.3     SSE   157   1.1     SSE   157   8.78    266      -66.8
   08/05/2018 02:50      67.3      66.8       67     55.8      0.00      0.00      88.1     0.38      1011.0     0.1       S   172   0.7     SSE   162   8.78    266      -67.7
   08/05/2018 02:40      67.4      66.9       66     55.3      0.00      0.00      88.2     0.39      1011.0     0.6     SSE   156   1.6      SE   136   8.78    266      -68.8
   08/05/2018 02:30      67.6      67.1       65     55.3      0.00      0.00      88.2     0.39      1011.0     0.7     SSE   162   1.3      SE   144   8.78    266      -68.9
   08/05/2018 02:20      68.4      67.3       64     55.2      0.00      0.00      88.2     0.39      1011.0     0.6     SSE   161   1.5       S   177   8.78    266      -69.8
   08/05/2018 02:10      68.6      67.9       62     55.0      0.00      0.00      88.2     0.39      1011.0     0.3     SSE   160   0.9     SSE   160   8.78    266      -69.5
   08/05/2018 02:00      68.5      68.1       62     54.6      0.00      0.00      88.3     0.39      1011.0     0.3       S   178   1.0       S   178   8.78    266      -69.5
   08/05/2018 01:50      68.4      68.1       61     54.4      0.00      0.00      88.3     0.39      1011.0     0.2       S   178   0.7       S   178   8.78    266      -69.7
   08/05/2018 01:40      68.7      68.1       61     54.2      0.00      0.00      88.3     0.39      1011.0     0.3     SSE   163   0.9       S   178   8.79    265      -70.3
   08/05/2018 01:30      68.9      68.5       60     54.2      0.00      0.00      88.4     0.39      1011.0     0.4     SSE   148   1.3     SSE   148   8.79    265      -69.9
   08/05/2018 01:20      70.0      68.6       58     53.7      0.00      0.00      88.4     0.39      1011.0     0.2     SSE   148   0.8     SSE   148   8.79    265      -71.0
   08/05/2018 01:10      70.0      69.6       57     54.1      0.00      0.00      88.4     0.39      1011.0     0.3     SSE   163   0.9       S   176   8.79    265      -70.5
   08/05/2018 01:00      70.0      69.6       57     54.0      0.00      0.00      88.4     0.39      1011.0     0.0       S   176   0.7       S   176   8.79    265      -71.0
   08/05/2018 00:50      70.6      69.5       56     53.5      0.00      0.00      88.5     0.39      1011.1     0.3       S   171   1.1       S   176   8.79    265      -71.7
   08/05/2018 00:40      70.6      70.2       56     54.1      0.00      0.00      88.5     0.39      1011.1     0.7     SSE   160   1.1     SSE   160   8.79    265      -71.5
   08/05/2018 00:30      70.8      70.3       56     54.0      0.00      0.00      88.5     0.39      1011.1     0.7     SSE   158   1.3      SE   139   8.79    264      -72.4
   08/05/2018 00:20      71.1      70.5       55     53.6      0.00      0.00      88.5     0.39      1011.1     0.7     SSE   165   1.7       S   187   8.80    264      -72.8
   08/05/2018 00:10      71.7      70.9       53     53.2      0.00      0.00      88.5     0.39      1011.1     0.8     SSE   152   2.1       S   184   8.80    264      -73.2
   08/05/2018 00:00      71.9      71.3       52     53.1      0.00      0.00      88.6     0.39      1011.1     0.9       S   190   1.8       S   183   8.80    264      -73.1
   08/04/2018 23:50      72.2      71.5       51     52.8      0.00      0.00      88.6     0.39      1011.1     0.8       S   170   1.7     SSW   193   8.80    264      -73.8
   08/04/2018 23:40      73.1      71.9       51     53.3      0.00      0.00      88.6     0.39      1011.1     0.3     SSE   169   1.0     SSE   148   8.81    264      -74.5
   08/04/2018 23:30      73.2      72.8       49     53.0      0.00      0.00      88.6     0.39      1011.0     1.0       S   186   1.6       S   179   8.81    264      -74.5
   08/04/2018 23:20      73.3      72.8       49     52.8      0.00      0.00      88.6     0.39      1011.0     0.9       S   187   1.7       S   190   8.81    264      -74.9
   08/04/2018 23:10      73.9      73.0       49     52.9      0.00      0.00      88.6     0.39      1010.9     0.6       S   188   1.7     SSW   208   8.81    263      -75.1
   08/04/2018 23:00      74.7      73.7       48     53.3      0.00      0.00      88.6     0.39      1010.9     0.4       S   175   1.1       S   175   8.81    263      -75.9
   08/04/2018 22:50      75.6      74.3       47     53.1      0.00      0.00      88.6     0.39      1010.9     0.1       S   174   0.5       S   173   8.81    263      -76.4
   08/04/2018 22:40      76.1      75.2       46     53.3      0.00      0.00      88.6     0.39      1010.9     0.2      SE   131   1.1      SE   146   8.82    263      -78.1
   08/04/2018 22:30      76.2      75.6       45     53.0      0.00      0.00      88.7     0.39      1010.9     0.5      SE   133   1.3     ESE   121   8.82    263      -78.8
   08/04/2018 22:20      76.7      75.7       44     52.5      0.00      0.00      88.7     0.39      1010.9     0.6      SE   143   1.5      SE   137   8.82    263      -78.6
   08/04/2018 22:10      77.3      76.3       42     52.3      0.00      0.00      88.5     0.39      1010.8     0.2     SSE   167   1.8       S   186   8.82    263      -78.7
   08/04/2018 22:00      78.0      76.8       41     52.1      0.00      0.00      88.7     0.39      1010.8     0.3      SE   144   1.6     SSE   148   8.83    263      -79.6
   08/04/2018 21:50      78.9      77.8       40     52.0      0.00      0.00      88.6     0.39      1010.7     0.5      SE   140   1.8     SSE   147   8.83    263      -80.9
   08/04/2018 21:40      79.5      78.6       39     51.9      0.00      0.00      88.6     0.39      1010.6     0.8      SE   125   2.0      SE   142   8.83    263      -81.9
   08/04/2018 21:30      80.2      79.3       38     51.5      0.00      0.00      88.5     0.39      1010.6     0.8       E    94   2.3     ENE    75   8.83    263      -82.4
   08/04/2018 21:20      81.1      80.0       36     51.2      0.00      0.00      88.6     0.39      1010.4     0.4     ESE   106   1.4      NE    45   8.83    263      -83.1
   08/04/2018 21:10      81.8      80.8       34     50.5      0.00      0.00      88.6     0.39      1010.3     0.6       E    99   2.7     ENE    66   8.84    263      -83.4
   08/04/2018 21:00      82.4      81.5       33     50.3      0.00      0.00      88.6     0.39      1010.2     0.0     SSW   212   0.7     WSW   243   8.84    263      -83.6
   08/04/2018 20:50      83.6      82.1       32     50.0      0.00      0.00      88.6     0.39      1010.1     0.6       S   179   1.8      NE    46   8.84    262      -83.5
   08/04/2018 20:40      84.9      83.3       30     49.6      0.00      0.00      88.5     0.39      1010.0     0.4     ESE   111   2.1      NE    53   8.84    263      -83.3
   08/04/2018 20:30      85.7      84.8       29     49.5      0.00      0.00      88.5     0.39      1010.0     1.1     SSW   203   2.1     WSW   247   8.85    262      -84.6
   08/04/2018 20:20      86.6      85.5       28     49.0      0.00      0.00      88.5     0.39      1009.9     1.3      SW   230   3.0      SW   219   8.85    262      -87.3
   08/04/2018 20:10      87.4      86.3       26     48.0      0.00      0.00      88.4     0.39      1009.8     1.9      SW   226   4.4      SW   233   8.85    262      -88.7
   08/04/2018 20:00      88.0      87.1       26     47.9      0.00      0.00      88.5     0.39      1009.7     3.1     WSW   237   5.1     WSW   252   8.86    262      -88.0
   08/04/2018 19:50      88.9      87.7       25     48.4      0.00      0.00      88.4     0.39      1009.7     3.6     WSW   240   5.9      SW   221   8.86    262      -84.9
   08/04/2018 19:40      89.6      88.6       25     48.5      0.00      0.00      88.4     0.39      1009.6     3.3      SW   227   5.9      SW   235   8.87    262      -81.4
   08/04/2018 19:30      90.6      89.3       24     48.8      0.00      0.00      88.4     0.39      1009.6     3.0      SW   224   6.3     SSW   207   8.87    262      -76.3
   08/04/2018 19:20      91.6      90.2       24     49.3      0.00      0.00      88.3     0.39      1009.6     3.4      SW   236   6.6      SW   236   8.88    262      -62.2
   08/04/2018 19:10      91.8      91.3       24     49.6      0.00      0.00      88.3     0.39      1009.6     2.7     WSW   246   5.3     WSW   257   8.88    262      -48.5
   08/04/2018 19:00      92.7      91.4       25     51.6      0.00      0.00      88.3     0.39      1009.4     3.3       W   268   6.5      NW   305   8.89    262      -32.3
   08/04/2018 18:50      92.8      92.1       26     52.9      0.00      0.00      88.2     0.39      1009.4     2.2     WNW   293   5.3     NNE    17   8.89    262      -12.7
   08/04/2018 18:40      93.5      92.4       26     53.1      0.00      0.00      88.2     0.39      1009.4     2.7      NW   308   6.9      NW   305   8.90    262        7.6
   08/04/2018 18:30      93.6      92.9       27     53.9      0.00      0.00      88.2     0.39      1009.4     2.4      NW   304   5.8     WNW   287   8.90    262       29.2
   08/04/2018 18:20      94.1      93.3       27     54.3      0.00      0.00      88.2     0.39      1009.4     3.0      NW   319   5.9      NW   305   8.91    262       50.9
   08/04/2018 18:10      94.1      93.2       27     54.3      0.00      0.00      88.1     0.39      1009.4     3.6      NW   312   7.4      NW   315   8.91    262       75.0
   08/04/2018 18:00      95.2      93.8       26     54.0      0.00      0.00      88.1     0.38      1009.5     3.7      NW   312   7.4     NNW   346   8.92    262       98.3
   08/04/2018 17:50      95.7      94.7       26     54.8      0.00      0.00      88.0     0.38      1009.5     3.5      NW   310   6.4     NNW   344   8.92    262      123.1
   08/04/2018 17:40      96.5      95.3       26     55.4      0.00      0.00      88.0     0.38      1009.5     3.6      NW   305   7.4      NW   318   8.93    262      147.0
   08/04/2018 17:30      97.1      96.1       26     56.1      0.00      0.00      87.9     0.38      1009.5     3.2      NW   310   6.0     WNW   290   8.93    262      169.4
   08/04/2018 17:20      98.2      96.6       26     56.9      0.00      0.00      87.9     0.38      1009.4     2.4      NW   317   6.7       W   262   8.94    261      191.9
   08/04/2018 17:10      98.8      96.1       26     56.8      0.00      0.00      87.8     0.38      1009.4     3.1      NW   320   6.5      NW   319   8.94    262      214.2
   08/04/2018 17:00      99.0      98.4       23     54.0      0.00      0.00      87.7     0.38      1009.4     2.1      NW   323   6.9      NW   326   8.95    261      234.9
   08/04/2018 16:50      98.4      96.9       19     48.9      0.00      0.00      87.7     0.38      1009.5     1.9     NNE    21   4.2     NNE    24   8.95    261      258.9
   08/04/2018 16:40      98.0      97.1       19     48.7      0.00      0.00      87.7     0.38      1009.6     2.6      NE    54   5.6     ENE    65   8.95    261      284.3
   08/04/2018 16:30      98.4      97.6       19     48.7      0.00      0.00      87.5     0.38      1009.7     2.5     ENE    76   6.3      NE    50   8.96    261      307.4
   08/04/2018 16:20      98.8      97.2       19     48.3      0.00      0.00      87.6     0.38      1009.8     2.8      NE    46   4.5      NE    46   8.96    261      326.2
   08/04/2018 16:10      98.4      97.0       19     48.3      0.00      0.00      87.5     0.38      1009.9     3.1      NE    47   6.0     ENE    71   8.97    261      346.2
   08/04/2018 16:00      98.4      96.8       19     48.1      0.00      0.00      87.4     0.38      1009.9     3.4      NE    56   6.2      NE    40   8.97    261      366.7
   08/04/2018 15:50      98.9      96.8       19     48.3      0.00      0.00      87.4     0.38      1010.1     2.8      NE    40   4.8       E    98   8.97    261      385.3
   08/04/2018 15:40      97.9      96.7       19     48.3      0.00      0.00      87.3     0.38      1010.2     2.9     ENE    58   4.9     ENE    60   8.98    261      403.1
   08/04/2018 15:30      96.9      95.7       19     47.5      0.00      0.00      87.2     0.38      1010.3     3.2      NE    52   6.1      NE    37   8.98    261      420.2
   08/04/2018 15:20      96.7      95.7       19     47.4      0.00      0.00      87.2     0.38      1010.3     4.0      NE    52   8.9      SE   134   8.98    262      437.8
   08/04/2018 15:10      96.8      95.4       20     48.5      0.00      0.00      87.1     0.38      1010.4     3.5      NE    51   7.2      NE    52   8.99    261      451.4
   08/04/2018 15:00      96.4      94.2       21     49.2      0.00      0.00      87.1     0.38      1010.7     3.2     ENE    71   6.7      NE    50   8.99    262      466.1
   08/04/2018 14:50      94.8      93.5       23     50.6      0.00      0.00      87.0     0.38      1010.8     2.8      SE   139   6.0      SE   129   9.00    262      482.1
   08/04/2018 14:40      94.4      93.9       22     50.0      0.00      0.00      87.0     0.38      1011.0     3.4     ESE   121   6.9      SE   132   9.00    261      493.2
   08/04/2018 14:30      94.2      93.2       24     51.1      0.00      0.00      86.9     0.38      1011.0     3.6     SSE   152   6.8     SSE   149   9.01    261      506.1
   08/04/2018 14:20      93.7      92.6       24     50.8      0.00      0.00      86.8     0.38      1011.1     4.0     ESE   115   7.3     SSE   167   9.01    261      515.1
   08/04/2018 14:10      93.8      92.4       23     50.4      0.00      0.00      86.8     0.38      1011.2     4.3     ESE   122   7.3      SE   135   9.01    261      525.4
   08/04/2018 14:00      93.5      92.8       22     49.1      0.00      0.00      86.8     0.38      1011.3     5.3      SE   129  11.0      SE   128   9.02    261      538.3
   08/04/2018 13:50      95.5      93.1       22     49.7      0.00      0.00      86.7     0.38      1011.3     4.5       E    96   8.7     ENE    62   9.02    261      545.2
   08/04/2018 13:40      96.8      95.2       22     50.7      0.00      0.00      86.7     0.38      1011.3     3.3     ENE    68   7.3     ENE    65   9.02    261      546.1
   08/04/2018 13:30      96.2      95.3       23     51.7      0.00      0.00      86.7     0.38      1011.4     3.2     ENE    70   7.0     ESE   119   9.03    261      552.0
   08/04/2018 13:20      95.8      94.3       24     52.1      0.00      0.00      86.6     0.38      1011.5     3.1      NE    47   6.7     NNE    28   9.03    261      556.6
   08/04/2018 13:10      94.7      93.9       23     50.7      0.00      0.00      86.6     0.38      1011.6     3.0     ENE    65   6.7     ENE    60   9.03    261      562.5
   08/04/2018 13:00      95.1      94.3       22     49.4      0.00      0.00      86.5     0.38      1011.7     3.4      NE    39   7.8       N     0   9.04    261      562.9
   08/04/2018 12:50      94.8      93.5       23     50.4      0.00      0.00      86.6     0.38      1011.8     2.1     ENE    74   6.6     ENE    57   9.04    261      561.4
   08/04/2018 12:40      93.7      92.9       24     51.0      0.00      0.00      86.5     0.38      1011.9     2.9     NNE    29   5.8      NE    42   9.04    261      563.8
   08/04/2018 12:30      93.2      91.8       25     51.9      0.00      0.00      86.5     0.38      1011.9     3.0     ENE    67   5.9     SSE   162   9.04    262      564.4
   08/04/2018 12:20      92.9      92.0       26     52.2      0.00      0.00      86.4     0.38      1012.0     2.2     NNE    32   5.6       N   353   9.04    262      552.5
   08/04/2018 12:10      93.1      91.7       27     53.2      0.00      0.00      86.5     0.38      1012.1     2.2      NE    41   5.5      NE    37   9.04    262      545.2
   08/04/2018 12:00      92.3      90.9       26     51.6      0.00      0.00      86.5     0.38      1012.2     2.2      NE    53   5.0      SE   129   9.05    262      538.7
   08/04/2018 11:50      91.3      90.4       28     53.0      0.00      0.00      86.5     0.38      1012.3     2.7     ENE    60   5.4     ESE   108   9.05    262      526.7
   08/04/2018 11:40      90.4      89.0       31     55.2      0.00      0.00      86.5     0.38      1012.4     2.8     ENE    69   5.9      NE    39   9.05    263      507.3
   08/04/2018 11:30      89.1      88.3       37     59.0      0.00      0.00      86.5     0.38      1012.5     2.6      NE    41   6.0      NE    46   9.05    263      510.0
   08/04/2018 11:20      88.5      87.2       39     59.5      0.00      0.00      86.5     0.38      1012.5     2.4     ENE    60   6.6      NE    51   9.05    263      511.7
   08/04/2018 11:10      87.7      86.8       40     59.9      0.00      0.00      86.5     0.38      1012.6     2.4      NE    47   5.3     ENE    61   9.05    262      503.5
   08/04/2018 11:00      86.8      85.2       42     59.8      0.00      0.00      86.6     0.38      1012.7     2.5      NE    56   5.1     NNE    20   9.05    263      503.1
   08/04/2018 10:50      85.7      84.4       43     59.8      0.00      0.00      86.6     0.38      1012.7     2.6      NE    37   5.9      NE    48   9.05    263      492.5
   08/04/2018 10:40      84.5      83.6       44     59.7      0.00      0.00      86.6     0.38      1012.7     2.9      NE    54   5.7     ENE    58   9.05    263      478.9
   08/04/2018 10:30      83.9      82.3       44     59.0      0.00      0.00      86.7     0.38      1012.8     2.5     NNE    16   4.7      NE    41   9.05    263      466.7
   08/04/2018 10:20      82.5      81.5       45     58.6      0.00      0.00      86.7     0.38      1012.9     2.4      NE    52   4.3     ENE    59   9.05    263      444.7
   08/04/2018 10:10      82.3      80.8       45     58.3      0.00      0.00      86.8     0.38      1013.0     2.3      NE    56   5.6     ENE    60   9.05    263      416.3
   08/04/2018 10:00      81.5      80.5       45     57.8      0.00      0.00      86.8     0.38      1013.1     2.1     NNE    33   4.4     NNE    32   9.05    263      401.9
   08/04/2018 09:50      80.8      79.4       46     57.5      0.00      0.00      86.8     0.39      1013.1     1.9      NE    46   4.2     ESE   101   9.05    263      390.2
   08/04/2018 09:40      79.6      78.3       49     58.1      0.00      0.00      86.9     0.39      1013.2     1.7       N     8   3.3       N     0   9.05    263      374.6
   08/04/2018 09:30      78.4      77.4       52     59.0      0.00      0.00      86.9     0.39      1013.4     2.1       N     6   5.3       N     4   9.05    263      354.2
   08/04/2018 09:20      78.3      77.1       54     59.8      0.00      0.00      87.0     0.39      1013.4     1.5     NNE    33   3.7     ENE    57   9.05    263      340.0
   08/04/2018 09:10      77.3      75.5       57     59.9      0.00      0.00      87.0     0.39      1013.5     1.3     NNE    29   3.3     ENE    61   9.05    264      329.3
   08/04/2018 09:00      75.7      73.8       59     59.7      0.00      0.00      87.1     0.39      1013.6     1.6       N   357   3.8       N     2   9.05    264      314.5
   08/04/2018 08:50      73.9      73.0       62     59.4      0.00      0.00      87.1     0.39      1013.7     1.5     NNE    27   2.8     NNE    26   9.05    265      308.7
   08/04/2018 08:40      73.3      72.6       62     59.0      0.00      0.00      87.2     0.39      1013.7     1.2      NE    53   3.3      NE    44   9.05    266      185.8
   08/04/2018 08:30      72.8      72.2       62     58.6      0.00      0.00      87.2     0.39      1013.6     1.3       E    88   3.2     ENE    66   9.05    266       18.4
   08/04/2018 08:20      72.4      71.5       62     58.2      0.00      0.00      87.3     0.39      1013.5     1.7     ESE   104   3.7       E    87   9.05    266      -28.4
   08/04/2018 08:10      71.7      71.2       62     57.6      0.00      0.00      87.3     0.39      1013.5     1.1     ENE    77   2.8       E    98   9.05    266      -30.3
   08/04/2018 08:00      71.4      70.2       62     57.2      0.00      0.00      87.3     0.39      1013.6     0.8     ENE    66   2.4     ESE   102   9.05    265      -13.8
   08/04/2018 07:50      70.4      69.9       62     56.8      0.00      0.00      87.4     0.39      1013.5     1.3       E    81   3.2       E    83   9.05    266      -27.2
   08/04/2018 07:40      70.4      69.1       62     56.2      0.00      0.00      87.5     0.39      1013.6     0.9       E    87   2.2       E    85   9.05    266      -36.3
   08/04/2018 07:30      69.4      68.3       63     55.8      0.00      0.00      87.5     0.39      1013.5     1.0      NE    54   2.7     ENE    65   9.05    266      -38.3
   08/04/2018 07:20      68.4      67.0       64     55.3      0.00      0.00      87.6     0.39      1013.4     0.4      NE    49   1.8     ENE    66   9.05    266      -38.8
   08/04/2018 07:10      67.2      66.0       65     54.2      0.00      0.00      87.6     0.39      1013.3     0.0     ESE   120   0.5      SE   134   9.05    266      -39.4
   08/04/2018 07:00      66.1      65.0       65     53.5      0.00      0.00      87.7     0.39      1013.2     0.2      SE   126   1.1      SE   134   9.05    266      -44.1
   08/04/2018 06:50      65.2      64.0       68     53.6      0.00      0.00      87.7     0.39      1013.1     0.0      NE    40   0.6      NE    38   9.05    266      -47.2
   08/04/2018 06:40      64.1      63.7       68     53.1      0.00      0.00      87.7     0.39      1013.0     0.0     SSE   167   0.8     SSE   167   9.05    266      -48.8
   08/04/2018 06:30      64.0      63.6       67     52.8      0.00      0.00      87.8     0.39      1013.0     0.0     SSE   167   0.4     SSE   167   9.05    266      -53.8
   08/04/2018 06:20      63.9      63.4       68     53.0      0.00      0.00      87.8     0.39      1012.8     0.0     SSE   167   0.5     SSE   167   9.05    266      -57.9
   08/04/2018 06:10      64.0      63.4       68     53.0      0.00      0.00      87.9     0.39      1012.6     0.3       S   170   0.7     SSE   167   9.06    266      -61.8
   08/04/2018 06:00      64.1      63.5       68     53.0      0.00      0.00      87.9     0.39      1012.5     0.3       S   180   0.9       S   180   9.06    266      -63.2
   08/04/2018 05:50      64.2      63.7       68     53.0      0.00      0.00      88.0     0.39      1012.4     0.6     SSE   150   1.3     SSE   149   9.06    266      -64.6
   08/04/2018 05:40      64.6      63.9       67     53.0      0.00      0.00      88.0     0.39      1012.4     0.6     SSE   163   1.1     SSE   161   9.06    266      -64.3
   08/04/2018 05:30      65.0      64.2       66     52.8      0.00      0.00      88.0     0.39      1012.4     0.4     SSE   167   0.9       S   172   9.06    266      -64.2
   08/04/2018 05:20      65.2      64.7       65     53.0      0.00      0.00      88.1     0.39      1012.4     0.3       S   180   0.8       S   180   9.06    266      -64.0
   08/04/2018 05:10      65.5      64.7       65     53.2      0.00      0.00      88.1     0.39      1012.3     0.3       S   180   0.9       S   180   9.06    266      -64.1
   08/04/2018 05:00      65.5      64.8       67     53.7      0.00      0.00      88.2     0.39      1012.2     0.2       S   180   0.8       S   180   9.06    266      -64.0
   08/04/2018 04:50      65.4      64.8       67     53.7      0.00      0.00      88.2     0.39      1012.2     0.4       S   177   1.1       S   181   9.06    266      -64.5
   08/04/2018 04:40      66.2      65.2       66     53.8      0.00      0.00      88.2     0.39      1012.2     0.5     SSE   156   1.3     SSE   164   9.06    266      -65.4
   08/04/2018 04:30      66.0      65.6       66     54.2      0.00      0.00      88.3     0.39      1012.2     0.5     SSE   165   1.1     SSE   164   9.06    266      -65.2
   08/04/2018 04:20      66.4      65.7       65     54.1      0.00      0.00      88.3     0.39      1012.2     0.6     SSE   165   1.2     SSE   158   9.07    266      -66.0
   08/04/2018 04:10      66.7      66.2       64     53.9      0.00      0.00      88.4     0.39      1012.1     0.7     SSE   154   1.4     SSE   150   9.07    266      -66.1
   08/04/2018 04:00      66.7      66.3       64     53.8      0.00      0.00      88.4     0.39      1012.0     0.5     SSE   165   1.0     SSE   160   9.07    266      -66.3
   08/04/2018 03:50      66.7      66.2       64     53.9      0.00      0.00      88.4     0.39      1012.0     0.6       S   175   1.3     SSE   167   9.07    266      -66.1
   08/04/2018 03:40      66.7      66.1       64     53.9      0.00      0.00      88.5     0.39      1011.9     0.5     SSE   166   1.4       S   171   9.07    266      -66.5
   08/04/2018 03:30      67.0      66.3       63     53.5      0.00      0.00      88.5     0.39      1011.9     0.6     SSE   156   1.4     SSE   156   9.07    266      -66.5
   08/04/2018 03:20      67.0      66.5       63     53.7      0.00      0.00      88.5     0.39      1012.0     0.0       N     0   0.0      SE   125   9.07    266      -66.8
   08/04/2018 03:10      67.1      66.5       63     53.7      0.00      0.00      88.6     0.39      1011.9     0.0      SE   125   0.3      SE   125   9.07    266      -68.2
   08/04/2018 03:00      67.9      67.0       60     53.2      0.00      0.00      88.6     0.39      1011.9     0.3     SSE   151   1.1      SE   142   9.07    266      -68.6
   08/04/2018 02:50      67.9      67.4       61     53.7      0.00      0.00      88.7     0.39      1011.9     0.0     SSE   158   1.0     SSE   158   9.07    266      -68.1
   08/04/2018 02:40      68.4      67.4       61     53.6      0.00      0.00      88.7     0.39      1011.9     0.7       S   170   1.3       S   179   9.07    266      -69.2
   08/04/2018 02:30      69.1      68.1       59     53.8      0.00      0.00      88.7     0.39      1011.9     0.6     SSE   159   0.9       S   170   9.08    266      -69.6
   08/04/2018 02:20      69.0      68.4       59     53.9      0.00      0.00      88.8     0.39      1011.9     1.0     SSE   156   1.8      SE   141   9.08    265      -70.3
   08/04/2018 02:10      68.8      68.5       59     53.9      0.00      0.00      88.8     0.39      1011.8     0.9     SSE   158   1.7      SE   146   9.08    265      -70.5
   08/04/2018 02:00      68.9      68.5       59     53.9      0.00      0.00      88.8     0.39      1011.8     1.3     SSE   146   1.9      SE   144   9.08    265      -70.5
   08/04/2018 01:50      69.6      68.6       58     53.7      0.00      0.00      88.9     0.39      1011.8     0.7     SSE   161   2.2     SSE   148   9.08    265      -71.1
   08/04/2018 01:40      69.8      69.2       56     53.3      0.00      0.00      88.9     0.39      1011.8     1.1     SSE   166   2.3       S   186   9.08    265      -71.2
   08/04/2018 01:30      70.1      69.2       56     53.3      0.00      0.00      88.9     0.39      1011.8     0.5       S   179   1.9     SSW   212   9.08    265      -72.5
   08/04/2018 01:20      70.5      69.8       56     53.7      0.00      0.00      88.9     0.39      1011.7     0.3      SE   126   0.8      SE   124   9.09    264      -73.8
   08/04/2018 01:10      70.6      70.1       55     53.4      0.00      0.00      89.0     0.39      1011.7     0.2     SSE   164   1.3       S   179   9.09    265      -72.4
   08/04/2018 01:00      71.3      70.2       54     53.4      0.00      0.00      89.0     0.39      1011.8     0.4     SSE   155   1.1     SSE   155   9.09    264      -73.0
   08/04/2018 00:50      71.4      71.0       53     52.9      0.00      0.00      89.0     0.39      1011.8     0.5     SSE   161   1.4       S   173   9.09    264      -72.2
   08/04/2018 00:40      71.8      71.1       54     53.7      0.00      0.00      89.1     0.39      1011.8     0.2       S   176   1.2       S   180   9.09    264      -72.7
   08/04/2018 00:30      72.2      71.5       53     53.8      0.00      0.00      89.1     0.39      1011.8     0.7     SSE   162   1.4       S   183   9.09    264      -73.5
   08/04/2018 00:20      72.7      71.8       52     53.8      0.00      0.00      89.1     0.39      1011.8     0.6       S   170   1.2       S   171   9.10    264      -73.2
   08/04/2018 00:10      72.9      72.2       51     53.5      0.00      0.00      89.1     0.39      1011.9     0.4     SSE   168   0.9     SSE   168   9.10    264      -72.4
   08/04/2018 00:00      73.1      72.6       50     53.2      0.00      0.00      89.1     0.39      1011.9     0.5     SSE   165   1.1       S   170   9.10    264      -72.8
   08/03/2018 23:50      74.1      72.9       49     52.9      0.00      0.00      89.1     0.39      1011.8     0.6     SSE   166   1.0       S   174   9.10    263      -73.3
   08/03/2018 23:40      74.4      73.5       47     52.6      0.00      0.00      89.2     0.39      1011.8     0.3       S   188   0.9     SSW   196   9.10    263      -72.5
   08/03/2018 23:30      74.7      74.0       46     52.5      0.00      0.00      89.1     0.39      1011.8     0.0     SSW   196   0.4     SSW   196   9.10    264      -73.7
   08/03/2018 23:20      75.1      74.4       46     52.4      0.00      0.00      89.2     0.39      1011.9     0.3       S   180   1.5       S   191   9.11    263      -73.8
   08/03/2018 23:10      75.7      74.8       45     52.5      0.00      0.00      89.2     0.39      1011.9     0.3     SSE   161   0.9     SSE   160   9.11    263      -74.1
   08/03/2018 23:00      76.3      75.4       44     52.6      0.00      0.00      89.2     0.39      1011.9     0.3       S   180   1.1     SSW   205   9.11    263      -75.2
   08/03/2018 22:50      76.7      76.0       44     53.0      0.00      0.00      89.2     0.39      1012.0     0.5      SE   133   1.7      SE   136   9.11    263      -76.7
   08/03/2018 22:40      77.0      76.3       44     53.1      0.00      0.00      89.2     0.40      1012.0     0.1     SSE   166   0.8       S   183   9.11    263      -76.9
   08/03/2018 22:30      77.7      76.8       43     53.0      0.00      0.00      89.2     0.39      1012.0     0.0       N     0   0.0       S   183   9.12    263      -76.2
   08/03/2018 22:20      77.7      77.3       43     53.0      0.00      0.00      89.2     0.40      1012.0     0.2       S   183   0.9       S   183   9.12    263      -75.3
   08/03/2018 22:10      78.3      77.3       42     52.5      0.00      0.00      89.2     0.39      1012.0     0.0       N     0   0.0       S   183   9.12    263      -75.7
   08/03/2018 22:00      79.1      78.0       40     52.1      0.00      0.00      89.2     0.39      1012.0     0.0       S   183   0.4       S   183   9.12    263      -76.3
   08/03/2018 21:50      79.8      78.9       39     52.2      0.00      0.00      89.2     0.39      1011.9     0.0       S   183   0.3       S   183   9.12    263      -77.6
   08/03/2018 21:40      81.3      79.5       38     52.4      0.00      0.00      89.2     0.40      1011.9     0.4      SE   142   1.1      SE   132   9.12    263      -80.2
   08/03/2018 21:30      81.8      81.1       37     52.4      0.00      0.00      89.2     0.39      1011.8     0.1     ENE    76   1.0     ENE    58   9.13    263      -81.6
   08/03/2018 21:20      82.4      81.6       36     52.7      0.00      0.00      89.2     0.39      1011.7     0.4      SE   128   2.7       S   178   9.13    263      -82.7
   08/03/2018 21:10      83.0      82.2       36     53.2      0.00      0.00      89.2     0.39      1011.7     0.7     SSW   194   2.6     SSW   206   9.13    263      -83.6
   08/03/2018 21:00      83.7      82.6       35     52.6      0.00      0.00      89.2     0.39      1011.6     0.8       S   179   2.3       S   180   9.13    263      -84.4
   08/03/2018 20:50      84.2      83.4       34     52.4      0.00      0.00      89.1     0.40      1011.6     2.2      SW   234   5.3     WSW   242   9.14    263      -86.0
   08/03/2018 20:40      84.9      83.9       35     53.4      0.00      0.00      89.2     0.39      1011.5     3.1     WSW   236   5.8       W   264   9.14    263      -87.0
   08/03/2018 20:30      85.8      84.5       34     53.7      0.00      0.00      89.1     0.39      1011.4     2.0      SW   225   5.3      SW   223   9.14    262      -87.9
   08/03/2018 20:20      86.9      85.5       32     53.1      0.00      0.00      89.1     0.39      1011.3     3.2      SW   226   6.0      SW   223   9.15    262      -88.8
   08/03/2018 20:10      87.9      86.7       28     49.8      0.00      0.00      89.1     0.39      1011.3     2.3      SW   233   3.9     WSW   240   9.15    262      -89.3
   08/03/2018 20:00      88.3      87.5       27     49.7      0.00      0.00      89.0     0.39      1011.1     2.4     WNW   290   5.4       W   278   9.16    262      -88.3
   08/03/2018 19:50      88.9      88.0       27     50.3      0.00      0.00      89.0     0.39      1011.1     2.0     WNW   283   5.3       W   268   9.16    262      -85.3
   08/03/2018 19:40      89.4      88.6       27     50.8      0.00      0.00      89.0     0.39      1011.1     1.9       W   281   5.0       W   266   9.17    262      -82.1
   08/03/2018 19:30      90.2      89.1       27     51.4      0.00      0.00      89.0     0.39      1011.1     2.1      NW   306   5.7       W   280   9.17    262      -76.2
   08/03/2018 19:20      91.0      89.9       27     51.6      0.00      0.00      89.0     0.39      1011.1     2.5      NW   319   4.9      NW   317   9.18    262      -58.7
   08/03/2018 19:10      91.4      90.5       26     51.2      0.00      0.00      88.9     0.39      1011.1     3.0      NW   312   6.1      NW   305   9.18    262      -41.6
   08/03/2018 19:00      92.3      91.0       25     50.7      0.00      0.00      88.9     0.39      1011.1     3.5     NNW   327   5.6     NNW   327   9.19    262      -22.7
   08/03/2018 18:50      93.2      92.0       25     51.4      0.00      0.00      88.8     0.39      1011.0     3.3     NNW   332   6.5     NNE    13   9.19    262       -1.5
   08/03/2018 18:40      94.0      92.9       25     52.0      0.00      0.00      88.7     0.39      1010.9     3.2      NW   321   5.8     WNW   297   9.19    262       22.1
   08/03/2018 18:30      95.0      93.9       25     52.9      0.00      0.00      88.7     0.39      1010.9     3.4     WNW   284   7.2      NW   321   9.20    262       46.0
   08/03/2018 18:20      95.1      94.3       25     53.7      0.00      0.00      88.7     0.39      1010.8     2.9       W   280   8.1     WNW   285   9.20    262       70.6
   08/03/2018 18:10      95.2      94.3       25     53.4      0.00      0.00      88.7     0.39      1010.9     4.6       W   267   7.3     WSW   249   9.21    262       95.7
   08/03/2018 18:00      96.2      94.7       25     53.9      0.00      0.00      88.6     0.39      1010.9     4.9       W   264   8.2       W   263   9.22    262      120.6
   08/03/2018 17:50      96.8      95.9       24     53.9      0.00      0.00      88.6     0.39      1010.9     3.4       W   274   7.5      NW   316   9.22    262      144.1
   08/03/2018 17:40      96.4      95.9       24     53.1      0.00      0.00      88.5     0.39      1011.0     4.1       W   265   7.9     WSW   253   9.23    262      170.1
   08/03/2018 17:30      96.5      95.2       24     53.1      0.00      0.00      88.5     0.39      1011.0     3.5      SW   221  10.4       S   184   9.23    262      193.6
   08/03/2018 17:20      95.9      94.9       24     53.0      0.00      0.00      88.4     0.39      1011.0     3.4     SSE   167   7.0       S   177   9.24    262      219.8
   08/03/2018 17:10      95.3      94.9       24     52.5      0.00      0.00      88.4     0.39      1011.1     4.0       S   178   7.6     SSW   204   9.24    262      246.1
   08/03/2018 17:00      96.3      94.9       23     52.0      0.00      0.00      88.3     0.39      1011.1     4.1       S   182   7.4       S   178   9.25    262      270.5
   08/03/2018 16:50      96.2      94.9       23     51.6      0.00      0.00      88.2     0.39      1011.1     3.2     SSE   161   6.7      SE   125   9.25    262      293.1
   08/03/2018 16:40      95.5      94.6       23     51.4      0.00      0.00      88.2     0.39      1011.2     4.6     SSE   149   7.7      SE   134   9.26    262      317.5
   08/03/2018 16:30      96.2      94.9       23     51.5      0.00      0.00      88.1     0.39      1011.3     4.7     SSE   153   9.2       S   189   9.27    262      338.4
   08/03/2018 16:20      96.0      94.9       23     51.6      0.00      0.00      88.1     0.39      1011.3     4.6       S   183   7.8       S   182   9.27    262      360.2
   08/03/2018 16:10      96.0      95.2       22     50.9      0.00      0.00      88.0     0.39      1011.5     5.2       S   178   9.4       S   172   9.28    261      380.0
   08/03/2018 16:00      95.7      94.9       23     51.7      0.00      0.00      87.9     0.39      1011.5     5.8       S   189   8.9       S   182   9.28    262      399.2
   08/03/2018 15:50      96.5      95.3       23     51.6      0.00      0.00      87.9     0.39      1011.5     5.7     SSW   200   7.8     SSW   193   9.29    262      418.0
   08/03/2018 15:40      96.4      95.2       23     52.1      0.00      0.00      87.8     0.39      1011.6     5.1     SSW   196   9.4       S   180   9.30    262      431.9
   08/03/2018 15:30      95.9      95.1       24     53.5      0.00      0.00      87.7     0.39      1011.7     5.0       S   182   8.1      SW   214   9.31    262      449.2
   08/03/2018 15:20      96.8      95.5       25     54.3      0.00      0.00      87.6     0.39      1011.7     5.6       S   175   9.4       S   185   9.31    262      464.5
   08/03/2018 15:10      97.1      95.6       25     54.7      0.00      0.00      87.6     0.39      1011.8     5.4       S   187   9.6       S   175   9.32    262      478.6
   08/03/2018 15:00      98.3      96.7       25     55.1      0.00      0.00      87.5     0.39      1011.8     5.2     SSE   167  11.2     SSW   200   9.33    262      487.7
   08/03/2018 14:50      98.7      97.0       24     55.3      0.00      0.00      87.5     0.39      1011.9     3.9       S   184   7.4       S   181   9.33    262      499.2
   08/03/2018 14:40      98.7      96.6       24     55.4      0.00      0.00      87.4     0.39      1012.0     3.3       S   176   7.5       S   189   9.34    262      508.4
   08/03/2018 14:30      96.9      96.1       25     55.0      0.00      0.00      87.3     0.39      1012.0     3.6     SSE   161   8.3       S   185   9.34    262      522.1
   08/03/2018 14:20      98.2      96.6       24     54.9      0.00      0.00      87.2     0.39      1012.1     3.3     SSE   158   8.0       S   179   9.35    262      529.7
   08/03/2018 14:10      98.1      96.3       24     54.1      0.00      0.00      87.2     0.39      1012.1     2.4       E    84   5.7     ESE   112   9.35    262      536.8
   08/03/2018 14:00      96.4      95.4       25     54.0      0.00      0.00      87.1     0.39      1012.3     2.7     ESE   118   7.5      SE   124   9.35    262      546.7
   08/03/2018 13:50      96.0      94.8       24     53.3      0.00      0.00      87.2     0.39      1012.4     3.4     ESE   102   8.6      SE   136   9.36    261      555.3
   08/03/2018 13:40      96.2      95.1       25     53.7      0.00      0.00      87.0     0.39      1012.5     3.5     SSE   149   6.4      SE   139   9.36    262      560.4
   08/03/2018 13:30      96.2      94.4       25     53.4      0.00      0.00      87.0     0.39      1012.6     3.9      SE   140   9.5     SSW   210   9.36    261      566.4
   08/03/2018 13:20      95.5      94.6       25     53.2      0.00      0.00      87.0     0.39      1012.7     3.9      SE   145   9.1      SE   127   9.37    261      571.2
   08/03/2018 13:10      97.9      95.4       24     53.5      0.00      0.00      86.9     0.39      1012.7     3.8     SSE   157   7.9     SSW   205   9.37    261      569.9
   08/03/2018 13:00      97.7      95.1       25     54.8      0.00      0.00      86.9     0.39      1012.8     2.5      NE    49   5.8     ENE    76   9.37    261      568.4
   08/03/2018 12:50      96.2      94.5       26     54.7      0.00      0.00      86.9     0.39      1013.0     3.0      NE    47   5.7     NNE    13   9.38    261      570.1
   08/03/2018 12:40      96.1      95.1       26     54.9      0.00      0.00      86.8     0.39      1013.0     3.4      NE    47   9.9      NE    47   9.38    262      568.0
   08/03/2018 12:30      95.4      94.6       26     54.4      0.00      0.00      86.8     0.39      1013.1     2.5      NE    53   6.3     ENE    60   9.38    262      566.3
   08/03/2018 12:20      95.3      94.0       26     54.5      0.00      0.00      86.8     0.39      1013.2     2.6       E    84   7.2       E    85   9.38    261      563.6
   08/03/2018 12:10      95.0      93.8       27     54.9      0.00      0.00      86.8     0.39      1013.3     2.4      NE    41   5.1     ENE    64   9.38    262      559.0
   08/03/2018 12:00      94.3      93.0       27     54.7      0.00      0.00      86.8     0.39      1013.3     2.0     ENE    67   6.2      NE    53   9.39    262      554.6
   08/03/2018 11:50      93.6      92.1       29     55.8      0.00      0.00      86.8     0.39      1013.3     2.2     ENE    77   5.5     ESE   115   9.39    262      550.3
   08/03/2018 11:40      92.3      91.5       33     58.3      0.00      0.00      86.8     0.39      1013.4     2.6     NNE    33   5.8      NE    45   9.39    262      541.6
   08/03/2018 11:30      92.0      90.8       33     58.1      0.00      0.00      86.8     0.39      1013.5     3.9       N     6   7.8       N     2   9.39    262      531.7
   08/03/2018 11:20      92.0      90.7       33     58.4      0.00      0.00      86.8     0.39      1013.5     2.2     NNE    30   4.9      NE    36   9.39    262      523.5
   08/03/2018 11:10      91.7      89.8       34     58.4      0.00      0.00      86.8     0.39      1013.6     2.3     NNE    32   6.1     ENE    71   9.39    262      512.8
   08/03/2018 11:00      90.9      89.0       35     58.3      0.00      0.00      86.9     0.39      1013.7     1.7       N   360   5.8       E    87   9.39    262      502.9
   08/03/2018 10:50      89.6      87.7       36     58.4      0.00      0.00      86.9     0.39      1013.7     1.9     ENE    57   4.1     ENE    60   9.39    263      490.9
   08/03/2018 10:40      88.0      87.1       38     58.6      0.00      0.00      86.9     0.39      1013.8     2.5     NNE    22   4.6      NE    55   9.39    263      475.7
   08/03/2018 10:30      87.6      85.5       39     58.5      0.00      0.00      86.9     0.39      1013.8     2.2      NE    52   4.4     ENE    67   9.39    263      461.7
   08/03/2018 10:20      85.7      85.0       40     58.2      0.00      0.00      87.0     0.39      1013.8     3.1      NE    44   5.3      NE    50   9.39    263      445.8
   08/03/2018 10:10      85.5      84.5       40     58.0      0.00      0.00      87.0     0.39      1013.8     2.7     NNE    28   5.2     NNE    17   9.39    263      428.1
   08/03/2018 10:00      84.9      83.9       41     58.1      0.00      0.00      87.1     0.39      1013.9     2.3     NNE    33   4.2     NNE    12   9.39    263      411.0
   08/03/2018 09:50      84.7      83.8       42     58.6      0.00      0.00      87.2     0.39      1014.0     1.4       N     9   3.5      NE    39   9.39    263      391.7
   08/03/2018 09:40      84.0      82.0       44     58.8      0.00      0.00      87.2     0.39      1014.0     1.0     NNE    15   3.4     NNW   347   9.39    263      374.4
   08/03/2018 09:30      82.1      81.3       46     58.8      0.00      0.00      87.2     0.39      1014.1     1.7     ENE    63   4.5     ESE   102   9.39    263      355.8
   08/03/2018 09:20      81.5      79.8       48     59.1      0.00      0.00      87.2     0.40      1014.1     1.4     NNE    28   3.8      NE    43   9.39    263      337.5
   08/03/2018 09:10      80.1      78.6       49     58.9      0.00      0.00      87.3     0.40      1014.2     1.7     NNE    15   3.7      NW   320   9.39    263      321.1
   08/03/2018 09:00      78.8      76.8       54     59.4      0.00      0.00      87.4     0.40      1014.2     1.3     NNE    14   3.4     NNE    23   9.39    264      306.6
   08/03/2018 08:50      77.1      76.3       56     59.8      0.00      0.00      87.3     0.40      1014.2     1.5     NNE    13   3.0       N     6   9.39    265      294.8
   08/03/2018 08:40      76.5      75.6       57     59.8      0.00      0.00      87.3     0.40      1014.3     1.1       E    92   3.5      NE    54   9.39    266       65.2
   08/03/2018 08:30      75.7      74.8       59     59.7      0.00      0.00      87.4     0.40      1014.3     0.6      NE    34   1.8       N   349   9.39    266       -8.3
   08/03/2018 08:20      75.0      74.1       60     59.8      0.00      0.00      87.5     0.40      1014.2     0.8      NE    36   2.3       N   354   9.39    266      -16.3
   08/03/2018 08:10      74.3      73.5       62     59.7      0.00      0.00      87.6     0.40      1014.3     0.9       N     3   1.9      SE   131   9.39    266      -18.9
   08/03/2018 08:00      73.8      73.2       62     59.7      0.00      0.00      87.5     0.40      1014.3     1.4       N   358   2.5       N     0   9.39    266       -8.5
   08/03/2018 07:50      73.3      72.6       63     59.5      0.00      0.00      87.6     0.40      1014.3     0.7      NE    34   2.0      NE    47   9.39    266      -17.4
   08/03/2018 07:40      72.8      72.0       64     59.5      0.00      0.00      87.7     0.40      1014.3     0.6       E    84   1.7      NE    49   9.39    266      -22.4
   08/03/2018 07:30      72.2      71.3       65     59.4      0.00      0.00      87.6     0.40      1014.2     0.4     SSE   153   1.4     SSE   162   9.39    266      -24.8
   08/03/2018 07:20      71.5      70.6       66     59.4      0.00      0.00      87.7     0.40      1014.1     0.4      SE   144   1.3      SE   140   9.39    266      -26.2
   08/03/2018 07:10      70.8      69.6       68     59.0      0.00      0.00      87.7     0.40      1014.0     0.0       N     0   0.0      SE   134   9.39    267      -27.7
   08/03/2018 07:00      69.7      68.5       69     58.8      0.00      0.00      87.8     0.40      1013.9     0.0       N     0   0.0      SE   135   9.39    266      -31.7
   08/03/2018 06:50      68.7      67.7       71     58.4      0.00      0.00      87.8     0.40      1013.9     0.2      SE   134   1.0      SE   134   9.39    267      -35.9
   08/03/2018 06:40      67.9      67.4       72     58.3      0.00      0.00      87.9     0.40      1013.8     0.3     SSE   153   1.2     SSE   151   9.39    267      -38.6
   08/03/2018 06:30      68.1      67.3       71     57.9      0.00      0.00      87.9     0.40      1013.7     0.6     SSE   146   1.6     SSE   149   9.39    267      -44.1
   08/03/2018 06:20      68.1      67.6       71     58.1      0.00      0.00      88.0     0.40      1013.7     0.3     SSE   158   0.9     SSE   158   9.40    267      -48.0
   08/03/2018 06:10      67.9      67.5       70     57.6      0.00      0.00      88.0     0.40      1013.5     0.9       S   188   1.9       S   190   9.40    267      -51.2
   08/03/2018 06:00      67.8      67.3       70     57.4      0.00      0.00      88.0     0.40      1013.5     0.6       S   191   1.2       S   188   9.40    266      -52.8
   08/03/2018 05:50      68.1      67.4       71     58.1      0.00      0.00      88.1     0.40      1013.4     0.1       S   185   0.7       S   184   9.40    267      -53.6
   08/03/2018 05:40      68.0      67.6       71     58.0      0.00      0.00      88.1     0.40      1013.4     0.0       N     0   0.0       S   185   9.40    267      -53.8
   08/03/2018 05:30      68.0      67.6       70     57.6      0.00      0.00      88.1     0.40      1013.3     0.1       S   185   0.9       S   185   9.40    266      -53.9
   08/03/2018 05:20      68.1      67.6       70     57.7      0.00      0.00      88.2     0.40      1013.2     0.3       S   185   1.1       S   184   9.40    266      -53.9
   08/03/2018 05:10      68.5      67.7       69     57.6      0.00      0.00      88.2     0.40      1013.2     0.6       S   182   1.4       S   184   9.40    266      -53.4
   08/03/2018 05:00      68.2      67.6       70     57.9      0.00      0.00      88.2     0.40      1013.1     0.1     SSE   165   0.7     SSE   165   9.40    266      -53.8
   08/03/2018 04:50      68.4      67.8       69     57.4      0.00      0.00      88.3     0.40      1013.0     0.0     SSE   165   0.5     SSE   165   9.40    266      -53.9
   08/03/2018 04:40      68.6      68.1       69     57.6      0.00      0.00      88.3     0.40      1013.0     0.0       N     0   0.0     SSE   165   9.40    266      -54.0
   08/03/2018 04:30      68.7      68.3       69     57.8      0.00      0.00      88.3     0.40      1012.9     0.0       N     0   0.0     SSE   165   9.40    266      -54.0
   08/03/2018 04:20      68.7      68.3       68     57.7      0.00      0.00      88.4     0.40      1012.9     0.1     SSE   165   0.9     SSE   165   9.40    266      -54.7
   08/03/2018 04:10      69.0      68.4       68     57.8      0.00      0.00      88.4     0.40      1012.9     0.2     SSE   165   0.7     SSE   165   9.41    266      -54.8
   08/03/2018 04:00      69.3      68.7       68     58.1      0.00      0.00      88.5     0.40      1012.9     0.0       N     0   0.0     SSE   165   9.41    266      -54.5
   08/03/2018 03:50      69.6      69.0       68     58.1      0.00      0.00      88.5     0.40      1012.8     0.2     SSE   165   1.2     SSE   165   9.41    266      -55.4
   08/03/2018 03:40      69.5      69.0       68     58.3      0.00      0.00      88.5     0.40      1012.8     0.6     SSE   158   1.1     SSE   161   9.41    266      -56.3
   08/03/2018 03:30      69.5      69.2       68     58.3      0.00      0.00      88.6     0.40      1012.9     0.6      SE   145   1.6     SSE   147   9.41    266      -57.1
   08/03/2018 03:20      69.5      69.0       68     58.0      0.00      0.00      88.6     0.40      1012.9     0.2     SSE   167   1.1     SSE   152   9.41    266      -57.3
   08/03/2018 03:10      69.8      69.2       67     58.0      0.00      0.00      88.6     0.40      1012.8     0.2       S   180   0.7       S   180   9.41    266      -57.5
   08/03/2018 03:00      70.0      69.3       65     57.5      0.00      0.00      88.7     0.40      1012.9     0.3       S   179   1.5       S   180   9.41    266      -57.9
   08/03/2018 02:50      70.1      69.7       66     57.9      0.00      0.00      88.7     0.40      1012.9     0.0       S   172   0.6       S   172   9.41    266      -58.6
   08/03/2018 02:40      70.6      69.8       65     57.6      0.00      0.00      88.8     0.40      1013.0     0.4     SSE   167   0.8       S   176   9.41    266      -59.2
   08/03/2018 02:30      70.7      70.1       64     57.6      0.00      0.00      88.7     0.40      1013.1     0.7       S   186   1.3       S   186   9.41    266      -58.4
   08/03/2018 02:20      70.7      70.3       64     57.5      0.00      0.00      88.8     0.40      1013.1     0.6       S   186   1.3       S   186   9.42    266      -58.8
   08/03/2018 02:10      71.3      70.5       63     57.7      0.00      0.00      88.9     0.40      1013.1     0.0       N     0   0.0       S   185   9.42    266      -59.7
   08/03/2018 02:00      71.5      70.9       63     57.7      0.00      0.00      88.9     0.40      1013.2     1.0       S   185   1.4       S   183   9.42    266      -59.7
   08/03/2018 01:50      71.7      71.1       62     57.8      0.00      0.00      88.9     0.40      1013.3     0.5     SSE   168   1.4       S   183   9.42    266      -59.2
   08/03/2018 01:40      71.7      71.2       62     57.7      0.00      0.00      88.9     0.40      1013.3     0.0       N     0   0.0     SSE   166   9.42    266      -60.1
   08/03/2018 01:30      72.2      71.4       61     57.4      0.00      0.00      89.0     0.40      1013.3     0.1     SSE   166   0.8     SSE   166   9.42    266      -60.7
   08/03/2018 01:20      72.5      71.8       60     57.3      0.00      0.00      89.0     0.40      1013.5     0.0     SSE   166   0.8     SSE   166   9.42    266      -60.3
   08/03/2018 01:10      72.9      72.2       59     57.3      0.00      0.00      89.0     0.40      1013.5     0.0       N     0   0.0     SSE   166   9.42    266      -60.2
   08/03/2018 01:00      73.1      72.5       58     57.4      0.00      0.00      89.0     0.40      1013.5     0.0       N     0   0.0     SSE   166   9.42    266      -60.4
   08/03/2018 00:50      73.1      72.5       59     57.6      0.00      0.00      89.0     0.40      1013.6     0.2     SSE   166   0.8     SSE   166   9.43    265      -60.8
   08/03/2018 00:40      73.5      72.7       58     57.6      0.00      0.00      89.1     0.40      1013.7     0.2     SSE   166   1.2     SSE   166   9.43    266      -61.4
   08/03/2018 00:30      73.8      73.1       59     58.0      0.00      0.00      89.1     0.40      1013.7     0.0       N     0   0.0     SSE   166   9.43    265      -61.1
   08/03/2018 00:20      73.6      73.3       60     58.5      0.00      0.00      89.1     0.40      1013.5     0.0     SSE   166   0.5     SSE   166   9.43    265      -61.1
   08/03/2018 00:10      73.6      73.1       60     58.5      0.00      0.00      89.1     0.40      1013.5     0.2       S   170   0.9     SSE   166   9.43    265      -61.8
   08/03/2018 00:00      74.2      73.3       58     57.9      0.00      0.00      89.2     0.40      1013.4     0.0       N     0   0.0       S   177   9.43    265      -62.6
   08/02/2018 23:50      74.6      74.0       58     58.3      0.00      0.00      89.2     0.40      1013.4     0.1       S   177   0.9       S   177   9.43    265      -62.8
   08/02/2018 23:40      75.0      74.2       57     58.2      0.00      0.00      89.2     0.40      1013.3     0.2       S   177   0.7       S   177   9.43    265      -63.6
   08/02/2018 23:30      75.5      74.6       56     58.1      0.00      0.00      89.2     0.40      1013.3     0.3      SE   144   1.5      SE   144   9.44    264      -64.8
   08/02/2018 23:20      76.3      75.3       55     58.3      0.00      0.00      89.2     0.40      1013.2     0.0      SE   144   1.1      SE   144   9.44    264      -65.4
   08/02/2018 23:10      77.0      76.2       54     58.5      0.00      0.00      89.2     0.40      1013.1     0.6      NE    51   1.6     ENE    59   9.44    264      -66.3
   08/02/2018 23:00      77.0      76.5       53     58.5      0.00      0.00      89.2     0.40      1013.1     1.2       N    11   3.0       N     2   9.44    264      -66.7
   08/02/2018 22:50      77.2      76.6       52     58.0      0.00      0.00      89.3     0.40      1013.1     0.4      NE    53   1.9     ENE    71   9.44    264      -67.9
   08/02/2018 22:40      77.5      76.9       51     57.7      0.00      0.00      89.3     0.40      1013.0     0.4     ENE    75   3.1     ENE    74   9.44    264      -68.7
   08/02/2018 22:30      77.9      77.2       50     57.5      0.00      0.00      89.3     0.40      1013.1     0.8     ENE    76   2.3     ENE    59   9.45    264      -69.0
   08/02/2018 22:20      78.2      77.7       49     57.4      0.00      0.00      89.3     0.40      1013.1     1.2     ESE   103   2.5       E    99   9.45    264      -69.9
   08/02/2018 22:10      78.7      78.0       48     57.3      0.00      0.00      89.3     0.40      1013.1     0.8     ESE   105   2.2       E    97   9.45    264      -70.9
   08/02/2018 22:00      79.2      78.5       47     57.1      0.00      0.00      89.3     0.40      1012.9     0.8     ESE   107   1.7     ESE   114   9.45    263      -71.6
   08/02/2018 21:50      79.9      78.9       46     57.0      0.00      0.00      89.3     0.40      1012.8     0.9     ESE   104   2.1       E    86   9.45    263      -72.2
   08/02/2018 21:40      80.1      79.5       45     56.8      0.00      0.00      89.3     0.40      1012.7     0.8       E    88   1.8      SE   130   9.45    263      -73.0
   08/02/2018 21:30      80.6      79.8       45     56.7      0.00      0.00      89.2     0.40      1012.5     1.1       E    90   3.0     ENE    72   9.45    263      -73.6
   08/02/2018 21:20      81.1      80.3       44     56.9      0.00      0.00      89.2     0.40      1012.4     0.7     ESE   123   1.8      SE   135   9.46    263      -74.2
   08/02/2018 21:10      81.5      80.8       44     56.9      0.00      0.00      89.2     0.40      1012.4     0.2     ESE   103   1.5       E    87   9.46    263      -74.7
   08/02/2018 21:00      82.2      81.4       43     57.0      0.00      0.00      89.2     0.40      1012.3     0.5       E    92   1.8       E    90   9.46    263      -74.8
   08/02/2018 20:50      82.9      81.8       42     56.9      0.00      0.00      89.2     0.40      1012.2     0.3       S   176   1.6     SSW   200   9.46    263      -75.2
   08/02/2018 20:40      83.6      82.5       41     57.2      0.00      0.00      89.2     0.40      1012.2     0.2      SE   125   0.8      SE   142   9.47    263      -76.8
   08/02/2018 20:30      84.9      83.4       41     57.6      0.00      0.00      89.2     0.40      1012.1     0.7     ESE   117   1.8      SE   141   9.47    263      -77.6
   08/02/2018 20:20      86.8      84.6       37     56.6      0.00      0.00      89.2     0.40      1012.0     0.4     ESE   113   1.4       E    97   9.47    263      -78.2
   08/02/2018 20:10      86.9      86.3       33     54.0      0.00      0.00      89.2     0.40      1011.8     1.2      NW   322   2.4      NW   308   9.47    263      -78.9
   08/02/2018 20:00      87.4      86.6       32     53.4      0.00      0.00      89.2     0.40      1011.7     1.4     NNW   336   3.2       N   350   9.48    263      -78.3
   08/02/2018 19:50      88.1      87.1       30     52.4      0.00      0.00      89.1     0.40      1011.6     2.2     WNW   301   5.4      NW   317   9.48    262      -76.0
   08/02/2018 19:40      89.0      87.7       28     51.3      0.00      0.00      89.1     0.40      1011.4     2.7      NW   314   6.0      NW   323   9.48    262      -72.2
   08/02/2018 19:30      89.7      88.7       28     51.5      0.00      0.00      89.1     0.40      1011.3     2.2      NW   315   6.3     NNW   332   9.49    262      -65.2
   08/02/2018 19:20      90.1      89.4       27     51.6      0.00      0.00      89.1     0.40      1011.3     2.7     NNW   329   5.1      NW   310   9.49    262      -50.1
   08/02/2018 19:10      90.7      89.9       27     51.6      0.00      0.00      89.0     0.40      1011.2     2.7      NW   312   6.2     NNW   335   9.50    262      -34.8
   08/02/2018 19:00      91.8      90.4       27     52.6      0.00      0.00      89.0     0.40      1011.2     3.4     WNW   300   7.3       W   270   9.50    262      -16.5
   08/02/2018 18:50      92.1      91.5       27     53.0      0.00      0.00      88.9     0.40      1011.2     3.8       W   281   6.8     WSW   251   9.51    262        3.7
   08/02/2018 18:40      92.7      91.8       26     52.1      0.00      0.00      88.9     0.40      1011.1     4.8     WSW   238   7.3     WSW   238   9.51    262       25.6
   08/02/2018 18:30      92.7      91.7       27     53.5      0.00      0.00      88.8     0.40      1011.1     4.4      SW   232   6.7       W   269   9.52    262       46.4
   08/02/2018 18:20      92.1      91.6       28     54.2      0.00      0.00      88.8     0.40      1011.1     3.7       S   188   8.1     SSW   209   9.52    262       68.1
   08/02/2018 18:10      92.1      91.5       29     54.7      0.00      0.00      88.8     0.40      1011.1     4.6       S   175   7.2       S   177   9.53    262       91.7
   08/02/2018 18:00      92.7      91.8       29     55.1      0.00      0.00      88.7     0.40      1011.1     4.7       S   174   8.7     SSW   195   9.53    262      118.1
   08/02/2018 17:50      92.8      91.8       29     55.6      0.00      0.00      88.7     0.40      1011.0     5.1       S   183   9.2       S   182   9.54    262      143.5
   08/02/2018 17:40      92.9      91.8       29     55.8      0.00      0.00      88.6     0.40      1011.0     5.3       S   172   9.4      SE   140   9.55    262      168.2
   08/02/2018 17:30      93.0      91.9       29     55.5      0.00      0.00      88.6     0.40      1011.0     6.1     SSE   165  10.3     SSW   201   9.55    262      191.8
   08/02/2018 17:20      94.5      92.7       28     55.5      0.00      0.00      88.5     0.40      1011.0     5.3     SSE   166  10.1       S   182   9.56    262      213.5
   08/02/2018 17:10      94.4      93.7       27     55.5      0.00      0.00      88.4     0.40      1011.2     3.9     SSE   169   8.3      SE   141   9.57    262      236.4
   08/02/2018 17:00      94.1      93.3       27     55.2      0.00      0.00      88.4     0.40      1011.3     5.2       S   183   8.9       S   183   9.57    262      261.4
   08/02/2018 16:50      94.3      93.3       27     54.9      0.00      0.00      88.3     0.40      1011.3     5.0     SSE   163   8.2       S   180   9.58    262      283.8
   08/02/2018 16:40      95.0      93.8       26     54.5      0.00      0.00      88.3     0.40      1011.3     4.7       S   188   9.3       S   181   9.59    262      304.4
   08/02/2018 16:30      95.0      94.0       26     54.4      0.00      0.00      88.2     0.40      1011.4     4.4     SSE   157   8.4      SE   141   9.59    262      324.3
   08/02/2018 16:20      95.4      94.4       25     53.9      0.00      0.00      88.2     0.40      1011.5     5.0       S   181   8.0       S   187   9.60    262      343.7
   08/02/2018 16:10      95.7      95.1       24     53.4      0.00      0.00      88.1     0.40      1011.5     4.4     SSE   167   8.1     SSW   209   9.61    262      362.8
   08/02/2018 16:00      96.3      95.0       24     53.3      0.00      0.00      88.0     0.40      1011.6     4.0     SSE   169   9.3     SSW   193   9.61    262      383.1
   08/02/2018 15:50      97.1      95.5       24     53.2      0.00      0.00      88.0     0.40      1011.6     4.7       S   169  10.3      SE   138   9.61    261      400.3
   08/02/2018 15:40      96.7      95.4       24     53.0      0.00      0.00      87.9     0.40      1011.7     3.7     SSE   167   8.0     ESE   118   9.62    262      416.3
   08/02/2018 15:30      96.6      95.1       23     51.8      0.00      0.00      87.9     0.40      1011.8     4.6       W   264  11.4       W   274   9.63    262      431.5
   08/02/2018 15:20      96.3      95.6       24     53.1      0.00      0.00      87.7     0.40      1012.0     3.6     WSW   241   7.8      SW   236   9.63    262      448.5
   08/02/2018 15:10      96.3      95.6       23     52.8      0.00      0.00      87.8     0.40      1012.1     5.1      SW   220   9.1     WSW   257   9.64    262      462.7
   08/02/2018 15:00      97.1      95.1       23     51.9      0.00      0.00      87.7     0.40      1012.2     4.7     SSE   157   8.6     SSE   166   9.64    262      472.8
   08/02/2018 14:50      97.0      96.2       22     51.5      0.00      0.00      87.6     0.40      1012.3     3.7     WNW   287   7.3       W   273   9.65    261      482.6
   08/02/2018 14:40      96.4      95.0       23     51.5      0.00      0.00      87.5     0.40      1012.4     4.1       S   171   7.2      SE   132   9.65    262      499.2
   08/02/2018 14:30      95.5      94.2       23     51.6      0.00      0.00      87.5     0.40      1012.5     5.3       S   179   8.6     SSE   156   9.66    262      510.8
   08/02/2018 14:20      95.7      94.4       24     52.0      0.00      0.00      87.5     0.40      1012.6     5.9     SSW   211  10.1     SSW   211   9.66    262      517.9
   08/02/2018 14:10      95.7      93.9       24     52.8      0.00      0.00      87.4     0.40      1012.7     4.6       S   191   8.8     SSW   212   9.66    261      523.9
   08/02/2018 14:00      94.4      93.4       25     52.7      0.00      0.00      87.4     0.40      1012.9     5.7      SW   220  10.6      SW   229   9.67    262      532.4
   08/02/2018 13:50      95.0      92.7       25     52.6      0.00      0.00      87.3     0.40      1013.0     3.0     SSW   211   9.4     SSW   210   9.68    261      533.0
   08/02/2018 13:40      94.4      92.6       25     52.7      0.00      0.00      87.3     0.40      1013.2     3.8     SSW   207   7.7     SSW   203   9.68    262      542.1
   08/02/2018 13:30      94.5      93.8       25     52.7      0.00      0.00      87.2     0.40      1013.3     3.9       S   179   7.5      SW   224   9.68    261      550.2
   08/02/2018 13:20      94.3      93.5       25     53.1      0.00      0.00      87.2     0.40      1013.4     2.9     SSE   159   7.0     SSW   202   9.68    262      554.6
   08/02/2018 13:10      95.3      93.4       25     53.3      0.00      0.00      87.2     0.40      1013.3     7.4      SW   229  19.1      SW   232   9.69    262      559.9
   08/02/2018 13:00      95.1      92.8       26     54.1      0.00      0.00      87.2     0.40      1013.5     2.1     NNE    32   7.8     NNW   343   9.69    261      552.4
   08/02/2018 12:50      93.3      91.9       29     55.4      0.00      0.00      87.1     0.40      1013.6     2.0       E    98   4.4      SE   143   9.70    261      556.2
   08/02/2018 12:40      93.6      92.4       29     55.7      0.00      0.00      87.1     0.40      1013.7     2.8      SE   127   6.9      SE   132   9.70    262      556.3
   08/02/2018 12:30      93.8      92.8       29     56.1      0.00      0.00      87.1     0.40      1013.8     2.3     SSE   168   5.6      SE   135   9.70    262      554.7
   08/02/2018 12:20      93.1      90.9       29     54.9      0.00      0.00      87.1     0.40      1013.7     2.8      NE    52   6.3     ENE    66   9.70    262      549.4
   08/02/2018 12:10      91.4      90.7       31     55.9      0.00      0.00      87.1     0.40      1013.8     3.5      NE    35   6.6     NNE    29   9.70    262      545.6
   08/02/2018 12:00      91.5      90.7       31     56.4      0.00      0.00      87.1     0.40      1013.9     3.0      NE    52   6.0       E    88   9.71    262      539.5
   08/02/2018 11:50      91.7      90.0       32     56.7      0.00      0.00      87.1     0.40      1014.0     2.8      NE    46   6.5     ENE    75   9.71    262      530.4
   08/02/2018 11:40      90.2      89.1       32     56.1      0.00      0.00      87.1     0.40      1014.1     3.1      NE    37   5.8     NNE    33   9.71    262      521.0
   08/02/2018 11:30      90.1      88.7       32     55.7      0.00      0.00      87.1     0.40      1014.1     3.6      NE    46   7.9      NE    40   9.71    263      515.8
   08/02/2018 11:20      89.8      89.0       32     55.6      0.00      0.00      87.0     0.40      1014.1     2.4     NNE    17   6.8     NNE    17   9.71    262      505.1
   08/02/2018 11:10      89.1      87.6       33     55.5      0.00      0.00      87.1     0.40      1014.1     2.0     ENE    64   3.8     ENE    78   9.71    262      469.0
   08/02/2018 11:00      88.8      87.6       33     55.6      0.00      0.00      87.1     0.40      1014.1     2.3      NE    46   5.7       N     0   9.71    261      406.7
   08/02/2018 10:50      88.7      87.7       33     55.5      0.00      0.00      87.2     0.40      1014.1     1.7      NE    49   5.0     NNW   341   9.71    262      473.6
   08/02/2018 10:40      87.9      86.9       34     55.5      0.00      0.00      87.2     0.40      1014.1     1.8      NE    41   4.3     NNE    16   9.71    262      458.1
   08/02/2018 10:30      87.4      86.4       35     55.9      0.00      0.00      87.2     0.40      1014.1     1.9     NNE    31   4.1     ENE    77   9.71    262      444.6
   08/02/2018 10:20      87.0      84.8       36     56.0      0.00      0.00      87.3     0.40      1014.1     1.4      NE    44   4.3       N     3   9.71    262      425.4
   08/02/2018 10:10      85.0      83.6       38     56.1      0.00      0.00      87.3     0.40      1014.1     1.6       N    11   4.8     NNW   342   9.71    263      413.0
   08/02/2018 10:00      84.0      82.8       40     56.4      0.00      0.00      87.3     0.40      1014.1     1.6     NNE    15   2.7     NNE    24   9.71    263      390.6
   08/02/2018 09:50      83.1      82.2       41     56.2      0.00      0.00      87.3     0.40      1014.1     1.4       N   350   3.4       N   353   9.71    263      357.2
   08/02/2018 09:40      82.4      81.6       41     56.1      0.00      0.00      87.4     0.40      1014.1     1.5       N   351   3.7     NNE    12   9.71    263      304.8
   08/02/2018 09:30      81.8      80.6       42     56.2      0.00      0.00      87.4     0.41      1014.2     1.5     NNE    26   3.0       N     3   9.71    263      303.8
   08/02/2018 09:20      81.7      80.7       43     56.8      0.00      0.00      87.4     0.41      1014.2     2.0     NNE    12   4.3     NNW   343   9.71    263      257.7
   08/02/2018 09:10      81.1      79.0       46     57.2      0.00      0.00      87.5     0.41      1014.2     1.2     NNE    22   3.1     ENE    73   9.71    263      314.2
   08/02/2018 09:00      79.3      77.9       48     57.2      0.00      0.00      87.5     0.41      1014.3     2.2      NE    41   4.8     ENE    72   9.71    263      301.5
   08/02/2018 08:50      78.2      76.9       51     57.7      0.00      0.00      87.6     0.41      1014.4     1.2      NE    43   3.2      NE    53   9.71    264      254.8
   08/02/2018 08:40      77.2      76.6       52     57.7      0.00      0.00      87.6     0.41      1014.3     1.3      NE    43   2.6       N     5   9.71    265       49.2
   08/02/2018 08:30      76.8      75.9       53     58.1      0.00      0.00      87.7     0.41      1014.3     0.6      NE    55   2.5       N   353   9.71    266       17.8
   08/02/2018 08:20      76.2      75.3       55     58.4      0.00      0.00      87.7     0.41      1014.2     1.1      NE    48   2.6     NNE    26   9.54    266       11.5
   08/02/2018 08:10      75.5      74.9       56     58.7      0.00      0.00      87.7     0.41      1014.3     0.9      NE    52   2.3      NE    52   8.60    266        5.2
   08/02/2018 08:00      75.1      74.3       58     59.0      0.00      0.00      87.8     0.41      1014.2     1.4       E    85   3.2       E    92   8.60    266        8.3
   08/02/2018 07:50      74.7      73.9       59     59.0      0.00      0.00      87.8     0.41      1014.2     0.9     ESE   113   2.6       E    99   8.60    266       -0.8
   08/02/2018 07:40      74.2      73.2       60     58.8      0.00      0.00      87.9     0.41      1014.1     0.1      SE   131   0.8     ESE   119   8.60    266       -6.6
   08/02/2018 07:30      73.3      71.9       61     58.5      0.00      0.00      87.9     0.41      1014.0     0.2      SE   138   1.1      SE   138   8.60    266      -10.9
   08/02/2018 07:20      72.0      70.7       64     58.5      0.00      0.00      87.9     0.41      1014.0     0.4      SE   138   1.1      SE   138   8.60    266      -13.3
   08/02/2018 07:10      70.9      69.8       66     58.3      0.00      0.00      88.0     0.41      1014.0     0.2      SE   138   0.7      SE   138   8.60    266      -18.8
   08/02/2018 07:00      70.0      69.3       66     57.6      0.00      0.00      88.0     0.41      1013.9     0.0      SE   138   0.4      SE   138   8.60    266      -26.5
   08/02/2018 06:50      69.5      68.9       68     58.0      0.00      0.00      88.0     0.41      1013.8     0.0       N     0   0.0      SE   138   8.60    266      -34.3
   08/02/2018 06:40      69.3      68.9       69     58.3      0.00      0.00      88.1     0.41      1013.7     0.0      SE   138   0.9      SE   138   8.60    266      -39.1
   08/02/2018 06:30      69.2      68.7       70     58.6      0.00      0.00      88.1     0.41      1013.7     0.0      SE   138   0.6      SE   138   8.60    266      -39.6
   08/02/2018 06:20      69.1      68.7       70     58.5      0.00      0.00      88.2     0.41      1013.5     0.4      SE   138   1.1      SE   138   8.60    266      -45.6
   08/02/2018 06:10      69.4      68.7       68     58.1      0.00      0.00      88.2     0.41      1013.5     0.3      SE   138   0.9      SE   138   8.60    266      -50.7
   08/02/2018 06:00      69.2      68.7       70     58.5      0.00      0.00      88.2     0.41      1013.4     0.1      SE   138   0.6      SE   138   8.60    266      -50.5
   08/02/2018 05:50      69.1      68.6       69     58.3      0.00      0.00      88.3     0.41      1013.3     0.0      SE   138   0.4      SE   138   8.60    266      -49.3
   08/02/2018 05:40      69.0      68.7       69     58.4      0.00      0.00      88.3     0.41      1013.3     0.0      SE   138   0.3      SE   138   8.60    266      -49.5
   08/02/2018 05:30      69.1      68.5       69     58.1      0.00      0.00      88.3     0.41      1013.3     0.6      SE   138   1.3      SE   138   8.60    266      -52.9
   08/02/2018 05:20      69.0      68.6       69     58.0      0.00      0.00      88.4     0.41      1013.2     0.0      SE   137   0.4      SE   138   8.60    266      -54.2
   08/02/2018 05:10      69.0      68.6       68     57.7      0.00      0.00      88.4     0.41      1013.1     0.3      SE   142   1.3      SE   138   8.60    266      -55.2
   08/02/2018 05:00      69.3      68.7       68     57.8      0.00      0.00      88.4     0.41      1013.0     0.2     SSE   149   1.1     SSE   149   8.60    266      -55.2
   08/02/2018 04:50      69.6      69.1       67     57.7      0.00      0.00      88.5     0.41      1012.9     0.0     SSE   149   0.5     SSE   149   8.60    266      -55.3
   08/02/2018 04:40      69.7      69.2       67     57.9      0.00      0.00      88.5     0.41      1012.9     0.2     SSE   149   0.8     SSE   149   8.60    266      -55.4
   08/02/2018 04:30      69.9      69.4       66     57.7      0.00      0.00      88.5     0.41      1013.0     0.0     SSE   149   0.4     SSE   149   8.60    266      -56.2
   08/02/2018 04:20      70.4      69.7       65     57.6      0.00      0.00      88.6     0.41      1012.9     0.6       S   181   1.6     SSW   211   8.60    266      -56.3
   08/02/2018 04:10      70.2      69.8       65     57.5      0.00      0.00      88.6     0.41      1013.0     0.8       S   184   2.0     SSE   168   8.61    266      -55.8
   08/02/2018 04:00      70.6      69.9       63     57.0      0.00      0.00      88.7     0.41      1013.1     0.4     SSE   165   1.7       S   174   8.61    266      -55.0
   08/02/2018 03:50      70.7      70.1       62     57.0      0.00      0.00      88.7     0.41      1013.1     0.1      SE   135   0.7      SE   135   8.61    266      -54.8
   08/02/2018 03:40      70.8      70.4       62     57.0      0.00      0.00      88.7     0.41      1013.2     0.0       N     0   0.0      SE   135   8.61    266      -54.6
   08/02/2018 03:30      70.8      70.5       62     56.9      0.00      0.00      88.7     0.41      1013.2     0.0      SE   135   0.5      SE   135   8.61    266      -56.0
   08/02/2018 03:20      71.1      70.5       62     57.0      0.00      0.00      88.8     0.41      1013.4     0.0      SE   135   0.6      SE   135   8.61    266      -55.6
   08/02/2018 03:10      71.5      70.7       62     57.2      0.00      0.00      88.8     0.41      1013.4     0.0       N     0   0.0      SE   135   8.61    266      -55.8
   08/02/2018 03:00      71.8      71.0       61     57.1      0.00      0.00      88.8     0.41      1013.5     0.0       N     0   0.0      SE   135   8.61    266      -56.3
   08/02/2018 02:50      72.2      71.4       60     57.1      0.00      0.00      88.8     0.41      1013.6     0.0       N     0   0.0      SE   135   8.61    266      -57.5
   08/02/2018 02:40      72.4      71.9       60     57.3      0.00      0.00      88.9     0.41      1013.7     0.3      SE   136   1.3      SE   137   8.62    265      -58.4
   08/02/2018 02:30      72.8      72.2       59     57.4      0.00      0.00      88.9     0.41      1013.7     0.6     ESE   115   1.9      SE   139   8.62    266      -58.6
   08/02/2018 02:20      73.0      72.5       59     57.6      0.00      0.00      88.9     0.41      1013.7     0.2     ENE    61   1.5     ENE    68   8.62    265      -58.6
   08/02/2018 02:10      73.0      72.5       60     58.2      0.00      0.00      88.9     0.41      1013.7     0.4     ENE    61   2.0     ENE    69   8.62    266      -58.1
   08/02/2018 02:00      73.0      72.5       62     58.9      0.00      0.00      88.9     0.41      1013.8     0.6       E    91   2.0       E    81   8.62    266      -57.8
   08/02/2018 01:50      73.3      72.7       62     59.0      0.00      0.00      89.0     0.41      1013.8     0.6     ESE   124   0.9       E    99   8.62    265      -58.0
   08/02/2018 01:40      73.5      73.0       61     59.2      0.00      0.00      89.0     0.41      1013.7     0.2     ESE   120   1.1       E    98   8.62    265      -58.3
   08/02/2018 01:30      73.8      73.2       61     59.0      0.00      0.00      89.0     0.41      1013.7     0.4      SE   142   1.5     SSE   151   8.62    265      -58.8
   08/02/2018 01:20      73.8      73.4       60     59.0      0.00      0.00      89.0     0.41      1013.7     0.1     ENE    58   0.8      NE    48   8.62    265      -58.7
   08/02/2018 01:10      74.1      73.5       60     59.0      0.00      0.00      89.0     0.41      1013.8     0.6       E    96   2.7       E    93   8.62    264      -58.6
   08/02/2018 01:00      74.5      73.8       59     59.0      0.00      0.00      89.1     0.41      1013.9     0.4       E   100   1.8       N   355   8.63    265      -59.3
   08/02/2018 00:50      74.7      74.2       59     59.0      0.00      0.00      89.1     0.41      1013.9     0.7      NE    48   1.5      NE    46   8.63    264      -59.9
   08/02/2018 00:40      74.7      74.2       59     59.1      0.00      0.00      89.1     0.41      1013.9     1.1      NE    55   2.3     NNE    33   8.63    264      -60.2
   08/02/2018 00:30      75.2      74.4       59     59.5      0.00      0.00      89.2     0.41      1014.0     1.4     ENE    61   3.8       E    84   8.63    264      -60.5
   08/02/2018 00:20      75.5      74.9       58     59.5      0.00      0.00      89.2     0.41      1014.2     1.3      NE    46   3.3      NE    43   8.63    264      -61.3
   08/02/2018 00:10      75.8      75.3       57     59.2      0.00      0.00      89.1     0.41      1014.2     1.8      NE    53   3.4      NE    50   8.63    264      -61.7
   08/02/2018 00:00      76.4      75.6       56     59.0      0.00      0.00      89.2     0.41      1014.1     1.9      NE    47   3.4       E    93   8.63    264      -62.4
   08/01/2018 23:50      77.5      76.2       54     58.9      0.00      0.00      89.2     0.41      1014.2     2.2      NE    47   4.3     ENE    60   8.63    263      -62.7
   08/01/2018 23:40      78.1      77.0       51     58.2      0.00      0.00      89.2     0.41      1014.0     1.8      NE    54   3.2     ENE    70   8.64    263      -63.2
   08/01/2018 23:30      78.9      77.8       49     57.8      0.00      0.00      89.2     0.41      1014.0     1.6      NE    55   2.8     ESE   118   8.64    263      -63.6
   08/01/2018 23:20      79.6      78.6       47     56.9      0.00      0.00      89.3     0.41      1013.8     1.3      NE    51   2.8      NE    45   8.64    263      -64.0
   08/01/2018 23:10      80.2      79.3       36     50.3      0.00      0.00      89.3     0.41      1013.7     0.3      NE    54   2.1      NE    51   8.64    263      -63.5
   08/01/2018 23:00      81.2      79.9       30     46.1      0.00      0.00      89.3     0.41      1013.6     0.8       S   171   1.7      NE    50   8.64    262      -63.1
   08/01/2018 22:50      81.5      81.0       29     46.0      0.00      0.00      89.3     0.41      1013.5     1.2     SSW   212   1.7       S   176   8.64    262      -63.1
   08/01/2018 22:40      81.8      81.2       28     45.6      0.00      0.00      89.3     0.41      1013.5     1.7     SSW   207   2.3      SW   228   8.64    262      -64.6
   08/01/2018 22:30      82.4      81.5       28     45.1      0.00      0.00      89.3     0.41      1013.5     1.6      SW   214   2.5     WSW   251   8.65    262      -64.4
   08/01/2018 22:20      82.5      82.2       27     45.1      0.00      0.00      89.3     0.41      1013.3     1.6      SW   220   4.3      SW   214   8.65    262      -66.2
   08/01/2018 22:10      82.9      82.2       27     45.1      0.00      0.00      89.3     0.41      1013.3     2.3     SSW   200   4.2     SSW   205   8.65    262      -66.6
   08/01/2018 22:00      83.4      82.6       26     44.8      0.00      0.00      89.3     0.41      1013.2     2.0     SSW   210   3.9      SW   220   8.65    262      -66.7
   08/01/2018 21:50      84.2      83.1       26     45.1      0.00      0.00      89.2     0.41      1013.2     2.1      SW   227   3.8     WSW   242   8.66    262      -67.3
   08/01/2018 21:40      84.7      83.8       25     44.9      0.00      0.00      89.3     0.41      1013.0     2.5     WSW   245   4.2       W   279   8.66    262      -67.6
   08/01/2018 21:30      85.2      84.4       24     43.8      0.00      0.00      89.2     0.41      1013.0     3.1      SW   236   4.8      SW   228   8.66    261      -68.4
   08/01/2018 21:20      85.9      84.9       23     43.3      0.00      0.00      89.2     0.41      1012.9     3.8     WSW   241   7.2      SW   233   8.66    261      -68.8
   08/01/2018 21:10      86.7      85.5       22     42.8      0.00      0.00      89.2     0.41      1012.7     3.4     WSW   242   6.2     WSW   237   8.67    261      -69.5
   08/01/2018 21:00      86.7      86.3       21     41.8      0.00      0.00      89.2     0.41      1012.7     2.3     WSW   258   4.5     WSW   243   8.67    261      -70.1
   08/01/2018 20:50      86.4      86.0       25     46.2      0.00      0.00      89.2     0.41      1012.7     2.8       W   269   4.8      SW   217   8.68    262      -70.7
   08/01/2018 20:40      86.5      85.9       27     48.2      0.00      0.00      89.2     0.41      1012.5     1.5     WNW   291   3.5     NNW   326   8.68    262      -71.7
   08/01/2018 20:30      86.9      86.3       26     47.7      0.00      0.00      89.1     0.41      1012.4     2.5      NW   312   4.3     WNW   300   8.69    262      -72.6
   08/01/2018 20:20      87.9      86.7       25     47.3      0.00      0.00      89.1     0.41      1012.3     2.8      NW   317   5.0      NW   309   8.69    262      -73.8
   08/01/2018 20:10      88.3      87.5       24     46.7      0.00      0.00      89.1     0.41      1012.2     1.3     WNW   287   3.0     WNW   287   8.70    262      -74.4
   08/01/2018 20:00      88.9      88.2       24     46.6      0.00      0.00      89.1     0.41      1012.1     1.7      NW   310   6.1     WNW   301   8.70    261      -73.5
   08/01/2018 19:50      90.0      88.8       23     46.4      0.00      0.00      89.1     0.41      1012.0     2.5      NW   306   5.0       W   270   8.70    261      -70.8
   08/01/2018 19:40      90.4      89.6       22     46.0      0.00      0.00      89.0     0.41      1012.0     2.0     WNW   292   5.2     WSW   238   8.71    261      -65.6
   08/01/2018 19:30      91.3      90.1       22     46.0      0.00      0.00      89.0     0.41      1011.9     3.2      NW   308   5.7     WNW   289   8.72    261      -58.8
   08/01/2018 19:20      92.8      91.0       21     45.9      0.00      0.00      88.9     0.41      1011.8     3.6      NW   314   6.1      NW   312   8.72    261      -46.3
   08/01/2018 19:10      94.4      92.4       20     46.6      0.00      0.00      88.9     0.41      1011.7     2.4      NW   310   6.2     WNW   297   8.72    261      -31.4
   08/01/2018 19:00      94.5      94.0       21     47.9      0.00      0.00      88.9     0.41      1011.6     2.0     WNW   286   6.1       W   277   8.73    261      -11.9
   08/01/2018 18:50      94.3      93.8       23     50.2      0.00      0.00      88.9     0.41      1011.6     3.6     WNW   289   6.3       W   263   8.73    261       12.3
   08/01/2018 18:40      94.9      93.8       25     53.5      0.00      0.00      88.8     0.41      1011.4     5.3     SSW   212   7.8       S   181   8.74    262       35.9
   08/01/2018 18:30      95.4      94.6       25     54.0      0.00      0.00      88.8     0.41      1011.4     4.7      SW   233   7.6      SW   222   8.75    261       58.9
   08/01/2018 18:20      96.4      95.1       25     53.7      0.00      0.00      88.7     0.41      1011.4     5.3     WSW   236   7.9      SW   231   8.75    261       81.3
   08/01/2018 18:10      96.5      95.6       24     52.9      0.00      0.00      88.7     0.41      1011.4     4.5     WSW   239   8.5       W   265   8.76    261      102.4
   08/01/2018 18:00      97.1      95.9       25     54.3      0.00      0.00      88.6     0.41      1011.5     5.3     WSW   240  10.0     WSW   250   8.77    261      127.4
   08/01/2018 17:50      97.4      96.3       23     53.4      0.00      0.00      88.6     0.41      1011.4     4.4     WSW   246   7.8       W   266   8.77    261      151.6
   08/01/2018 17:40      97.8      96.6       23     53.7      0.00      0.00      88.5     0.41      1011.4     5.0     WSW   249   9.1     WSW   240   8.78    261      176.7
   08/01/2018 17:30      97.8      96.6       23     53.4      0.00      0.00      88.5     0.41      1011.4     5.6      SW   230   9.0     WSW   252   8.78    261      199.7
   08/01/2018 17:20      98.1      96.9       23     53.0      0.00      0.00      88.4     0.41      1011.4     5.1     WSW   241   8.9     WSW   246   8.79    261      228.7
   08/01/2018 17:10      97.9      96.4       24     53.7      0.00      0.00      88.3     0.41      1011.5     6.2     WSW   240   9.4     WSW   242   8.79    261      256.2
   08/01/2018 17:00      98.2      96.9       23     53.4      0.00      0.00      88.3     0.41      1011.5     6.4     WSW   249   9.7       W   266   8.80    261      258.9
   08/01/2018 16:50      98.8      97.7       23     53.5      0.00      0.00      88.2     0.41      1011.5     6.1     WSW   256  10.9     WSW   246   8.81    261      298.1
   08/01/2018 16:40      98.8      98.0       22     53.2      0.00      0.00      88.2     0.41      1011.6     5.7      SW   233   9.0     WSW   259   8.82    261      315.3
   08/01/2018 16:30      98.8      97.5       23     53.9      0.00      0.00      88.1     0.41      1011.7     4.9     WSW   240   8.6     WSW   244   8.82    261      334.8
   08/01/2018 16:20      99.1      97.7       23     54.1      0.00      0.00      88.0     0.41      1011.8     7.0       W   262  10.9     WNW   303   8.83    261      355.5
   08/01/2018 16:10      99.0      98.1       22     53.5      0.00      0.00      88.0     0.41      1011.8     5.5     WSW   239   9.2     SSW   212   8.84    261      370.7
   08/01/2018 16:00      99.4      98.1       22     53.1      0.00      0.00      87.9     0.41      1011.9     6.5     WSW   238  12.6     WSW   242   8.85    261      391.8
   08/01/2018 15:50      99.9      98.9       21     53.1      0.00      0.00      87.9     0.41      1012.0     6.3     WSW   254  10.3     WSW   237   8.85    261      403.1
   08/01/2018 15:40     100.2      99.3       21     53.1      0.00      0.00      87.8     0.41      1012.0     5.5       W   267  11.2     WSW   252   8.86    261      417.2
   08/01/2018 15:30     100.6      99.6       22     54.5      0.00      0.00      87.7     0.41      1012.0     5.1      SW   229   9.9      SW   228   8.87    261      431.6
   08/01/2018 15:20     101.2      99.6       22     54.7      0.00      0.00      87.6     0.41      1012.0     5.7     WSW   253   9.6     WSW   244   8.87    261      443.2
   08/01/2018 15:10     102.2     100.9       21     54.0      0.00      0.00      87.5     0.41      1012.0     4.3      NW   307   9.0       W   269   8.88    261      450.5
   08/01/2018 15:00     102.6     101.4       20     53.5      0.00      0.00      87.5     0.41      1012.2     4.0     NNW   342   9.6      NW   318   8.89    261      459.4
   08/01/2018 14:50     102.3     100.7       21     54.3      0.00      0.00      87.5     0.41      1012.3     1.9      NW   307   6.9      NW   315   8.89    262      468.4
   08/01/2018 14:40     102.1     101.2       21     54.5      0.00      0.00      87.4     0.41      1012.5     1.8     NNE    14   4.3      NW   304   8.89    261      481.3
   08/01/2018 14:30     101.9     101.3       21     54.1      0.00      0.00      87.3     0.41      1012.6     2.2     NNE    29   4.7     NNE    13   8.90    261      491.0
   08/01/2018 14:20     101.7      99.3       21     54.0      0.00      0.00      87.3     0.41      1012.7     2.0     ENE    62   4.3     ENE    67   8.90    261      504.7
   08/01/2018 14:10     100.4      98.7       22     53.7      0.00      0.00      87.2     0.41      1012.9     2.3       E    83   5.5     ENE    68   8.90    261      514.9
   08/01/2018 14:00     100.1      98.9       22     53.8      0.00      0.00      87.1     0.41      1013.0     2.5      NE    34   5.1       N     0   8.91    261      521.8
   08/01/2018 13:50      99.2      98.3       22     53.7      0.00      0.00      87.1     0.41      1013.1     3.7     NNE    23   6.6      NE    45   8.91    261      527.3
   08/01/2018 13:40      98.8      97.8       23     53.7      0.00      0.00      87.1     0.41      1013.2     2.7     ENE    57   6.8       E    83   8.91    261      536.2
   08/01/2018 13:30      98.6      97.3       23     53.8      0.00      0.00      86.9     0.41      1013.4     2.6       E    82   6.5      SE   137   8.91    261      539.2
   08/01/2018 13:20      98.4      96.1       23     53.5      0.00      0.00      87.0     0.41      1013.5     2.8     NNE    13   6.6      NE    34   8.92    261      542.1
   08/01/2018 13:10      97.0      95.9       23     53.1      0.00      0.00      86.9     0.41      1013.6     2.8      NE    45   5.7     ESE   105   8.92    261      547.9
   08/01/2018 13:00      96.3      94.8       24     52.9      0.00      0.00      86.9     0.41      1013.7     2.6      NE    37   5.6     NNE    22   8.92    261      552.9
   08/01/2018 12:50      95.7      94.8       24     53.1      0.00      0.00      86.9     0.41      1013.9     3.3       E    99   6.0       E    97   8.92    261      557.4
   08/01/2018 12:40      95.5      94.0       25     53.2      0.00      0.00      86.9     0.41      1014.0     3.0     ENE    78   6.5     ENE    72   8.92    261      555.1
   08/01/2018 12:30      95.0      94.3       25     53.2      0.00      0.00      86.8     0.41      1014.1     3.1     ENE    59   6.8       E    82   8.93    261      548.0
   08/01/2018 12:20      95.4      94.3       25     53.4      0.00      0.00      86.8     0.41      1014.1     3.1     ENE    78   6.9     ENE    76   8.93    261      546.3
   08/01/2018 12:10      95.4      94.7       24     52.8      0.00      0.00      86.8     0.41      1014.3     2.6      NE    48   5.2     ENE    57   8.93    261      539.0
   08/01/2018 12:00      95.0      93.9       24     52.3      0.00      0.00      86.9     0.41      1014.3     3.0      NE    46   5.0      NE    50   8.93    261      535.8
   08/01/2018 11:50      94.5      93.9       24     51.8      0.00      0.00      86.8     0.41      1014.5     2.7     ENE    65   6.0      SE   134   8.94    261      529.3
   08/01/2018 11:40      94.3      93.4       23     50.7      0.00      0.00      86.9     0.41      1014.7     2.1     ENE    60   5.2     ESE   112   8.94    261      522.9
   08/01/2018 11:30      94.2      92.3       23     49.9      0.00      0.00      86.9     0.41      1014.7     2.2     NNE    18   5.0       E   101   8.94    261      511.9
   08/01/2018 11:20      93.5      92.8       22     48.8      0.00      0.00      86.9     0.41      1014.8     2.2     ENE    62   5.3       E    87   8.94    261      502.6
   08/01/2018 11:10      93.1      91.0       23     48.6      0.00      0.00      86.8     0.41      1014.8     1.9       N   357   5.4       N   350   8.94    261      493.9
   08/01/2018 11:00      91.2      90.5       23     48.4      0.00      0.00      86.9     0.41      1014.9     2.0     NNW   343   4.9       N     0   8.94    261      484.2
   08/01/2018 10:50      91.0      90.2       23     48.3      0.00      0.00      86.9     0.41      1014.9     1.9     ESE   102   4.5       S   176   8.95    261      473.5
   08/01/2018 10:40      90.2      89.1       24     48.4      0.00      0.00      86.9     0.41      1014.9     1.9       N     0   4.5     NNE    20   8.95    261      457.5
   08/01/2018 10:30      89.3      88.5       25     48.4      0.00      0.00      86.9     0.41      1014.9     2.2     NNW   344   5.1      SW   215   8.95    261      444.7
   08/01/2018 10:20      89.3      87.9       25     48.6      0.00      0.00      87.0     0.41      1015.0     1.9       N    10   4.0     NNW   349   8.95    261      430.0
   08/01/2018 10:10      87.9      87.2       26     48.3      0.00      0.00      87.0     0.41      1015.0     1.2     WSW   244   3.3      SW   219   8.95    261      415.5
   08/01/2018 10:00      87.8      87.2       26     48.5      0.00      0.00      87.0     0.41      1015.0     1.7      NE    34   3.6     SSE   163   8.95    261      398.1
   08/01/2018 09:50      87.2      86.0       27     48.4      0.00      0.00      87.1     0.41      1015.1     1.3       N   352   3.5     NNW   345   8.95    261      381.2
   08/01/2018 09:40      86.5      84.8       27     47.9      0.00      0.00      87.1     0.41      1015.1     1.2     ENE    76   4.2       N   354   8.95    261      364.6
   08/01/2018 09:30      85.0      83.5       27     46.1      0.00      0.00      87.2     0.41      1015.2     1.5      SE   142   3.2     ESE   118   8.95    261      346.6
   08/01/2018 09:20      84.6      82.9       28     47.6      0.00      0.00      87.2     0.42      1015.3     1.4     ENE    65   3.7     ESE   104   8.95    261      327.8
   08/01/2018 09:10      83.2      81.3       31     48.3      0.00      0.00      87.2     0.42      1015.2     1.2      NE    34   3.0     NNE    31   8.95    262      312.6
   08/01/2018 09:00      81.6      79.9       32     48.4      0.00      0.00      87.3     0.42      1015.1     1.3     NNE    30   2.8       N     9   8.95    262      300.1
   08/01/2018 08:50      80.2      79.4       34     48.8      0.00      0.00      87.3     0.42      1015.1     1.3       N    11   3.3       N     3   8.95    262      254.7
   08/01/2018 08:40      79.8      78.5       35     49.4      0.00      0.00      87.4     0.42      1015.1     0.8     ENE    70   2.0     ESE   114   8.95    263       13.0
   08/01/2018 08:30      78.8      78.2       36     49.4      0.00      0.00      87.4     0.42      1015.1     1.2     NNE    21   2.4       N     4   8.95    263        1.1
   08/01/2018 08:20      78.7      77.8       37     49.8      0.00      0.00      87.4     0.42      1015.2     1.0     NNE    28   2.6     NNE    32   8.95    263       -0.5
   08/01/2018 08:10      78.0      76.9       38     49.7      0.00      0.00      87.5     0.42      1015.1     0.2       E    94   1.8      SE   131   8.95    264       -3.3
   08/01/2018 08:00      77.1      76.2       39     50.2      0.00      0.00      87.5     0.42      1015.1     0.5     ENE    77   2.1       E    94   8.96    264       13.6
   08/01/2018 07:50      76.5      75.7       41     50.4      0.00      0.00      87.5     0.42      1015.1     1.0     NNE    15   2.5       N     0   8.96    264        4.7
   08/01/2018 07:40      75.8      74.7       44     52.2      0.00      0.00      87.6     0.42      1015.1     0.3      NW   307   1.4     NNW   343   8.96    264       -8.6
   08/01/2018 07:30      74.9      74.0       47     53.2      0.00      0.00      87.6     0.42      1015.0     0.3       N     2   2.0       N     5   8.96    264      -12.5
   08/01/2018 07:20      74.2      72.8       48     52.7      0.00      0.00      87.6     0.42      1015.0     0.0       N     2   1.1       N     2   8.96    264      -13.3
   08/01/2018 07:10      73.0      72.0       51     53.5      0.00      0.00      87.7     0.42      1014.9     0.0       N     0   0.0     SSE   148   8.96    265      -17.8
   08/01/2018 07:00      72.2      71.1       54     54.0      0.00      0.00      87.7     0.42      1014.8     0.4     SSE   148   1.1     SSE   148   8.96    265      -23.5
   08/01/2018 06:50      71.3      70.3       55     53.8      0.00      0.00      87.8     0.42      1014.8     0.4     SSE   148   1.0     SSE   148   8.96    265      -27.5
   08/01/2018 06:40      70.5      69.8       56     53.6      0.00      0.00      87.8     0.42      1014.8     0.0     SSE   148   0.7     SSE   148   8.96    265      -30.6
   08/01/2018 06:30      70.0      69.5       56     53.5      0.00      0.00      87.9     0.42      1014.8     0.2     SSE   148   1.2     SSE   148   8.96    265      -38.0
   08/01/2018 06:20      70.0      69.6       57     53.7      0.00      0.00      87.9     0.42      1014.6     0.2     SSE   148   1.0     SSE   148   8.96    265      -42.2
   08/01/2018 06:10      70.3      69.7       57     54.0      0.00      0.00      87.9     0.42      1014.5     0.4     SSE   149   1.4     SSE   148   8.96    265      -45.5
   08/01/2018 06:00      70.5      70.0       56     53.6      0.00      0.00      88.0     0.42      1014.5     0.4     SSE   163   1.7       S   180   8.96    265      -46.7
   08/01/2018 05:50      70.5      70.0       56     53.9      0.00      0.00      88.0     0.42      1014.4     0.0       N     0   0.0      SE   139   8.96    265      -47.3
   08/01/2018 05:40      70.5      70.1       57     54.5      0.00      0.00      88.0     0.42      1014.4     0.6     SSE   153   1.2      SE   144   8.96    265      -48.8
   08/01/2018 05:30      70.4      69.9       57     54.3      0.00      0.00      88.1     0.42      1014.4     0.0       S   183   0.5       S   183   8.96    265      -48.7
   08/01/2018 05:20      70.5      70.0       56     53.8      0.00      0.00      88.1     0.42      1014.3     0.3       S   183   0.9       S   183   8.97    265      -49.1
   08/01/2018 05:10      70.6      70.2       55     53.4      0.00      0.00      88.1     0.42      1014.3     0.2     SSE   157   0.9       S   183   8.97    265      -49.0
   08/01/2018 05:00      70.6      70.1       54     53.0      0.00      0.00      88.2     0.42      1014.3     0.5     SSE   148   1.0       S   172   8.97    265      -49.6
   08/01/2018 04:50      70.5      69.9       54     52.6      0.00      0.00      88.2     0.42      1014.3     0.7      SE   144   1.9      SE   141   8.97    265      -50.5
   08/01/2018 04:40      70.8      70.1       51     51.3      0.00      0.00      88.3     0.42      1014.3     0.2     SSE   162   0.9       S   170   8.97    264      -50.9
   08/01/2018 04:30      70.9      70.5       50     51.1      0.00      0.00      88.3     0.42      1014.3     0.7     SSE   164   1.8       S   177   8.97    264      -51.3
   08/01/2018 04:20      70.7      70.1       51     51.2      0.00      0.00      88.3     0.42      1014.4     1.5     SSE   152   2.3     SSE   148   8.97    264      -51.2
   08/01/2018 04:10      70.9      70.4       50     51.3      0.00      0.00      88.4     0.42      1014.4     0.1       S   175   0.8     SSE   153   8.97    264      -51.1
   08/01/2018 04:00      71.1      70.6       52     52.1      0.00      0.00      88.4     0.42      1014.4     0.0       N     0   0.0       S   183   8.97    264      -51.4
   08/01/2018 03:50      71.5      70.8       52     52.4      0.00      0.00      88.4     0.42      1014.4     0.4       S   171   1.7       S   183   8.97    264      -52.0
   08/01/2018 03:40      71.7      71.1       50     51.6      0.00      0.00      88.5     0.42      1014.4     0.8     SSW   201   1.8     SSW   203   8.97    264      -51.9
   08/01/2018 03:30      71.9      71.2       50     52.2      0.00      0.00      88.5     0.42      1014.5     0.0       N     0   0.0      SE   127   8.98    264      -52.3
   08/01/2018 03:20      72.2      71.5       51     52.9      0.00      0.00      88.5     0.42      1014.5     0.0       N     0   0.0      SE   127   8.98    264      -53.4
   08/01/2018 03:10      72.3      71.8       52     53.3      0.00      0.00      88.5     0.42      1014.6     0.0       N     0   0.0      SE   127   8.98    264      -53.2
   08/01/2018 03:00      72.7      72.0       52     53.7      0.00      0.00      88.5     0.42      1014.7     0.0      SE   127   0.2      SE   126   8.98    264      -54.5
   08/01/2018 02:50      72.8      72.3       52     53.9      0.00      0.00      88.6     0.42      1014.8     0.2      SE   125   0.8     ESE   108   8.98    265      -55.0
   08/01/2018 02:40      72.8      72.4       53     54.5      0.00      0.00      88.5     0.42      1014.8     0.4     ESE   114   1.1     ESE   123   8.98    265      -55.0
   08/01/2018 02:30      73.0      72.4       53     54.7      0.00      0.00      88.6     0.42      1014.8     0.5       E    89   2.1     NNE    30   8.98    265      -54.9
   08/01/2018 02:20      73.1      72.5       54     55.3      0.00      0.00      88.6     0.42      1014.8     0.1     NNE    33   1.2     NNE    29   8.98    265      -55.4
   08/01/2018 02:10      73.6      72.8       54     55.5      0.00      0.00      88.7     0.42      1014.8     0.0       N     0   0.0      NE    54   8.98    264      -55.9
   08/01/2018 02:00      73.6      73.1       54     55.5      0.00      0.00      88.6     0.42      1014.8     0.0     ENE    79   1.3     ENE    60   8.98    264      -56.2
   08/01/2018 01:50      73.7      73.3       53     55.3      0.00      0.00      88.7     0.42      1014.7     0.4     ENE    75   1.8      NE    37   8.98    264      -55.9
   08/01/2018 01:40      74.0      73.4       53     55.3      0.00      0.00      88.7     0.42      1014.7     0.4     ENE    70   2.1     ENE    65   8.99    264      -55.8
   08/01/2018 01:30      74.4      73.7       52     55.3      0.00      0.00      88.8     0.42      1014.7     0.3     ENE    79   1.6      NE    39   8.99    264      -56.5
   08/01/2018 01:20      74.7      74.1       51     55.3      0.00      0.00      88.8     0.42      1014.8     0.6     ENE    61   2.4      NE    39   8.99    264      -56.8
   08/01/2018 01:10      74.9      74.4       51     55.2      0.00      0.00      88.7     0.42      1014.8     1.4      NE    41   3.4     ENE    65   8.99    264      -56.9
   08/01/2018 01:00      74.8      74.5       52     55.7      0.00      0.00      88.8     0.42      1014.8     0.8      NE    46   1.9      NE    46   8.99    264      -57.2
   08/01/2018 00:50      74.8      74.5       51     55.6      0.00      0.00      88.9     0.42      1014.7     1.2      NE    51   2.4      NE    45   8.99    264      -57.2
   08/01/2018 00:40      74.8      74.5       52     55.8      0.00      0.00      88.9     0.42      1014.7     1.0      NE    49   2.7      NE    47   8.99    264      -57.7
   08/01/2018 00:30      75.0      74.6       53     56.5      0.00      0.00      88.9     0.43      1014.7     1.3      NE    52   2.6     ENE    57   8.99    264      -58.3
   08/01/2018 00:20      75.5      74.7       54     57.1      0.00      0.00      88.9     0.42      1014.7     1.4      NE    50   2.6      NE    55   9.00    264      -58.9
   08/01/2018 00:10      75.5      75.0       53     57.1      0.00      0.00      89.0     0.42      1014.8     1.5      NE    45   3.9      NE    53   9.00    264      -59.1
   08/01/2018 00:00      75.8      75.2       53     57.1      0.00      0.00      89.0     0.43      1014.8     2.3      NE    48   3.8      NE    49   9.00    264      -59.7


Back to data home page